<?xml version="1.0" encoding="UTF-8" standalone="no" ?>
<gpx xmlns="http://www.topografix.com/GPX/1/1" xmlns:xsi="http://www.w3.org/2001/XMLSchema-instance" xsi:schemaLocation="http://www.topografix.com/GPX/1/1 http://www.topografix.com/GPX/1/1/gpx.xsd" version="1.1" creator="VisuGPX - https://www.visugpx.com">
  <metadata>
    <name>151125ROBBenjamins</name>
    <desc><![CDATA[excellente sortie]]></desc>
  </metadata>
  <trk>
    <name><![CDATA[151125ROBBenjamins]]></name>
    <trkseg>
      <trkpt lat="43.41581" lon="6.07051">
        <ele>185</ele>
        <time>2015-11-25T12:58:03Z</time>
      </trkpt>
      <trkpt lat="43.41581" lon="6.07054">
        <ele>185.19999694824</ele>
        <time>2015-11-25T12:58:04Z</time>
      </trkpt>
      <trkpt lat="43.41581" lon="6.07059">
        <ele>185.39999389648</ele>
        <time>2015-11-25T12:58:06Z</time>
      </trkpt>
      <trkpt lat="43.41581" lon="6.07066">
        <ele>185.19999694824</ele>
        <time>2015-11-25T12:58:08Z</time>
      </trkpt>
      <trkpt lat="43.41582" lon="6.07074">
        <ele>185.19999694824</ele>
        <time>2015-11-25T12:58:10Z</time>
      </trkpt>
      <trkpt lat="43.41583" lon="6.07083">
        <ele>185.60000610352</ele>
        <time>2015-11-25T12:58:12Z</time>
      </trkpt>
      <trkpt lat="43.41584" lon="6.07092">
        <ele>185.39999389648</ele>
        <time>2015-11-25T12:58:14Z</time>
      </trkpt>
      <trkpt lat="43.41583" lon="6.07098">
        <ele>185</ele>
        <time>2015-11-25T12:58:16Z</time>
      </trkpt>
      <trkpt lat="43.41581" lon="6.07104">
        <ele>185</ele>
        <time>2015-11-25T12:58:18Z</time>
      </trkpt>
      <trkpt lat="43.41576" lon="6.07107">
        <ele>185.19999694824</ele>
        <time>2015-11-25T12:58:20Z</time>
      </trkpt>
      <trkpt lat="43.41572" lon="6.07111">
        <ele>185.19999694824</ele>
        <time>2015-11-25T12:58:22Z</time>
      </trkpt>
      <trkpt lat="43.4157" lon="6.07115">
        <ele>185</ele>
        <time>2015-11-25T12:58:24Z</time>
      </trkpt>
      <trkpt lat="43.41568" lon="6.07118">
        <ele>184.80000305176</ele>
        <time>2015-11-25T12:58:26Z</time>
      </trkpt>
      <trkpt lat="43.41566" lon="6.07121">
        <ele>184.60000610352</ele>
        <time>2015-11-25T12:58:28Z</time>
      </trkpt>
      <trkpt lat="43.41564" lon="6.07123">
        <ele>185</ele>
        <time>2015-11-25T12:58:30Z</time>
      </trkpt>
      <trkpt lat="43.41562" lon="6.07124">
        <ele>185.19999694824</ele>
        <time>2015-11-25T12:58:32Z</time>
      </trkpt>
      <trkpt lat="43.41561" lon="6.07124">
        <ele>185.19999694824</ele>
        <time>2015-11-25T12:58:33Z</time>
      </trkpt>
      <trkpt lat="43.41557" lon="6.0712">
        <ele>184.80000305176</ele>
        <time>2015-11-25T12:58:36Z</time>
      </trkpt>
      <trkpt lat="43.41556" lon="6.07119">
        <ele>185</ele>
        <time>2015-11-25T12:58:37Z</time>
      </trkpt>
      <trkpt lat="43.41551" lon="6.07118">
        <ele>184.80000305176</ele>
        <time>2015-11-25T12:58:40Z</time>
      </trkpt>
      <trkpt lat="43.4155" lon="6.07116">
        <ele>185</ele>
        <time>2015-11-25T12:58:41Z</time>
      </trkpt>
      <trkpt lat="43.41549" lon="6.07114">
        <ele>185.19999694824</ele>
        <time>2015-11-25T12:58:42Z</time>
      </trkpt>
      <trkpt lat="43.41547" lon="6.07109">
        <ele>184.80000305176</ele>
        <time>2015-11-25T12:58:44Z</time>
      </trkpt>
      <trkpt lat="43.41547" lon="6.07106">
        <ele>184.60000610352</ele>
        <time>2015-11-25T12:58:45Z</time>
      </trkpt>
      <trkpt lat="43.41547" lon="6.07099">
        <ele>184.60000610352</ele>
        <time>2015-11-25T12:58:47Z</time>
      </trkpt>
      <trkpt lat="43.41546" lon="6.07092">
        <ele>184.80000305176</ele>
        <time>2015-11-25T12:58:49Z</time>
      </trkpt>
      <trkpt lat="43.41545" lon="6.07088">
        <ele>185.19999694824</ele>
        <time>2015-11-25T12:58:50Z</time>
      </trkpt>
      <trkpt lat="43.41539" lon="6.07077">
        <ele>185.60000610352</ele>
        <time>2015-11-25T12:58:53Z</time>
      </trkpt>
      <trkpt lat="43.41536" lon="6.07076">
        <ele>185.39999389648</ele>
        <time>2015-11-25T12:58:54Z</time>
      </trkpt>
      <trkpt lat="43.41527" lon="6.07076">
        <ele>184.60000610352</ele>
        <time>2015-11-25T12:58:56Z</time>
      </trkpt>
      <trkpt lat="43.41517" lon="6.07079">
        <ele>184.39999389648</ele>
        <time>2015-11-25T12:58:58Z</time>
      </trkpt>
      <trkpt lat="43.41512" lon="6.0708">
        <ele>184.19999694824</ele>
        <time>2015-11-25T12:58:59Z</time>
      </trkpt>
      <trkpt lat="43.41507" lon="6.07081">
        <ele>184</ele>
        <time>2015-11-25T12:59:00Z</time>
      </trkpt>
      <trkpt lat="43.41498" lon="6.07081">
        <ele>183.80000305176</ele>
        <time>2015-11-25T12:59:02Z</time>
      </trkpt>
      <trkpt lat="43.4149" lon="6.07079">
        <ele>183.60000610352</ele>
        <time>2015-11-25T12:59:04Z</time>
      </trkpt>
      <trkpt lat="43.41481" lon="6.07076">
        <ele>184</ele>
        <time>2015-11-25T12:59:06Z</time>
      </trkpt>
      <trkpt lat="43.41475" lon="6.07075">
        <ele>183.60000610352</ele>
        <time>2015-11-25T12:59:08Z</time>
      </trkpt>
      <trkpt lat="43.41471" lon="6.07073">
        <ele>183.80000305176</ele>
        <time>2015-11-25T12:59:10Z</time>
      </trkpt>
      <trkpt lat="43.4147" lon="6.07072">
        <ele>183.80000305176</ele>
        <time>2015-11-25T12:59:12Z</time>
      </trkpt>
      <trkpt lat="43.41469" lon="6.07072">
        <ele>183.39999389648</ele>
        <time>2015-11-25T12:59:14Z</time>
      </trkpt>
      <trkpt lat="43.41469" lon="6.07072">
        <ele>183.39999389648</ele>
        <time>2015-11-25T12:59:15Z</time>
      </trkpt>
      <trkpt lat="43.41469" lon="6.07072">
        <ele>183.19999694824</ele>
        <time>2015-11-25T12:59:18Z</time>
      </trkpt>
      <trkpt lat="43.41469" lon="6.07072">
        <ele>183.39999389648</ele>
        <time>2015-11-25T12:59:20Z</time>
      </trkpt>
      <trkpt lat="43.41469" lon="6.07072">
        <ele>183.19999694824</ele>
        <time>2015-11-25T12:59:24Z</time>
      </trkpt>
      <trkpt lat="43.41469" lon="6.07072">
        <ele>183.39999389648</ele>
        <time>2015-11-25T12:59:26Z</time>
      </trkpt>
      <trkpt lat="43.41468" lon="6.07071">
        <ele>183.39999389648</ele>
        <time>2015-11-25T12:59:32Z</time>
      </trkpt>
      <trkpt lat="43.41469" lon="6.07071">
        <ele>183.39999389648</ele>
        <time>2015-11-25T12:59:34Z</time>
      </trkpt>
      <trkpt lat="43.41468" lon="6.07071">
        <ele>183.39999389648</ele>
        <time>2015-11-25T12:59:36Z</time>
      </trkpt>
      <trkpt lat="43.41469" lon="6.07071">
        <ele>183.19999694824</ele>
        <time>2015-11-25T12:59:38Z</time>
      </trkpt>
      <trkpt lat="43.41469" lon="6.07071">
        <ele>183.19999694824</ele>
        <time>2015-11-25T12:59:42Z</time>
      </trkpt>
      <trkpt lat="43.41469" lon="6.07071">
        <ele>183.19999694824</ele>
        <time>2015-11-25T12:59:44Z</time>
      </trkpt>
      <trkpt lat="43.41469" lon="6.07071">
        <ele>183.39999389648</ele>
        <time>2015-11-25T12:59:46Z</time>
      </trkpt>
      <trkpt lat="43.41469" lon="6.0707">
        <ele>183.39999389648</ele>
        <time>2015-11-25T12:59:48Z</time>
      </trkpt>
      <trkpt lat="43.41468" lon="6.07068">
        <ele>183</ele>
        <time>2015-11-25T12:59:50Z</time>
      </trkpt>
      <trkpt lat="43.41467" lon="6.07065">
        <ele>182.80000305176</ele>
        <time>2015-11-25T12:59:52Z</time>
      </trkpt>
      <trkpt lat="43.41467" lon="6.07065">
        <ele>182.80000305176</ele>
        <time>2015-11-25T12:59:54Z</time>
      </trkpt>
      <trkpt lat="43.41467" lon="6.07065">
        <ele>182.80000305176</ele>
        <time>2015-11-25T12:59:56Z</time>
      </trkpt>
      <trkpt lat="43.41467" lon="6.07064">
        <ele>183</ele>
        <time>2015-11-25T12:59:58Z</time>
      </trkpt>
      <trkpt lat="43.41467" lon="6.07062">
        <ele>183</ele>
        <time>2015-11-25T12:59:59Z</time>
      </trkpt>
      <trkpt lat="43.41467" lon="6.0706">
        <ele>182.80000305176</ele>
        <time>2015-11-25T13:00:00Z</time>
      </trkpt>
      <trkpt lat="43.41468" lon="6.07058">
        <ele>182.80000305176</ele>
        <time>2015-11-25T13:00:01Z</time>
      </trkpt>
      <trkpt lat="43.4147" lon="6.07055">
        <ele>183</ele>
        <time>2015-11-25T13:00:02Z</time>
      </trkpt>
      <trkpt lat="43.41472" lon="6.0705">
        <ele>183.60000610352</ele>
        <time>2015-11-25T13:00:04Z</time>
      </trkpt>
      <trkpt lat="43.41475" lon="6.07043">
        <ele>183.39999389648</ele>
        <time>2015-11-25T13:00:06Z</time>
      </trkpt>
      <trkpt lat="43.41478" lon="6.07036">
        <ele>183.39999389648</ele>
        <time>2015-11-25T13:00:08Z</time>
      </trkpt>
      <trkpt lat="43.41481" lon="6.07027">
        <ele>183.60000610352</ele>
        <time>2015-11-25T13:00:10Z</time>
      </trkpt>
      <trkpt lat="43.41485" lon="6.07018">
        <ele>183.80000305176</ele>
        <time>2015-11-25T13:00:12Z</time>
      </trkpt>
      <trkpt lat="43.41488" lon="6.07008">
        <ele>184</ele>
        <time>2015-11-25T13:00:14Z</time>
      </trkpt>
      <trkpt lat="43.41491" lon="6.06997">
        <ele>183.80000305176</ele>
        <time>2015-11-25T13:00:16Z</time>
      </trkpt>
      <trkpt lat="43.41492" lon="6.06991">
        <ele>184</ele>
        <time>2015-11-25T13:00:17Z</time>
      </trkpt>
      <trkpt lat="43.41491" lon="6.06985">
        <ele>184.19999694824</ele>
        <time>2015-11-25T13:00:18Z</time>
      </trkpt>
      <trkpt lat="43.4149" lon="6.06975">
        <ele>184.39999389648</ele>
        <time>2015-11-25T13:00:20Z</time>
      </trkpt>
      <trkpt lat="43.41486" lon="6.06965">
        <ele>184.39999389648</ele>
        <time>2015-11-25T13:00:22Z</time>
      </trkpt>
      <trkpt lat="43.41481" lon="6.06956">
        <ele>184.60000610352</ele>
        <time>2015-11-25T13:00:24Z</time>
      </trkpt>
      <trkpt lat="43.41477" lon="6.06948">
        <ele>184.80000305176</ele>
        <time>2015-11-25T13:00:26Z</time>
      </trkpt>
      <trkpt lat="43.41467" lon="6.06932">
        <ele>185</ele>
        <time>2015-11-25T13:00:30Z</time>
      </trkpt>
      <trkpt lat="43.41463" lon="6.06926">
        <ele>185</ele>
        <time>2015-11-25T13:00:32Z</time>
      </trkpt>
      <trkpt lat="43.41461" lon="6.06922">
        <ele>185.80000305176</ele>
        <time>2015-11-25T13:00:33Z</time>
      </trkpt>
      <trkpt lat="43.4146" lon="6.06918">
        <ele>186.19999694824</ele>
        <time>2015-11-25T13:00:34Z</time>
      </trkpt>
      <trkpt lat="43.4146" lon="6.0691">
        <ele>186.39999389648</ele>
        <time>2015-11-25T13:00:36Z</time>
      </trkpt>
      <trkpt lat="43.41462" lon="6.069">
        <ele>186</ele>
        <time>2015-11-25T13:00:38Z</time>
      </trkpt>
      <trkpt lat="43.41462" lon="6.06889">
        <ele>186.19999694824</ele>
        <time>2015-11-25T13:00:40Z</time>
      </trkpt>
      <trkpt lat="43.4146" lon="6.06878">
        <ele>186</ele>
        <time>2015-11-25T13:00:42Z</time>
      </trkpt>
      <trkpt lat="43.41455" lon="6.06869">
        <ele>186</ele>
        <time>2015-11-25T13:00:44Z</time>
      </trkpt>
      <trkpt lat="43.41447" lon="6.06862">
        <ele>185.80000305176</ele>
        <time>2015-11-25T13:00:46Z</time>
      </trkpt>
      <trkpt lat="43.41438" lon="6.06859">
        <ele>186.19999694824</ele>
        <time>2015-11-25T13:00:48Z</time>
      </trkpt>
      <trkpt lat="43.41434" lon="6.06859">
        <ele>186.39999389648</ele>
        <time>2015-11-25T13:00:49Z</time>
      </trkpt>
      <trkpt lat="43.41429" lon="6.06859">
        <ele>186.39999389648</ele>
        <time>2015-11-25T13:00:50Z</time>
      </trkpt>
      <trkpt lat="43.4142" lon="6.06859">
        <ele>186</ele>
        <time>2015-11-25T13:00:52Z</time>
      </trkpt>
      <trkpt lat="43.41415" lon="6.06857">
        <ele>185.80000305176</ele>
        <time>2015-11-25T13:00:53Z</time>
      </trkpt>
      <trkpt lat="43.4141" lon="6.06855">
        <ele>185.80000305176</ele>
        <time>2015-11-25T13:00:54Z</time>
      </trkpt>
      <trkpt lat="43.41402" lon="6.06847">
        <ele>186</ele>
        <time>2015-11-25T13:00:56Z</time>
      </trkpt>
      <trkpt lat="43.41397" lon="6.06843">
        <ele>186</ele>
        <time>2015-11-25T13:00:57Z</time>
      </trkpt>
      <trkpt lat="43.41393" lon="6.06839">
        <ele>186.19999694824</ele>
        <time>2015-11-25T13:00:58Z</time>
      </trkpt>
      <trkpt lat="43.41388" lon="6.06835">
        <ele>186.39999389648</ele>
        <time>2015-11-25T13:00:59Z</time>
      </trkpt>
      <trkpt lat="43.41383" lon="6.06832">
        <ele>186.39999389648</ele>
        <time>2015-11-25T13:01:00Z</time>
      </trkpt>
      <trkpt lat="43.41379" lon="6.06829">
        <ele>186.39999389648</ele>
        <time>2015-11-25T13:01:01Z</time>
      </trkpt>
      <trkpt lat="43.41375" lon="6.06826">
        <ele>186.60000610352</ele>
        <time>2015-11-25T13:01:02Z</time>
      </trkpt>
      <trkpt lat="43.41365" lon="6.06821">
        <ele>186.39999389648</ele>
        <time>2015-11-25T13:01:04Z</time>
      </trkpt>
      <trkpt lat="43.4136" lon="6.06819">
        <ele>186.60000610352</ele>
        <time>2015-11-25T13:01:05Z</time>
      </trkpt>
      <trkpt lat="43.41355" lon="6.06816">
        <ele>186.60000610352</ele>
        <time>2015-11-25T13:01:06Z</time>
      </trkpt>
      <trkpt lat="43.41334" lon="6.06806">
        <ele>185.60000610352</ele>
        <time>2015-11-25T13:01:10Z</time>
      </trkpt>
      <trkpt lat="43.41323" lon="6.06799">
        <ele>185.19999694824</ele>
        <time>2015-11-25T13:01:12Z</time>
      </trkpt>
      <trkpt lat="43.41312" lon="6.06792">
        <ele>185.39999389648</ele>
        <time>2015-11-25T13:01:14Z</time>
      </trkpt>
      <trkpt lat="43.41302" lon="6.06783">
        <ele>186</ele>
        <time>2015-11-25T13:01:16Z</time>
      </trkpt>
      <trkpt lat="43.41293" lon="6.06773">
        <ele>185.80000305176</ele>
        <time>2015-11-25T13:01:18Z</time>
      </trkpt>
      <trkpt lat="43.41289" lon="6.06767">
        <ele>185.60000610352</ele>
        <time>2015-11-25T13:01:19Z</time>
      </trkpt>
      <trkpt lat="43.41285" lon="6.06762">
        <ele>185.19999694824</ele>
        <time>2015-11-25T13:01:20Z</time>
      </trkpt>
      <trkpt lat="43.4128" lon="6.06749">
        <ele>184.80000305176</ele>
        <time>2015-11-25T13:01:22Z</time>
      </trkpt>
      <trkpt lat="43.41276" lon="6.06734">
        <ele>184.39999389648</ele>
        <time>2015-11-25T13:01:24Z</time>
      </trkpt>
      <trkpt lat="43.41275" lon="6.06719">
        <ele>184.60000610352</ele>
        <time>2015-11-25T13:01:26Z</time>
      </trkpt>
      <trkpt lat="43.41272" lon="6.06705">
        <ele>185.19999694824</ele>
        <time>2015-11-25T13:01:28Z</time>
      </trkpt>
      <trkpt lat="43.41272" lon="6.06699">
        <ele>185.19999694824</ele>
        <time>2015-11-25T13:01:29Z</time>
      </trkpt>
      <trkpt lat="43.41271" lon="6.06694">
        <ele>185</ele>
        <time>2015-11-25T13:01:30Z</time>
      </trkpt>
      <trkpt lat="43.41269" lon="6.06686">
        <ele>185.39999389648</ele>
        <time>2015-11-25T13:01:32Z</time>
      </trkpt>
      <trkpt lat="43.41267" lon="6.06684">
        <ele>185.80000305176</ele>
        <time>2015-11-25T13:01:33Z</time>
      </trkpt>
      <trkpt lat="43.41264" lon="6.06683">
        <ele>185.80000305176</ele>
        <time>2015-11-25T13:01:34Z</time>
      </trkpt>
      <trkpt lat="43.41258" lon="6.06683">
        <ele>184.80000305176</ele>
        <time>2015-11-25T13:01:36Z</time>
      </trkpt>
      <trkpt lat="43.41255" lon="6.06684">
        <ele>184.60000610352</ele>
        <time>2015-11-25T13:01:37Z</time>
      </trkpt>
      <trkpt lat="43.41253" lon="6.06685">
        <ele>184.39999389648</ele>
        <time>2015-11-25T13:01:38Z</time>
      </trkpt>
      <trkpt lat="43.41247" lon="6.06688">
        <ele>183.39999389648</ele>
        <time>2015-11-25T13:01:40Z</time>
      </trkpt>
      <trkpt lat="43.41244" lon="6.06693">
        <ele>182.80000305176</ele>
        <time>2015-11-25T13:01:42Z</time>
      </trkpt>
      <trkpt lat="43.41244" lon="6.06694">
        <ele>182.80000305176</ele>
        <time>2015-11-25T13:01:43Z</time>
      </trkpt>
      <trkpt lat="43.41244" lon="6.06694">
        <ele>182.19999694824</ele>
        <time>2015-11-25T13:01:46Z</time>
      </trkpt>
      <trkpt lat="43.41244" lon="6.06694">
        <ele>181.80000305176</ele>
        <time>2015-11-25T13:01:48Z</time>
      </trkpt>
      <trkpt lat="43.41244" lon="6.06694">
        <ele>182.19999694824</ele>
        <time>2015-11-25T13:01:50Z</time>
      </trkpt>
      <trkpt lat="43.41244" lon="6.06694">
        <ele>182.60000610352</ele>
        <time>2015-11-25T13:01:52Z</time>
      </trkpt>
      <trkpt lat="43.41244" lon="6.06694">
        <ele>182.19999694824</ele>
        <time>2015-11-25T13:01:56Z</time>
      </trkpt>
      <trkpt lat="43.41244" lon="6.06694">
        <ele>182.39999389648</ele>
        <time>2015-11-25T13:02:00Z</time>
      </trkpt>
      <trkpt lat="43.41243" lon="6.06697">
        <ele>182.39999389648</ele>
        <time>2015-11-25T13:02:02Z</time>
      </trkpt>
      <trkpt lat="43.41243" lon="6.06698">
        <ele>182.39999389648</ele>
        <time>2015-11-25T13:02:03Z</time>
      </trkpt>
      <trkpt lat="43.41243" lon="6.06698">
        <ele>182.60000610352</ele>
        <time>2015-11-25T13:02:04Z</time>
      </trkpt>
      <trkpt lat="43.41243" lon="6.06698">
        <ele>182.60000610352</ele>
        <time>2015-11-25T13:02:06Z</time>
      </trkpt>
      <trkpt lat="43.41243" lon="6.06699">
        <ele>182.39999389648</ele>
        <time>2015-11-25T13:02:08Z</time>
      </trkpt>
      <trkpt lat="43.41242" lon="6.067">
        <ele>182.39999389648</ele>
        <time>2015-11-25T13:02:10Z</time>
      </trkpt>
      <trkpt lat="43.41243" lon="6.06703">
        <ele>182.19999694824</ele>
        <time>2015-11-25T13:02:12Z</time>
      </trkpt>
      <trkpt lat="43.41243" lon="6.06704">
        <ele>182</ele>
        <time>2015-11-25T13:02:13Z</time>
      </trkpt>
      <trkpt lat="43.41244" lon="6.06706">
        <ele>182</ele>
        <time>2015-11-25T13:02:14Z</time>
      </trkpt>
      <trkpt lat="43.41245" lon="6.06708">
        <ele>182</ele>
        <time>2015-11-25T13:02:16Z</time>
      </trkpt>
      <trkpt lat="43.41246" lon="6.06709">
        <ele>182.39999389648</ele>
        <time>2015-11-25T13:02:17Z</time>
      </trkpt>
      <trkpt lat="43.41247" lon="6.0671">
        <ele>182.60000610352</ele>
        <time>2015-11-25T13:02:18Z</time>
      </trkpt>
      <trkpt lat="43.41247" lon="6.0671">
        <ele>182.80000305176</ele>
        <time>2015-11-25T13:02:20Z</time>
      </trkpt>
      <trkpt lat="43.41248" lon="6.0671">
        <ele>183.19999694824</ele>
        <time>2015-11-25T13:02:22Z</time>
      </trkpt>
      <trkpt lat="43.41248" lon="6.06711">
        <ele>183.19999694824</ele>
        <time>2015-11-25T13:02:24Z</time>
      </trkpt>
      <trkpt lat="43.41248" lon="6.06711">
        <ele>183</ele>
        <time>2015-11-25T13:02:26Z</time>
      </trkpt>
      <trkpt lat="43.41248" lon="6.06711">
        <ele>182.80000305176</ele>
        <time>2015-11-25T13:02:28Z</time>
      </trkpt>
      <trkpt lat="43.41248" lon="6.06711">
        <ele>183.19999694824</ele>
        <time>2015-11-25T13:02:32Z</time>
      </trkpt>
      <trkpt lat="43.41248" lon="6.06711">
        <ele>182.60000610352</ele>
        <time>2015-11-25T13:02:38Z</time>
      </trkpt>
      <trkpt lat="43.41248" lon="6.06711">
        <ele>182.60000610352</ele>
        <time>2015-11-25T13:02:40Z</time>
      </trkpt>
      <trkpt lat="43.41248" lon="6.06711">
        <ele>182.80000305176</ele>
        <time>2015-11-25T13:02:41Z</time>
      </trkpt>
      <trkpt lat="43.41248" lon="6.06711">
        <ele>182.80000305176</ele>
        <time>2015-11-25T13:02:43Z</time>
      </trkpt>
      <trkpt lat="43.41248" lon="6.06712">
        <ele>182.80000305176</ele>
        <time>2015-11-25T13:02:44Z</time>
      </trkpt>
      <trkpt lat="43.41247" lon="6.06713">
        <ele>182.80000305176</ele>
        <time>2015-11-25T13:02:46Z</time>
      </trkpt>
      <trkpt lat="43.41244" lon="6.06713">
        <ele>182.80000305176</ele>
        <time>2015-11-25T13:02:48Z</time>
      </trkpt>
      <trkpt lat="43.41238" lon="6.06712">
        <ele>182.19999694824</ele>
        <time>2015-11-25T13:02:50Z</time>
      </trkpt>
      <trkpt lat="43.41235" lon="6.06712">
        <ele>182</ele>
        <time>2015-11-25T13:02:51Z</time>
      </trkpt>
      <trkpt lat="43.41231" lon="6.06712">
        <ele>181.80000305176</ele>
        <time>2015-11-25T13:02:52Z</time>
      </trkpt>
      <trkpt lat="43.41226" lon="6.06712">
        <ele>181.60000610352</ele>
        <time>2015-11-25T13:02:53Z</time>
      </trkpt>
      <trkpt lat="43.41222" lon="6.06713">
        <ele>181.60000610352</ele>
        <time>2015-11-25T13:02:54Z</time>
      </trkpt>
      <trkpt lat="43.41206" lon="6.06714">
        <ele>181.39999389648</ele>
        <time>2015-11-25T13:02:58Z</time>
      </trkpt>
      <trkpt lat="43.41202" lon="6.06714">
        <ele>181.80000305176</ele>
        <time>2015-11-25T13:02:59Z</time>
      </trkpt>
      <trkpt lat="43.41197" lon="6.06714">
        <ele>181.60000610352</ele>
        <time>2015-11-25T13:03:00Z</time>
      </trkpt>
      <trkpt lat="43.41188" lon="6.06714">
        <ele>181.19999694824</ele>
        <time>2015-11-25T13:03:02Z</time>
      </trkpt>
      <trkpt lat="43.41177" lon="6.06714">
        <ele>181.39999389648</ele>
        <time>2015-11-25T13:03:04Z</time>
      </trkpt>
      <trkpt lat="43.41166" lon="6.06713">
        <ele>182</ele>
        <time>2015-11-25T13:03:06Z</time>
      </trkpt>
      <trkpt lat="43.41156" lon="6.06713">
        <ele>181.39999389648</ele>
        <time>2015-11-25T13:03:08Z</time>
      </trkpt>
      <trkpt lat="43.41151" lon="6.06714">
        <ele>181.39999389648</ele>
        <time>2015-11-25T13:03:09Z</time>
      </trkpt>
      <trkpt lat="43.41146" lon="6.06715">
        <ele>181.19999694824</ele>
        <time>2015-11-25T13:03:10Z</time>
      </trkpt>
      <trkpt lat="43.41136" lon="6.06718">
        <ele>181</ele>
        <time>2015-11-25T13:03:12Z</time>
      </trkpt>
      <trkpt lat="43.41131" lon="6.0672">
        <ele>181</ele>
        <time>2015-11-25T13:03:13Z</time>
      </trkpt>
      <trkpt lat="43.41127" lon="6.06722">
        <ele>181.19999694824</ele>
        <time>2015-11-25T13:03:14Z</time>
      </trkpt>
      <trkpt lat="43.41119" lon="6.06728">
        <ele>181</ele>
        <time>2015-11-25T13:03:16Z</time>
      </trkpt>
      <trkpt lat="43.41103" lon="6.06739">
        <ele>180.39999389648</ele>
        <time>2015-11-25T13:03:20Z</time>
      </trkpt>
      <trkpt lat="43.41095" lon="6.06743">
        <ele>180.80000305176</ele>
        <time>2015-11-25T13:03:22Z</time>
      </trkpt>
      <trkpt lat="43.4109" lon="6.06746">
        <ele>180.39999389648</ele>
        <time>2015-11-25T13:03:24Z</time>
      </trkpt>
      <trkpt lat="43.41087" lon="6.06748">
        <ele>180.19999694824</ele>
        <time>2015-11-25T13:03:26Z</time>
      </trkpt>
      <trkpt lat="43.41087" lon="6.06748">
        <ele>180.19999694824</ele>
        <time>2015-11-25T13:03:28Z</time>
      </trkpt>
      <trkpt lat="43.41086" lon="6.06748">
        <ele>180.19999694824</ele>
        <time>2015-11-25T13:03:29Z</time>
      </trkpt>
      <trkpt lat="43.41086" lon="6.06748">
        <ele>180</ele>
        <time>2015-11-25T13:03:30Z</time>
      </trkpt>
      <trkpt lat="43.41085" lon="6.0675">
        <ele>180</ele>
        <time>2015-11-25T13:03:32Z</time>
      </trkpt>
      <trkpt lat="43.41084" lon="6.06756">
        <ele>180.19999694824</ele>
        <time>2015-11-25T13:03:34Z</time>
      </trkpt>
      <trkpt lat="43.41081" lon="6.06764">
        <ele>180</ele>
        <time>2015-11-25T13:03:36Z</time>
      </trkpt>
      <trkpt lat="43.41079" lon="6.06773">
        <ele>180.19999694824</ele>
        <time>2015-11-25T13:03:38Z</time>
      </trkpt>
      <trkpt lat="43.41079" lon="6.06779">
        <ele>180.19999694824</ele>
        <time>2015-11-25T13:03:39Z</time>
      </trkpt>
      <trkpt lat="43.41077" lon="6.06784">
        <ele>180.19999694824</ele>
        <time>2015-11-25T13:03:40Z</time>
      </trkpt>
      <trkpt lat="43.41076" lon="6.06797">
        <ele>180.39999389648</ele>
        <time>2015-11-25T13:03:42Z</time>
      </trkpt>
      <trkpt lat="43.41073" lon="6.0681">
        <ele>180.60000610352</ele>
        <time>2015-11-25T13:03:44Z</time>
      </trkpt>
      <trkpt lat="43.41071" lon="6.06818">
        <ele>180.80000305176</ele>
        <time>2015-11-25T13:03:45Z</time>
      </trkpt>
      <trkpt lat="43.4107" lon="6.06824">
        <ele>180.80000305176</ele>
        <time>2015-11-25T13:03:46Z</time>
      </trkpt>
      <trkpt lat="43.41068" lon="6.06838">
        <ele>180.39999389648</ele>
        <time>2015-11-25T13:03:48Z</time>
      </trkpt>
      <trkpt lat="43.41067" lon="6.06845">
        <ele>180.19999694824</ele>
        <time>2015-11-25T13:03:50Z</time>
      </trkpt>
      <trkpt lat="43.41067" lon="6.0685">
        <ele>180.39999389648</ele>
        <time>2015-11-25T13:03:52Z</time>
      </trkpt>
      <trkpt lat="43.41066" lon="6.06855">
        <ele>180.19999694824</ele>
        <time>2015-11-25T13:03:54Z</time>
      </trkpt>
      <trkpt lat="43.41066" lon="6.0686">
        <ele>180.60000610352</ele>
        <time>2015-11-25T13:03:56Z</time>
      </trkpt>
      <trkpt lat="43.41066" lon="6.06864">
        <ele>181.39999389648</ele>
        <time>2015-11-25T13:03:58Z</time>
      </trkpt>
      <trkpt lat="43.41066" lon="6.06865">
        <ele>181.60000610352</ele>
        <time>2015-11-25T13:03:59Z</time>
      </trkpt>
      <trkpt lat="43.41065" lon="6.06866">
        <ele>182</ele>
        <time>2015-11-25T13:04:00Z</time>
      </trkpt>
      <trkpt lat="43.41061" lon="6.06868">
        <ele>182.39999389648</ele>
        <time>2015-11-25T13:04:02Z</time>
      </trkpt>
      <trkpt lat="43.41055" lon="6.06871">
        <ele>182.80000305176</ele>
        <time>2015-11-25T13:04:04Z</time>
      </trkpt>
      <trkpt lat="43.41049" lon="6.06873">
        <ele>183</ele>
        <time>2015-11-25T13:04:06Z</time>
      </trkpt>
      <trkpt lat="43.41042" lon="6.06876">
        <ele>182.39999389648</ele>
        <time>2015-11-25T13:04:08Z</time>
      </trkpt>
      <trkpt lat="43.41032" lon="6.06881">
        <ele>181</ele>
        <time>2015-11-25T13:04:10Z</time>
      </trkpt>
      <trkpt lat="43.41024" lon="6.06885">
        <ele>180.39999389648</ele>
        <time>2015-11-25T13:04:12Z</time>
      </trkpt>
      <trkpt lat="43.41019" lon="6.06891">
        <ele>180.39999389648</ele>
        <time>2015-11-25T13:04:14Z</time>
      </trkpt>
      <trkpt lat="43.41015" lon="6.06898">
        <ele>180.60000610352</ele>
        <time>2015-11-25T13:04:16Z</time>
      </trkpt>
      <trkpt lat="43.41013" lon="6.06901">
        <ele>180.80000305176</ele>
        <time>2015-11-25T13:04:17Z</time>
      </trkpt>
      <trkpt lat="43.4101" lon="6.06905">
        <ele>180.60000610352</ele>
        <time>2015-11-25T13:04:18Z</time>
      </trkpt>
      <trkpt lat="43.41006" lon="6.06908">
        <ele>180.60000610352</ele>
        <time>2015-11-25T13:04:19Z</time>
      </trkpt>
      <trkpt lat="43.41003" lon="6.06911">
        <ele>180.80000305176</ele>
        <time>2015-11-25T13:04:20Z</time>
      </trkpt>
      <trkpt lat="43.40994" lon="6.06918">
        <ele>180.80000305176</ele>
        <time>2015-11-25T13:04:22Z</time>
      </trkpt>
      <trkpt lat="43.40984" lon="6.06923">
        <ele>180.60000610352</ele>
        <time>2015-11-25T13:04:24Z</time>
      </trkpt>
      <trkpt lat="43.40974" lon="6.06927">
        <ele>180.80000305176</ele>
        <time>2015-11-25T13:04:26Z</time>
      </trkpt>
      <trkpt lat="43.40964" lon="6.06931">
        <ele>180.80000305176</ele>
        <time>2015-11-25T13:04:28Z</time>
      </trkpt>
      <trkpt lat="43.40955" lon="6.06935">
        <ele>180</ele>
        <time>2015-11-25T13:04:30Z</time>
      </trkpt>
      <trkpt lat="43.40945" lon="6.06938">
        <ele>179.60000610352</ele>
        <time>2015-11-25T13:04:32Z</time>
      </trkpt>
      <trkpt lat="43.40935" lon="6.0694">
        <ele>180</ele>
        <time>2015-11-25T13:04:34Z</time>
      </trkpt>
      <trkpt lat="43.40926" lon="6.06943">
        <ele>180.39999389648</ele>
        <time>2015-11-25T13:04:36Z</time>
      </trkpt>
      <trkpt lat="43.40917" lon="6.06946">
        <ele>180.39999389648</ele>
        <time>2015-11-25T13:04:38Z</time>
      </trkpt>
      <trkpt lat="43.40912" lon="6.06948">
        <ele>180.60000610352</ele>
        <time>2015-11-25T13:04:39Z</time>
      </trkpt>
      <trkpt lat="43.40909" lon="6.0695">
        <ele>180.80000305176</ele>
        <time>2015-11-25T13:04:40Z</time>
      </trkpt>
      <trkpt lat="43.40906" lon="6.06955">
        <ele>181</ele>
        <time>2015-11-25T13:04:41Z</time>
      </trkpt>
      <trkpt lat="43.40904" lon="6.0696">
        <ele>181</ele>
        <time>2015-11-25T13:04:42Z</time>
      </trkpt>
      <trkpt lat="43.40903" lon="6.06971">
        <ele>181</ele>
        <time>2015-11-25T13:04:44Z</time>
      </trkpt>
      <trkpt lat="43.40897" lon="6.06988">
        <ele>180.80000305176</ele>
        <time>2015-11-25T13:04:47Z</time>
      </trkpt>
      <trkpt lat="43.40892" lon="6.06991">
        <ele>180.80000305176</ele>
        <time>2015-11-25T13:04:48Z</time>
      </trkpt>
      <trkpt lat="43.40883" lon="6.06994">
        <ele>180.19999694824</ele>
        <time>2015-11-25T13:04:50Z</time>
      </trkpt>
      <trkpt lat="43.40878" lon="6.06996">
        <ele>180.19999694824</ele>
        <time>2015-11-25T13:04:51Z</time>
      </trkpt>
      <trkpt lat="43.40873" lon="6.06997">
        <ele>179.80000305176</ele>
        <time>2015-11-25T13:04:52Z</time>
      </trkpt>
      <trkpt lat="43.40862" lon="6.07001">
        <ele>180.39999389648</ele>
        <time>2015-11-25T13:04:54Z</time>
      </trkpt>
      <trkpt lat="43.40855" lon="6.07004">
        <ele>180.80000305176</ele>
        <time>2015-11-25T13:04:56Z</time>
      </trkpt>
      <trkpt lat="43.4085" lon="6.07007">
        <ele>181.19999694824</ele>
        <time>2015-11-25T13:04:58Z</time>
      </trkpt>
      <trkpt lat="43.40847" lon="6.07009">
        <ele>181</ele>
        <time>2015-11-25T13:05:00Z</time>
      </trkpt>
      <trkpt lat="43.40844" lon="6.0701">
        <ele>181</ele>
        <time>2015-11-25T13:05:02Z</time>
      </trkpt>
      <trkpt lat="43.40842" lon="6.07012">
        <ele>181</ele>
        <time>2015-11-25T13:05:04Z</time>
      </trkpt>
      <trkpt lat="43.40842" lon="6.07013">
        <ele>181.19999694824</ele>
        <time>2015-11-25T13:05:06Z</time>
      </trkpt>
      <trkpt lat="43.40841" lon="6.07015">
        <ele>181.19999694824</ele>
        <time>2015-11-25T13:05:08Z</time>
      </trkpt>
      <trkpt lat="43.4084" lon="6.07022">
        <ele>181.19999694824</ele>
        <time>2015-11-25T13:05:10Z</time>
      </trkpt>
      <trkpt lat="43.4084" lon="6.07033">
        <ele>181.19999694824</ele>
        <time>2015-11-25T13:05:12Z</time>
      </trkpt>
      <trkpt lat="43.40842" lon="6.07047">
        <ele>181.39999389648</ele>
        <time>2015-11-25T13:05:14Z</time>
      </trkpt>
      <trkpt lat="43.40843" lon="6.07062">
        <ele>181.39999389648</ele>
        <time>2015-11-25T13:05:16Z</time>
      </trkpt>
      <trkpt lat="43.40843" lon="6.07071">
        <ele>181.39999389648</ele>
        <time>2015-11-25T13:05:17Z</time>
      </trkpt>
      <trkpt lat="43.40842" lon="6.0708">
        <ele>181.60000610352</ele>
        <time>2015-11-25T13:05:18Z</time>
      </trkpt>
      <trkpt lat="43.40842" lon="6.07088">
        <ele>181.80000305176</ele>
        <time>2015-11-25T13:05:19Z</time>
      </trkpt>
      <trkpt lat="43.40841" lon="6.07096">
        <ele>181.80000305176</ele>
        <time>2015-11-25T13:05:20Z</time>
      </trkpt>
      <trkpt lat="43.40839" lon="6.07112">
        <ele>181.80000305176</ele>
        <time>2015-11-25T13:05:22Z</time>
      </trkpt>
      <trkpt lat="43.40837" lon="6.0712">
        <ele>182</ele>
        <time>2015-11-25T13:05:23Z</time>
      </trkpt>
      <trkpt lat="43.40836" lon="6.07128">
        <ele>182.19999694824</ele>
        <time>2015-11-25T13:05:24Z</time>
      </trkpt>
      <trkpt lat="43.40834" lon="6.07136">
        <ele>182.19999694824</ele>
        <time>2015-11-25T13:05:25Z</time>
      </trkpt>
      <trkpt lat="43.40833" lon="6.07143">
        <ele>182</ele>
        <time>2015-11-25T13:05:26Z</time>
      </trkpt>
      <trkpt lat="43.40831" lon="6.07151">
        <ele>181.80000305176</ele>
        <time>2015-11-25T13:05:27Z</time>
      </trkpt>
      <trkpt lat="43.40829" lon="6.07158">
        <ele>181.80000305176</ele>
        <time>2015-11-25T13:05:28Z</time>
      </trkpt>
      <trkpt lat="43.40823" lon="6.07172">
        <ele>181.80000305176</ele>
        <time>2015-11-25T13:05:30Z</time>
      </trkpt>
      <trkpt lat="43.4082" lon="6.07179">
        <ele>182</ele>
        <time>2015-11-25T13:05:31Z</time>
      </trkpt>
      <trkpt lat="43.40817" lon="6.07185">
        <ele>182</ele>
        <time>2015-11-25T13:05:32Z</time>
      </trkpt>
      <trkpt lat="43.4081" lon="6.07197">
        <ele>182</ele>
        <time>2015-11-25T13:05:34Z</time>
      </trkpt>
      <trkpt lat="43.40802" lon="6.07209">
        <ele>182.19999694824</ele>
        <time>2015-11-25T13:05:36Z</time>
      </trkpt>
      <trkpt lat="43.40798" lon="6.07215">
        <ele>182.39999389648</ele>
        <time>2015-11-25T13:05:37Z</time>
      </trkpt>
      <trkpt lat="43.40793" lon="6.0722">
        <ele>182.39999389648</ele>
        <time>2015-11-25T13:05:38Z</time>
      </trkpt>
      <trkpt lat="43.40784" lon="6.0723">
        <ele>182.39999389648</ele>
        <time>2015-11-25T13:05:40Z</time>
      </trkpt>
      <trkpt lat="43.40768" lon="6.07242">
        <ele>182.19999694824</ele>
        <time>2015-11-25T13:05:43Z</time>
      </trkpt>
      <trkpt lat="43.40754" lon="6.0725">
        <ele>182</ele>
        <time>2015-11-25T13:05:46Z</time>
      </trkpt>
      <trkpt lat="43.40745" lon="6.07257">
        <ele>182.19999694824</ele>
        <time>2015-11-25T13:05:48Z</time>
      </trkpt>
      <trkpt lat="43.4074" lon="6.0726">
        <ele>182.39999389648</ele>
        <time>2015-11-25T13:05:49Z</time>
      </trkpt>
      <trkpt lat="43.40736" lon="6.07262">
        <ele>182.19999694824</ele>
        <time>2015-11-25T13:05:50Z</time>
      </trkpt>
      <trkpt lat="43.40726" lon="6.07267">
        <ele>182.60000610352</ele>
        <time>2015-11-25T13:05:52Z</time>
      </trkpt>
      <trkpt lat="43.40721" lon="6.0727">
        <ele>183</ele>
        <time>2015-11-25T13:05:53Z</time>
      </trkpt>
      <trkpt lat="43.40716" lon="6.07272">
        <ele>183.19999694824</ele>
        <time>2015-11-25T13:05:54Z</time>
      </trkpt>
      <trkpt lat="43.40706" lon="6.07277">
        <ele>183.39999389648</ele>
        <time>2015-11-25T13:05:56Z</time>
      </trkpt>
      <trkpt lat="43.40687" lon="6.07288">
        <ele>183.39999389648</ele>
        <time>2015-11-25T13:06:00Z</time>
      </trkpt>
      <trkpt lat="43.40678" lon="6.07294">
        <ele>183.80000305176</ele>
        <time>2015-11-25T13:06:02Z</time>
      </trkpt>
      <trkpt lat="43.40673" lon="6.07298">
        <ele>184.19999694824</ele>
        <time>2015-11-25T13:06:03Z</time>
      </trkpt>
      <trkpt lat="43.40664" lon="6.07304">
        <ele>184.60000610352</ele>
        <time>2015-11-25T13:06:05Z</time>
      </trkpt>
      <trkpt lat="43.4066" lon="6.07307">
        <ele>184.80000305176</ele>
        <time>2015-11-25T13:06:06Z</time>
      </trkpt>
      <trkpt lat="43.40652" lon="6.07312">
        <ele>185.19999694824</ele>
        <time>2015-11-25T13:06:08Z</time>
      </trkpt>
      <trkpt lat="43.40647" lon="6.07314">
        <ele>185</ele>
        <time>2015-11-25T13:06:09Z</time>
      </trkpt>
      <trkpt lat="43.40644" lon="6.07316">
        <ele>185</ele>
        <time>2015-11-25T13:06:10Z</time>
      </trkpt>
      <trkpt lat="43.40636" lon="6.0732">
        <ele>185</ele>
        <time>2015-11-25T13:06:12Z</time>
      </trkpt>
      <trkpt lat="43.40628" lon="6.0732">
        <ele>185.19999694824</ele>
        <time>2015-11-25T13:06:14Z</time>
      </trkpt>
      <trkpt lat="43.40625" lon="6.07318">
        <ele>185.39999389648</ele>
        <time>2015-11-25T13:06:15Z</time>
      </trkpt>
      <trkpt lat="43.40622" lon="6.07315">
        <ele>185.80000305176</ele>
        <time>2015-11-25T13:06:16Z</time>
      </trkpt>
      <trkpt lat="43.40619" lon="6.07312">
        <ele>186.39999389648</ele>
        <time>2015-11-25T13:06:17Z</time>
      </trkpt>
      <trkpt lat="43.40616" lon="6.07309">
        <ele>186.80000305176</ele>
        <time>2015-11-25T13:06:18Z</time>
      </trkpt>
      <trkpt lat="43.40611" lon="6.07303">
        <ele>186.80000305176</ele>
        <time>2015-11-25T13:06:20Z</time>
      </trkpt>
      <trkpt lat="43.40607" lon="6.07298">
        <ele>186.60000610352</ele>
        <time>2015-11-25T13:06:22Z</time>
      </trkpt>
      <trkpt lat="43.40603" lon="6.07294">
        <ele>186.60000610352</ele>
        <time>2015-11-25T13:06:24Z</time>
      </trkpt>
      <trkpt lat="43.406" lon="6.07291">
        <ele>187</ele>
        <time>2015-11-25T13:06:26Z</time>
      </trkpt>
      <trkpt lat="43.40599" lon="6.0729">
        <ele>187.39999389648</ele>
        <time>2015-11-25T13:06:27Z</time>
      </trkpt>
      <trkpt lat="43.40599" lon="6.0729">
        <ele>187.60000610352</ele>
        <time>2015-11-25T13:06:28Z</time>
      </trkpt>
      <trkpt lat="43.40599" lon="6.0729">
        <ele>188</ele>
        <time>2015-11-25T13:06:30Z</time>
      </trkpt>
      <trkpt lat="43.40599" lon="6.0729">
        <ele>188</ele>
        <time>2015-11-25T13:06:32Z</time>
      </trkpt>
      <trkpt lat="43.40598" lon="6.0729">
        <ele>188</ele>
        <time>2015-11-25T13:06:34Z</time>
      </trkpt>
      <trkpt lat="43.40598" lon="6.07289">
        <ele>188.19999694824</ele>
        <time>2015-11-25T13:06:36Z</time>
      </trkpt>
      <trkpt lat="43.40598" lon="6.07289">
        <ele>188</ele>
        <time>2015-11-25T13:06:37Z</time>
      </trkpt>
      <trkpt lat="43.40598" lon="6.07289">
        <ele>188</ele>
        <time>2015-11-25T13:06:38Z</time>
      </trkpt>
      <trkpt lat="43.40598" lon="6.07289">
        <ele>188.19999694824</ele>
        <time>2015-11-25T13:06:40Z</time>
      </trkpt>
      <trkpt lat="43.40598" lon="6.07289">
        <ele>188</ele>
        <time>2015-11-25T13:06:42Z</time>
      </trkpt>
      <trkpt lat="43.40598" lon="6.07289">
        <ele>188</ele>
        <time>2015-11-25T13:06:44Z</time>
      </trkpt>
      <trkpt lat="43.40598" lon="6.07289">
        <ele>188</ele>
        <time>2015-11-25T13:06:46Z</time>
      </trkpt>
      <trkpt lat="43.40598" lon="6.07289">
        <ele>187.60000610352</ele>
        <time>2015-11-25T13:06:48Z</time>
      </trkpt>
      <trkpt lat="43.40598" lon="6.07289">
        <ele>187.60000610352</ele>
        <time>2015-11-25T13:06:49Z</time>
      </trkpt>
      <trkpt lat="43.40598" lon="6.07289">
        <ele>187.60000610352</ele>
        <time>2015-11-25T13:06:50Z</time>
      </trkpt>
      <trkpt lat="43.40598" lon="6.07289">
        <ele>187.39999389648</ele>
        <time>2015-11-25T13:06:52Z</time>
      </trkpt>
      <trkpt lat="43.40598" lon="6.07289">
        <ele>187.60000610352</ele>
        <time>2015-11-25T13:06:58Z</time>
      </trkpt>
      <trkpt lat="43.40598" lon="6.07289">
        <ele>188.19999694824</ele>
        <time>2015-11-25T13:07:01Z</time>
      </trkpt>
      <trkpt lat="43.40598" lon="6.07289">
        <ele>187.80000305176</ele>
        <time>2015-11-25T13:07:04Z</time>
      </trkpt>
      <trkpt lat="43.40598" lon="6.07289">
        <ele>187.39999389648</ele>
        <time>2015-11-25T13:07:08Z</time>
      </trkpt>
      <trkpt lat="43.40598" lon="6.07289">
        <ele>187.80000305176</ele>
        <time>2015-11-25T13:07:12Z</time>
      </trkpt>
      <trkpt lat="43.40598" lon="6.07289">
        <ele>187.60000610352</ele>
        <time>2015-11-25T13:07:14Z</time>
      </trkpt>
      <trkpt lat="43.40597" lon="6.07288">
        <ele>187.80000305176</ele>
        <time>2015-11-25T13:07:16Z</time>
      </trkpt>
      <trkpt lat="43.40597" lon="6.07289">
        <ele>187.60000610352</ele>
        <time>2015-11-25T13:07:18Z</time>
      </trkpt>
      <trkpt lat="43.40597" lon="6.07289">
        <ele>187.80000305176</ele>
        <time>2015-11-25T13:07:22Z</time>
      </trkpt>
      <trkpt lat="43.40597" lon="6.07289">
        <ele>188.19999694824</ele>
        <time>2015-11-25T13:07:26Z</time>
      </trkpt>
      <trkpt lat="43.40597" lon="6.07288">
        <ele>188</ele>
        <time>2015-11-25T13:07:30Z</time>
      </trkpt>
      <trkpt lat="43.40597" lon="6.07289">
        <ele>187.39999389648</ele>
        <time>2015-11-25T13:07:40Z</time>
      </trkpt>
      <trkpt lat="43.40597" lon="6.07289">
        <ele>187.80000305176</ele>
        <time>2015-11-25T13:07:44Z</time>
      </trkpt>
      <trkpt lat="43.40597" lon="6.07289">
        <ele>188.19999694824</ele>
        <time>2015-11-25T13:07:56Z</time>
      </trkpt>
      <trkpt lat="43.40597" lon="6.07289">
        <ele>188.39999389648</ele>
        <time>2015-11-25T13:07:59Z</time>
      </trkpt>
      <trkpt lat="43.40596" lon="6.07288">
        <ele>188.39999389648</ele>
        <time>2015-11-25T13:08:00Z</time>
      </trkpt>
      <trkpt lat="43.40593" lon="6.07288">
        <ele>188.19999694824</ele>
        <time>2015-11-25T13:08:02Z</time>
      </trkpt>
      <trkpt lat="43.40591" lon="6.07288">
        <ele>188</ele>
        <time>2015-11-25T13:08:03Z</time>
      </trkpt>
      <trkpt lat="43.40588" lon="6.0729">
        <ele>188</ele>
        <time>2015-11-25T13:08:04Z</time>
      </trkpt>
      <trkpt lat="43.40582" lon="6.07295">
        <ele>187.80000305176</ele>
        <time>2015-11-25T13:08:06Z</time>
      </trkpt>
      <trkpt lat="43.40578" lon="6.07297">
        <ele>187.80000305176</ele>
        <time>2015-11-25T13:08:07Z</time>
      </trkpt>
      <trkpt lat="43.40575" lon="6.07298">
        <ele>187.80000305176</ele>
        <time>2015-11-25T13:08:08Z</time>
      </trkpt>
      <trkpt lat="43.40566" lon="6.07298">
        <ele>187.39999389648</ele>
        <time>2015-11-25T13:08:10Z</time>
      </trkpt>
      <trkpt lat="43.40562" lon="6.07297">
        <ele>187.19999694824</ele>
        <time>2015-11-25T13:08:11Z</time>
      </trkpt>
      <trkpt lat="43.40557" lon="6.07296">
        <ele>187.19999694824</ele>
        <time>2015-11-25T13:08:12Z</time>
      </trkpt>
      <trkpt lat="43.40543" lon="6.07295">
        <ele>187.19999694824</ele>
        <time>2015-11-25T13:08:15Z</time>
      </trkpt>
      <trkpt lat="43.40534" lon="6.07293">
        <ele>187.80000305176</ele>
        <time>2015-11-25T13:08:17Z</time>
      </trkpt>
      <trkpt lat="43.40529" lon="6.07292">
        <ele>188</ele>
        <time>2015-11-25T13:08:18Z</time>
      </trkpt>
      <trkpt lat="43.4052" lon="6.07286">
        <ele>188.39999389648</ele>
        <time>2015-11-25T13:08:20Z</time>
      </trkpt>
      <trkpt lat="43.40516" lon="6.07283">
        <ele>188.60000610352</ele>
        <time>2015-11-25T13:08:21Z</time>
      </trkpt>
      <trkpt lat="43.40511" lon="6.07281">
        <ele>189.19999694824</ele>
        <time>2015-11-25T13:08:22Z</time>
      </trkpt>
      <trkpt lat="43.40501" lon="6.07277">
        <ele>189.19999694824</ele>
        <time>2015-11-25T13:08:24Z</time>
      </trkpt>
      <trkpt lat="43.40491" lon="6.07275">
        <ele>188.60000610352</ele>
        <time>2015-11-25T13:08:26Z</time>
      </trkpt>
      <trkpt lat="43.40482" lon="6.07275">
        <ele>189</ele>
        <time>2015-11-25T13:08:28Z</time>
      </trkpt>
      <trkpt lat="43.40472" lon="6.07276">
        <ele>189.60000610352</ele>
        <time>2015-11-25T13:08:30Z</time>
      </trkpt>
      <trkpt lat="43.40462" lon="6.07276">
        <ele>190</ele>
        <time>2015-11-25T13:08:32Z</time>
      </trkpt>
      <trkpt lat="43.40443" lon="6.07277">
        <ele>191.39999389648</ele>
        <time>2015-11-25T13:08:36Z</time>
      </trkpt>
      <trkpt lat="43.40425" lon="6.07278">
        <ele>191.80000305176</ele>
        <time>2015-11-25T13:08:40Z</time>
      </trkpt>
      <trkpt lat="43.40417" lon="6.07279">
        <ele>192.60000610352</ele>
        <time>2015-11-25T13:08:42Z</time>
      </trkpt>
      <trkpt lat="43.40409" lon="6.07277">
        <ele>193.19999694824</ele>
        <time>2015-11-25T13:08:44Z</time>
      </trkpt>
      <trkpt lat="43.40401" lon="6.07272">
        <ele>193.39999389648</ele>
        <time>2015-11-25T13:08:46Z</time>
      </trkpt>
      <trkpt lat="43.40395" lon="6.07264">
        <ele>193.80000305176</ele>
        <time>2015-11-25T13:08:48Z</time>
      </trkpt>
      <trkpt lat="43.40393" lon="6.07259">
        <ele>193.80000305176</ele>
        <time>2015-11-25T13:08:49Z</time>
      </trkpt>
      <trkpt lat="43.4039" lon="6.07255">
        <ele>193.60000610352</ele>
        <time>2015-11-25T13:08:50Z</time>
      </trkpt>
      <trkpt lat="43.40382" lon="6.07248">
        <ele>193.19999694824</ele>
        <time>2015-11-25T13:08:52Z</time>
      </trkpt>
      <trkpt lat="43.40378" lon="6.07246">
        <ele>193.19999694824</ele>
        <time>2015-11-25T13:08:53Z</time>
      </trkpt>
      <trkpt lat="43.40374" lon="6.07244">
        <ele>193.60000610352</ele>
        <time>2015-11-25T13:08:54Z</time>
      </trkpt>
      <trkpt lat="43.40365" lon="6.0724">
        <ele>194</ele>
        <time>2015-11-25T13:08:56Z</time>
      </trkpt>
      <trkpt lat="43.40358" lon="6.07234">
        <ele>194.60000610352</ele>
        <time>2015-11-25T13:08:58Z</time>
      </trkpt>
      <trkpt lat="43.40342" lon="6.07223">
        <ele>195.60000610352</ele>
        <time>2015-11-25T13:09:02Z</time>
      </trkpt>
      <trkpt lat="43.40334" lon="6.0722">
        <ele>195.80000305176</ele>
        <time>2015-11-25T13:09:04Z</time>
      </trkpt>
      <trkpt lat="43.40318" lon="6.07213">
        <ele>196.60000610352</ele>
        <time>2015-11-25T13:09:08Z</time>
      </trkpt>
      <trkpt lat="43.4031" lon="6.0721">
        <ele>197.39999389648</ele>
        <time>2015-11-25T13:09:10Z</time>
      </trkpt>
      <trkpt lat="43.40303" lon="6.07206">
        <ele>197.80000305176</ele>
        <time>2015-11-25T13:09:12Z</time>
      </trkpt>
      <trkpt lat="43.40296" lon="6.072">
        <ele>198.39999389648</ele>
        <time>2015-11-25T13:09:14Z</time>
      </trkpt>
      <trkpt lat="43.4029" lon="6.07194">
        <ele>198.60000610352</ele>
        <time>2015-11-25T13:09:16Z</time>
      </trkpt>
      <trkpt lat="43.40279" lon="6.07179">
        <ele>198.60000610352</ele>
        <time>2015-11-25T13:09:20Z</time>
      </trkpt>
      <trkpt lat="43.40276" lon="6.07175">
        <ele>198.60000610352</ele>
        <time>2015-11-25T13:09:21Z</time>
      </trkpt>
      <trkpt lat="43.40274" lon="6.07172">
        <ele>197.80000305176</ele>
        <time>2015-11-25T13:09:22Z</time>
      </trkpt>
      <trkpt lat="43.4027" lon="6.07169">
        <ele>197.19999694824</ele>
        <time>2015-11-25T13:09:23Z</time>
      </trkpt>
      <trkpt lat="43.40267" lon="6.07166">
        <ele>197.19999694824</ele>
        <time>2015-11-25T13:09:24Z</time>
      </trkpt>
      <trkpt lat="43.4026" lon="6.07164">
        <ele>197.19999694824</ele>
        <time>2015-11-25T13:09:26Z</time>
      </trkpt>
      <trkpt lat="43.40245" lon="6.07165">
        <ele>197.60000610352</ele>
        <time>2015-11-25T13:09:30Z</time>
      </trkpt>
      <trkpt lat="43.40239" lon="6.07167">
        <ele>198</ele>
        <time>2015-11-25T13:09:32Z</time>
      </trkpt>
      <trkpt lat="43.40235" lon="6.07167">
        <ele>198</ele>
        <time>2015-11-25T13:09:33Z</time>
      </trkpt>
      <trkpt lat="43.40232" lon="6.07168">
        <ele>198.19999694824</ele>
        <time>2015-11-25T13:09:34Z</time>
      </trkpt>
      <trkpt lat="43.40228" lon="6.07169">
        <ele>198.39999389648</ele>
        <time>2015-11-25T13:09:35Z</time>
      </trkpt>
      <trkpt lat="43.40224" lon="6.07169">
        <ele>198.60000610352</ele>
        <time>2015-11-25T13:09:36Z</time>
      </trkpt>
      <trkpt lat="43.40219" lon="6.07172">
        <ele>198.80000305176</ele>
        <time>2015-11-25T13:09:38Z</time>
      </trkpt>
      <trkpt lat="43.40213" lon="6.07176">
        <ele>199.39999389648</ele>
        <time>2015-11-25T13:09:40Z</time>
      </trkpt>
      <trkpt lat="43.4021" lon="6.07177">
        <ele>199.39999389648</ele>
        <time>2015-11-25T13:09:41Z</time>
      </trkpt>
      <trkpt lat="43.40207" lon="6.07179">
        <ele>199.60000610352</ele>
        <time>2015-11-25T13:09:42Z</time>
      </trkpt>
      <trkpt lat="43.40199" lon="6.07185">
        <ele>201</ele>
        <time>2015-11-25T13:09:45Z</time>
      </trkpt>
      <trkpt lat="43.40196" lon="6.07186">
        <ele>201.39999389648</ele>
        <time>2015-11-25T13:09:46Z</time>
      </trkpt>
      <trkpt lat="43.40194" lon="6.07188">
        <ele>201.80000305176</ele>
        <time>2015-11-25T13:09:47Z</time>
      </trkpt>
      <trkpt lat="43.40191" lon="6.07189">
        <ele>202.19999694824</ele>
        <time>2015-11-25T13:09:48Z</time>
      </trkpt>
      <trkpt lat="43.40186" lon="6.07192">
        <ele>202.80000305176</ele>
        <time>2015-11-25T13:09:50Z</time>
      </trkpt>
      <trkpt lat="43.40181" lon="6.07195">
        <ele>203.19999694824</ele>
        <time>2015-11-25T13:09:52Z</time>
      </trkpt>
      <trkpt lat="43.40173" lon="6.07201">
        <ele>204.60000610352</ele>
        <time>2015-11-25T13:09:55Z</time>
      </trkpt>
      <trkpt lat="43.40166" lon="6.07206">
        <ele>205.39999389648</ele>
        <time>2015-11-25T13:09:58Z</time>
      </trkpt>
      <trkpt lat="43.40162" lon="6.0721">
        <ele>205.60000610352</ele>
        <time>2015-11-25T13:10:00Z</time>
      </trkpt>
      <trkpt lat="43.40158" lon="6.07214">
        <ele>206.19999694824</ele>
        <time>2015-11-25T13:10:02Z</time>
      </trkpt>
      <trkpt lat="43.40156" lon="6.07216">
        <ele>206.39999389648</ele>
        <time>2015-11-25T13:10:03Z</time>
      </trkpt>
      <trkpt lat="43.40154" lon="6.07217">
        <ele>206.60000610352</ele>
        <time>2015-11-25T13:10:04Z</time>
      </trkpt>
      <trkpt lat="43.40151" lon="6.07222">
        <ele>207</ele>
        <time>2015-11-25T13:10:06Z</time>
      </trkpt>
      <trkpt lat="43.40148" lon="6.07227">
        <ele>207.19999694824</ele>
        <time>2015-11-25T13:10:08Z</time>
      </trkpt>
      <trkpt lat="43.40146" lon="6.07233">
        <ele>207.60000610352</ele>
        <time>2015-11-25T13:10:10Z</time>
      </trkpt>
      <trkpt lat="43.40145" lon="6.07239">
        <ele>208</ele>
        <time>2015-11-25T13:10:12Z</time>
      </trkpt>
      <trkpt lat="43.40146" lon="6.07255">
        <ele>207.80000305176</ele>
        <time>2015-11-25T13:10:16Z</time>
      </trkpt>
      <trkpt lat="43.40146" lon="6.07263">
        <ele>207.80000305176</ele>
        <time>2015-11-25T13:10:18Z</time>
      </trkpt>
      <trkpt lat="43.40147" lon="6.07272">
        <ele>207.39999389648</ele>
        <time>2015-11-25T13:10:20Z</time>
      </trkpt>
      <trkpt lat="43.40147" lon="6.07289">
        <ele>208.19999694824</ele>
        <time>2015-11-25T13:10:24Z</time>
      </trkpt>
      <trkpt lat="43.40147" lon="6.07297">
        <ele>208.39999389648</ele>
        <time>2015-11-25T13:10:26Z</time>
      </trkpt>
      <trkpt lat="43.40146" lon="6.07306">
        <ele>208.19999694824</ele>
        <time>2015-11-25T13:10:28Z</time>
      </trkpt>
      <trkpt lat="43.40144" lon="6.07324">
        <ele>208.39999389648</ele>
        <time>2015-11-25T13:10:32Z</time>
      </trkpt>
      <trkpt lat="43.40141" lon="6.07342">
        <ele>208.80000305176</ele>
        <time>2015-11-25T13:10:36Z</time>
      </trkpt>
      <trkpt lat="43.4014" lon="6.07351">
        <ele>209</ele>
        <time>2015-11-25T13:10:38Z</time>
      </trkpt>
      <trkpt lat="43.40138" lon="6.0737">
        <ele>209</ele>
        <time>2015-11-25T13:10:42Z</time>
      </trkpt>
      <trkpt lat="43.40137" lon="6.07379">
        <ele>209.19999694824</ele>
        <time>2015-11-25T13:10:44Z</time>
      </trkpt>
      <trkpt lat="43.40137" lon="6.07383">
        <ele>209.19999694824</ele>
        <time>2015-11-25T13:10:45Z</time>
      </trkpt>
      <trkpt lat="43.40137" lon="6.07388">
        <ele>209.19999694824</ele>
        <time>2015-11-25T13:10:46Z</time>
      </trkpt>
      <trkpt lat="43.40139" lon="6.07398">
        <ele>209.19999694824</ele>
        <time>2015-11-25T13:10:48Z</time>
      </trkpt>
      <trkpt lat="43.40141" lon="6.07407">
        <ele>208.80000305176</ele>
        <time>2015-11-25T13:10:50Z</time>
      </trkpt>
      <trkpt lat="43.40143" lon="6.07416">
        <ele>209.19999694824</ele>
        <time>2015-11-25T13:10:52Z</time>
      </trkpt>
      <trkpt lat="43.40144" lon="6.07426">
        <ele>209.80000305176</ele>
        <time>2015-11-25T13:10:54Z</time>
      </trkpt>
      <trkpt lat="43.40145" lon="6.07436">
        <ele>210</ele>
        <time>2015-11-25T13:10:56Z</time>
      </trkpt>
      <trkpt lat="43.40146" lon="6.07441">
        <ele>210.60000610352</ele>
        <time>2015-11-25T13:10:57Z</time>
      </trkpt>
      <trkpt lat="43.40146" lon="6.07445">
        <ele>210.80000305176</ele>
        <time>2015-11-25T13:10:58Z</time>
      </trkpt>
      <trkpt lat="43.40145" lon="6.07465">
        <ele>211.39999389648</ele>
        <time>2015-11-25T13:11:02Z</time>
      </trkpt>
      <trkpt lat="43.40144" lon="6.0747">
        <ele>211.39999389648</ele>
        <time>2015-11-25T13:11:03Z</time>
      </trkpt>
      <trkpt lat="43.40144" lon="6.07474">
        <ele>211.39999389648</ele>
        <time>2015-11-25T13:11:04Z</time>
      </trkpt>
      <trkpt lat="43.40143" lon="6.07484">
        <ele>211.60000610352</ele>
        <time>2015-11-25T13:11:06Z</time>
      </trkpt>
      <trkpt lat="43.40142" lon="6.07488">
        <ele>211.80000305176</ele>
        <time>2015-11-25T13:11:07Z</time>
      </trkpt>
      <trkpt lat="43.40142" lon="6.07492">
        <ele>212</ele>
        <time>2015-11-25T13:11:08Z</time>
      </trkpt>
      <trkpt lat="43.4014" lon="6.075">
        <ele>212.60000610352</ele>
        <time>2015-11-25T13:11:10Z</time>
      </trkpt>
      <trkpt lat="43.40137" lon="6.07508">
        <ele>213</ele>
        <time>2015-11-25T13:11:12Z</time>
      </trkpt>
      <trkpt lat="43.40133" lon="6.07519">
        <ele>214</ele>
        <time>2015-11-25T13:11:15Z</time>
      </trkpt>
      <trkpt lat="43.40131" lon="6.07522">
        <ele>214.19999694824</ele>
        <time>2015-11-25T13:11:16Z</time>
      </trkpt>
      <trkpt lat="43.40128" lon="6.0753">
        <ele>214.60000610352</ele>
        <time>2015-11-25T13:11:18Z</time>
      </trkpt>
      <trkpt lat="43.40125" lon="6.07536">
        <ele>214.60000610352</ele>
        <time>2015-11-25T13:11:20Z</time>
      </trkpt>
      <trkpt lat="43.40121" lon="6.07544">
        <ele>214.80000305176</ele>
        <time>2015-11-25T13:11:22Z</time>
      </trkpt>
      <trkpt lat="43.40118" lon="6.07551">
        <ele>214.80000305176</ele>
        <time>2015-11-25T13:11:24Z</time>
      </trkpt>
      <trkpt lat="43.40115" lon="6.07555">
        <ele>215</ele>
        <time>2015-11-25T13:11:25Z</time>
      </trkpt>
      <trkpt lat="43.40113" lon="6.07557">
        <ele>215</ele>
        <time>2015-11-25T13:11:26Z</time>
      </trkpt>
      <trkpt lat="43.40109" lon="6.07563">
        <ele>215.39999389648</ele>
        <time>2015-11-25T13:11:28Z</time>
      </trkpt>
      <trkpt lat="43.40105" lon="6.0757">
        <ele>215.19999694824</ele>
        <time>2015-11-25T13:11:30Z</time>
      </trkpt>
      <trkpt lat="43.40101" lon="6.07577">
        <ele>215.39999389648</ele>
        <time>2015-11-25T13:11:32Z</time>
      </trkpt>
      <trkpt lat="43.40097" lon="6.07584">
        <ele>215.39999389648</ele>
        <time>2015-11-25T13:11:34Z</time>
      </trkpt>
      <trkpt lat="43.40094" lon="6.07592">
        <ele>215.60000610352</ele>
        <time>2015-11-25T13:11:36Z</time>
      </trkpt>
      <trkpt lat="43.40093" lon="6.07595">
        <ele>215.60000610352</ele>
        <time>2015-11-25T13:11:37Z</time>
      </trkpt>
      <trkpt lat="43.40092" lon="6.07599">
        <ele>215.80000305176</ele>
        <time>2015-11-25T13:11:38Z</time>
      </trkpt>
      <trkpt lat="43.40091" lon="6.07607">
        <ele>215.80000305176</ele>
        <time>2015-11-25T13:11:40Z</time>
      </trkpt>
      <trkpt lat="43.40091" lon="6.07615">
        <ele>216.19999694824</ele>
        <time>2015-11-25T13:11:42Z</time>
      </trkpt>
      <trkpt lat="43.4009" lon="6.07637">
        <ele>217.80000305176</ele>
        <time>2015-11-25T13:11:48Z</time>
      </trkpt>
      <trkpt lat="43.4009" lon="6.07644">
        <ele>217.60000610352</ele>
        <time>2015-11-25T13:11:50Z</time>
      </trkpt>
      <trkpt lat="43.40087" lon="6.07659">
        <ele>219</ele>
        <time>2015-11-25T13:11:54Z</time>
      </trkpt>
      <trkpt lat="43.40083" lon="6.07672">
        <ele>220.19999694824</ele>
        <time>2015-11-25T13:11:58Z</time>
      </trkpt>
      <trkpt lat="43.40079" lon="6.07678">
        <ele>221</ele>
        <time>2015-11-25T13:12:00Z</time>
      </trkpt>
      <trkpt lat="43.40077" lon="6.07683">
        <ele>221.39999389648</ele>
        <time>2015-11-25T13:12:02Z</time>
      </trkpt>
      <trkpt lat="43.40073" lon="6.07689">
        <ele>221.80000305176</ele>
        <time>2015-11-25T13:12:04Z</time>
      </trkpt>
      <trkpt lat="43.4007" lon="6.07694">
        <ele>221.80000305176</ele>
        <time>2015-11-25T13:12:06Z</time>
      </trkpt>
      <trkpt lat="43.40068" lon="6.07696">
        <ele>222</ele>
        <time>2015-11-25T13:12:07Z</time>
      </trkpt>
      <trkpt lat="43.40058" lon="6.0771">
        <ele>222.19999694824</ele>
        <time>2015-11-25T13:12:12Z</time>
      </trkpt>
      <trkpt lat="43.40045" lon="6.07728">
        <ele>222.60000610352</ele>
        <time>2015-11-25T13:12:18Z</time>
      </trkpt>
      <trkpt lat="43.40041" lon="6.07735">
        <ele>222.80000305176</ele>
        <time>2015-11-25T13:12:20Z</time>
      </trkpt>
      <trkpt lat="43.40038" lon="6.07742">
        <ele>222.80000305176</ele>
        <time>2015-11-25T13:12:22Z</time>
      </trkpt>
      <trkpt lat="43.40034" lon="6.0775">
        <ele>222.80000305176</ele>
        <time>2015-11-25T13:12:24Z</time>
      </trkpt>
      <trkpt lat="43.40031" lon="6.07757">
        <ele>222.80000305176</ele>
        <time>2015-11-25T13:12:26Z</time>
      </trkpt>
      <trkpt lat="43.40029" lon="6.07765">
        <ele>223.19999694824</ele>
        <time>2015-11-25T13:12:28Z</time>
      </trkpt>
      <trkpt lat="43.40025" lon="6.07782">
        <ele>223.39999389648</ele>
        <time>2015-11-25T13:12:32Z</time>
      </trkpt>
      <trkpt lat="43.40021" lon="6.07793">
        <ele>223.39999389648</ele>
        <time>2015-11-25T13:12:35Z</time>
      </trkpt>
      <trkpt lat="43.40018" lon="6.078">
        <ele>223.60000610352</ele>
        <time>2015-11-25T13:12:37Z</time>
      </trkpt>
      <trkpt lat="43.40017" lon="6.07807">
        <ele>223.80000305176</ele>
        <time>2015-11-25T13:12:39Z</time>
      </trkpt>
      <trkpt lat="43.40014" lon="6.07813">
        <ele>224</ele>
        <time>2015-11-25T13:12:41Z</time>
      </trkpt>
      <trkpt lat="43.40012" lon="6.0782">
        <ele>224</ele>
        <time>2015-11-25T13:12:43Z</time>
      </trkpt>
      <trkpt lat="43.4001" lon="6.0783">
        <ele>224.39999389648</ele>
        <time>2015-11-25T13:12:46Z</time>
      </trkpt>
      <trkpt lat="43.40009" lon="6.07834">
        <ele>224.39999389648</ele>
        <time>2015-11-25T13:12:47Z</time>
      </trkpt>
      <trkpt lat="43.40007" lon="6.07841">
        <ele>224.39999389648</ele>
        <time>2015-11-25T13:12:49Z</time>
      </trkpt>
      <trkpt lat="43.40005" lon="6.07849">
        <ele>224.39999389648</ele>
        <time>2015-11-25T13:12:51Z</time>
      </trkpt>
      <trkpt lat="43.40002" lon="6.07857">
        <ele>224.60000610352</ele>
        <time>2015-11-25T13:12:53Z</time>
      </trkpt>
      <trkpt lat="43.39999" lon="6.07872">
        <ele>225</ele>
        <time>2015-11-25T13:12:57Z</time>
      </trkpt>
      <trkpt lat="43.39996" lon="6.0788">
        <ele>225</ele>
        <time>2015-11-25T13:12:59Z</time>
      </trkpt>
      <trkpt lat="43.39993" lon="6.07896">
        <ele>225.60000610352</ele>
        <time>2015-11-25T13:13:03Z</time>
      </trkpt>
      <trkpt lat="43.39991" lon="6.07904">
        <ele>226</ele>
        <time>2015-11-25T13:13:05Z</time>
      </trkpt>
      <trkpt lat="43.39988" lon="6.07915">
        <ele>226.39999389648</ele>
        <time>2015-11-25T13:13:08Z</time>
      </trkpt>
      <trkpt lat="43.39987" lon="6.0792">
        <ele>226.60000610352</ele>
        <time>2015-11-25T13:13:09Z</time>
      </trkpt>
      <trkpt lat="43.39985" lon="6.07928">
        <ele>226.80000305176</ele>
        <time>2015-11-25T13:13:11Z</time>
      </trkpt>
      <trkpt lat="43.39983" lon="6.07936">
        <ele>227.39999389648</ele>
        <time>2015-11-25T13:13:13Z</time>
      </trkpt>
      <trkpt lat="43.39982" lon="6.0794">
        <ele>227.80000305176</ele>
        <time>2015-11-25T13:13:14Z</time>
      </trkpt>
      <trkpt lat="43.39981" lon="6.07944">
        <ele>228</ele>
        <time>2015-11-25T13:13:15Z</time>
      </trkpt>
      <trkpt lat="43.39978" lon="6.07951">
        <ele>228.39999389648</ele>
        <time>2015-11-25T13:13:17Z</time>
      </trkpt>
      <trkpt lat="43.39977" lon="6.07957">
        <ele>228.60000610352</ele>
        <time>2015-11-25T13:13:19Z</time>
      </trkpt>
      <trkpt lat="43.39976" lon="6.07958">
        <ele>228.80000305176</ele>
        <time>2015-11-25T13:13:20Z</time>
      </trkpt>
      <trkpt lat="43.39975" lon="6.0796">
        <ele>229.19999694824</ele>
        <time>2015-11-25T13:13:21Z</time>
      </trkpt>
      <trkpt lat="43.39974" lon="6.07962">
        <ele>229.39999389648</ele>
        <time>2015-11-25T13:13:22Z</time>
      </trkpt>
      <trkpt lat="43.39973" lon="6.07964">
        <ele>229.60000610352</ele>
        <time>2015-11-25T13:13:23Z</time>
      </trkpt>
      <trkpt lat="43.3997" lon="6.07967">
        <ele>230</ele>
        <time>2015-11-25T13:13:25Z</time>
      </trkpt>
      <trkpt lat="43.39968" lon="6.07968">
        <ele>230.19999694824</ele>
        <time>2015-11-25T13:13:26Z</time>
      </trkpt>
      <trkpt lat="43.39966" lon="6.07969">
        <ele>230.19999694824</ele>
        <time>2015-11-25T13:13:27Z</time>
      </trkpt>
      <trkpt lat="43.39962" lon="6.07973">
        <ele>230.80000305176</ele>
        <time>2015-11-25T13:13:29Z</time>
      </trkpt>
      <trkpt lat="43.39958" lon="6.07976">
        <ele>231</ele>
        <time>2015-11-25T13:13:31Z</time>
      </trkpt>
      <trkpt lat="43.39956" lon="6.07977">
        <ele>231.19999694824</ele>
        <time>2015-11-25T13:13:32Z</time>
      </trkpt>
      <trkpt lat="43.39954" lon="6.07979">
        <ele>231.19999694824</ele>
        <time>2015-11-25T13:13:33Z</time>
      </trkpt>
      <trkpt lat="43.39949" lon="6.07982">
        <ele>231.60000610352</ele>
        <time>2015-11-25T13:13:35Z</time>
      </trkpt>
      <trkpt lat="43.39939" lon="6.07987">
        <ele>232</ele>
        <time>2015-11-25T13:13:39Z</time>
      </trkpt>
      <trkpt lat="43.39934" lon="6.0799">
        <ele>232.39999389648</ele>
        <time>2015-11-25T13:13:41Z</time>
      </trkpt>
      <trkpt lat="43.39929" lon="6.07993">
        <ele>232.19999694824</ele>
        <time>2015-11-25T13:13:43Z</time>
      </trkpt>
      <trkpt lat="43.39919" lon="6.08003">
        <ele>231.80000305176</ele>
        <time>2015-11-25T13:13:47Z</time>
      </trkpt>
      <trkpt lat="43.39913" lon="6.08009">
        <ele>231.80000305176</ele>
        <time>2015-11-25T13:13:49Z</time>
      </trkpt>
      <trkpt lat="43.39906" lon="6.08019">
        <ele>231.19999694824</ele>
        <time>2015-11-25T13:13:52Z</time>
      </trkpt>
      <trkpt lat="43.39903" lon="6.08022">
        <ele>231</ele>
        <time>2015-11-25T13:13:53Z</time>
      </trkpt>
      <trkpt lat="43.39897" lon="6.08025">
        <ele>231.19999694824</ele>
        <time>2015-11-25T13:13:55Z</time>
      </trkpt>
      <trkpt lat="43.39894" lon="6.08025">
        <ele>231</ele>
        <time>2015-11-25T13:13:56Z</time>
      </trkpt>
      <trkpt lat="43.3989" lon="6.08026">
        <ele>231</ele>
        <time>2015-11-25T13:13:57Z</time>
      </trkpt>
      <trkpt lat="43.39883" lon="6.08025">
        <ele>230.80000305176</ele>
        <time>2015-11-25T13:13:59Z</time>
      </trkpt>
      <trkpt lat="43.39875" lon="6.08022">
        <ele>230.80000305176</ele>
        <time>2015-11-25T13:14:01Z</time>
      </trkpt>
      <trkpt lat="43.39872" lon="6.08022">
        <ele>230.80000305176</ele>
        <time>2015-11-25T13:14:02Z</time>
      </trkpt>
      <trkpt lat="43.39868" lon="6.0802">
        <ele>230.60000610352</ele>
        <time>2015-11-25T13:14:03Z</time>
      </trkpt>
      <trkpt lat="43.3986" lon="6.08014">
        <ele>230.19999694824</ele>
        <time>2015-11-25T13:14:05Z</time>
      </trkpt>
      <trkpt lat="43.39853" lon="6.0801">
        <ele>229.80000305176</ele>
        <time>2015-11-25T13:14:07Z</time>
      </trkpt>
      <trkpt lat="43.39845" lon="6.08005">
        <ele>229.39999389648</ele>
        <time>2015-11-25T13:14:09Z</time>
      </trkpt>
      <trkpt lat="43.39838" lon="6.08">
        <ele>229.39999389648</ele>
        <time>2015-11-25T13:14:11Z</time>
      </trkpt>
      <trkpt lat="43.39822" lon="6.07991">
        <ele>230</ele>
        <time>2015-11-25T13:14:15Z</time>
      </trkpt>
      <trkpt lat="43.39815" lon="6.07988">
        <ele>229.60000610352</ele>
        <time>2015-11-25T13:14:17Z</time>
      </trkpt>
      <trkpt lat="43.39808" lon="6.07985">
        <ele>229.80000305176</ele>
        <time>2015-11-25T13:14:19Z</time>
      </trkpt>
      <trkpt lat="43.39801" lon="6.07982">
        <ele>229.60000610352</ele>
        <time>2015-11-25T13:14:21Z</time>
      </trkpt>
      <trkpt lat="43.39793" lon="6.0798">
        <ele>230.19999694824</ele>
        <time>2015-11-25T13:14:23Z</time>
      </trkpt>
      <trkpt lat="43.39787" lon="6.07977">
        <ele>230.60000610352</ele>
        <time>2015-11-25T13:14:25Z</time>
      </trkpt>
      <trkpt lat="43.39782" lon="6.07975">
        <ele>230.80000305176</ele>
        <time>2015-11-25T13:14:27Z</time>
      </trkpt>
      <trkpt lat="43.39779" lon="6.07973">
        <ele>231</ele>
        <time>2015-11-25T13:14:28Z</time>
      </trkpt>
      <trkpt lat="43.39776" lon="6.07972">
        <ele>231.60000610352</ele>
        <time>2015-11-25T13:14:29Z</time>
      </trkpt>
      <trkpt lat="43.39771" lon="6.07969">
        <ele>231.80000305176</ele>
        <time>2015-11-25T13:14:31Z</time>
      </trkpt>
      <trkpt lat="43.39763" lon="6.07965">
        <ele>232.60000610352</ele>
        <time>2015-11-25T13:14:34Z</time>
      </trkpt>
      <trkpt lat="43.39755" lon="6.07961">
        <ele>233</ele>
        <time>2015-11-25T13:14:37Z</time>
      </trkpt>
      <trkpt lat="43.39752" lon="6.0796">
        <ele>233.39999389648</ele>
        <time>2015-11-25T13:14:38Z</time>
      </trkpt>
      <trkpt lat="43.3975" lon="6.07958">
        <ele>233.80000305176</ele>
        <time>2015-11-25T13:14:39Z</time>
      </trkpt>
      <trkpt lat="43.39738" lon="6.07951">
        <ele>234.80000305176</ele>
        <time>2015-11-25T13:14:43Z</time>
      </trkpt>
      <trkpt lat="43.39733" lon="6.07947">
        <ele>235</ele>
        <time>2015-11-25T13:14:45Z</time>
      </trkpt>
      <trkpt lat="43.39729" lon="6.07942">
        <ele>235</ele>
        <time>2015-11-25T13:14:47Z</time>
      </trkpt>
      <trkpt lat="43.39725" lon="6.07938">
        <ele>235.19999694824</ele>
        <time>2015-11-25T13:14:49Z</time>
      </trkpt>
      <trkpt lat="43.39724" lon="6.07936">
        <ele>235.39999389648</ele>
        <time>2015-11-25T13:14:50Z</time>
      </trkpt>
      <trkpt lat="43.39722" lon="6.07933">
        <ele>235.60000610352</ele>
        <time>2015-11-25T13:14:51Z</time>
      </trkpt>
      <trkpt lat="43.3972" lon="6.07929">
        <ele>235.80000305176</ele>
        <time>2015-11-25T13:14:53Z</time>
      </trkpt>
      <trkpt lat="43.39713" lon="6.07922">
        <ele>236.60000610352</ele>
        <time>2015-11-25T13:14:57Z</time>
      </trkpt>
      <trkpt lat="43.39707" lon="6.07916">
        <ele>237</ele>
        <time>2015-11-25T13:15:01Z</time>
      </trkpt>
      <trkpt lat="43.39701" lon="6.07909">
        <ele>238.19999694824</ele>
        <time>2015-11-25T13:15:05Z</time>
      </trkpt>
      <trkpt lat="43.39696" lon="6.07902">
        <ele>239.19999694824</ele>
        <time>2015-11-25T13:15:09Z</time>
      </trkpt>
      <trkpt lat="43.39693" lon="6.07899">
        <ele>239.80000305176</ele>
        <time>2015-11-25T13:15:11Z</time>
      </trkpt>
      <trkpt lat="43.39692" lon="6.07897">
        <ele>240</ele>
        <time>2015-11-25T13:15:12Z</time>
      </trkpt>
      <trkpt lat="43.3969" lon="6.07896">
        <ele>240.39999389648</ele>
        <time>2015-11-25T13:15:13Z</time>
      </trkpt>
      <trkpt lat="43.39687" lon="6.07894">
        <ele>241</ele>
        <time>2015-11-25T13:15:15Z</time>
      </trkpt>
      <trkpt lat="43.39677" lon="6.07889">
        <ele>241.80000305176</ele>
        <time>2015-11-25T13:15:21Z</time>
      </trkpt>
      <trkpt lat="43.39673" lon="6.07888">
        <ele>242</ele>
        <time>2015-11-25T13:15:23Z</time>
      </trkpt>
      <trkpt lat="43.39671" lon="6.07888">
        <ele>242.19999694824</ele>
        <time>2015-11-25T13:15:24Z</time>
      </trkpt>
      <trkpt lat="43.39669" lon="6.07888">
        <ele>242.39999389648</ele>
        <time>2015-11-25T13:15:25Z</time>
      </trkpt>
      <trkpt lat="43.39665" lon="6.07887">
        <ele>242.39999389648</ele>
        <time>2015-11-25T13:15:27Z</time>
      </trkpt>
      <trkpt lat="43.39662" lon="6.07888">
        <ele>242.39999389648</ele>
        <time>2015-11-25T13:15:29Z</time>
      </trkpt>
      <trkpt lat="43.3966" lon="6.07888">
        <ele>242.60000610352</ele>
        <time>2015-11-25T13:15:30Z</time>
      </trkpt>
      <trkpt lat="43.39654" lon="6.07888">
        <ele>242.80000305176</ele>
        <time>2015-11-25T13:15:33Z</time>
      </trkpt>
      <trkpt lat="43.39646" lon="6.07889">
        <ele>243</ele>
        <time>2015-11-25T13:15:37Z</time>
      </trkpt>
      <trkpt lat="43.39644" lon="6.07889">
        <ele>243.19999694824</ele>
        <time>2015-11-25T13:15:38Z</time>
      </trkpt>
      <trkpt lat="43.39642" lon="6.0789">
        <ele>243.39999389648</ele>
        <time>2015-11-25T13:15:39Z</time>
      </trkpt>
      <trkpt lat="43.39637" lon="6.07891">
        <ele>243.39999389648</ele>
        <time>2015-11-25T13:15:41Z</time>
      </trkpt>
      <trkpt lat="43.39632" lon="6.07892">
        <ele>243.60000610352</ele>
        <time>2015-11-25T13:15:43Z</time>
      </trkpt>
      <trkpt lat="43.39628" lon="6.07893">
        <ele>244</ele>
        <time>2015-11-25T13:15:45Z</time>
      </trkpt>
      <trkpt lat="43.39623" lon="6.07895">
        <ele>244.19999694824</ele>
        <time>2015-11-25T13:15:47Z</time>
      </trkpt>
      <trkpt lat="43.39615" lon="6.07899">
        <ele>244.39999389648</ele>
        <time>2015-11-25T13:15:51Z</time>
      </trkpt>
      <trkpt lat="43.39607" lon="6.07901">
        <ele>245</ele>
        <time>2015-11-25T13:15:55Z</time>
      </trkpt>
      <trkpt lat="43.39603" lon="6.07902">
        <ele>245.19999694824</ele>
        <time>2015-11-25T13:15:57Z</time>
      </trkpt>
      <trkpt lat="43.396" lon="6.07903">
        <ele>245.39999389648</ele>
        <time>2015-11-25T13:15:59Z</time>
      </trkpt>
      <trkpt lat="43.39597" lon="6.07904">
        <ele>245.80000305176</ele>
        <time>2015-11-25T13:16:01Z</time>
      </trkpt>
      <trkpt lat="43.39593" lon="6.07904">
        <ele>246.19999694824</ele>
        <time>2015-11-25T13:16:03Z</time>
      </trkpt>
      <trkpt lat="43.3959" lon="6.07904">
        <ele>246.60000610352</ele>
        <time>2015-11-25T13:16:05Z</time>
      </trkpt>
      <trkpt lat="43.39588" lon="6.07904">
        <ele>247.39999389648</ele>
        <time>2015-11-25T13:16:07Z</time>
      </trkpt>
      <trkpt lat="43.39586" lon="6.07905">
        <ele>247.80000305176</ele>
        <time>2015-11-25T13:16:09Z</time>
      </trkpt>
      <trkpt lat="43.39584" lon="6.07905">
        <ele>247.80000305176</ele>
        <time>2015-11-25T13:16:11Z</time>
      </trkpt>
      <trkpt lat="43.39584" lon="6.07906">
        <ele>248</ele>
        <time>2015-11-25T13:16:13Z</time>
      </trkpt>
      <trkpt lat="43.39584" lon="6.07906">
        <ele>247.80000305176</ele>
        <time>2015-11-25T13:16:14Z</time>
      </trkpt>
      <trkpt lat="43.39584" lon="6.07906">
        <ele>247.80000305176</ele>
        <time>2015-11-25T13:16:15Z</time>
      </trkpt>
      <trkpt lat="43.39583" lon="6.07906">
        <ele>248</ele>
        <time>2015-11-25T13:16:17Z</time>
      </trkpt>
      <trkpt lat="43.39583" lon="6.07907">
        <ele>247.80000305176</ele>
        <time>2015-11-25T13:16:19Z</time>
      </trkpt>
      <trkpt lat="43.39582" lon="6.07908">
        <ele>247.60000610352</ele>
        <time>2015-11-25T13:16:20Z</time>
      </trkpt>
      <trkpt lat="43.39583" lon="6.07907">
        <ele>247.39999389648</ele>
        <time>2015-11-25T13:16:21Z</time>
      </trkpt>
      <trkpt lat="43.39583" lon="6.07907">
        <ele>247.39999389648</ele>
        <time>2015-11-25T13:16:23Z</time>
      </trkpt>
      <trkpt lat="43.39583" lon="6.07907">
        <ele>247.39999389648</ele>
        <time>2015-11-25T13:16:27Z</time>
      </trkpt>
      <trkpt lat="43.39583" lon="6.07908">
        <ele>248.19999694824</ele>
        <time>2015-11-25T13:16:44Z</time>
      </trkpt>
      <trkpt lat="43.39583" lon="6.07908">
        <ele>248.19999694824</ele>
        <time>2015-11-25T13:16:47Z</time>
      </trkpt>
      <trkpt lat="43.39582" lon="6.07908">
        <ele>248</ele>
        <time>2015-11-25T13:16:49Z</time>
      </trkpt>
      <trkpt lat="43.39582" lon="6.07908">
        <ele>248</ele>
        <time>2015-11-25T13:16:51Z</time>
      </trkpt>
      <trkpt lat="43.39582" lon="6.07908">
        <ele>248</ele>
        <time>2015-11-25T13:16:53Z</time>
      </trkpt>
      <trkpt lat="43.39582" lon="6.07908">
        <ele>248.19999694824</ele>
        <time>2015-11-25T13:16:55Z</time>
      </trkpt>
      <trkpt lat="43.39582" lon="6.07908">
        <ele>248.60000610352</ele>
        <time>2015-11-25T13:16:59Z</time>
      </trkpt>
      <trkpt lat="43.39582" lon="6.07908">
        <ele>248.39999389648</ele>
        <time>2015-11-25T13:17:00Z</time>
      </trkpt>
      <trkpt lat="43.39582" lon="6.07908">
        <ele>248.39999389648</ele>
        <time>2015-11-25T13:17:01Z</time>
      </trkpt>
      <trkpt lat="43.39581" lon="6.07909">
        <ele>248.39999389648</ele>
        <time>2015-11-25T13:17:03Z</time>
      </trkpt>
      <trkpt lat="43.3958" lon="6.07911">
        <ele>248.60000610352</ele>
        <time>2015-11-25T13:17:05Z</time>
      </trkpt>
      <trkpt lat="43.39579" lon="6.07914">
        <ele>248.60000610352</ele>
        <time>2015-11-25T13:17:07Z</time>
      </trkpt>
      <trkpt lat="43.39578" lon="6.07918">
        <ele>248.80000305176</ele>
        <time>2015-11-25T13:17:09Z</time>
      </trkpt>
      <trkpt lat="43.39577" lon="6.07923">
        <ele>249</ele>
        <time>2015-11-25T13:17:11Z</time>
      </trkpt>
      <trkpt lat="43.39576" lon="6.07925">
        <ele>249</ele>
        <time>2015-11-25T13:17:12Z</time>
      </trkpt>
      <trkpt lat="43.39575" lon="6.07926">
        <ele>249</ele>
        <time>2015-11-25T13:17:13Z</time>
      </trkpt>
      <trkpt lat="43.39572" lon="6.07929">
        <ele>249.60000610352</ele>
        <time>2015-11-25T13:17:15Z</time>
      </trkpt>
      <trkpt lat="43.39569" lon="6.07932">
        <ele>250.39999389648</ele>
        <time>2015-11-25T13:17:17Z</time>
      </trkpt>
      <trkpt lat="43.39565" lon="6.07932">
        <ele>251.39999389648</ele>
        <time>2015-11-25T13:17:19Z</time>
      </trkpt>
      <trkpt lat="43.39561" lon="6.07933">
        <ele>252.19999694824</ele>
        <time>2015-11-25T13:17:21Z</time>
      </trkpt>
      <trkpt lat="43.39555" lon="6.07934">
        <ele>252.60000610352</ele>
        <time>2015-11-25T13:17:25Z</time>
      </trkpt>
      <trkpt lat="43.39552" lon="6.07936">
        <ele>253</ele>
        <time>2015-11-25T13:17:27Z</time>
      </trkpt>
      <trkpt lat="43.39548" lon="6.07937">
        <ele>253.19999694824</ele>
        <time>2015-11-25T13:17:29Z</time>
      </trkpt>
      <trkpt lat="43.39545" lon="6.07939">
        <ele>253.39999389648</ele>
        <time>2015-11-25T13:17:31Z</time>
      </trkpt>
      <trkpt lat="43.39544" lon="6.0794">
        <ele>253.60000610352</ele>
        <time>2015-11-25T13:17:32Z</time>
      </trkpt>
      <trkpt lat="43.39542" lon="6.0794">
        <ele>253.80000305176</ele>
        <time>2015-11-25T13:17:33Z</time>
      </trkpt>
      <trkpt lat="43.39539" lon="6.07942">
        <ele>254.19999694824</ele>
        <time>2015-11-25T13:17:35Z</time>
      </trkpt>
      <trkpt lat="43.39535" lon="6.07944">
        <ele>254.80000305176</ele>
        <time>2015-11-25T13:17:38Z</time>
      </trkpt>
      <trkpt lat="43.39528" lon="6.07948">
        <ele>255.60000610352</ele>
        <time>2015-11-25T13:17:43Z</time>
      </trkpt>
      <trkpt lat="43.39525" lon="6.07949">
        <ele>255.80000305176</ele>
        <time>2015-11-25T13:17:45Z</time>
      </trkpt>
      <trkpt lat="43.39524" lon="6.0795">
        <ele>255.80000305176</ele>
        <time>2015-11-25T13:17:46Z</time>
      </trkpt>
      <trkpt lat="43.39522" lon="6.0795">
        <ele>256</ele>
        <time>2015-11-25T13:17:47Z</time>
      </trkpt>
      <trkpt lat="43.39519" lon="6.07951">
        <ele>256.20001220703</ele>
        <time>2015-11-25T13:17:49Z</time>
      </trkpt>
      <trkpt lat="43.39518" lon="6.07951">
        <ele>256.20001220703</ele>
        <time>2015-11-25T13:17:50Z</time>
      </trkpt>
      <trkpt lat="43.39513" lon="6.07954">
        <ele>256.20001220703</ele>
        <time>2015-11-25T13:17:53Z</time>
      </trkpt>
      <trkpt lat="43.3951" lon="6.07955">
        <ele>256.20001220703</ele>
        <time>2015-11-25T13:17:55Z</time>
      </trkpt>
      <trkpt lat="43.39507" lon="6.07956">
        <ele>256.20001220703</ele>
        <time>2015-11-25T13:17:57Z</time>
      </trkpt>
      <trkpt lat="43.39504" lon="6.07957">
        <ele>256.39999389648</ele>
        <time>2015-11-25T13:17:59Z</time>
      </trkpt>
      <trkpt lat="43.39501" lon="6.07958">
        <ele>256.60000610352</ele>
        <time>2015-11-25T13:18:01Z</time>
      </trkpt>
      <trkpt lat="43.39492" lon="6.07962">
        <ele>256.60000610352</ele>
        <time>2015-11-25T13:18:07Z</time>
      </trkpt>
      <trkpt lat="43.39488" lon="6.07963">
        <ele>256.79998779297</ele>
        <time>2015-11-25T13:18:09Z</time>
      </trkpt>
      <trkpt lat="43.39487" lon="6.07964">
        <ele>257</ele>
        <time>2015-11-25T13:18:10Z</time>
      </trkpt>
      <trkpt lat="43.39481" lon="6.07965">
        <ele>257.60000610352</ele>
        <time>2015-11-25T13:18:13Z</time>
      </trkpt>
      <trkpt lat="43.39478" lon="6.07966">
        <ele>258.20001220703</ele>
        <time>2015-11-25T13:18:15Z</time>
      </trkpt>
      <trkpt lat="43.39475" lon="6.07967">
        <ele>258.60000610352</ele>
        <time>2015-11-25T13:18:17Z</time>
      </trkpt>
      <trkpt lat="43.39467" lon="6.0797">
        <ele>259.20001220703</ele>
        <time>2015-11-25T13:18:21Z</time>
      </trkpt>
      <trkpt lat="43.39463" lon="6.07972">
        <ele>259.39999389648</ele>
        <time>2015-11-25T13:18:23Z</time>
      </trkpt>
      <trkpt lat="43.3946" lon="6.07973">
        <ele>259.79998779297</ele>
        <time>2015-11-25T13:18:25Z</time>
      </trkpt>
      <trkpt lat="43.39457" lon="6.07974">
        <ele>260</ele>
        <time>2015-11-25T13:18:27Z</time>
      </trkpt>
      <trkpt lat="43.39453" lon="6.07976">
        <ele>260.20001220703</ele>
        <time>2015-11-25T13:18:29Z</time>
      </trkpt>
      <trkpt lat="43.39449" lon="6.07977">
        <ele>260.60000610352</ele>
        <time>2015-11-25T13:18:31Z</time>
      </trkpt>
      <trkpt lat="43.39446" lon="6.07978">
        <ele>261</ele>
        <time>2015-11-25T13:18:33Z</time>
      </trkpt>
      <trkpt lat="43.39442" lon="6.0798">
        <ele>261</ele>
        <time>2015-11-25T13:18:35Z</time>
      </trkpt>
      <trkpt lat="43.39438" lon="6.07981">
        <ele>261.20001220703</ele>
        <time>2015-11-25T13:18:37Z</time>
      </trkpt>
      <trkpt lat="43.39434" lon="6.07982">
        <ele>261.79998779297</ele>
        <time>2015-11-25T13:18:39Z</time>
      </trkpt>
      <trkpt lat="43.39431" lon="6.07984">
        <ele>261.79998779297</ele>
        <time>2015-11-25T13:18:41Z</time>
      </trkpt>
      <trkpt lat="43.39429" lon="6.07985">
        <ele>262</ele>
        <time>2015-11-25T13:18:42Z</time>
      </trkpt>
      <trkpt lat="43.39423" lon="6.07987">
        <ele>262.60000610352</ele>
        <time>2015-11-25T13:18:45Z</time>
      </trkpt>
      <trkpt lat="43.3942" lon="6.07988">
        <ele>262.39999389648</ele>
        <time>2015-11-25T13:18:47Z</time>
      </trkpt>
      <trkpt lat="43.39413" lon="6.07992">
        <ele>262.39999389648</ele>
        <time>2015-11-25T13:18:51Z</time>
      </trkpt>
      <trkpt lat="43.39407" lon="6.07995">
        <ele>262.79998779297</ele>
        <time>2015-11-25T13:18:54Z</time>
      </trkpt>
      <trkpt lat="43.39406" lon="6.07996">
        <ele>262.79998779297</ele>
        <time>2015-11-25T13:18:55Z</time>
      </trkpt>
      <trkpt lat="43.39403" lon="6.07998">
        <ele>263.20001220703</ele>
        <time>2015-11-25T13:18:57Z</time>
      </trkpt>
      <trkpt lat="43.394" lon="6.07999">
        <ele>263.39999389648</ele>
        <time>2015-11-25T13:18:59Z</time>
      </trkpt>
      <trkpt lat="43.39397" lon="6.08001">
        <ele>263.79998779297</ele>
        <time>2015-11-25T13:19:01Z</time>
      </trkpt>
      <trkpt lat="43.39394" lon="6.08003">
        <ele>264.39999389648</ele>
        <time>2015-11-25T13:19:03Z</time>
      </trkpt>
      <trkpt lat="43.39391" lon="6.08004">
        <ele>264.79998779297</ele>
        <time>2015-11-25T13:19:05Z</time>
      </trkpt>
      <trkpt lat="43.39389" lon="6.08004">
        <ele>264.79998779297</ele>
        <time>2015-11-25T13:19:06Z</time>
      </trkpt>
      <trkpt lat="43.39388" lon="6.08003">
        <ele>265</ele>
        <time>2015-11-25T13:19:07Z</time>
      </trkpt>
      <trkpt lat="43.39386" lon="6.08002">
        <ele>265</ele>
        <time>2015-11-25T13:19:09Z</time>
      </trkpt>
      <trkpt lat="43.39384" lon="6.08002">
        <ele>265.20001220703</ele>
        <time>2015-11-25T13:19:11Z</time>
      </trkpt>
      <trkpt lat="43.39382" lon="6.08002">
        <ele>265.20001220703</ele>
        <time>2015-11-25T13:19:13Z</time>
      </trkpt>
      <trkpt lat="43.39381" lon="6.08003">
        <ele>265.20001220703</ele>
        <time>2015-11-25T13:19:15Z</time>
      </trkpt>
      <trkpt lat="43.3938" lon="6.08004">
        <ele>265.39999389648</ele>
        <time>2015-11-25T13:19:18Z</time>
      </trkpt>
      <trkpt lat="43.3938" lon="6.08004">
        <ele>265.39999389648</ele>
        <time>2015-11-25T13:19:19Z</time>
      </trkpt>
      <trkpt lat="43.3938" lon="6.08004">
        <ele>265.20001220703</ele>
        <time>2015-11-25T13:19:21Z</time>
      </trkpt>
      <trkpt lat="43.3938" lon="6.08004">
        <ele>265.20001220703</ele>
        <time>2015-11-25T13:19:23Z</time>
      </trkpt>
      <trkpt lat="43.3938" lon="6.08004">
        <ele>265.20001220703</ele>
        <time>2015-11-25T13:19:25Z</time>
      </trkpt>
      <trkpt lat="43.3938" lon="6.08004">
        <ele>265.39999389648</ele>
        <time>2015-11-25T13:19:29Z</time>
      </trkpt>
      <trkpt lat="43.3938" lon="6.08004">
        <ele>265.60000610352</ele>
        <time>2015-11-25T13:19:31Z</time>
      </trkpt>
      <trkpt lat="43.3938" lon="6.08004">
        <ele>265.39999389648</ele>
        <time>2015-11-25T13:19:33Z</time>
      </trkpt>
      <trkpt lat="43.3938" lon="6.08004">
        <ele>265.39999389648</ele>
        <time>2015-11-25T13:19:35Z</time>
      </trkpt>
      <trkpt lat="43.3938" lon="6.08004">
        <ele>265.39999389648</ele>
        <time>2015-11-25T13:19:39Z</time>
      </trkpt>
      <trkpt lat="43.3938" lon="6.08004">
        <ele>265.60000610352</ele>
        <time>2015-11-25T13:19:41Z</time>
      </trkpt>
      <trkpt lat="43.3938" lon="6.08004">
        <ele>265.60000610352</ele>
        <time>2015-11-25T13:19:45Z</time>
      </trkpt>
      <trkpt lat="43.3938" lon="6.08004">
        <ele>265.60000610352</ele>
        <time>2015-11-25T13:19:47Z</time>
      </trkpt>
      <trkpt lat="43.3938" lon="6.08004">
        <ele>265.39999389648</ele>
        <time>2015-11-25T13:19:51Z</time>
      </trkpt>
      <trkpt lat="43.3938" lon="6.08004">
        <ele>265.39999389648</ele>
        <time>2015-11-25T13:19:53Z</time>
      </trkpt>
      <trkpt lat="43.3938" lon="6.08004">
        <ele>265.20001220703</ele>
        <time>2015-11-25T13:19:55Z</time>
      </trkpt>
      <trkpt lat="43.3938" lon="6.08004">
        <ele>265.20001220703</ele>
        <time>2015-11-25T13:19:57Z</time>
      </trkpt>
      <trkpt lat="43.3938" lon="6.08004">
        <ele>265.20001220703</ele>
        <time>2015-11-25T13:19:59Z</time>
      </trkpt>
      <trkpt lat="43.3938" lon="6.08004">
        <ele>265</ele>
        <time>2015-11-25T13:20:01Z</time>
      </trkpt>
      <trkpt lat="43.3938" lon="6.08004">
        <ele>264.79998779297</ele>
        <time>2015-11-25T13:20:03Z</time>
      </trkpt>
      <trkpt lat="43.3938" lon="6.08004">
        <ele>264.79998779297</ele>
        <time>2015-11-25T13:20:05Z</time>
      </trkpt>
      <trkpt lat="43.3938" lon="6.08004">
        <ele>264.39999389648</ele>
        <time>2015-11-25T13:20:11Z</time>
      </trkpt>
      <trkpt lat="43.3938" lon="6.08004">
        <ele>264.39999389648</ele>
        <time>2015-11-25T13:20:17Z</time>
      </trkpt>
      <trkpt lat="43.3938" lon="6.08004">
        <ele>264.39999389648</ele>
        <time>2015-11-25T13:20:25Z</time>
      </trkpt>
      <trkpt lat="43.3938" lon="6.08004">
        <ele>265</ele>
        <time>2015-11-25T13:20:37Z</time>
      </trkpt>
      <trkpt lat="43.3938" lon="6.08004">
        <ele>264.79998779297</ele>
        <time>2015-11-25T13:20:39Z</time>
      </trkpt>
      <trkpt lat="43.3938" lon="6.08004">
        <ele>265</ele>
        <time>2015-11-25T13:20:43Z</time>
      </trkpt>
      <trkpt lat="43.3938" lon="6.08004">
        <ele>265.20001220703</ele>
        <time>2015-11-25T13:20:45Z</time>
      </trkpt>
      <trkpt lat="43.3938" lon="6.08004">
        <ele>265.39999389648</ele>
        <time>2015-11-25T13:20:53Z</time>
      </trkpt>
      <trkpt lat="43.3938" lon="6.08004">
        <ele>265.39999389648</ele>
        <time>2015-11-25T13:20:55Z</time>
      </trkpt>
      <trkpt lat="43.3938" lon="6.08004">
        <ele>265</ele>
        <time>2015-11-25T13:20:59Z</time>
      </trkpt>
      <trkpt lat="43.3938" lon="6.08004">
        <ele>265</ele>
        <time>2015-11-25T13:21:01Z</time>
      </trkpt>
      <trkpt lat="43.3938" lon="6.08004">
        <ele>265</ele>
        <time>2015-11-25T13:21:05Z</time>
      </trkpt>
      <trkpt lat="43.3938" lon="6.08004">
        <ele>265.39999389648</ele>
        <time>2015-11-25T13:21:07Z</time>
      </trkpt>
      <trkpt lat="43.3938" lon="6.08004">
        <ele>265.39999389648</ele>
        <time>2015-11-25T13:21:09Z</time>
      </trkpt>
      <trkpt lat="43.3938" lon="6.08004">
        <ele>265.39999389648</ele>
        <time>2015-11-25T13:21:15Z</time>
      </trkpt>
      <trkpt lat="43.3938" lon="6.08004">
        <ele>265.20001220703</ele>
        <time>2015-11-25T13:21:17Z</time>
      </trkpt>
      <trkpt lat="43.3938" lon="6.08004">
        <ele>265.39999389648</ele>
        <time>2015-11-25T13:21:19Z</time>
      </trkpt>
      <trkpt lat="43.3938" lon="6.08004">
        <ele>265.39999389648</ele>
        <time>2015-11-25T13:21:25Z</time>
      </trkpt>
      <trkpt lat="43.3938" lon="6.08004">
        <ele>265.39999389648</ele>
        <time>2015-11-25T13:21:55Z</time>
      </trkpt>
      <trkpt lat="43.3938" lon="6.08004">
        <ele>265.79998779297</ele>
        <time>2015-11-25T13:21:59Z</time>
      </trkpt>
      <trkpt lat="43.3938" lon="6.08004">
        <ele>265.79998779297</ele>
        <time>2015-11-25T13:22:01Z</time>
      </trkpt>
      <trkpt lat="43.3938" lon="6.08004">
        <ele>266</ele>
        <time>2015-11-25T13:22:03Z</time>
      </trkpt>
      <trkpt lat="43.3938" lon="6.08004">
        <ele>265.79998779297</ele>
        <time>2015-11-25T13:22:05Z</time>
      </trkpt>
      <trkpt lat="43.3938" lon="6.08004">
        <ele>265.79998779297</ele>
        <time>2015-11-25T13:22:07Z</time>
      </trkpt>
      <trkpt lat="43.3938" lon="6.08004">
        <ele>265.79998779297</ele>
        <time>2015-11-25T13:22:11Z</time>
      </trkpt>
      <trkpt lat="43.3938" lon="6.08004">
        <ele>265.39999389648</ele>
        <time>2015-11-25T13:22:13Z</time>
      </trkpt>
      <trkpt lat="43.3938" lon="6.08004">
        <ele>265.39999389648</ele>
        <time>2015-11-25T13:22:15Z</time>
      </trkpt>
      <trkpt lat="43.3938" lon="6.08003">
        <ele>265.20001220703</ele>
        <time>2015-11-25T13:22:17Z</time>
      </trkpt>
      <trkpt lat="43.3938" lon="6.08002">
        <ele>265.20001220703</ele>
        <time>2015-11-25T13:22:19Z</time>
      </trkpt>
      <trkpt lat="43.39383" lon="6.08002">
        <ele>265.20001220703</ele>
        <time>2015-11-25T13:22:23Z</time>
      </trkpt>
      <trkpt lat="43.39383" lon="6.08002">
        <ele>265.39999389648</ele>
        <time>2015-11-25T13:22:25Z</time>
      </trkpt>
      <trkpt lat="43.39383" lon="6.08002">
        <ele>265.60000610352</ele>
        <time>2015-11-25T13:22:27Z</time>
      </trkpt>
      <trkpt lat="43.39383" lon="6.08002">
        <ele>265.79998779297</ele>
        <time>2015-11-25T13:22:29Z</time>
      </trkpt>
      <trkpt lat="43.39383" lon="6.08002">
        <ele>266</ele>
        <time>2015-11-25T13:22:33Z</time>
      </trkpt>
      <trkpt lat="43.39383" lon="6.08002">
        <ele>266</ele>
        <time>2015-11-25T13:22:37Z</time>
      </trkpt>
      <trkpt lat="43.39383" lon="6.08002">
        <ele>265.39999389648</ele>
        <time>2015-11-25T13:22:57Z</time>
      </trkpt>
      <trkpt lat="43.39383" lon="6.08002">
        <ele>265</ele>
        <time>2015-11-25T13:23:11Z</time>
      </trkpt>
      <trkpt lat="43.39383" lon="6.08002">
        <ele>265.20001220703</ele>
        <time>2015-11-25T13:23:16Z</time>
      </trkpt>
      <trkpt lat="43.39383" lon="6.08002">
        <ele>265.60000610352</ele>
        <time>2015-11-25T13:23:23Z</time>
      </trkpt>
      <trkpt lat="43.39383" lon="6.08002">
        <ele>265.39999389648</ele>
        <time>2015-11-25T13:23:25Z</time>
      </trkpt>
      <trkpt lat="43.39383" lon="6.08002">
        <ele>265.39999389648</ele>
        <time>2015-11-25T13:23:31Z</time>
      </trkpt>
      <trkpt lat="43.39383" lon="6.08002">
        <ele>265.39999389648</ele>
        <time>2015-11-25T13:23:47Z</time>
      </trkpt>
      <trkpt lat="43.39383" lon="6.08002">
        <ele>265.20001220703</ele>
        <time>2015-11-25T13:23:49Z</time>
      </trkpt>
      <trkpt lat="43.39383" lon="6.08002">
        <ele>265</ele>
        <time>2015-11-25T13:23:55Z</time>
      </trkpt>
      <trkpt lat="43.39383" lon="6.08002">
        <ele>265</ele>
        <time>2015-11-25T13:23:58Z</time>
      </trkpt>
      <trkpt lat="43.39383" lon="6.08002">
        <ele>265</ele>
        <time>2015-11-25T13:23:59Z</time>
      </trkpt>
      <trkpt lat="43.39383" lon="6.08003">
        <ele>265.20001220703</ele>
        <time>2015-11-25T13:24:03Z</time>
      </trkpt>
      <trkpt lat="43.39383" lon="6.08003">
        <ele>265</ele>
        <time>2015-11-25T13:24:07Z</time>
      </trkpt>
      <trkpt lat="43.39383" lon="6.08003">
        <ele>264.79998779297</ele>
        <time>2015-11-25T13:24:09Z</time>
      </trkpt>
      <trkpt lat="43.39383" lon="6.08003">
        <ele>265</ele>
        <time>2015-11-25T13:24:13Z</time>
      </trkpt>
      <trkpt lat="43.39383" lon="6.08003">
        <ele>265.20001220703</ele>
        <time>2015-11-25T13:24:23Z</time>
      </trkpt>
      <trkpt lat="43.39383" lon="6.08003">
        <ele>265.39999389648</ele>
        <time>2015-11-25T13:24:31Z</time>
      </trkpt>
      <trkpt lat="43.39383" lon="6.08003">
        <ele>265.60000610352</ele>
        <time>2015-11-25T13:24:33Z</time>
      </trkpt>
      <trkpt lat="43.39383" lon="6.08003">
        <ele>265.39999389648</ele>
        <time>2015-11-25T13:24:35Z</time>
      </trkpt>
      <trkpt lat="43.39383" lon="6.08003">
        <ele>265.39999389648</ele>
        <time>2015-11-25T13:24:37Z</time>
      </trkpt>
      <trkpt lat="43.39383" lon="6.08003">
        <ele>265.39999389648</ele>
        <time>2015-11-25T13:24:38Z</time>
      </trkpt>
      <trkpt lat="43.39383" lon="6.08003">
        <ele>265.20001220703</ele>
        <time>2015-11-25T13:24:39Z</time>
      </trkpt>
      <trkpt lat="43.39383" lon="6.08003">
        <ele>265.39999389648</ele>
        <time>2015-11-25T13:24:41Z</time>
      </trkpt>
      <trkpt lat="43.39383" lon="6.08003">
        <ele>265.39999389648</ele>
        <time>2015-11-25T13:24:43Z</time>
      </trkpt>
      <trkpt lat="43.39383" lon="6.08003">
        <ele>265.39999389648</ele>
        <time>2015-11-25T13:24:45Z</time>
      </trkpt>
      <trkpt lat="43.39383" lon="6.08003">
        <ele>265.39999389648</ele>
        <time>2015-11-25T13:24:53Z</time>
      </trkpt>
      <trkpt lat="43.39383" lon="6.08003">
        <ele>265.20001220703</ele>
        <time>2015-11-25T13:24:57Z</time>
      </trkpt>
      <trkpt lat="43.39383" lon="6.08003">
        <ele>265</ele>
        <time>2015-11-25T13:25:07Z</time>
      </trkpt>
      <trkpt lat="43.39383" lon="6.08003">
        <ele>265</ele>
        <time>2015-11-25T13:25:11Z</time>
      </trkpt>
      <trkpt lat="43.39383" lon="6.08003">
        <ele>265</ele>
        <time>2015-11-25T13:25:13Z</time>
      </trkpt>
      <trkpt lat="43.39383" lon="6.08003">
        <ele>264.79998779297</ele>
        <time>2015-11-25T13:25:17Z</time>
      </trkpt>
      <trkpt lat="43.39382" lon="6.08003">
        <ele>264.79998779297</ele>
        <time>2015-11-25T13:25:19Z</time>
      </trkpt>
      <trkpt lat="43.39381" lon="6.08003">
        <ele>265</ele>
        <time>2015-11-25T13:25:21Z</time>
      </trkpt>
      <trkpt lat="43.39381" lon="6.08003">
        <ele>265</ele>
        <time>2015-11-25T13:25:23Z</time>
      </trkpt>
      <trkpt lat="43.39382" lon="6.08003">
        <ele>265</ele>
        <time>2015-11-25T13:25:25Z</time>
      </trkpt>
      <trkpt lat="43.39382" lon="6.08003">
        <ele>265.20001220703</ele>
        <time>2015-11-25T13:25:29Z</time>
      </trkpt>
      <trkpt lat="43.39382" lon="6.08003">
        <ele>265.60000610352</ele>
        <time>2015-11-25T13:25:51Z</time>
      </trkpt>
      <trkpt lat="43.39382" lon="6.08003">
        <ele>265</ele>
        <time>2015-11-25T13:25:55Z</time>
      </trkpt>
      <trkpt lat="43.39381" lon="6.08003">
        <ele>264.79998779297</ele>
        <time>2015-11-25T13:25:57Z</time>
      </trkpt>
      <trkpt lat="43.39381" lon="6.08002">
        <ele>264.60000610352</ele>
        <time>2015-11-25T13:25:59Z</time>
      </trkpt>
      <trkpt lat="43.39381" lon="6.08002">
        <ele>264.39999389648</ele>
        <time>2015-11-25T13:26:01Z</time>
      </trkpt>
      <trkpt lat="43.39381" lon="6.08002">
        <ele>264.20001220703</ele>
        <time>2015-11-25T13:26:03Z</time>
      </trkpt>
      <trkpt lat="43.39381" lon="6.08002">
        <ele>264.20001220703</ele>
        <time>2015-11-25T13:26:05Z</time>
      </trkpt>
      <trkpt lat="43.39381" lon="6.08002">
        <ele>264.39999389648</ele>
        <time>2015-11-25T13:26:07Z</time>
      </trkpt>
      <trkpt lat="43.39381" lon="6.08002">
        <ele>265.60000610352</ele>
        <time>2015-11-25T13:26:11Z</time>
      </trkpt>
      <trkpt lat="43.39381" lon="6.08002">
        <ele>265.60000610352</ele>
        <time>2015-11-25T13:26:15Z</time>
      </trkpt>
      <trkpt lat="43.39381" lon="6.08002">
        <ele>265.79998779297</ele>
        <time>2015-11-25T13:26:19Z</time>
      </trkpt>
      <trkpt lat="43.39381" lon="6.08002">
        <ele>265.79998779297</ele>
        <time>2015-11-25T13:26:21Z</time>
      </trkpt>
      <trkpt lat="43.39381" lon="6.08002">
        <ele>265.79998779297</ele>
        <time>2015-11-25T13:26:27Z</time>
      </trkpt>
      <trkpt lat="43.39381" lon="6.08002">
        <ele>265.39999389648</ele>
        <time>2015-11-25T13:26:39Z</time>
      </trkpt>
      <trkpt lat="43.39381" lon="6.08002">
        <ele>265.60000610352</ele>
        <time>2015-11-25T13:26:57Z</time>
      </trkpt>
      <trkpt lat="43.39381" lon="6.08002">
        <ele>265.39999389648</ele>
        <time>2015-11-25T13:27:07Z</time>
      </trkpt>
      <trkpt lat="43.39381" lon="6.08002">
        <ele>265.20001220703</ele>
        <time>2015-11-25T13:27:09Z</time>
      </trkpt>
      <trkpt lat="43.3938" lon="6.08002">
        <ele>265.20001220703</ele>
        <time>2015-11-25T13:27:11Z</time>
      </trkpt>
      <trkpt lat="43.39378" lon="6.08002">
        <ele>265.39999389648</ele>
        <time>2015-11-25T13:27:13Z</time>
      </trkpt>
      <trkpt lat="43.39375" lon="6.08004">
        <ele>265.39999389648</ele>
        <time>2015-11-25T13:27:15Z</time>
      </trkpt>
      <trkpt lat="43.39373" lon="6.08007">
        <ele>265.39999389648</ele>
        <time>2015-11-25T13:27:17Z</time>
      </trkpt>
      <trkpt lat="43.39369" lon="6.0801">
        <ele>265.39999389648</ele>
        <time>2015-11-25T13:27:19Z</time>
      </trkpt>
      <trkpt lat="43.39367" lon="6.08013">
        <ele>265.60000610352</ele>
        <time>2015-11-25T13:27:20Z</time>
      </trkpt>
      <trkpt lat="43.39365" lon="6.08015">
        <ele>266</ele>
        <time>2015-11-25T13:27:21Z</time>
      </trkpt>
      <trkpt lat="43.3936" lon="6.08021">
        <ele>266.39999389648</ele>
        <time>2015-11-25T13:27:25Z</time>
      </trkpt>
      <trkpt lat="43.39357" lon="6.08023">
        <ele>266.60000610352</ele>
        <time>2015-11-25T13:27:27Z</time>
      </trkpt>
      <trkpt lat="43.39355" lon="6.08027">
        <ele>266.60000610352</ele>
        <time>2015-11-25T13:27:29Z</time>
      </trkpt>
      <trkpt lat="43.39352" lon="6.08031">
        <ele>267</ele>
        <time>2015-11-25T13:27:31Z</time>
      </trkpt>
      <trkpt lat="43.39349" lon="6.08035">
        <ele>267</ele>
        <time>2015-11-25T13:27:33Z</time>
      </trkpt>
      <trkpt lat="43.39345" lon="6.08038">
        <ele>267.60000610352</ele>
        <time>2015-11-25T13:27:35Z</time>
      </trkpt>
      <trkpt lat="43.39344" lon="6.0804">
        <ele>268</ele>
        <time>2015-11-25T13:27:36Z</time>
      </trkpt>
      <trkpt lat="43.39342" lon="6.08042">
        <ele>268.60000610352</ele>
        <time>2015-11-25T13:27:37Z</time>
      </trkpt>
      <trkpt lat="43.3934" lon="6.08044">
        <ele>268.39999389648</ele>
        <time>2015-11-25T13:27:39Z</time>
      </trkpt>
      <trkpt lat="43.3934" lon="6.08045">
        <ele>268.60000610352</ele>
        <time>2015-11-25T13:27:41Z</time>
      </trkpt>
      <trkpt lat="43.3934" lon="6.08045">
        <ele>268.79998779297</ele>
        <time>2015-11-25T13:27:43Z</time>
      </trkpt>
      <trkpt lat="43.3934" lon="6.08045">
        <ele>268.79998779297</ele>
        <time>2015-11-25T13:27:47Z</time>
      </trkpt>
      <trkpt lat="43.3934" lon="6.08045">
        <ele>268.79998779297</ele>
        <time>2015-11-25T13:27:49Z</time>
      </trkpt>
      <trkpt lat="43.3934" lon="6.08045">
        <ele>269</ele>
        <time>2015-11-25T13:27:53Z</time>
      </trkpt>
      <trkpt lat="43.3934" lon="6.08045">
        <ele>269.20001220703</ele>
        <time>2015-11-25T13:27:55Z</time>
      </trkpt>
      <trkpt lat="43.3934" lon="6.08045">
        <ele>269.39999389648</ele>
        <time>2015-11-25T13:27:59Z</time>
      </trkpt>
      <trkpt lat="43.3934" lon="6.08045">
        <ele>269.79998779297</ele>
        <time>2015-11-25T13:28:03Z</time>
      </trkpt>
      <trkpt lat="43.3934" lon="6.08045">
        <ele>270</ele>
        <time>2015-11-25T13:28:09Z</time>
      </trkpt>
      <trkpt lat="43.3934" lon="6.08045">
        <ele>269.79998779297</ele>
        <time>2015-11-25T13:28:15Z</time>
      </trkpt>
      <trkpt lat="43.39339" lon="6.08046">
        <ele>269.79998779297</ele>
        <time>2015-11-25T13:28:17Z</time>
      </trkpt>
      <trkpt lat="43.39338" lon="6.08048">
        <ele>269.79998779297</ele>
        <time>2015-11-25T13:28:19Z</time>
      </trkpt>
      <trkpt lat="43.39336" lon="6.08052">
        <ele>269.60000610352</ele>
        <time>2015-11-25T13:28:21Z</time>
      </trkpt>
      <trkpt lat="43.39334" lon="6.08056">
        <ele>269.79998779297</ele>
        <time>2015-11-25T13:28:23Z</time>
      </trkpt>
      <trkpt lat="43.39333" lon="6.08057">
        <ele>269.79998779297</ele>
        <time>2015-11-25T13:28:24Z</time>
      </trkpt>
      <trkpt lat="43.39327" lon="6.08066">
        <ele>270</ele>
        <time>2015-11-25T13:28:29Z</time>
      </trkpt>
      <trkpt lat="43.39322" lon="6.08074">
        <ele>270.20001220703</ele>
        <time>2015-11-25T13:28:33Z</time>
      </trkpt>
      <trkpt lat="43.3932" lon="6.08077">
        <ele>270.39999389648</ele>
        <time>2015-11-25T13:28:35Z</time>
      </trkpt>
      <trkpt lat="43.39317" lon="6.0808">
        <ele>270.60000610352</ele>
        <time>2015-11-25T13:28:37Z</time>
      </trkpt>
      <trkpt lat="43.39315" lon="6.08084">
        <ele>270.60000610352</ele>
        <time>2015-11-25T13:28:39Z</time>
      </trkpt>
      <trkpt lat="43.39312" lon="6.08088">
        <ele>271.20001220703</ele>
        <time>2015-11-25T13:28:41Z</time>
      </trkpt>
      <trkpt lat="43.3931" lon="6.08092">
        <ele>271.20001220703</ele>
        <time>2015-11-25T13:28:43Z</time>
      </trkpt>
      <trkpt lat="43.39301" lon="6.0811">
        <ele>271.79998779297</ele>
        <time>2015-11-25T13:28:51Z</time>
      </trkpt>
      <trkpt lat="43.39299" lon="6.08114">
        <ele>272.20001220703</ele>
        <time>2015-11-25T13:28:53Z</time>
      </trkpt>
      <trkpt lat="43.39297" lon="6.08118">
        <ele>272.39999389648</ele>
        <time>2015-11-25T13:28:55Z</time>
      </trkpt>
      <trkpt lat="43.39294" lon="6.08123">
        <ele>272</ele>
        <time>2015-11-25T13:28:57Z</time>
      </trkpt>
      <trkpt lat="43.39292" lon="6.08128">
        <ele>272.60000610352</ele>
        <time>2015-11-25T13:28:59Z</time>
      </trkpt>
      <trkpt lat="43.39291" lon="6.08131">
        <ele>272.79998779297</ele>
        <time>2015-11-25T13:29:00Z</time>
      </trkpt>
      <trkpt lat="43.3929" lon="6.08134">
        <ele>273</ele>
        <time>2015-11-25T13:29:01Z</time>
      </trkpt>
      <trkpt lat="43.39288" lon="6.08138">
        <ele>273.39999389648</ele>
        <time>2015-11-25T13:29:03Z</time>
      </trkpt>
      <trkpt lat="43.39288" lon="6.08141">
        <ele>273.79998779297</ele>
        <time>2015-11-25T13:29:05Z</time>
      </trkpt>
      <trkpt lat="43.39288" lon="6.08141">
        <ele>273.79998779297</ele>
        <time>2015-11-25T13:29:06Z</time>
      </trkpt>
      <trkpt lat="43.39288" lon="6.08142">
        <ele>273.79998779297</ele>
        <time>2015-11-25T13:29:07Z</time>
      </trkpt>
      <trkpt lat="43.39287" lon="6.08142">
        <ele>274</ele>
        <time>2015-11-25T13:29:09Z</time>
      </trkpt>
      <trkpt lat="43.39287" lon="6.08144">
        <ele>274</ele>
        <time>2015-11-25T13:29:11Z</time>
      </trkpt>
      <trkpt lat="43.39287" lon="6.08145">
        <ele>274.20001220703</ele>
        <time>2015-11-25T13:29:13Z</time>
      </trkpt>
      <trkpt lat="43.39287" lon="6.08146">
        <ele>274.39999389648</ele>
        <time>2015-11-25T13:29:17Z</time>
      </trkpt>
      <trkpt lat="43.39287" lon="6.08146">
        <ele>274.60000610352</ele>
        <time>2015-11-25T13:29:19Z</time>
      </trkpt>
      <trkpt lat="43.39287" lon="6.08146">
        <ele>274.60000610352</ele>
        <time>2015-11-25T13:29:21Z</time>
      </trkpt>
      <trkpt lat="43.39287" lon="6.08146">
        <ele>274.60000610352</ele>
        <time>2015-11-25T13:29:23Z</time>
      </trkpt>
      <trkpt lat="43.39287" lon="6.08148">
        <ele>274.79998779297</ele>
        <time>2015-11-25T13:29:25Z</time>
      </trkpt>
      <trkpt lat="43.39287" lon="6.0815">
        <ele>274.79998779297</ele>
        <time>2015-11-25T13:29:27Z</time>
      </trkpt>
      <trkpt lat="43.39287" lon="6.0815">
        <ele>275</ele>
        <time>2015-11-25T13:29:29Z</time>
      </trkpt>
      <trkpt lat="43.39286" lon="6.08152">
        <ele>275</ele>
        <time>2015-11-25T13:29:31Z</time>
      </trkpt>
      <trkpt lat="43.39286" lon="6.08155">
        <ele>275.20001220703</ele>
        <time>2015-11-25T13:29:33Z</time>
      </trkpt>
      <trkpt lat="43.39286" lon="6.08157">
        <ele>275.20001220703</ele>
        <time>2015-11-25T13:29:35Z</time>
      </trkpt>
      <trkpt lat="43.39286" lon="6.08157">
        <ele>275.20001220703</ele>
        <time>2015-11-25T13:29:37Z</time>
      </trkpt>
      <trkpt lat="43.39286" lon="6.08157">
        <ele>275.20001220703</ele>
        <time>2015-11-25T13:29:38Z</time>
      </trkpt>
      <trkpt lat="43.39286" lon="6.08158">
        <ele>275.20001220703</ele>
        <time>2015-11-25T13:29:39Z</time>
      </trkpt>
      <trkpt lat="43.39286" lon="6.08158">
        <ele>275.20001220703</ele>
        <time>2015-11-25T13:29:41Z</time>
      </trkpt>
      <trkpt lat="43.39286" lon="6.08157">
        <ele>275.20001220703</ele>
        <time>2015-11-25T13:29:43Z</time>
      </trkpt>
      <trkpt lat="43.39285" lon="6.08158">
        <ele>275.20001220703</ele>
        <time>2015-11-25T13:29:45Z</time>
      </trkpt>
      <trkpt lat="43.39286" lon="6.08158">
        <ele>275.20001220703</ele>
        <time>2015-11-25T13:29:47Z</time>
      </trkpt>
      <trkpt lat="43.39286" lon="6.08158">
        <ele>275.20001220703</ele>
        <time>2015-11-25T13:29:49Z</time>
      </trkpt>
      <trkpt lat="43.39286" lon="6.08158">
        <ele>275.20001220703</ele>
        <time>2015-11-25T13:29:51Z</time>
      </trkpt>
      <trkpt lat="43.39285" lon="6.0816">
        <ele>275.20001220703</ele>
        <time>2015-11-25T13:29:53Z</time>
      </trkpt>
      <trkpt lat="43.39284" lon="6.08165">
        <ele>275.39999389648</ele>
        <time>2015-11-25T13:29:55Z</time>
      </trkpt>
      <trkpt lat="43.39282" lon="6.08168">
        <ele>275.39999389648</ele>
        <time>2015-11-25T13:29:57Z</time>
      </trkpt>
      <trkpt lat="43.39281" lon="6.08169">
        <ele>275.39999389648</ele>
        <time>2015-11-25T13:29:59Z</time>
      </trkpt>
      <trkpt lat="43.39281" lon="6.08169">
        <ele>275.79998779297</ele>
        <time>2015-11-25T13:30:00Z</time>
      </trkpt>
      <trkpt lat="43.39282" lon="6.0817">
        <ele>275.79998779297</ele>
        <time>2015-11-25T13:30:01Z</time>
      </trkpt>
      <trkpt lat="43.39281" lon="6.08171">
        <ele>276.20001220703</ele>
        <time>2015-11-25T13:30:05Z</time>
      </trkpt>
      <trkpt lat="43.3928" lon="6.08173">
        <ele>276.39999389648</ele>
        <time>2015-11-25T13:30:07Z</time>
      </trkpt>
      <trkpt lat="43.3928" lon="6.08175">
        <ele>276.39999389648</ele>
        <time>2015-11-25T13:30:09Z</time>
      </trkpt>
      <trkpt lat="43.3928" lon="6.08175">
        <ele>276.39999389648</ele>
        <time>2015-11-25T13:30:13Z</time>
      </trkpt>
      <trkpt lat="43.3928" lon="6.08175">
        <ele>276.60000610352</ele>
        <time>2015-11-25T13:30:14Z</time>
      </trkpt>
      <trkpt lat="43.3928" lon="6.08175">
        <ele>276.60000610352</ele>
        <time>2015-11-25T13:30:15Z</time>
      </trkpt>
      <trkpt lat="43.3928" lon="6.08175">
        <ele>276.39999389648</ele>
        <time>2015-11-25T13:30:17Z</time>
      </trkpt>
      <trkpt lat="43.39279" lon="6.08178">
        <ele>276.60000610352</ele>
        <time>2015-11-25T13:30:19Z</time>
      </trkpt>
      <trkpt lat="43.39278" lon="6.08182">
        <ele>276.60000610352</ele>
        <time>2015-11-25T13:30:21Z</time>
      </trkpt>
      <trkpt lat="43.39277" lon="6.08184">
        <ele>277</ele>
        <time>2015-11-25T13:30:22Z</time>
      </trkpt>
      <trkpt lat="43.39276" lon="6.08185">
        <ele>277.20001220703</ele>
        <time>2015-11-25T13:30:23Z</time>
      </trkpt>
      <trkpt lat="43.39276" lon="6.08185">
        <ele>277.39999389648</ele>
        <time>2015-11-25T13:30:25Z</time>
      </trkpt>
      <trkpt lat="43.39275" lon="6.08187">
        <ele>277.60000610352</ele>
        <time>2015-11-25T13:30:27Z</time>
      </trkpt>
      <trkpt lat="43.39274" lon="6.08189">
        <ele>277.79998779297</ele>
        <time>2015-11-25T13:30:29Z</time>
      </trkpt>
      <trkpt lat="43.39274" lon="6.0819">
        <ele>278</ele>
        <time>2015-11-25T13:30:31Z</time>
      </trkpt>
      <trkpt lat="43.39274" lon="6.08191">
        <ele>277.79998779297</ele>
        <time>2015-11-25T13:30:33Z</time>
      </trkpt>
      <trkpt lat="43.39274" lon="6.08191">
        <ele>277.79998779297</ele>
        <time>2015-11-25T13:30:35Z</time>
      </trkpt>
      <trkpt lat="43.39273" lon="6.08192">
        <ele>277.79998779297</ele>
        <time>2015-11-25T13:30:37Z</time>
      </trkpt>
      <trkpt lat="43.39274" lon="6.08193">
        <ele>277.60000610352</ele>
        <time>2015-11-25T13:30:39Z</time>
      </trkpt>
      <trkpt lat="43.39274" lon="6.08194">
        <ele>277.79998779297</ele>
        <time>2015-11-25T13:30:41Z</time>
      </trkpt>
      <trkpt lat="43.39274" lon="6.08195">
        <ele>278.20001220703</ele>
        <time>2015-11-25T13:30:43Z</time>
      </trkpt>
      <trkpt lat="43.39274" lon="6.08195">
        <ele>278.60000610352</ele>
        <time>2015-11-25T13:30:45Z</time>
      </trkpt>
      <trkpt lat="43.39274" lon="6.08195">
        <ele>278.39999389648</ele>
        <time>2015-11-25T13:30:49Z</time>
      </trkpt>
      <trkpt lat="43.39274" lon="6.08195">
        <ele>278.60000610352</ele>
        <time>2015-11-25T13:30:51Z</time>
      </trkpt>
      <trkpt lat="43.39274" lon="6.08195">
        <ele>278.20001220703</ele>
        <time>2015-11-25T13:30:59Z</time>
      </trkpt>
      <trkpt lat="43.39274" lon="6.08195">
        <ele>278</ele>
        <time>2015-11-25T13:31:07Z</time>
      </trkpt>
      <trkpt lat="43.39274" lon="6.08195">
        <ele>277.79998779297</ele>
        <time>2015-11-25T13:31:13Z</time>
      </trkpt>
      <trkpt lat="43.39274" lon="6.08195">
        <ele>278</ele>
        <time>2015-11-25T13:31:15Z</time>
      </trkpt>
      <trkpt lat="43.39273" lon="6.08198">
        <ele>277.79998779297</ele>
        <time>2015-11-25T13:31:17Z</time>
      </trkpt>
      <trkpt lat="43.39273" lon="6.08202">
        <ele>278</ele>
        <time>2015-11-25T13:31:19Z</time>
      </trkpt>
      <trkpt lat="43.39273" lon="6.08206">
        <ele>278.39999389648</ele>
        <time>2015-11-25T13:31:21Z</time>
      </trkpt>
      <trkpt lat="43.39272" lon="6.08211">
        <ele>279</ele>
        <time>2015-11-25T13:31:23Z</time>
      </trkpt>
      <trkpt lat="43.39272" lon="6.08214">
        <ele>279.20001220703</ele>
        <time>2015-11-25T13:31:24Z</time>
      </trkpt>
      <trkpt lat="43.39271" lon="6.08217">
        <ele>279.20001220703</ele>
        <time>2015-11-25T13:31:25Z</time>
      </trkpt>
      <trkpt lat="43.3927" lon="6.08222">
        <ele>279.39999389648</ele>
        <time>2015-11-25T13:31:27Z</time>
      </trkpt>
      <trkpt lat="43.39268" lon="6.0823">
        <ele>280.39999389648</ele>
        <time>2015-11-25T13:31:31Z</time>
      </trkpt>
      <trkpt lat="43.39267" lon="6.08235">
        <ele>281</ele>
        <time>2015-11-25T13:31:33Z</time>
      </trkpt>
      <trkpt lat="43.39266" lon="6.0824">
        <ele>281.60000610352</ele>
        <time>2015-11-25T13:31:35Z</time>
      </trkpt>
      <trkpt lat="43.39265" lon="6.08245">
        <ele>281.60000610352</ele>
        <time>2015-11-25T13:31:37Z</time>
      </trkpt>
      <trkpt lat="43.39265" lon="6.08247">
        <ele>281.60000610352</ele>
        <time>2015-11-25T13:31:38Z</time>
      </trkpt>
      <trkpt lat="43.39264" lon="6.0825">
        <ele>281.60000610352</ele>
        <time>2015-11-25T13:31:39Z</time>
      </trkpt>
      <trkpt lat="43.39263" lon="6.08255">
        <ele>282</ele>
        <time>2015-11-25T13:31:41Z</time>
      </trkpt>
      <trkpt lat="43.3926" lon="6.08259">
        <ele>282.20001220703</ele>
        <time>2015-11-25T13:31:43Z</time>
      </trkpt>
      <trkpt lat="43.39258" lon="6.08262">
        <ele>282.20001220703</ele>
        <time>2015-11-25T13:31:45Z</time>
      </trkpt>
      <trkpt lat="43.39256" lon="6.08264">
        <ele>282.60000610352</ele>
        <time>2015-11-25T13:31:47Z</time>
      </trkpt>
      <trkpt lat="43.39255" lon="6.08266">
        <ele>283.20001220703</ele>
        <time>2015-11-25T13:31:49Z</time>
      </trkpt>
      <trkpt lat="43.39253" lon="6.08268">
        <ele>283.39999389648</ele>
        <time>2015-11-25T13:31:51Z</time>
      </trkpt>
      <trkpt lat="43.39251" lon="6.0827">
        <ele>283.60000610352</ele>
        <time>2015-11-25T13:31:53Z</time>
      </trkpt>
      <trkpt lat="43.39249" lon="6.08273">
        <ele>283.79998779297</ele>
        <time>2015-11-25T13:31:55Z</time>
      </trkpt>
      <trkpt lat="43.39246" lon="6.08276">
        <ele>284</ele>
        <time>2015-11-25T13:31:57Z</time>
      </trkpt>
      <trkpt lat="43.39244" lon="6.08279">
        <ele>284.20001220703</ele>
        <time>2015-11-25T13:31:59Z</time>
      </trkpt>
      <trkpt lat="43.39243" lon="6.08281">
        <ele>284.39999389648</ele>
        <time>2015-11-25T13:32:01Z</time>
      </trkpt>
      <trkpt lat="43.39243" lon="6.08281">
        <ele>285</ele>
        <time>2015-11-25T13:32:05Z</time>
      </trkpt>
      <trkpt lat="43.39243" lon="6.08282">
        <ele>285</ele>
        <time>2015-11-25T13:32:09Z</time>
      </trkpt>
      <trkpt lat="43.39242" lon="6.08284">
        <ele>285.39999389648</ele>
        <time>2015-11-25T13:32:12Z</time>
      </trkpt>
      <trkpt lat="43.39242" lon="6.08285">
        <ele>285.60000610352</ele>
        <time>2015-11-25T13:32:13Z</time>
      </trkpt>
      <trkpt lat="43.39241" lon="6.08288">
        <ele>285.79998779297</ele>
        <time>2015-11-25T13:32:15Z</time>
      </trkpt>
      <trkpt lat="43.39241" lon="6.08288">
        <ele>285.60000610352</ele>
        <time>2015-11-25T13:32:17Z</time>
      </trkpt>
      <trkpt lat="43.39241" lon="6.08288">
        <ele>285.79998779297</ele>
        <time>2015-11-25T13:32:19Z</time>
      </trkpt>
      <trkpt lat="43.39241" lon="6.08288">
        <ele>285.39999389648</ele>
        <time>2015-11-25T13:32:21Z</time>
      </trkpt>
      <trkpt lat="43.39241" lon="6.08288">
        <ele>285.39999389648</ele>
        <time>2015-11-25T13:32:29Z</time>
      </trkpt>
      <trkpt lat="43.39241" lon="6.08288">
        <ele>285.60000610352</ele>
        <time>2015-11-25T13:32:31Z</time>
      </trkpt>
      <trkpt lat="43.39241" lon="6.08289">
        <ele>285.60000610352</ele>
        <time>2015-11-25T13:32:33Z</time>
      </trkpt>
      <trkpt lat="43.3924" lon="6.08291">
        <ele>286</ele>
        <time>2015-11-25T13:32:36Z</time>
      </trkpt>
      <trkpt lat="43.3924" lon="6.08291">
        <ele>286.20001220703</ele>
        <time>2015-11-25T13:32:37Z</time>
      </trkpt>
      <trkpt lat="43.3924" lon="6.08291">
        <ele>286.20001220703</ele>
        <time>2015-11-25T13:32:39Z</time>
      </trkpt>
      <trkpt lat="43.3924" lon="6.08291">
        <ele>286.20001220703</ele>
        <time>2015-11-25T13:32:41Z</time>
      </trkpt>
      <trkpt lat="43.39241" lon="6.08291">
        <ele>286.20001220703</ele>
        <time>2015-11-25T13:32:43Z</time>
      </trkpt>
      <trkpt lat="43.3924" lon="6.08291">
        <ele>286</ele>
        <time>2015-11-25T13:32:45Z</time>
      </trkpt>
      <trkpt lat="43.3924" lon="6.08291">
        <ele>285.79998779297</ele>
        <time>2015-11-25T13:32:47Z</time>
      </trkpt>
      <trkpt lat="43.39239" lon="6.08295">
        <ele>285.79998779297</ele>
        <time>2015-11-25T13:32:49Z</time>
      </trkpt>
      <trkpt lat="43.39236" lon="6.08299">
        <ele>286.39999389648</ele>
        <time>2015-11-25T13:32:51Z</time>
      </trkpt>
      <trkpt lat="43.39235" lon="6.08305">
        <ele>286.39999389648</ele>
        <time>2015-11-25T13:32:53Z</time>
      </trkpt>
      <trkpt lat="43.39234" lon="6.08307">
        <ele>287.20001220703</ele>
        <time>2015-11-25T13:32:55Z</time>
      </trkpt>
      <trkpt lat="43.39234" lon="6.08307">
        <ele>287.60000610352</ele>
        <time>2015-11-25T13:32:56Z</time>
      </trkpt>
      <trkpt lat="43.39234" lon="6.08307">
        <ele>287.79998779297</ele>
        <time>2015-11-25T13:32:57Z</time>
      </trkpt>
      <trkpt lat="43.39234" lon="6.08308">
        <ele>287.79998779297</ele>
        <time>2015-11-25T13:32:59Z</time>
      </trkpt>
      <trkpt lat="43.39234" lon="6.08308">
        <ele>287.79998779297</ele>
        <time>2015-11-25T13:33:01Z</time>
      </trkpt>
      <trkpt lat="43.39233" lon="6.0831">
        <ele>288</ele>
        <time>2015-11-25T13:33:05Z</time>
      </trkpt>
      <trkpt lat="43.39233" lon="6.08311">
        <ele>288.39999389648</ele>
        <time>2015-11-25T13:33:07Z</time>
      </trkpt>
      <trkpt lat="43.39232" lon="6.08312">
        <ele>288.60000610352</ele>
        <time>2015-11-25T13:33:09Z</time>
      </trkpt>
      <trkpt lat="43.39232" lon="6.08313">
        <ele>288.60000610352</ele>
        <time>2015-11-25T13:33:15Z</time>
      </trkpt>
      <trkpt lat="43.39232" lon="6.08313">
        <ele>288.39999389648</ele>
        <time>2015-11-25T13:33:19Z</time>
      </trkpt>
      <trkpt lat="43.39232" lon="6.08313">
        <ele>288.39999389648</ele>
        <time>2015-11-25T13:33:21Z</time>
      </trkpt>
      <trkpt lat="43.39232" lon="6.08314">
        <ele>288.39999389648</ele>
        <time>2015-11-25T13:33:23Z</time>
      </trkpt>
      <trkpt lat="43.39231" lon="6.08316">
        <ele>288.60000610352</ele>
        <time>2015-11-25T13:33:25Z</time>
      </trkpt>
      <trkpt lat="43.39231" lon="6.08317">
        <ele>288.79998779297</ele>
        <time>2015-11-25T13:33:26Z</time>
      </trkpt>
      <trkpt lat="43.39232" lon="6.08318">
        <ele>288.79998779297</ele>
        <time>2015-11-25T13:33:27Z</time>
      </trkpt>
      <trkpt lat="43.39233" lon="6.08321">
        <ele>288.79998779297</ele>
        <time>2015-11-25T13:33:29Z</time>
      </trkpt>
      <trkpt lat="43.39231" lon="6.08324">
        <ele>289</ele>
        <time>2015-11-25T13:33:31Z</time>
      </trkpt>
      <trkpt lat="43.39226" lon="6.08326">
        <ele>289.60000610352</ele>
        <time>2015-11-25T13:33:35Z</time>
      </trkpt>
      <trkpt lat="43.39223" lon="6.08331">
        <ele>290.60000610352</ele>
        <time>2015-11-25T13:33:38Z</time>
      </trkpt>
      <trkpt lat="43.39223" lon="6.08333">
        <ele>290.79998779297</ele>
        <time>2015-11-25T13:33:39Z</time>
      </trkpt>
      <trkpt lat="43.39222" lon="6.08337">
        <ele>290.79998779297</ele>
        <time>2015-11-25T13:33:41Z</time>
      </trkpt>
      <trkpt lat="43.39222" lon="6.08342">
        <ele>291.60000610352</ele>
        <time>2015-11-25T13:33:44Z</time>
      </trkpt>
      <trkpt lat="43.39221" lon="6.08345">
        <ele>291.60000610352</ele>
        <time>2015-11-25T13:33:45Z</time>
      </trkpt>
      <trkpt lat="43.3922" lon="6.08349">
        <ele>291.79998779297</ele>
        <time>2015-11-25T13:33:47Z</time>
      </trkpt>
      <trkpt lat="43.3922" lon="6.08353">
        <ele>292.20001220703</ele>
        <time>2015-11-25T13:33:49Z</time>
      </trkpt>
      <trkpt lat="43.39218" lon="6.08357">
        <ele>292.39999389648</ele>
        <time>2015-11-25T13:33:51Z</time>
      </trkpt>
      <trkpt lat="43.39218" lon="6.08362">
        <ele>292.79998779297</ele>
        <time>2015-11-25T13:33:53Z</time>
      </trkpt>
      <trkpt lat="43.39218" lon="6.08366">
        <ele>293</ele>
        <time>2015-11-25T13:33:55Z</time>
      </trkpt>
      <trkpt lat="43.39218" lon="6.08369">
        <ele>293</ele>
        <time>2015-11-25T13:33:56Z</time>
      </trkpt>
      <trkpt lat="43.39216" lon="6.08375">
        <ele>294</ele>
        <time>2015-11-25T13:33:59Z</time>
      </trkpt>
      <trkpt lat="43.39214" lon="6.08379">
        <ele>294.60000610352</ele>
        <time>2015-11-25T13:34:01Z</time>
      </trkpt>
      <trkpt lat="43.39213" lon="6.0838">
        <ele>295</ele>
        <time>2015-11-25T13:34:02Z</time>
      </trkpt>
      <trkpt lat="43.39213" lon="6.0838">
        <ele>295.20001220703</ele>
        <time>2015-11-25T13:34:03Z</time>
      </trkpt>
      <trkpt lat="43.39213" lon="6.0838">
        <ele>295.39999389648</ele>
        <time>2015-11-25T13:34:05Z</time>
      </trkpt>
      <trkpt lat="43.39213" lon="6.08382">
        <ele>295.20001220703</ele>
        <time>2015-11-25T13:34:07Z</time>
      </trkpt>
      <trkpt lat="43.39213" lon="6.08382">
        <ele>295.20001220703</ele>
        <time>2015-11-25T13:34:09Z</time>
      </trkpt>
      <trkpt lat="43.39213" lon="6.08383">
        <ele>295.20001220703</ele>
        <time>2015-11-25T13:34:13Z</time>
      </trkpt>
      <trkpt lat="43.39212" lon="6.08382">
        <ele>294.79998779297</ele>
        <time>2015-11-25T13:34:15Z</time>
      </trkpt>
      <trkpt lat="43.39213" lon="6.08382">
        <ele>294.20001220703</ele>
        <time>2015-11-25T13:34:17Z</time>
      </trkpt>
      <trkpt lat="43.39214" lon="6.08382">
        <ele>293.79998779297</ele>
        <time>2015-11-25T13:34:19Z</time>
      </trkpt>
      <trkpt lat="43.39214" lon="6.08382">
        <ele>293.79998779297</ele>
        <time>2015-11-25T13:34:21Z</time>
      </trkpt>
      <trkpt lat="43.39214" lon="6.08382">
        <ele>294.60000610352</ele>
        <time>2015-11-25T13:34:25Z</time>
      </trkpt>
      <trkpt lat="43.39214" lon="6.08383">
        <ele>294.60000610352</ele>
        <time>2015-11-25T13:34:31Z</time>
      </trkpt>
      <trkpt lat="43.39214" lon="6.08383">
        <ele>294.79998779297</ele>
        <time>2015-11-25T13:35:12Z</time>
      </trkpt>
      <trkpt lat="43.39214" lon="6.08383">
        <ele>294.60000610352</ele>
        <time>2015-11-25T13:35:21Z</time>
      </trkpt>
      <trkpt lat="43.39214" lon="6.08383">
        <ele>294.79998779297</ele>
        <time>2015-11-25T13:35:23Z</time>
      </trkpt>
      <trkpt lat="43.39214" lon="6.08383">
        <ele>294.79998779297</ele>
        <time>2015-11-25T13:35:25Z</time>
      </trkpt>
      <trkpt lat="43.39214" lon="6.08383">
        <ele>294.79998779297</ele>
        <time>2015-11-25T13:35:27Z</time>
      </trkpt>
      <trkpt lat="43.39214" lon="6.08383">
        <ele>294.79998779297</ele>
        <time>2015-11-25T13:35:29Z</time>
      </trkpt>
      <trkpt lat="43.39214" lon="6.08383">
        <ele>295</ele>
        <time>2015-11-25T13:35:31Z</time>
      </trkpt>
      <trkpt lat="43.39214" lon="6.08383">
        <ele>294.79998779297</ele>
        <time>2015-11-25T13:35:35Z</time>
      </trkpt>
      <trkpt lat="43.39214" lon="6.08383">
        <ele>294.60000610352</ele>
        <time>2015-11-25T13:35:41Z</time>
      </trkpt>
      <trkpt lat="43.39214" lon="6.08383">
        <ele>294.79998779297</ele>
        <time>2015-11-25T13:36:13Z</time>
      </trkpt>
      <trkpt lat="43.39214" lon="6.08383">
        <ele>295</ele>
        <time>2015-11-25T13:36:19Z</time>
      </trkpt>
      <trkpt lat="43.39214" lon="6.08383">
        <ele>295</ele>
        <time>2015-11-25T13:36:21Z</time>
      </trkpt>
      <trkpt lat="43.39214" lon="6.08383">
        <ele>295</ele>
        <time>2015-11-25T13:36:23Z</time>
      </trkpt>
      <trkpt lat="43.39214" lon="6.08383">
        <ele>295</ele>
        <time>2015-11-25T13:36:25Z</time>
      </trkpt>
      <trkpt lat="43.39213" lon="6.08385">
        <ele>295</ele>
        <time>2015-11-25T13:36:27Z</time>
      </trkpt>
      <trkpt lat="43.39213" lon="6.08387">
        <ele>295</ele>
        <time>2015-11-25T13:36:28Z</time>
      </trkpt>
      <trkpt lat="43.39213" lon="6.08389">
        <ele>295</ele>
        <time>2015-11-25T13:36:29Z</time>
      </trkpt>
      <trkpt lat="43.39213" lon="6.08395">
        <ele>295</ele>
        <time>2015-11-25T13:36:31Z</time>
      </trkpt>
      <trkpt lat="43.39213" lon="6.08401">
        <ele>295.39999389648</ele>
        <time>2015-11-25T13:36:33Z</time>
      </trkpt>
      <trkpt lat="43.39213" lon="6.08405">
        <ele>295.39999389648</ele>
        <time>2015-11-25T13:36:35Z</time>
      </trkpt>
      <trkpt lat="43.39213" lon="6.08406">
        <ele>295.60000610352</ele>
        <time>2015-11-25T13:36:36Z</time>
      </trkpt>
      <trkpt lat="43.39212" lon="6.08407">
        <ele>295.60000610352</ele>
        <time>2015-11-25T13:36:37Z</time>
      </trkpt>
      <trkpt lat="43.39211" lon="6.08409">
        <ele>296.20001220703</ele>
        <time>2015-11-25T13:36:39Z</time>
      </trkpt>
      <trkpt lat="43.39211" lon="6.0841">
        <ele>296.60000610352</ele>
        <time>2015-11-25T13:36:41Z</time>
      </trkpt>
      <trkpt lat="43.39211" lon="6.08411">
        <ele>296.79998779297</ele>
        <time>2015-11-25T13:36:43Z</time>
      </trkpt>
      <trkpt lat="43.39211" lon="6.08412">
        <ele>296.79998779297</ele>
        <time>2015-11-25T13:36:45Z</time>
      </trkpt>
      <trkpt lat="43.3921" lon="6.08412">
        <ele>296.79998779297</ele>
        <time>2015-11-25T13:36:47Z</time>
      </trkpt>
      <trkpt lat="43.3921" lon="6.08412">
        <ele>297</ele>
        <time>2015-11-25T13:36:48Z</time>
      </trkpt>
      <trkpt lat="43.3921" lon="6.08413">
        <ele>297</ele>
        <time>2015-11-25T13:36:49Z</time>
      </trkpt>
      <trkpt lat="43.39208" lon="6.08416">
        <ele>297</ele>
        <time>2015-11-25T13:36:51Z</time>
      </trkpt>
      <trkpt lat="43.39207" lon="6.08419">
        <ele>297.39999389648</ele>
        <time>2015-11-25T13:36:53Z</time>
      </trkpt>
      <trkpt lat="43.39206" lon="6.08422">
        <ele>297.60000610352</ele>
        <time>2015-11-25T13:36:55Z</time>
      </trkpt>
      <trkpt lat="43.39206" lon="6.08423">
        <ele>297.60000610352</ele>
        <time>2015-11-25T13:36:56Z</time>
      </trkpt>
      <trkpt lat="43.39206" lon="6.08425">
        <ele>298</ele>
        <time>2015-11-25T13:36:57Z</time>
      </trkpt>
      <trkpt lat="43.39206" lon="6.08427">
        <ele>298.60000610352</ele>
        <time>2015-11-25T13:36:59Z</time>
      </trkpt>
      <trkpt lat="43.39206" lon="6.08428">
        <ele>298.79998779297</ele>
        <time>2015-11-25T13:37:01Z</time>
      </trkpt>
      <trkpt lat="43.39206" lon="6.08428">
        <ele>299</ele>
        <time>2015-11-25T13:37:03Z</time>
      </trkpt>
      <trkpt lat="43.39205" lon="6.08429">
        <ele>299</ele>
        <time>2015-11-25T13:37:05Z</time>
      </trkpt>
      <trkpt lat="43.39205" lon="6.0843">
        <ele>299</ele>
        <time>2015-11-25T13:37:06Z</time>
      </trkpt>
      <trkpt lat="43.39204" lon="6.08431">
        <ele>299.20001220703</ele>
        <time>2015-11-25T13:37:07Z</time>
      </trkpt>
      <trkpt lat="43.39204" lon="6.08432">
        <ele>299.60000610352</ele>
        <time>2015-11-25T13:37:09Z</time>
      </trkpt>
      <trkpt lat="43.39204" lon="6.08431">
        <ele>299.79998779297</ele>
        <time>2015-11-25T13:37:11Z</time>
      </trkpt>
      <trkpt lat="43.39205" lon="6.08433">
        <ele>299.39999389648</ele>
        <time>2015-11-25T13:37:13Z</time>
      </trkpt>
      <trkpt lat="43.39205" lon="6.08433">
        <ele>299.39999389648</ele>
        <time>2015-11-25T13:37:15Z</time>
      </trkpt>
      <trkpt lat="43.39205" lon="6.08433">
        <ele>299.20001220703</ele>
        <time>2015-11-25T13:37:17Z</time>
      </trkpt>
      <trkpt lat="43.39205" lon="6.08433">
        <ele>299.20001220703</ele>
        <time>2015-11-25T13:37:18Z</time>
      </trkpt>
      <trkpt lat="43.39205" lon="6.08433">
        <ele>299.60000610352</ele>
        <time>2015-11-25T13:37:21Z</time>
      </trkpt>
      <trkpt lat="43.39205" lon="6.08434">
        <ele>299.39999389648</ele>
        <time>2015-11-25T13:37:23Z</time>
      </trkpt>
      <trkpt lat="43.39205" lon="6.08436">
        <ele>299.60000610352</ele>
        <time>2015-11-25T13:37:25Z</time>
      </trkpt>
      <trkpt lat="43.39205" lon="6.08441">
        <ele>300</ele>
        <time>2015-11-25T13:37:27Z</time>
      </trkpt>
      <trkpt lat="43.39205" lon="6.08443">
        <ele>300.20001220703</ele>
        <time>2015-11-25T13:37:28Z</time>
      </trkpt>
      <trkpt lat="43.39205" lon="6.08446">
        <ele>300.20001220703</ele>
        <time>2015-11-25T13:37:29Z</time>
      </trkpt>
      <trkpt lat="43.39203" lon="6.08452">
        <ele>300.39999389648</ele>
        <time>2015-11-25T13:37:31Z</time>
      </trkpt>
      <trkpt lat="43.39202" lon="6.08457">
        <ele>300.39999389648</ele>
        <time>2015-11-25T13:37:33Z</time>
      </trkpt>
      <trkpt lat="43.39201" lon="6.08462">
        <ele>301.20001220703</ele>
        <time>2015-11-25T13:37:35Z</time>
      </trkpt>
      <trkpt lat="43.392" lon="6.08466">
        <ele>301.60000610352</ele>
        <time>2015-11-25T13:37:37Z</time>
      </trkpt>
      <trkpt lat="43.39198" lon="6.08481">
        <ele>302.60000610352</ele>
        <time>2015-11-25T13:37:43Z</time>
      </trkpt>
      <trkpt lat="43.39198" lon="6.08484">
        <ele>302.79998779297</ele>
        <time>2015-11-25T13:37:44Z</time>
      </trkpt>
      <trkpt lat="43.39198" lon="6.08486">
        <ele>302.79998779297</ele>
        <time>2015-11-25T13:37:45Z</time>
      </trkpt>
      <trkpt lat="43.39197" lon="6.08491">
        <ele>302.79998779297</ele>
        <time>2015-11-25T13:37:47Z</time>
      </trkpt>
      <trkpt lat="43.39196" lon="6.08494">
        <ele>302.60000610352</ele>
        <time>2015-11-25T13:37:49Z</time>
      </trkpt>
      <trkpt lat="43.39195" lon="6.08496">
        <ele>302.60000610352</ele>
        <time>2015-11-25T13:37:50Z</time>
      </trkpt>
      <trkpt lat="43.39195" lon="6.08496">
        <ele>302.60000610352</ele>
        <time>2015-11-25T13:37:51Z</time>
      </trkpt>
      <trkpt lat="43.39195" lon="6.08496">
        <ele>302.60000610352</ele>
        <time>2015-11-25T13:37:53Z</time>
      </trkpt>
      <trkpt lat="43.39195" lon="6.08496">
        <ele>302.79998779297</ele>
        <time>2015-11-25T13:37:55Z</time>
      </trkpt>
      <trkpt lat="43.39195" lon="6.08496">
        <ele>303</ele>
        <time>2015-11-25T13:38:01Z</time>
      </trkpt>
      <trkpt lat="43.39195" lon="6.08496">
        <ele>303.60000610352</ele>
        <time>2015-11-25T13:38:11Z</time>
      </trkpt>
      <trkpt lat="43.39195" lon="6.08496">
        <ele>303</ele>
        <time>2015-11-25T13:38:17Z</time>
      </trkpt>
      <trkpt lat="43.39195" lon="6.08496">
        <ele>303.60000610352</ele>
        <time>2015-11-25T13:38:23Z</time>
      </trkpt>
      <trkpt lat="43.39195" lon="6.08496">
        <ele>302.60000610352</ele>
        <time>2015-11-25T13:38:27Z</time>
      </trkpt>
      <trkpt lat="43.39195" lon="6.08496">
        <ele>302.79998779297</ele>
        <time>2015-11-25T13:38:31Z</time>
      </trkpt>
      <trkpt lat="43.39195" lon="6.08496">
        <ele>302.79998779297</ele>
        <time>2015-11-25T13:38:33Z</time>
      </trkpt>
      <trkpt lat="43.39195" lon="6.08496">
        <ele>303</ele>
        <time>2015-11-25T13:38:35Z</time>
      </trkpt>
      <trkpt lat="43.39191" lon="6.08499">
        <ele>303.39999389648</ele>
        <time>2015-11-25T13:38:39Z</time>
      </trkpt>
      <trkpt lat="43.39191" lon="6.085">
        <ele>303.39999389648</ele>
        <time>2015-11-25T13:38:40Z</time>
      </trkpt>
      <trkpt lat="43.3919" lon="6.08502">
        <ele>303.60000610352</ele>
        <time>2015-11-25T13:38:41Z</time>
      </trkpt>
      <trkpt lat="43.3919" lon="6.08509">
        <ele>303.39999389648</ele>
        <time>2015-11-25T13:38:43Z</time>
      </trkpt>
      <trkpt lat="43.39189" lon="6.08512">
        <ele>303.39999389648</ele>
        <time>2015-11-25T13:38:44Z</time>
      </trkpt>
      <trkpt lat="43.39188" lon="6.08516">
        <ele>303.39999389648</ele>
        <time>2015-11-25T13:38:45Z</time>
      </trkpt>
      <trkpt lat="43.39183" lon="6.08532">
        <ele>302.79998779297</ele>
        <time>2015-11-25T13:38:49Z</time>
      </trkpt>
      <trkpt lat="43.39181" lon="6.08537">
        <ele>302</ele>
        <time>2015-11-25T13:38:50Z</time>
      </trkpt>
      <trkpt lat="43.39179" lon="6.08542">
        <ele>301.79998779297</ele>
        <time>2015-11-25T13:38:51Z</time>
      </trkpt>
      <trkpt lat="43.39177" lon="6.08552">
        <ele>302.20001220703</ele>
        <time>2015-11-25T13:38:53Z</time>
      </trkpt>
      <trkpt lat="43.39175" lon="6.08557">
        <ele>302.60000610352</ele>
        <time>2015-11-25T13:38:54Z</time>
      </trkpt>
      <trkpt lat="43.39174" lon="6.08563">
        <ele>302.20001220703</ele>
        <time>2015-11-25T13:38:55Z</time>
      </trkpt>
      <trkpt lat="43.39171" lon="6.08577">
        <ele>301.20001220703</ele>
        <time>2015-11-25T13:38:57Z</time>
      </trkpt>
      <trkpt lat="43.39169" lon="6.08591">
        <ele>300.79998779297</ele>
        <time>2015-11-25T13:38:59Z</time>
      </trkpt>
      <trkpt lat="43.39165" lon="6.08605">
        <ele>300.20001220703</ele>
        <time>2015-11-25T13:39:01Z</time>
      </trkpt>
      <trkpt lat="43.39162" lon="6.08619">
        <ele>299.60000610352</ele>
        <time>2015-11-25T13:39:03Z</time>
      </trkpt>
      <trkpt lat="43.39158" lon="6.08632">
        <ele>299.39999389648</ele>
        <time>2015-11-25T13:39:05Z</time>
      </trkpt>
      <trkpt lat="43.39157" lon="6.08647">
        <ele>299.39999389648</ele>
        <time>2015-11-25T13:39:07Z</time>
      </trkpt>
      <trkpt lat="43.39154" lon="6.08659">
        <ele>299.60000610352</ele>
        <time>2015-11-25T13:39:09Z</time>
      </trkpt>
      <trkpt lat="43.39151" lon="6.08671">
        <ele>300.20001220703</ele>
        <time>2015-11-25T13:39:11Z</time>
      </trkpt>
      <trkpt lat="43.3915" lon="6.08684">
        <ele>300</ele>
        <time>2015-11-25T13:39:13Z</time>
      </trkpt>
      <trkpt lat="43.39146" lon="6.0871">
        <ele>300.39999389648</ele>
        <time>2015-11-25T13:39:17Z</time>
      </trkpt>
      <trkpt lat="43.39145" lon="6.08715">
        <ele>300.20001220703</ele>
        <time>2015-11-25T13:39:18Z</time>
      </trkpt>
      <trkpt lat="43.39137" lon="6.08746">
        <ele>301.39999389648</ele>
        <time>2015-11-25T13:39:23Z</time>
      </trkpt>
      <trkpt lat="43.39133" lon="6.08759">
        <ele>301.20001220703</ele>
        <time>2015-11-25T13:39:25Z</time>
      </trkpt>
      <trkpt lat="43.3913" lon="6.08771">
        <ele>301.39999389648</ele>
        <time>2015-11-25T13:39:27Z</time>
      </trkpt>
      <trkpt lat="43.39127" lon="6.08782">
        <ele>301.60000610352</ele>
        <time>2015-11-25T13:39:29Z</time>
      </trkpt>
      <trkpt lat="43.39124" lon="6.08793">
        <ele>301.39999389648</ele>
        <time>2015-11-25T13:39:31Z</time>
      </trkpt>
      <trkpt lat="43.39121" lon="6.08804">
        <ele>302.20001220703</ele>
        <time>2015-11-25T13:39:33Z</time>
      </trkpt>
      <trkpt lat="43.39119" lon="6.08816">
        <ele>302.20001220703</ele>
        <time>2015-11-25T13:39:35Z</time>
      </trkpt>
      <trkpt lat="43.39118" lon="6.08822">
        <ele>302.79998779297</ele>
        <time>2015-11-25T13:39:36Z</time>
      </trkpt>
      <trkpt lat="43.39117" lon="6.08828">
        <ele>302.79998779297</ele>
        <time>2015-11-25T13:39:37Z</time>
      </trkpt>
      <trkpt lat="43.39114" lon="6.08839">
        <ele>302.60000610352</ele>
        <time>2015-11-25T13:39:39Z</time>
      </trkpt>
      <trkpt lat="43.39113" lon="6.08849">
        <ele>302.79998779297</ele>
        <time>2015-11-25T13:39:41Z</time>
      </trkpt>
      <trkpt lat="43.39112" lon="6.08853">
        <ele>303</ele>
        <time>2015-11-25T13:39:42Z</time>
      </trkpt>
      <trkpt lat="43.39111" lon="6.08857">
        <ele>302.79998779297</ele>
        <time>2015-11-25T13:39:43Z</time>
      </trkpt>
      <trkpt lat="43.39108" lon="6.08864">
        <ele>302.60000610352</ele>
        <time>2015-11-25T13:39:45Z</time>
      </trkpt>
      <trkpt lat="43.39107" lon="6.08872">
        <ele>302.60000610352</ele>
        <time>2015-11-25T13:39:47Z</time>
      </trkpt>
      <trkpt lat="43.39106" lon="6.0888">
        <ele>302.79998779297</ele>
        <time>2015-11-25T13:39:49Z</time>
      </trkpt>
      <trkpt lat="43.39103" lon="6.08898">
        <ele>303.20001220703</ele>
        <time>2015-11-25T13:39:53Z</time>
      </trkpt>
      <trkpt lat="43.39101" lon="6.08907">
        <ele>303.20001220703</ele>
        <time>2015-11-25T13:39:55Z</time>
      </trkpt>
      <trkpt lat="43.39099" lon="6.08916">
        <ele>303.39999389648</ele>
        <time>2015-11-25T13:39:57Z</time>
      </trkpt>
      <trkpt lat="43.39097" lon="6.08925">
        <ele>303.39999389648</ele>
        <time>2015-11-25T13:39:59Z</time>
      </trkpt>
      <trkpt lat="43.39095" lon="6.08932">
        <ele>303.79998779297</ele>
        <time>2015-11-25T13:40:01Z</time>
      </trkpt>
      <trkpt lat="43.39094" lon="6.0894">
        <ele>304</ele>
        <time>2015-11-25T13:40:03Z</time>
      </trkpt>
      <trkpt lat="43.39092" lon="6.08947">
        <ele>303.79998779297</ele>
        <time>2015-11-25T13:40:05Z</time>
      </trkpt>
      <trkpt lat="43.3909" lon="6.08954">
        <ele>304</ele>
        <time>2015-11-25T13:40:07Z</time>
      </trkpt>
      <trkpt lat="43.39088" lon="6.0896">
        <ele>304</ele>
        <time>2015-11-25T13:40:09Z</time>
      </trkpt>
      <trkpt lat="43.39086" lon="6.08966">
        <ele>304.20001220703</ele>
        <time>2015-11-25T13:40:11Z</time>
      </trkpt>
      <trkpt lat="43.39083" lon="6.08972">
        <ele>304.20001220703</ele>
        <time>2015-11-25T13:40:13Z</time>
      </trkpt>
      <trkpt lat="43.39078" lon="6.08983">
        <ele>304.79998779297</ele>
        <time>2015-11-25T13:40:17Z</time>
      </trkpt>
      <trkpt lat="43.39074" lon="6.08988">
        <ele>304.79998779297</ele>
        <time>2015-11-25T13:40:19Z</time>
      </trkpt>
      <trkpt lat="43.39072" lon="6.08994">
        <ele>304.79998779297</ele>
        <time>2015-11-25T13:40:21Z</time>
      </trkpt>
      <trkpt lat="43.39069" lon="6.09001">
        <ele>305</ele>
        <time>2015-11-25T13:40:23Z</time>
      </trkpt>
      <trkpt lat="43.39067" lon="6.09008">
        <ele>305.20001220703</ele>
        <time>2015-11-25T13:40:25Z</time>
      </trkpt>
      <trkpt lat="43.39064" lon="6.09015">
        <ele>304.60000610352</ele>
        <time>2015-11-25T13:40:27Z</time>
      </trkpt>
      <trkpt lat="43.3906" lon="6.0902">
        <ele>305</ele>
        <time>2015-11-25T13:40:29Z</time>
      </trkpt>
      <trkpt lat="43.39057" lon="6.09027">
        <ele>305</ele>
        <time>2015-11-25T13:40:31Z</time>
      </trkpt>
      <trkpt lat="43.39055" lon="6.09033">
        <ele>304.79998779297</ele>
        <time>2015-11-25T13:40:33Z</time>
      </trkpt>
      <trkpt lat="43.39053" lon="6.09038">
        <ele>304.79998779297</ele>
        <time>2015-11-25T13:40:35Z</time>
      </trkpt>
      <trkpt lat="43.39051" lon="6.09045">
        <ele>305.60000610352</ele>
        <time>2015-11-25T13:40:37Z</time>
      </trkpt>
      <trkpt lat="43.39049" lon="6.0905">
        <ele>305.79998779297</ele>
        <time>2015-11-25T13:40:39Z</time>
      </trkpt>
      <trkpt lat="43.39047" lon="6.09057">
        <ele>305.39999389648</ele>
        <time>2015-11-25T13:40:41Z</time>
      </trkpt>
      <trkpt lat="43.39044" lon="6.09064">
        <ele>305.60000610352</ele>
        <time>2015-11-25T13:40:43Z</time>
      </trkpt>
      <trkpt lat="43.39042" lon="6.09071">
        <ele>306.20001220703</ele>
        <time>2015-11-25T13:40:45Z</time>
      </trkpt>
      <trkpt lat="43.3904" lon="6.09078">
        <ele>306</ele>
        <time>2015-11-25T13:40:47Z</time>
      </trkpt>
      <trkpt lat="43.39038" lon="6.09085">
        <ele>306.20001220703</ele>
        <time>2015-11-25T13:40:49Z</time>
      </trkpt>
      <trkpt lat="43.39037" lon="6.09091">
        <ele>306.39999389648</ele>
        <time>2015-11-25T13:40:51Z</time>
      </trkpt>
      <trkpt lat="43.39036" lon="6.09098">
        <ele>306.39999389648</ele>
        <time>2015-11-25T13:40:53Z</time>
      </trkpt>
      <trkpt lat="43.39035" lon="6.09102">
        <ele>306.39999389648</ele>
        <time>2015-11-25T13:40:54Z</time>
      </trkpt>
      <trkpt lat="43.39035" lon="6.09106">
        <ele>306.39999389648</ele>
        <time>2015-11-25T13:40:55Z</time>
      </trkpt>
      <trkpt lat="43.39034" lon="6.09113">
        <ele>306.79998779297</ele>
        <time>2015-11-25T13:40:57Z</time>
      </trkpt>
      <trkpt lat="43.39032" lon="6.09121">
        <ele>306.79998779297</ele>
        <time>2015-11-25T13:40:59Z</time>
      </trkpt>
      <trkpt lat="43.3903" lon="6.09129">
        <ele>306.60000610352</ele>
        <time>2015-11-25T13:41:01Z</time>
      </trkpt>
      <trkpt lat="43.39028" lon="6.09138">
        <ele>306.60000610352</ele>
        <time>2015-11-25T13:41:03Z</time>
      </trkpt>
      <trkpt lat="43.39025" lon="6.09145">
        <ele>306.60000610352</ele>
        <time>2015-11-25T13:41:05Z</time>
      </trkpt>
      <trkpt lat="43.39022" lon="6.09153">
        <ele>306.39999389648</ele>
        <time>2015-11-25T13:41:07Z</time>
      </trkpt>
      <trkpt lat="43.39021" lon="6.0916">
        <ele>307.20001220703</ele>
        <time>2015-11-25T13:41:09Z</time>
      </trkpt>
      <trkpt lat="43.39019" lon="6.09166">
        <ele>307.39999389648</ele>
        <time>2015-11-25T13:41:11Z</time>
      </trkpt>
      <trkpt lat="43.39018" lon="6.09174">
        <ele>307.39999389648</ele>
        <time>2015-11-25T13:41:13Z</time>
      </trkpt>
      <trkpt lat="43.39016" lon="6.09182">
        <ele>308</ele>
        <time>2015-11-25T13:41:15Z</time>
      </trkpt>
      <trkpt lat="43.39014" lon="6.0919">
        <ele>308.39999389648</ele>
        <time>2015-11-25T13:41:17Z</time>
      </trkpt>
      <trkpt lat="43.39013" lon="6.09199">
        <ele>308.20001220703</ele>
        <time>2015-11-25T13:41:19Z</time>
      </trkpt>
      <trkpt lat="43.39011" lon="6.09209">
        <ele>308.60000610352</ele>
        <time>2015-11-25T13:41:21Z</time>
      </trkpt>
      <trkpt lat="43.39006" lon="6.09227">
        <ele>308.79998779297</ele>
        <time>2015-11-25T13:41:25Z</time>
      </trkpt>
      <trkpt lat="43.39003" lon="6.09236">
        <ele>309</ele>
        <time>2015-11-25T13:41:27Z</time>
      </trkpt>
      <trkpt lat="43.39" lon="6.09244">
        <ele>309</ele>
        <time>2015-11-25T13:41:29Z</time>
      </trkpt>
      <trkpt lat="43.38998" lon="6.09249">
        <ele>309.20001220703</ele>
        <time>2015-11-25T13:41:30Z</time>
      </trkpt>
      <trkpt lat="43.38997" lon="6.09253">
        <ele>309.39999389648</ele>
        <time>2015-11-25T13:41:31Z</time>
      </trkpt>
      <trkpt lat="43.38992" lon="6.09266">
        <ele>310.20001220703</ele>
        <time>2015-11-25T13:41:35Z</time>
      </trkpt>
      <trkpt lat="43.38989" lon="6.09272">
        <ele>310.39999389648</ele>
        <time>2015-11-25T13:41:37Z</time>
      </trkpt>
      <trkpt lat="43.38986" lon="6.09278">
        <ele>311</ele>
        <time>2015-11-25T13:41:39Z</time>
      </trkpt>
      <trkpt lat="43.38985" lon="6.0928">
        <ele>311.20001220703</ele>
        <time>2015-11-25T13:41:40Z</time>
      </trkpt>
      <trkpt lat="43.3898" lon="6.09289">
        <ele>311.60000610352</ele>
        <time>2015-11-25T13:41:43Z</time>
      </trkpt>
      <trkpt lat="43.38978" lon="6.09294">
        <ele>311.79998779297</ele>
        <time>2015-11-25T13:41:45Z</time>
      </trkpt>
      <trkpt lat="43.38976" lon="6.09296">
        <ele>312.20001220703</ele>
        <time>2015-11-25T13:41:46Z</time>
      </trkpt>
      <trkpt lat="43.38974" lon="6.09299">
        <ele>312.39999389648</ele>
        <time>2015-11-25T13:41:47Z</time>
      </trkpt>
      <trkpt lat="43.38971" lon="6.09304">
        <ele>313.20001220703</ele>
        <time>2015-11-25T13:41:49Z</time>
      </trkpt>
      <trkpt lat="43.38969" lon="6.09311">
        <ele>313</ele>
        <time>2015-11-25T13:41:51Z</time>
      </trkpt>
      <trkpt lat="43.38968" lon="6.09315">
        <ele>313</ele>
        <time>2015-11-25T13:41:52Z</time>
      </trkpt>
      <trkpt lat="43.38966" lon="6.09319">
        <ele>312.60000610352</ele>
        <time>2015-11-25T13:41:53Z</time>
      </trkpt>
      <trkpt lat="43.38961" lon="6.09328">
        <ele>312.39999389648</ele>
        <time>2015-11-25T13:41:55Z</time>
      </trkpt>
      <trkpt lat="43.38956" lon="6.09333">
        <ele>312.39999389648</ele>
        <time>2015-11-25T13:41:57Z</time>
      </trkpt>
      <trkpt lat="43.38951" lon="6.0934">
        <ele>312.20001220703</ele>
        <time>2015-11-25T13:41:59Z</time>
      </trkpt>
      <trkpt lat="43.38947" lon="6.09344">
        <ele>312.39999389648</ele>
        <time>2015-11-25T13:42:01Z</time>
      </trkpt>
      <trkpt lat="43.38946" lon="6.09346">
        <ele>312.39999389648</ele>
        <time>2015-11-25T13:42:02Z</time>
      </trkpt>
      <trkpt lat="43.38944" lon="6.09349">
        <ele>312.60000610352</ele>
        <time>2015-11-25T13:42:03Z</time>
      </trkpt>
      <trkpt lat="43.38941" lon="6.09353">
        <ele>312.60000610352</ele>
        <time>2015-11-25T13:42:05Z</time>
      </trkpt>
      <trkpt lat="43.38936" lon="6.09359">
        <ele>312.60000610352</ele>
        <time>2015-11-25T13:42:07Z</time>
      </trkpt>
      <trkpt lat="43.38931" lon="6.09365">
        <ele>312.79998779297</ele>
        <time>2015-11-25T13:42:09Z</time>
      </trkpt>
      <trkpt lat="43.38927" lon="6.09368">
        <ele>313.20001220703</ele>
        <time>2015-11-25T13:42:11Z</time>
      </trkpt>
      <trkpt lat="43.38923" lon="6.09373">
        <ele>314</ele>
        <time>2015-11-25T13:42:13Z</time>
      </trkpt>
      <trkpt lat="43.38919" lon="6.09377">
        <ele>313.60000610352</ele>
        <time>2015-11-25T13:42:15Z</time>
      </trkpt>
      <trkpt lat="43.38917" lon="6.0938">
        <ele>314.60000610352</ele>
        <time>2015-11-25T13:42:17Z</time>
      </trkpt>
      <trkpt lat="43.38916" lon="6.09381">
        <ele>314.79998779297</ele>
        <time>2015-11-25T13:42:18Z</time>
      </trkpt>
      <trkpt lat="43.38916" lon="6.09381">
        <ele>315.20001220703</ele>
        <time>2015-11-25T13:42:19Z</time>
      </trkpt>
      <trkpt lat="43.38916" lon="6.09382">
        <ele>315.60000610352</ele>
        <time>2015-11-25T13:42:21Z</time>
      </trkpt>
      <trkpt lat="43.38916" lon="6.09383">
        <ele>315.60000610352</ele>
        <time>2015-11-25T13:42:22Z</time>
      </trkpt>
      <trkpt lat="43.38915" lon="6.09383">
        <ele>315.60000610352</ele>
        <time>2015-11-25T13:42:23Z</time>
      </trkpt>
      <trkpt lat="43.38915" lon="6.09383">
        <ele>315.39999389648</ele>
        <time>2015-11-25T13:42:25Z</time>
      </trkpt>
      <trkpt lat="43.38915" lon="6.09383">
        <ele>315.20001220703</ele>
        <time>2015-11-25T13:42:27Z</time>
      </trkpt>
      <trkpt lat="43.38915" lon="6.09383">
        <ele>314.79998779297</ele>
        <time>2015-11-25T13:42:29Z</time>
      </trkpt>
      <trkpt lat="43.38915" lon="6.09384">
        <ele>315.39999389648</ele>
        <time>2015-11-25T13:42:45Z</time>
      </trkpt>
      <trkpt lat="43.38915" lon="6.09384">
        <ele>315.39999389648</ele>
        <time>2015-11-25T13:42:47Z</time>
      </trkpt>
      <trkpt lat="43.38915" lon="6.09384">
        <ele>315.60000610352</ele>
        <time>2015-11-25T13:42:49Z</time>
      </trkpt>
      <trkpt lat="43.38915" lon="6.09384">
        <ele>315.60000610352</ele>
        <time>2015-11-25T13:42:51Z</time>
      </trkpt>
      <trkpt lat="43.38915" lon="6.09384">
        <ele>315.79998779297</ele>
        <time>2015-11-25T13:43:05Z</time>
      </trkpt>
      <trkpt lat="43.38915" lon="6.09384">
        <ele>315.60000610352</ele>
        <time>2015-11-25T13:43:09Z</time>
      </trkpt>
      <trkpt lat="43.38915" lon="6.09385">
        <ele>315.39999389648</ele>
        <time>2015-11-25T13:43:11Z</time>
      </trkpt>
      <trkpt lat="43.38915" lon="6.09384">
        <ele>315.39999389648</ele>
        <time>2015-11-25T13:43:13Z</time>
      </trkpt>
      <trkpt lat="43.38916" lon="6.09384">
        <ele>315.39999389648</ele>
        <time>2015-11-25T13:43:15Z</time>
      </trkpt>
      <trkpt lat="43.38916" lon="6.09384">
        <ele>315.39999389648</ele>
        <time>2015-11-25T13:43:17Z</time>
      </trkpt>
      <trkpt lat="43.38916" lon="6.09384">
        <ele>315.39999389648</ele>
        <time>2015-11-25T13:43:19Z</time>
      </trkpt>
      <trkpt lat="43.38916" lon="6.09384">
        <ele>315.39999389648</ele>
        <time>2015-11-25T13:43:25Z</time>
      </trkpt>
      <trkpt lat="43.38916" lon="6.09385">
        <ele>315.79998779297</ele>
        <time>2015-11-25T13:43:41Z</time>
      </trkpt>
      <trkpt lat="43.38916" lon="6.09385">
        <ele>315.60000610352</ele>
        <time>2015-11-25T13:43:45Z</time>
      </trkpt>
      <trkpt lat="43.38915" lon="6.09385">
        <ele>315.60000610352</ele>
        <time>2015-11-25T13:43:47Z</time>
      </trkpt>
      <trkpt lat="43.38916" lon="6.09385">
        <ele>315.20001220703</ele>
        <time>2015-11-25T13:43:49Z</time>
      </trkpt>
      <trkpt lat="43.38916" lon="6.09385">
        <ele>315.20001220703</ele>
        <time>2015-11-25T13:43:51Z</time>
      </trkpt>
      <trkpt lat="43.38916" lon="6.09385">
        <ele>315</ele>
        <time>2015-11-25T13:43:52Z</time>
      </trkpt>
      <trkpt lat="43.38916" lon="6.09385">
        <ele>314.79998779297</ele>
        <time>2015-11-25T13:43:53Z</time>
      </trkpt>
      <trkpt lat="43.38916" lon="6.09385">
        <ele>314.79998779297</ele>
        <time>2015-11-25T13:43:55Z</time>
      </trkpt>
      <trkpt lat="43.38915" lon="6.09385">
        <ele>314.79998779297</ele>
        <time>2015-11-25T13:43:57Z</time>
      </trkpt>
      <trkpt lat="43.38915" lon="6.09385">
        <ele>314.39999389648</ele>
        <time>2015-11-25T13:43:59Z</time>
      </trkpt>
      <trkpt lat="43.38915" lon="6.09385">
        <ele>314.39999389648</ele>
        <time>2015-11-25T13:44:00Z</time>
      </trkpt>
      <trkpt lat="43.38915" lon="6.09385">
        <ele>314.39999389648</ele>
        <time>2015-11-25T13:44:01Z</time>
      </trkpt>
      <trkpt lat="43.38915" lon="6.09385">
        <ele>315</ele>
        <time>2015-11-25T13:44:03Z</time>
      </trkpt>
      <trkpt lat="43.38916" lon="6.09385">
        <ele>315.39999389648</ele>
        <time>2015-11-25T13:44:05Z</time>
      </trkpt>
      <trkpt lat="43.38915" lon="6.09385">
        <ele>315.39999389648</ele>
        <time>2015-11-25T13:44:07Z</time>
      </trkpt>
      <trkpt lat="43.38915" lon="6.09385">
        <ele>315.60000610352</ele>
        <time>2015-11-25T13:44:09Z</time>
      </trkpt>
      <trkpt lat="43.38915" lon="6.09385">
        <ele>315.79998779297</ele>
        <time>2015-11-25T13:44:11Z</time>
      </trkpt>
      <trkpt lat="43.38915" lon="6.09385">
        <ele>315.79998779297</ele>
        <time>2015-11-25T13:44:13Z</time>
      </trkpt>
      <trkpt lat="43.38915" lon="6.09385">
        <ele>315.79998779297</ele>
        <time>2015-11-25T13:44:15Z</time>
      </trkpt>
      <trkpt lat="43.38915" lon="6.09385">
        <ele>315.39999389648</ele>
        <time>2015-11-25T13:44:17Z</time>
      </trkpt>
      <trkpt lat="43.38915" lon="6.09385">
        <ele>315.20001220703</ele>
        <time>2015-11-25T13:44:18Z</time>
      </trkpt>
      <trkpt lat="43.38915" lon="6.09385">
        <ele>315</ele>
        <time>2015-11-25T13:44:19Z</time>
      </trkpt>
      <trkpt lat="43.38915" lon="6.09385">
        <ele>314.79998779297</ele>
        <time>2015-11-25T13:44:21Z</time>
      </trkpt>
      <trkpt lat="43.38915" lon="6.09385">
        <ele>315</ele>
        <time>2015-11-25T13:44:23Z</time>
      </trkpt>
      <trkpt lat="43.38914" lon="6.09386">
        <ele>315.39999389648</ele>
        <time>2015-11-25T13:44:25Z</time>
      </trkpt>
      <trkpt lat="43.38913" lon="6.09387">
        <ele>316</ele>
        <time>2015-11-25T13:44:27Z</time>
      </trkpt>
      <trkpt lat="43.38911" lon="6.09389">
        <ele>316.39999389648</ele>
        <time>2015-11-25T13:44:29Z</time>
      </trkpt>
      <trkpt lat="43.3891" lon="6.0939">
        <ele>316.60000610352</ele>
        <time>2015-11-25T13:44:30Z</time>
      </trkpt>
      <trkpt lat="43.38909" lon="6.09391">
        <ele>316.79998779297</ele>
        <time>2015-11-25T13:44:31Z</time>
      </trkpt>
      <trkpt lat="43.38907" lon="6.09392">
        <ele>317</ele>
        <time>2015-11-25T13:44:33Z</time>
      </trkpt>
      <trkpt lat="43.38906" lon="6.09393">
        <ele>317</ele>
        <time>2015-11-25T13:44:34Z</time>
      </trkpt>
      <trkpt lat="43.38905" lon="6.09394">
        <ele>317.20001220703</ele>
        <time>2015-11-25T13:44:35Z</time>
      </trkpt>
      <trkpt lat="43.38904" lon="6.09396">
        <ele>317.39999389648</ele>
        <time>2015-11-25T13:44:37Z</time>
      </trkpt>
      <trkpt lat="43.38902" lon="6.09398">
        <ele>317.79998779297</ele>
        <time>2015-11-25T13:44:39Z</time>
      </trkpt>
      <trkpt lat="43.38901" lon="6.09401">
        <ele>318.20001220703</ele>
        <time>2015-11-25T13:44:41Z</time>
      </trkpt>
      <trkpt lat="43.389" lon="6.09406">
        <ele>318.20001220703</ele>
        <time>2015-11-25T13:44:43Z</time>
      </trkpt>
      <trkpt lat="43.38898" lon="6.0941">
        <ele>318.60000610352</ele>
        <time>2015-11-25T13:44:45Z</time>
      </trkpt>
      <trkpt lat="43.38897" lon="6.09411">
        <ele>319</ele>
        <time>2015-11-25T13:44:46Z</time>
      </trkpt>
      <trkpt lat="43.38896" lon="6.09411">
        <ele>319.20001220703</ele>
        <time>2015-11-25T13:44:47Z</time>
      </trkpt>
      <trkpt lat="43.38894" lon="6.0941">
        <ele>319.60000610352</ele>
        <time>2015-11-25T13:44:49Z</time>
      </trkpt>
      <trkpt lat="43.38894" lon="6.09411">
        <ele>319.60000610352</ele>
        <time>2015-11-25T13:44:51Z</time>
      </trkpt>
      <trkpt lat="43.38894" lon="6.09411">
        <ele>319.39999389648</ele>
        <time>2015-11-25T13:44:53Z</time>
      </trkpt>
      <trkpt lat="43.38894" lon="6.09412">
        <ele>319.39999389648</ele>
        <time>2015-11-25T13:44:55Z</time>
      </trkpt>
      <trkpt lat="43.38894" lon="6.09412">
        <ele>319.79998779297</ele>
        <time>2015-11-25T13:44:57Z</time>
      </trkpt>
      <trkpt lat="43.38893" lon="6.09412">
        <ele>319.79998779297</ele>
        <time>2015-11-25T13:44:59Z</time>
      </trkpt>
      <trkpt lat="43.38893" lon="6.09413">
        <ele>319.79998779297</ele>
        <time>2015-11-25T13:45:00Z</time>
      </trkpt>
      <trkpt lat="43.38893" lon="6.09413">
        <ele>319.79998779297</ele>
        <time>2015-11-25T13:45:01Z</time>
      </trkpt>
      <trkpt lat="43.38893" lon="6.09413">
        <ele>319.79998779297</ele>
        <time>2015-11-25T13:45:03Z</time>
      </trkpt>
      <trkpt lat="43.38893" lon="6.09413">
        <ele>319.79998779297</ele>
        <time>2015-11-25T13:45:05Z</time>
      </trkpt>
      <trkpt lat="43.38893" lon="6.09413">
        <ele>319.60000610352</ele>
        <time>2015-11-25T13:45:07Z</time>
      </trkpt>
      <trkpt lat="43.38893" lon="6.09414">
        <ele>319.60000610352</ele>
        <time>2015-11-25T13:45:09Z</time>
      </trkpt>
      <trkpt lat="43.38892" lon="6.09415">
        <ele>319.60000610352</ele>
        <time>2015-11-25T13:45:10Z</time>
      </trkpt>
      <trkpt lat="43.38892" lon="6.09416">
        <ele>319.60000610352</ele>
        <time>2015-11-25T13:45:11Z</time>
      </trkpt>
      <trkpt lat="43.38892" lon="6.09417">
        <ele>319.79998779297</ele>
        <time>2015-11-25T13:45:13Z</time>
      </trkpt>
      <trkpt lat="43.38892" lon="6.09417">
        <ele>320</ele>
        <time>2015-11-25T13:45:14Z</time>
      </trkpt>
      <trkpt lat="43.38891" lon="6.09418">
        <ele>320</ele>
        <time>2015-11-25T13:45:15Z</time>
      </trkpt>
      <trkpt lat="43.3889" lon="6.09418">
        <ele>320.20001220703</ele>
        <time>2015-11-25T13:45:18Z</time>
      </trkpt>
      <trkpt lat="43.38889" lon="6.09419">
        <ele>320.20001220703</ele>
        <time>2015-11-25T13:45:19Z</time>
      </trkpt>
      <trkpt lat="43.38889" lon="6.09419">
        <ele>320.60000610352</ele>
        <time>2015-11-25T13:45:21Z</time>
      </trkpt>
      <trkpt lat="43.38888" lon="6.0942">
        <ele>320.79998779297</ele>
        <time>2015-11-25T13:45:23Z</time>
      </trkpt>
      <trkpt lat="43.38888" lon="6.0942">
        <ele>320.79998779297</ele>
        <time>2015-11-25T13:45:25Z</time>
      </trkpt>
      <trkpt lat="43.38888" lon="6.0942">
        <ele>321.60000610352</ele>
        <time>2015-11-25T13:45:29Z</time>
      </trkpt>
      <trkpt lat="43.38888" lon="6.0942">
        <ele>321.60000610352</ele>
        <time>2015-11-25T13:45:31Z</time>
      </trkpt>
      <trkpt lat="43.38888" lon="6.0942">
        <ele>321.60000610352</ele>
        <time>2015-11-25T13:45:33Z</time>
      </trkpt>
      <trkpt lat="43.38888" lon="6.09421">
        <ele>321.60000610352</ele>
        <time>2015-11-25T13:45:35Z</time>
      </trkpt>
      <trkpt lat="43.38887" lon="6.09421">
        <ele>322</ele>
        <time>2015-11-25T13:45:39Z</time>
      </trkpt>
      <trkpt lat="43.38887" lon="6.09421">
        <ele>322</ele>
        <time>2015-11-25T13:45:40Z</time>
      </trkpt>
      <trkpt lat="43.38887" lon="6.09422">
        <ele>321.79998779297</ele>
        <time>2015-11-25T13:45:41Z</time>
      </trkpt>
      <trkpt lat="43.38887" lon="6.09422">
        <ele>321.60000610352</ele>
        <time>2015-11-25T13:45:43Z</time>
      </trkpt>
      <trkpt lat="43.38887" lon="6.09422">
        <ele>321.39999389648</ele>
        <time>2015-11-25T13:45:45Z</time>
      </trkpt>
      <trkpt lat="43.38887" lon="6.09422">
        <ele>321.20001220703</ele>
        <time>2015-11-25T13:45:47Z</time>
      </trkpt>
      <trkpt lat="43.38887" lon="6.09422">
        <ele>321.20001220703</ele>
        <time>2015-11-25T13:46:04Z</time>
      </trkpt>
      <trkpt lat="43.38887" lon="6.09422">
        <ele>321.20001220703</ele>
        <time>2015-11-25T13:46:05Z</time>
      </trkpt>
      <trkpt lat="43.38887" lon="6.09422">
        <ele>321.20001220703</ele>
        <time>2015-11-25T13:46:07Z</time>
      </trkpt>
      <trkpt lat="43.38887" lon="6.09423">
        <ele>321.20001220703</ele>
        <time>2015-11-25T13:46:09Z</time>
      </trkpt>
      <trkpt lat="43.38884" lon="6.09424">
        <ele>321.20001220703</ele>
        <time>2015-11-25T13:46:11Z</time>
      </trkpt>
      <trkpt lat="43.38883" lon="6.09424">
        <ele>321</ele>
        <time>2015-11-25T13:46:12Z</time>
      </trkpt>
      <trkpt lat="43.38881" lon="6.09425">
        <ele>320.60000610352</ele>
        <time>2015-11-25T13:46:13Z</time>
      </trkpt>
      <trkpt lat="43.38879" lon="6.09425">
        <ele>320.39999389648</ele>
        <time>2015-11-25T13:46:14Z</time>
      </trkpt>
      <trkpt lat="43.38877" lon="6.09426">
        <ele>320.20001220703</ele>
        <time>2015-11-25T13:46:15Z</time>
      </trkpt>
      <trkpt lat="43.38877" lon="6.09427">
        <ele>320</ele>
        <time>2015-11-25T13:46:17Z</time>
      </trkpt>
      <trkpt lat="43.38877" lon="6.09427">
        <ele>319.79998779297</ele>
        <time>2015-11-25T13:46:19Z</time>
      </trkpt>
      <trkpt lat="43.38876" lon="6.09427">
        <ele>319.79998779297</ele>
        <time>2015-11-25T13:46:21Z</time>
      </trkpt>
      <trkpt lat="43.38876" lon="6.09427">
        <ele>319.60000610352</ele>
        <time>2015-11-25T13:46:23Z</time>
      </trkpt>
      <trkpt lat="43.38877" lon="6.09428">
        <ele>319.39999389648</ele>
        <time>2015-11-25T13:46:26Z</time>
      </trkpt>
      <trkpt lat="43.38877" lon="6.09428">
        <ele>319.20001220703</ele>
        <time>2015-11-25T13:46:27Z</time>
      </trkpt>
      <trkpt lat="43.38877" lon="6.09428">
        <ele>318.79998779297</ele>
        <time>2015-11-25T13:46:29Z</time>
      </trkpt>
      <trkpt lat="43.38877" lon="6.09427">
        <ele>318.79998779297</ele>
        <time>2015-11-25T13:46:31Z</time>
      </trkpt>
      <trkpt lat="43.38877" lon="6.09427">
        <ele>318.60000610352</ele>
        <time>2015-11-25T13:46:35Z</time>
      </trkpt>
      <trkpt lat="43.38877" lon="6.09428">
        <ele>319</ele>
        <time>2015-11-25T13:46:45Z</time>
      </trkpt>
      <trkpt lat="43.38877" lon="6.09428">
        <ele>319.39999389648</ele>
        <time>2015-11-25T13:47:05Z</time>
      </trkpt>
      <trkpt lat="43.38877" lon="6.09427">
        <ele>319.60000610352</ele>
        <time>2015-11-25T13:47:07Z</time>
      </trkpt>
      <trkpt lat="43.38876" lon="6.09426">
        <ele>320.39999389648</ele>
        <time>2015-11-25T13:47:10Z</time>
      </trkpt>
      <trkpt lat="43.38876" lon="6.09426">
        <ele>320.60000610352</ele>
        <time>2015-11-25T13:47:11Z</time>
      </trkpt>
      <trkpt lat="43.38877" lon="6.09426">
        <ele>320.39999389648</ele>
        <time>2015-11-25T13:47:13Z</time>
      </trkpt>
      <trkpt lat="43.38876" lon="6.09426">
        <ele>320.39999389648</ele>
        <time>2015-11-25T13:47:14Z</time>
      </trkpt>
      <trkpt lat="43.38876" lon="6.09427">
        <ele>320.39999389648</ele>
        <time>2015-11-25T13:47:17Z</time>
      </trkpt>
      <trkpt lat="43.38877" lon="6.09425">
        <ele>320</ele>
        <time>2015-11-25T13:47:23Z</time>
      </trkpt>
      <trkpt lat="43.38876" lon="6.09425">
        <ele>320</ele>
        <time>2015-11-25T13:47:24Z</time>
      </trkpt>
      <trkpt lat="43.38876" lon="6.09425">
        <ele>320</ele>
        <time>2015-11-25T13:47:25Z</time>
      </trkpt>
      <trkpt lat="43.38876" lon="6.09425">
        <ele>320</ele>
        <time>2015-11-25T13:47:27Z</time>
      </trkpt>
      <trkpt lat="43.38876" lon="6.09425">
        <ele>320</ele>
        <time>2015-11-25T13:47:29Z</time>
      </trkpt>
      <trkpt lat="43.38876" lon="6.09425">
        <ele>320</ele>
        <time>2015-11-25T13:47:31Z</time>
      </trkpt>
      <trkpt lat="43.38876" lon="6.09425">
        <ele>320</ele>
        <time>2015-11-25T13:47:33Z</time>
      </trkpt>
      <trkpt lat="43.38876" lon="6.09425">
        <ele>320.20001220703</ele>
        <time>2015-11-25T13:47:34Z</time>
      </trkpt>
      <trkpt lat="43.38876" lon="6.09425">
        <ele>320.20001220703</ele>
        <time>2015-11-25T13:47:35Z</time>
      </trkpt>
      <trkpt lat="43.38876" lon="6.09425">
        <ele>320.20001220703</ele>
        <time>2015-11-25T13:47:36Z</time>
      </trkpt>
      <trkpt lat="43.38875" lon="6.09425">
        <ele>320.20001220703</ele>
        <time>2015-11-25T13:47:37Z</time>
      </trkpt>
      <trkpt lat="43.38872" lon="6.09422">
        <ele>320.20001220703</ele>
        <time>2015-11-25T13:47:39Z</time>
      </trkpt>
      <trkpt lat="43.38869" lon="6.09418">
        <ele>319.39999389648</ele>
        <time>2015-11-25T13:47:41Z</time>
      </trkpt>
      <trkpt lat="43.38865" lon="6.0941">
        <ele>318.79998779297</ele>
        <time>2015-11-25T13:47:45Z</time>
      </trkpt>
      <trkpt lat="43.38861" lon="6.09406">
        <ele>318.20001220703</ele>
        <time>2015-11-25T13:47:47Z</time>
      </trkpt>
      <trkpt lat="43.3886" lon="6.09402">
        <ele>317.39999389648</ele>
        <time>2015-11-25T13:47:49Z</time>
      </trkpt>
      <trkpt lat="43.38858" lon="6.09399">
        <ele>316.39999389648</ele>
        <time>2015-11-25T13:47:51Z</time>
      </trkpt>
      <trkpt lat="43.38856" lon="6.09396">
        <ele>316.20001220703</ele>
        <time>2015-11-25T13:47:53Z</time>
      </trkpt>
      <trkpt lat="43.38854" lon="6.09393">
        <ele>315.79998779297</ele>
        <time>2015-11-25T13:47:55Z</time>
      </trkpt>
      <trkpt lat="43.38853" lon="6.09391">
        <ele>315.60000610352</ele>
        <time>2015-11-25T13:47:56Z</time>
      </trkpt>
      <trkpt lat="43.38852" lon="6.0939">
        <ele>315.39999389648</ele>
        <time>2015-11-25T13:47:57Z</time>
      </trkpt>
      <trkpt lat="43.38851" lon="6.09388">
        <ele>315</ele>
        <time>2015-11-25T13:47:58Z</time>
      </trkpt>
      <trkpt lat="43.38849" lon="6.09387">
        <ele>314.60000610352</ele>
        <time>2015-11-25T13:47:59Z</time>
      </trkpt>
      <trkpt lat="43.38848" lon="6.09386">
        <ele>314.20001220703</ele>
        <time>2015-11-25T13:48:00Z</time>
      </trkpt>
      <trkpt lat="43.38847" lon="6.09387">
        <ele>314</ele>
        <time>2015-11-25T13:48:01Z</time>
      </trkpt>
      <trkpt lat="43.38845" lon="6.09392">
        <ele>313.60000610352</ele>
        <time>2015-11-25T13:48:03Z</time>
      </trkpt>
      <trkpt lat="43.38844" lon="6.09394">
        <ele>312.60000610352</ele>
        <time>2015-11-25T13:48:04Z</time>
      </trkpt>
      <trkpt lat="43.38843" lon="6.09398">
        <ele>311.79998779297</ele>
        <time>2015-11-25T13:48:05Z</time>
      </trkpt>
      <trkpt lat="43.38842" lon="6.094">
        <ele>311.39999389648</ele>
        <time>2015-11-25T13:48:06Z</time>
      </trkpt>
      <trkpt lat="43.38842" lon="6.09403">
        <ele>311</ele>
        <time>2015-11-25T13:48:07Z</time>
      </trkpt>
      <trkpt lat="43.3884" lon="6.09409">
        <ele>311</ele>
        <time>2015-11-25T13:48:09Z</time>
      </trkpt>
      <trkpt lat="43.38839" lon="6.09413">
        <ele>310</ele>
        <time>2015-11-25T13:48:11Z</time>
      </trkpt>
      <trkpt lat="43.38838" lon="6.09416">
        <ele>309.39999389648</ele>
        <time>2015-11-25T13:48:13Z</time>
      </trkpt>
      <trkpt lat="43.38838" lon="6.09417">
        <ele>309</ele>
        <time>2015-11-25T13:48:17Z</time>
      </trkpt>
      <trkpt lat="43.38838" lon="6.09417">
        <ele>308.79998779297</ele>
        <time>2015-11-25T13:48:19Z</time>
      </trkpt>
      <trkpt lat="43.38838" lon="6.09417">
        <ele>308.79998779297</ele>
        <time>2015-11-25T13:48:21Z</time>
      </trkpt>
      <trkpt lat="43.38838" lon="6.09417">
        <ele>308.79998779297</ele>
        <time>2015-11-25T13:48:23Z</time>
      </trkpt>
      <trkpt lat="43.38837" lon="6.09418">
        <ele>309</ele>
        <time>2015-11-25T13:48:25Z</time>
      </trkpt>
      <trkpt lat="43.38837" lon="6.09419">
        <ele>308.79998779297</ele>
        <time>2015-11-25T13:48:27Z</time>
      </trkpt>
      <trkpt lat="43.38836" lon="6.09421">
        <ele>308.39999389648</ele>
        <time>2015-11-25T13:48:29Z</time>
      </trkpt>
      <trkpt lat="43.38836" lon="6.09422">
        <ele>308.39999389648</ele>
        <time>2015-11-25T13:48:31Z</time>
      </trkpt>
      <trkpt lat="43.38835" lon="6.09424">
        <ele>308.39999389648</ele>
        <time>2015-11-25T13:48:33Z</time>
      </trkpt>
      <trkpt lat="43.38835" lon="6.09427">
        <ele>308.60000610352</ele>
        <time>2015-11-25T13:48:35Z</time>
      </trkpt>
      <trkpt lat="43.38834" lon="6.0943">
        <ele>309</ele>
        <time>2015-11-25T13:48:37Z</time>
      </trkpt>
      <trkpt lat="43.38834" lon="6.09434">
        <ele>309.60000610352</ele>
        <time>2015-11-25T13:48:39Z</time>
      </trkpt>
      <trkpt lat="43.38833" lon="6.09436">
        <ele>309.79998779297</ele>
        <time>2015-11-25T13:48:41Z</time>
      </trkpt>
      <trkpt lat="43.38832" lon="6.09439">
        <ele>310</ele>
        <time>2015-11-25T13:48:43Z</time>
      </trkpt>
      <trkpt lat="43.38832" lon="6.0944">
        <ele>309.79998779297</ele>
        <time>2015-11-25T13:48:44Z</time>
      </trkpt>
      <trkpt lat="43.38832" lon="6.09441">
        <ele>309.79998779297</ele>
        <time>2015-11-25T13:48:45Z</time>
      </trkpt>
      <trkpt lat="43.38832" lon="6.09442">
        <ele>309.60000610352</ele>
        <time>2015-11-25T13:48:48Z</time>
      </trkpt>
      <trkpt lat="43.38831" lon="6.09443">
        <ele>309.39999389648</ele>
        <time>2015-11-25T13:48:49Z</time>
      </trkpt>
      <trkpt lat="43.38832" lon="6.09443">
        <ele>309.20001220703</ele>
        <time>2015-11-25T13:48:51Z</time>
      </trkpt>
      <trkpt lat="43.38832" lon="6.09444">
        <ele>309</ele>
        <time>2015-11-25T13:48:53Z</time>
      </trkpt>
      <trkpt lat="43.38832" lon="6.09445">
        <ele>309.60000610352</ele>
        <time>2015-11-25T13:48:59Z</time>
      </trkpt>
      <trkpt lat="43.38832" lon="6.09445">
        <ele>309.79998779297</ele>
        <time>2015-11-25T13:49:01Z</time>
      </trkpt>
      <trkpt lat="43.38832" lon="6.09444">
        <ele>310.20001220703</ele>
        <time>2015-11-25T13:49:07Z</time>
      </trkpt>
      <trkpt lat="43.38832" lon="6.09445">
        <ele>310</ele>
        <time>2015-11-25T13:49:09Z</time>
      </trkpt>
      <trkpt lat="43.38832" lon="6.09445">
        <ele>309.60000610352</ele>
        <time>2015-11-25T13:49:11Z</time>
      </trkpt>
      <trkpt lat="43.38832" lon="6.09445">
        <ele>309.60000610352</ele>
        <time>2015-11-25T13:49:13Z</time>
      </trkpt>
      <trkpt lat="43.38832" lon="6.09445">
        <ele>309.60000610352</ele>
        <time>2015-11-25T13:49:15Z</time>
      </trkpt>
      <trkpt lat="43.38832" lon="6.09445">
        <ele>309.39999389648</ele>
        <time>2015-11-25T13:49:17Z</time>
      </trkpt>
      <trkpt lat="43.38832" lon="6.09445">
        <ele>309.20001220703</ele>
        <time>2015-11-25T13:49:19Z</time>
      </trkpt>
      <trkpt lat="43.38832" lon="6.09445">
        <ele>309.20001220703</ele>
        <time>2015-11-25T13:49:21Z</time>
      </trkpt>
      <trkpt lat="43.38833" lon="6.09445">
        <ele>309.39999389648</ele>
        <time>2015-11-25T13:49:23Z</time>
      </trkpt>
      <trkpt lat="43.38834" lon="6.09447">
        <ele>309.60000610352</ele>
        <time>2015-11-25T13:49:25Z</time>
      </trkpt>
      <trkpt lat="43.38835" lon="6.09448">
        <ele>309.79998779297</ele>
        <time>2015-11-25T13:49:27Z</time>
      </trkpt>
      <trkpt lat="43.38837" lon="6.0945">
        <ele>310.20001220703</ele>
        <time>2015-11-25T13:49:29Z</time>
      </trkpt>
      <trkpt lat="43.38839" lon="6.09451">
        <ele>310.60000610352</ele>
        <time>2015-11-25T13:49:30Z</time>
      </trkpt>
      <trkpt lat="43.3884" lon="6.09452">
        <ele>310.60000610352</ele>
        <time>2015-11-25T13:49:31Z</time>
      </trkpt>
      <trkpt lat="43.38844" lon="6.09453">
        <ele>310.79998779297</ele>
        <time>2015-11-25T13:49:33Z</time>
      </trkpt>
      <trkpt lat="43.38844" lon="6.09454">
        <ele>311.20001220703</ele>
        <time>2015-11-25T13:49:34Z</time>
      </trkpt>
      <trkpt lat="43.38845" lon="6.09455">
        <ele>311.39999389648</ele>
        <time>2015-11-25T13:49:35Z</time>
      </trkpt>
      <trkpt lat="43.38845" lon="6.09454">
        <ele>311.60000610352</ele>
        <time>2015-11-25T13:49:36Z</time>
      </trkpt>
      <trkpt lat="43.38845" lon="6.09455">
        <ele>311.60000610352</ele>
        <time>2015-11-25T13:49:37Z</time>
      </trkpt>
      <trkpt lat="43.38845" lon="6.09456">
        <ele>311.60000610352</ele>
        <time>2015-11-25T13:49:39Z</time>
      </trkpt>
      <trkpt lat="43.38845" lon="6.09456">
        <ele>311</ele>
        <time>2015-11-25T13:49:41Z</time>
      </trkpt>
      <trkpt lat="43.38845" lon="6.09457">
        <ele>311</ele>
        <time>2015-11-25T13:49:43Z</time>
      </trkpt>
      <trkpt lat="43.38845" lon="6.09457">
        <ele>311</ele>
        <time>2015-11-25T13:49:51Z</time>
      </trkpt>
      <trkpt lat="43.38845" lon="6.09457">
        <ele>311</ele>
        <time>2015-11-25T13:49:55Z</time>
      </trkpt>
      <trkpt lat="43.38845" lon="6.09457">
        <ele>310.79998779297</ele>
        <time>2015-11-25T13:49:57Z</time>
      </trkpt>
      <trkpt lat="43.38845" lon="6.09457">
        <ele>310.60000610352</ele>
        <time>2015-11-25T13:50:11Z</time>
      </trkpt>
      <trkpt lat="43.38845" lon="6.09457">
        <ele>310.79998779297</ele>
        <time>2015-11-25T13:50:17Z</time>
      </trkpt>
      <trkpt lat="43.38845" lon="6.09457">
        <ele>311</ele>
        <time>2015-11-25T13:50:19Z</time>
      </trkpt>
      <trkpt lat="43.38845" lon="6.09456">
        <ele>311.39999389648</ele>
        <time>2015-11-25T13:50:21Z</time>
      </trkpt>
      <trkpt lat="43.38845" lon="6.09456">
        <ele>311.39999389648</ele>
        <time>2015-11-25T13:50:22Z</time>
      </trkpt>
      <trkpt lat="43.38844" lon="6.09455">
        <ele>311.20001220703</ele>
        <time>2015-11-25T13:50:23Z</time>
      </trkpt>
      <trkpt lat="43.38844" lon="6.09455">
        <ele>311.20001220703</ele>
        <time>2015-11-25T13:50:25Z</time>
      </trkpt>
      <trkpt lat="43.38844" lon="6.09455">
        <ele>311.20001220703</ele>
        <time>2015-11-25T13:50:27Z</time>
      </trkpt>
      <trkpt lat="43.38844" lon="6.09456">
        <ele>311.39999389648</ele>
        <time>2015-11-25T13:50:29Z</time>
      </trkpt>
      <trkpt lat="43.38844" lon="6.09456">
        <ele>311</ele>
        <time>2015-11-25T13:50:39Z</time>
      </trkpt>
      <trkpt lat="43.38844" lon="6.09456">
        <ele>311.20001220703</ele>
        <time>2015-11-25T13:50:43Z</time>
      </trkpt>
      <trkpt lat="43.38844" lon="6.09456">
        <ele>312</ele>
        <time>2015-11-25T13:50:47Z</time>
      </trkpt>
      <trkpt lat="43.38844" lon="6.09456">
        <ele>312.39999389648</ele>
        <time>2015-11-25T13:50:49Z</time>
      </trkpt>
      <trkpt lat="43.38845" lon="6.09456">
        <ele>312.39999389648</ele>
        <time>2015-11-25T13:50:51Z</time>
      </trkpt>
      <trkpt lat="43.38846" lon="6.09456">
        <ele>312.60000610352</ele>
        <time>2015-11-25T13:50:52Z</time>
      </trkpt>
      <trkpt lat="43.38847" lon="6.09457">
        <ele>312.60000610352</ele>
        <time>2015-11-25T13:50:53Z</time>
      </trkpt>
      <trkpt lat="43.38848" lon="6.09457">
        <ele>313</ele>
        <time>2015-11-25T13:50:54Z</time>
      </trkpt>
      <trkpt lat="43.38849" lon="6.09458">
        <ele>313.39999389648</ele>
        <time>2015-11-25T13:50:55Z</time>
      </trkpt>
      <trkpt lat="43.38851" lon="6.09459">
        <ele>314.20001220703</ele>
        <time>2015-11-25T13:50:57Z</time>
      </trkpt>
      <trkpt lat="43.38853" lon="6.09459">
        <ele>315</ele>
        <time>2015-11-25T13:50:59Z</time>
      </trkpt>
      <trkpt lat="43.38854" lon="6.09459">
        <ele>315</ele>
        <time>2015-11-25T13:51:01Z</time>
      </trkpt>
      <trkpt lat="43.38854" lon="6.09459">
        <ele>315.20001220703</ele>
        <time>2015-11-25T13:51:03Z</time>
      </trkpt>
      <trkpt lat="43.38856" lon="6.09458">
        <ele>315.39999389648</ele>
        <time>2015-11-25T13:51:05Z</time>
      </trkpt>
      <trkpt lat="43.38857" lon="6.09457">
        <ele>315.39999389648</ele>
        <time>2015-11-25T13:51:07Z</time>
      </trkpt>
      <trkpt lat="43.38859" lon="6.09456">
        <ele>315.79998779297</ele>
        <time>2015-11-25T13:51:11Z</time>
      </trkpt>
      <trkpt lat="43.3886" lon="6.09457">
        <ele>316.39999389648</ele>
        <time>2015-11-25T13:51:14Z</time>
      </trkpt>
      <trkpt lat="43.38862" lon="6.09459">
        <ele>316.79998779297</ele>
        <time>2015-11-25T13:51:17Z</time>
      </trkpt>
      <trkpt lat="43.38863" lon="6.0946">
        <ele>317.39999389648</ele>
        <time>2015-11-25T13:51:19Z</time>
      </trkpt>
      <trkpt lat="43.38863" lon="6.0946">
        <ele>317.39999389648</ele>
        <time>2015-11-25T13:51:21Z</time>
      </trkpt>
      <trkpt lat="43.38863" lon="6.0946">
        <ele>317.39999389648</ele>
        <time>2015-11-25T13:51:23Z</time>
      </trkpt>
      <trkpt lat="43.38863" lon="6.0946">
        <ele>317.60000610352</ele>
        <time>2015-11-25T13:51:24Z</time>
      </trkpt>
      <trkpt lat="43.38863" lon="6.0946">
        <ele>317.79998779297</ele>
        <time>2015-11-25T13:51:25Z</time>
      </trkpt>
      <trkpt lat="43.38863" lon="6.0946">
        <ele>317.79998779297</ele>
        <time>2015-11-25T13:51:27Z</time>
      </trkpt>
      <trkpt lat="43.38864" lon="6.09461">
        <ele>317.79998779297</ele>
        <time>2015-11-25T13:51:29Z</time>
      </trkpt>
      <trkpt lat="43.38864" lon="6.09461">
        <ele>318</ele>
        <time>2015-11-25T13:51:31Z</time>
      </trkpt>
      <trkpt lat="43.38864" lon="6.09461">
        <ele>318.20001220703</ele>
        <time>2015-11-25T13:51:33Z</time>
      </trkpt>
      <trkpt lat="43.38864" lon="6.09461">
        <ele>318.20001220703</ele>
        <time>2015-11-25T13:51:35Z</time>
      </trkpt>
      <trkpt lat="43.38865" lon="6.09462">
        <ele>318.20001220703</ele>
        <time>2015-11-25T13:51:36Z</time>
      </trkpt>
      <trkpt lat="43.38866" lon="6.09463">
        <ele>318.20001220703</ele>
        <time>2015-11-25T13:51:37Z</time>
      </trkpt>
      <trkpt lat="43.38868" lon="6.09465">
        <ele>318.60000610352</ele>
        <time>2015-11-25T13:51:39Z</time>
      </trkpt>
      <trkpt lat="43.38869" lon="6.09466">
        <ele>318.60000610352</ele>
        <time>2015-11-25T13:51:40Z</time>
      </trkpt>
      <trkpt lat="43.3887" lon="6.09467">
        <ele>318.79998779297</ele>
        <time>2015-11-25T13:51:41Z</time>
      </trkpt>
      <trkpt lat="43.38873" lon="6.09477">
        <ele>319.39999389648</ele>
        <time>2015-11-25T13:51:47Z</time>
      </trkpt>
      <trkpt lat="43.38874" lon="6.09478">
        <ele>319.60000610352</ele>
        <time>2015-11-25T13:51:48Z</time>
      </trkpt>
      <trkpt lat="43.38874" lon="6.0948">
        <ele>319.60000610352</ele>
        <time>2015-11-25T13:51:49Z</time>
      </trkpt>
      <trkpt lat="43.38874" lon="6.09484">
        <ele>319.39999389648</ele>
        <time>2015-11-25T13:51:51Z</time>
      </trkpt>
      <trkpt lat="43.38874" lon="6.09486">
        <ele>319.20001220703</ele>
        <time>2015-11-25T13:51:53Z</time>
      </trkpt>
      <trkpt lat="43.38874" lon="6.09487">
        <ele>319.20001220703</ele>
        <time>2015-11-25T13:51:55Z</time>
      </trkpt>
      <trkpt lat="43.38874" lon="6.09487">
        <ele>320.60000610352</ele>
        <time>2015-11-25T13:52:05Z</time>
      </trkpt>
      <trkpt lat="43.38874" lon="6.09487">
        <ele>320.60000610352</ele>
        <time>2015-11-25T13:52:19Z</time>
      </trkpt>
      <trkpt lat="43.38874" lon="6.09488">
        <ele>320.60000610352</ele>
        <time>2015-11-25T13:52:21Z</time>
      </trkpt>
      <trkpt lat="43.38875" lon="6.09492">
        <ele>320</ele>
        <time>2015-11-25T13:52:23Z</time>
      </trkpt>
      <trkpt lat="43.38876" lon="6.09493">
        <ele>319.60000610352</ele>
        <time>2015-11-25T13:52:24Z</time>
      </trkpt>
      <trkpt lat="43.38876" lon="6.09495">
        <ele>319.20001220703</ele>
        <time>2015-11-25T13:52:25Z</time>
      </trkpt>
      <trkpt lat="43.38876" lon="6.09499">
        <ele>319.20001220703</ele>
        <time>2015-11-25T13:52:27Z</time>
      </trkpt>
      <trkpt lat="43.38876" lon="6.09504">
        <ele>319</ele>
        <time>2015-11-25T13:52:29Z</time>
      </trkpt>
      <trkpt lat="43.38876" lon="6.09509">
        <ele>319.20001220703</ele>
        <time>2015-11-25T13:52:31Z</time>
      </trkpt>
      <trkpt lat="43.38876" lon="6.09515">
        <ele>319</ele>
        <time>2015-11-25T13:52:33Z</time>
      </trkpt>
      <trkpt lat="43.38876" lon="6.09523">
        <ele>318.60000610352</ele>
        <time>2015-11-25T13:52:35Z</time>
      </trkpt>
      <trkpt lat="43.38877" lon="6.09533">
        <ele>318.39999389648</ele>
        <time>2015-11-25T13:52:37Z</time>
      </trkpt>
      <trkpt lat="43.38877" lon="6.09544">
        <ele>318.60000610352</ele>
        <time>2015-11-25T13:52:39Z</time>
      </trkpt>
      <trkpt lat="43.38878" lon="6.09558">
        <ele>320</ele>
        <time>2015-11-25T13:52:41Z</time>
      </trkpt>
      <trkpt lat="43.38878" lon="6.09565">
        <ele>320</ele>
        <time>2015-11-25T13:52:42Z</time>
      </trkpt>
      <trkpt lat="43.38879" lon="6.09573">
        <ele>320</ele>
        <time>2015-11-25T13:52:43Z</time>
      </trkpt>
      <trkpt lat="43.38881" lon="6.09589">
        <ele>320</ele>
        <time>2015-11-25T13:52:45Z</time>
      </trkpt>
      <trkpt lat="43.38884" lon="6.09604">
        <ele>318.79998779297</ele>
        <time>2015-11-25T13:52:47Z</time>
      </trkpt>
      <trkpt lat="43.3889" lon="6.09618">
        <ele>318.39999389648</ele>
        <time>2015-11-25T13:52:49Z</time>
      </trkpt>
      <trkpt lat="43.38893" lon="6.09623">
        <ele>318</ele>
        <time>2015-11-25T13:52:50Z</time>
      </trkpt>
      <trkpt lat="43.38896" lon="6.09628">
        <ele>317.79998779297</ele>
        <time>2015-11-25T13:52:51Z</time>
      </trkpt>
      <trkpt lat="43.38898" lon="6.09634">
        <ele>317.60000610352</ele>
        <time>2015-11-25T13:52:52Z</time>
      </trkpt>
      <trkpt lat="43.38899" lon="6.09641">
        <ele>317.20001220703</ele>
        <time>2015-11-25T13:52:53Z</time>
      </trkpt>
      <trkpt lat="43.38899" lon="6.09648">
        <ele>316.79998779297</ele>
        <time>2015-11-25T13:52:54Z</time>
      </trkpt>
      <trkpt lat="43.389" lon="6.09655">
        <ele>316.79998779297</ele>
        <time>2015-11-25T13:52:55Z</time>
      </trkpt>
      <trkpt lat="43.389" lon="6.09662">
        <ele>316.60000610352</ele>
        <time>2015-11-25T13:52:56Z</time>
      </trkpt>
      <trkpt lat="43.389" lon="6.09687">
        <ele>314.79998779297</ele>
        <time>2015-11-25T13:52:59Z</time>
      </trkpt>
      <trkpt lat="43.38902" lon="6.09705">
        <ele>314</ele>
        <time>2015-11-25T13:53:01Z</time>
      </trkpt>
      <trkpt lat="43.38902" lon="6.09713">
        <ele>313.79998779297</ele>
        <time>2015-11-25T13:53:02Z</time>
      </trkpt>
      <trkpt lat="43.38903" lon="6.09724">
        <ele>313.39999389648</ele>
        <time>2015-11-25T13:53:03Z</time>
      </trkpt>
      <trkpt lat="43.38904" lon="6.09732">
        <ele>313</ele>
        <time>2015-11-25T13:53:04Z</time>
      </trkpt>
      <trkpt lat="43.38903" lon="6.09743">
        <ele>313</ele>
        <time>2015-11-25T13:53:05Z</time>
      </trkpt>
      <trkpt lat="43.38902" lon="6.09762">
        <ele>312</ele>
        <time>2015-11-25T13:53:07Z</time>
      </trkpt>
      <trkpt lat="43.38898" lon="6.0978">
        <ele>311.20001220703</ele>
        <time>2015-11-25T13:53:09Z</time>
      </trkpt>
      <trkpt lat="43.38895" lon="6.09799">
        <ele>310.39999389648</ele>
        <time>2015-11-25T13:53:11Z</time>
      </trkpt>
      <trkpt lat="43.38892" lon="6.09817">
        <ele>308.39999389648</ele>
        <time>2015-11-25T13:53:13Z</time>
      </trkpt>
      <trkpt lat="43.3889" lon="6.09835">
        <ele>307.79998779297</ele>
        <time>2015-11-25T13:53:15Z</time>
      </trkpt>
      <trkpt lat="43.38889" lon="6.09843">
        <ele>306.60000610352</ele>
        <time>2015-11-25T13:53:16Z</time>
      </trkpt>
      <trkpt lat="43.38887" lon="6.09853">
        <ele>305.39999389648</ele>
        <time>2015-11-25T13:53:17Z</time>
      </trkpt>
      <trkpt lat="43.38884" lon="6.09874">
        <ele>303.39999389648</ele>
        <time>2015-11-25T13:53:19Z</time>
      </trkpt>
      <trkpt lat="43.38881" lon="6.09885">
        <ele>301.60000610352</ele>
        <time>2015-11-25T13:53:20Z</time>
      </trkpt>
      <trkpt lat="43.38879" lon="6.09898">
        <ele>299.39999389648</ele>
        <time>2015-11-25T13:53:21Z</time>
      </trkpt>
      <trkpt lat="43.38876" lon="6.0991">
        <ele>298</ele>
        <time>2015-11-25T13:53:22Z</time>
      </trkpt>
      <trkpt lat="43.38873" lon="6.09923">
        <ele>296.79998779297</ele>
        <time>2015-11-25T13:53:23Z</time>
      </trkpt>
      <trkpt lat="43.3887" lon="6.09934">
        <ele>295.60000610352</ele>
        <time>2015-11-25T13:53:24Z</time>
      </trkpt>
      <trkpt lat="43.38867" lon="6.09946">
        <ele>294.79998779297</ele>
        <time>2015-11-25T13:53:25Z</time>
      </trkpt>
      <trkpt lat="43.38866" lon="6.09957">
        <ele>294.39999389648</ele>
        <time>2015-11-25T13:53:26Z</time>
      </trkpt>
      <trkpt lat="43.38864" lon="6.0997">
        <ele>293.79998779297</ele>
        <time>2015-11-25T13:53:27Z</time>
      </trkpt>
      <trkpt lat="43.38863" lon="6.09981">
        <ele>292.79998779297</ele>
        <time>2015-11-25T13:53:28Z</time>
      </trkpt>
      <trkpt lat="43.38861" lon="6.09994">
        <ele>291</ele>
        <time>2015-11-25T13:53:29Z</time>
      </trkpt>
      <trkpt lat="43.38857" lon="6.10018">
        <ele>289.60000610352</ele>
        <time>2015-11-25T13:53:31Z</time>
      </trkpt>
      <trkpt lat="43.38855" lon="6.10029">
        <ele>289.39999389648</ele>
        <time>2015-11-25T13:53:32Z</time>
      </trkpt>
      <trkpt lat="43.38851" lon="6.10042">
        <ele>289</ele>
        <time>2015-11-25T13:53:33Z</time>
      </trkpt>
      <trkpt lat="43.38848" lon="6.10053">
        <ele>288.20001220703</ele>
        <time>2015-11-25T13:53:34Z</time>
      </trkpt>
      <trkpt lat="43.38845" lon="6.10065">
        <ele>287.60000610352</ele>
        <time>2015-11-25T13:53:35Z</time>
      </trkpt>
      <trkpt lat="43.38842" lon="6.10076">
        <ele>287.20001220703</ele>
        <time>2015-11-25T13:53:36Z</time>
      </trkpt>
      <trkpt lat="43.38839" lon="6.10086">
        <ele>286.20001220703</ele>
        <time>2015-11-25T13:53:37Z</time>
      </trkpt>
      <trkpt lat="43.38837" lon="6.10094">
        <ele>286.20001220703</ele>
        <time>2015-11-25T13:53:38Z</time>
      </trkpt>
      <trkpt lat="43.38836" lon="6.10102">
        <ele>286.39999389648</ele>
        <time>2015-11-25T13:53:39Z</time>
      </trkpt>
      <trkpt lat="43.38835" lon="6.10109">
        <ele>286</ele>
        <time>2015-11-25T13:53:40Z</time>
      </trkpt>
      <trkpt lat="43.38833" lon="6.10115">
        <ele>285.39999389648</ele>
        <time>2015-11-25T13:53:41Z</time>
      </trkpt>
      <trkpt lat="43.38832" lon="6.10119">
        <ele>284.79998779297</ele>
        <time>2015-11-25T13:53:42Z</time>
      </trkpt>
      <trkpt lat="43.38831" lon="6.10121">
        <ele>284.20001220703</ele>
        <time>2015-11-25T13:53:43Z</time>
      </trkpt>
      <trkpt lat="43.38831" lon="6.10125">
        <ele>284.20001220703</ele>
        <time>2015-11-25T13:53:45Z</time>
      </trkpt>
      <trkpt lat="43.38831" lon="6.10127">
        <ele>284.20001220703</ele>
        <time>2015-11-25T13:53:46Z</time>
      </trkpt>
      <trkpt lat="43.3883" lon="6.1013">
        <ele>284</ele>
        <time>2015-11-25T13:53:47Z</time>
      </trkpt>
      <trkpt lat="43.38829" lon="6.10133">
        <ele>283.79998779297</ele>
        <time>2015-11-25T13:53:48Z</time>
      </trkpt>
      <trkpt lat="43.38828" lon="6.10136">
        <ele>283.60000610352</ele>
        <time>2015-11-25T13:53:49Z</time>
      </trkpt>
      <trkpt lat="43.38825" lon="6.10144">
        <ele>283.60000610352</ele>
        <time>2015-11-25T13:53:51Z</time>
      </trkpt>
      <trkpt lat="43.38824" lon="6.10147">
        <ele>283.39999389648</ele>
        <time>2015-11-25T13:53:52Z</time>
      </trkpt>
      <trkpt lat="43.38824" lon="6.1015">
        <ele>283</ele>
        <time>2015-11-25T13:53:53Z</time>
      </trkpt>
      <trkpt lat="43.38825" lon="6.10151">
        <ele>282.60000610352</ele>
        <time>2015-11-25T13:53:54Z</time>
      </trkpt>
      <trkpt lat="43.38826" lon="6.10153">
        <ele>282.39999389648</ele>
        <time>2015-11-25T13:53:55Z</time>
      </trkpt>
      <trkpt lat="43.38828" lon="6.10158">
        <ele>282.20001220703</ele>
        <time>2015-11-25T13:53:57Z</time>
      </trkpt>
      <trkpt lat="43.38828" lon="6.10162">
        <ele>282.39999389648</ele>
        <time>2015-11-25T13:53:59Z</time>
      </trkpt>
      <trkpt lat="43.38828" lon="6.10162">
        <ele>282.79998779297</ele>
        <time>2015-11-25T13:54:01Z</time>
      </trkpt>
      <trkpt lat="43.38828" lon="6.10162">
        <ele>283.20001220703</ele>
        <time>2015-11-25T13:54:05Z</time>
      </trkpt>
      <trkpt lat="43.38828" lon="6.10162">
        <ele>283.39999389648</ele>
        <time>2015-11-25T13:54:06Z</time>
      </trkpt>
      <trkpt lat="43.38828" lon="6.10162">
        <ele>283.39999389648</ele>
        <time>2015-11-25T13:54:07Z</time>
      </trkpt>
      <trkpt lat="43.38828" lon="6.10162">
        <ele>283.60000610352</ele>
        <time>2015-11-25T13:54:13Z</time>
      </trkpt>
      <trkpt lat="43.38828" lon="6.10162">
        <ele>285</ele>
        <time>2015-11-25T13:54:25Z</time>
      </trkpt>
      <trkpt lat="43.38828" lon="6.10162">
        <ele>283.79998779297</ele>
        <time>2015-11-25T13:54:49Z</time>
      </trkpt>
      <trkpt lat="43.38828" lon="6.10162">
        <ele>283.79998779297</ele>
        <time>2015-11-25T13:54:51Z</time>
      </trkpt>
      <trkpt lat="43.38828" lon="6.10164">
        <ele>283.79998779297</ele>
        <time>2015-11-25T13:54:53Z</time>
      </trkpt>
      <trkpt lat="43.38828" lon="6.10169">
        <ele>283.39999389648</ele>
        <time>2015-11-25T13:54:55Z</time>
      </trkpt>
      <trkpt lat="43.38828" lon="6.10176">
        <ele>283.20001220703</ele>
        <time>2015-11-25T13:54:57Z</time>
      </trkpt>
      <trkpt lat="43.38827" lon="6.10185">
        <ele>283.20001220703</ele>
        <time>2015-11-25T13:54:59Z</time>
      </trkpt>
      <trkpt lat="43.38825" lon="6.10188">
        <ele>283.39999389648</ele>
        <time>2015-11-25T13:55:00Z</time>
      </trkpt>
      <trkpt lat="43.38824" lon="6.10191">
        <ele>283.60000610352</ele>
        <time>2015-11-25T13:55:01Z</time>
      </trkpt>
      <trkpt lat="43.38821" lon="6.10197">
        <ele>284</ele>
        <time>2015-11-25T13:55:03Z</time>
      </trkpt>
      <trkpt lat="43.3882" lon="6.10204">
        <ele>284.60000610352</ele>
        <time>2015-11-25T13:55:05Z</time>
      </trkpt>
      <trkpt lat="43.38819" lon="6.1021">
        <ele>285.20001220703</ele>
        <time>2015-11-25T13:55:07Z</time>
      </trkpt>
      <trkpt lat="43.38819" lon="6.10218">
        <ele>285.60000610352</ele>
        <time>2015-11-25T13:55:10Z</time>
      </trkpt>
      <trkpt lat="43.3882" lon="6.10221">
        <ele>285.60000610352</ele>
        <time>2015-11-25T13:55:11Z</time>
      </trkpt>
      <trkpt lat="43.3882" lon="6.10226">
        <ele>285.79998779297</ele>
        <time>2015-11-25T13:55:13Z</time>
      </trkpt>
      <trkpt lat="43.38822" lon="6.10231">
        <ele>285.60000610352</ele>
        <time>2015-11-25T13:55:15Z</time>
      </trkpt>
      <trkpt lat="43.38823" lon="6.10237">
        <ele>285.20001220703</ele>
        <time>2015-11-25T13:55:17Z</time>
      </trkpt>
      <trkpt lat="43.38824" lon="6.10242">
        <ele>285</ele>
        <time>2015-11-25T13:55:19Z</time>
      </trkpt>
      <trkpt lat="43.38826" lon="6.10247">
        <ele>285</ele>
        <time>2015-11-25T13:55:21Z</time>
      </trkpt>
      <trkpt lat="43.38825" lon="6.10251">
        <ele>284.39999389648</ele>
        <time>2015-11-25T13:55:22Z</time>
      </trkpt>
      <trkpt lat="43.38827" lon="6.10265">
        <ele>283.60000610352</ele>
        <time>2015-11-25T13:55:25Z</time>
      </trkpt>
      <trkpt lat="43.38828" lon="6.1027">
        <ele>283.60000610352</ele>
        <time>2015-11-25T13:55:26Z</time>
      </trkpt>
      <trkpt lat="43.38828" lon="6.10276">
        <ele>283</ele>
        <time>2015-11-25T13:55:27Z</time>
      </trkpt>
      <trkpt lat="43.38829" lon="6.10282">
        <ele>282.39999389648</ele>
        <time>2015-11-25T13:55:28Z</time>
      </trkpt>
      <trkpt lat="43.38829" lon="6.10289">
        <ele>282</ele>
        <time>2015-11-25T13:55:29Z</time>
      </trkpt>
      <trkpt lat="43.3883" lon="6.10296">
        <ele>281.60000610352</ele>
        <time>2015-11-25T13:55:30Z</time>
      </trkpt>
      <trkpt lat="43.3883" lon="6.10303">
        <ele>281.60000610352</ele>
        <time>2015-11-25T13:55:31Z</time>
      </trkpt>
      <trkpt lat="43.38829" lon="6.10316">
        <ele>281.39999389648</ele>
        <time>2015-11-25T13:55:33Z</time>
      </trkpt>
      <trkpt lat="43.38829" lon="6.10328">
        <ele>281.39999389648</ele>
        <time>2015-11-25T13:55:35Z</time>
      </trkpt>
      <trkpt lat="43.3883" lon="6.1034">
        <ele>281.20001220703</ele>
        <time>2015-11-25T13:55:37Z</time>
      </trkpt>
      <trkpt lat="43.3883" lon="6.10363">
        <ele>281.20001220703</ele>
        <time>2015-11-25T13:55:41Z</time>
      </trkpt>
      <trkpt lat="43.38831" lon="6.10374">
        <ele>280.60000610352</ele>
        <time>2015-11-25T13:55:43Z</time>
      </trkpt>
      <trkpt lat="43.38831" lon="6.10379">
        <ele>280.39999389648</ele>
        <time>2015-11-25T13:55:44Z</time>
      </trkpt>
      <trkpt lat="43.38831" lon="6.10398">
        <ele>280</ele>
        <time>2015-11-25T13:55:47Z</time>
      </trkpt>
      <trkpt lat="43.3883" lon="6.1041">
        <ele>279.39999389648</ele>
        <time>2015-11-25T13:55:49Z</time>
      </trkpt>
      <trkpt lat="43.38829" lon="6.10422">
        <ele>279.39999389648</ele>
        <time>2015-11-25T13:55:51Z</time>
      </trkpt>
      <trkpt lat="43.38828" lon="6.10427">
        <ele>279.60000610352</ele>
        <time>2015-11-25T13:55:52Z</time>
      </trkpt>
      <trkpt lat="43.38827" lon="6.10434">
        <ele>279</ele>
        <time>2015-11-25T13:55:53Z</time>
      </trkpt>
      <trkpt lat="43.38826" lon="6.10444">
        <ele>278.20001220703</ele>
        <time>2015-11-25T13:55:55Z</time>
      </trkpt>
      <trkpt lat="43.38826" lon="6.10451">
        <ele>277.79998779297</ele>
        <time>2015-11-25T13:55:57Z</time>
      </trkpt>
      <trkpt lat="43.38825" lon="6.10459">
        <ele>277.20001220703</ele>
        <time>2015-11-25T13:55:59Z</time>
      </trkpt>
      <trkpt lat="43.38825" lon="6.10468">
        <ele>276.39999389648</ele>
        <time>2015-11-25T13:56:01Z</time>
      </trkpt>
      <trkpt lat="43.38824" lon="6.10477">
        <ele>276.39999389648</ele>
        <time>2015-11-25T13:56:03Z</time>
      </trkpt>
      <trkpt lat="43.38822" lon="6.10487">
        <ele>276.20001220703</ele>
        <time>2015-11-25T13:56:05Z</time>
      </trkpt>
      <trkpt lat="43.38821" lon="6.10492">
        <ele>276</ele>
        <time>2015-11-25T13:56:06Z</time>
      </trkpt>
      <trkpt lat="43.3882" lon="6.10498">
        <ele>275.79998779297</ele>
        <time>2015-11-25T13:56:07Z</time>
      </trkpt>
      <trkpt lat="43.38818" lon="6.10508">
        <ele>275.20001220703</ele>
        <time>2015-11-25T13:56:09Z</time>
      </trkpt>
      <trkpt lat="43.38818" lon="6.10512">
        <ele>275</ele>
        <time>2015-11-25T13:56:10Z</time>
      </trkpt>
      <trkpt lat="43.38815" lon="6.10527">
        <ele>275.20001220703</ele>
        <time>2015-11-25T13:56:14Z</time>
      </trkpt>
      <trkpt lat="43.38814" lon="6.1053">
        <ele>275</ele>
        <time>2015-11-25T13:56:15Z</time>
      </trkpt>
      <trkpt lat="43.38813" lon="6.10536">
        <ele>274.79998779297</ele>
        <time>2015-11-25T13:56:17Z</time>
      </trkpt>
      <trkpt lat="43.38814" lon="6.10543">
        <ele>274.20001220703</ele>
        <time>2015-11-25T13:56:19Z</time>
      </trkpt>
      <trkpt lat="43.38813" lon="6.10546">
        <ele>274.20001220703</ele>
        <time>2015-11-25T13:56:20Z</time>
      </trkpt>
      <trkpt lat="43.38813" lon="6.1055">
        <ele>274.20001220703</ele>
        <time>2015-11-25T13:56:21Z</time>
      </trkpt>
      <trkpt lat="43.38811" lon="6.10556">
        <ele>274.60000610352</ele>
        <time>2015-11-25T13:56:23Z</time>
      </trkpt>
      <trkpt lat="43.38808" lon="6.10561">
        <ele>274</ele>
        <time>2015-11-25T13:56:25Z</time>
      </trkpt>
      <trkpt lat="43.38808" lon="6.10563">
        <ele>274.20001220703</ele>
        <time>2015-11-25T13:56:26Z</time>
      </trkpt>
      <trkpt lat="43.38808" lon="6.10563">
        <ele>274.20001220703</ele>
        <time>2015-11-25T13:56:27Z</time>
      </trkpt>
      <trkpt lat="43.38808" lon="6.10564">
        <ele>274.39999389648</ele>
        <time>2015-11-25T13:56:29Z</time>
      </trkpt>
      <trkpt lat="43.38807" lon="6.1057">
        <ele>274.60000610352</ele>
        <time>2015-11-25T13:56:31Z</time>
      </trkpt>
      <trkpt lat="43.38806" lon="6.10578">
        <ele>274.20001220703</ele>
        <time>2015-11-25T13:56:33Z</time>
      </trkpt>
      <trkpt lat="43.38805" lon="6.10589">
        <ele>273.79998779297</ele>
        <time>2015-11-25T13:56:35Z</time>
      </trkpt>
      <trkpt lat="43.38803" lon="6.106">
        <ele>272.60000610352</ele>
        <time>2015-11-25T13:56:37Z</time>
      </trkpt>
      <trkpt lat="43.38802" lon="6.10605">
        <ele>272.39999389648</ele>
        <time>2015-11-25T13:56:38Z</time>
      </trkpt>
      <trkpt lat="43.388" lon="6.1061">
        <ele>272.39999389648</ele>
        <time>2015-11-25T13:56:39Z</time>
      </trkpt>
      <trkpt lat="43.38799" lon="6.1062">
        <ele>272</ele>
        <time>2015-11-25T13:56:41Z</time>
      </trkpt>
      <trkpt lat="43.38798" lon="6.10624">
        <ele>271.60000610352</ele>
        <time>2015-11-25T13:56:42Z</time>
      </trkpt>
      <trkpt lat="43.38797" lon="6.10627">
        <ele>271.60000610352</ele>
        <time>2015-11-25T13:56:43Z</time>
      </trkpt>
      <trkpt lat="43.38795" lon="6.10635">
        <ele>271.60000610352</ele>
        <time>2015-11-25T13:56:45Z</time>
      </trkpt>
      <trkpt lat="43.38795" lon="6.10638">
        <ele>271.39999389648</ele>
        <time>2015-11-25T13:56:47Z</time>
      </trkpt>
      <trkpt lat="43.38795" lon="6.10639">
        <ele>271.20001220703</ele>
        <time>2015-11-25T13:56:48Z</time>
      </trkpt>
      <trkpt lat="43.38795" lon="6.10641">
        <ele>270.60000610352</ele>
        <time>2015-11-25T13:56:49Z</time>
      </trkpt>
      <trkpt lat="43.38795" lon="6.10642">
        <ele>270.39999389648</ele>
        <time>2015-11-25T13:56:50Z</time>
      </trkpt>
      <trkpt lat="43.38794" lon="6.10644">
        <ele>270.39999389648</ele>
        <time>2015-11-25T13:56:51Z</time>
      </trkpt>
      <trkpt lat="43.38793" lon="6.1065">
        <ele>270.39999389648</ele>
        <time>2015-11-25T13:56:54Z</time>
      </trkpt>
      <trkpt lat="43.38793" lon="6.10652">
        <ele>270.20001220703</ele>
        <time>2015-11-25T13:56:55Z</time>
      </trkpt>
      <trkpt lat="43.38792" lon="6.10657">
        <ele>270</ele>
        <time>2015-11-25T13:56:57Z</time>
      </trkpt>
      <trkpt lat="43.38789" lon="6.10663">
        <ele>270</ele>
        <time>2015-11-25T13:56:59Z</time>
      </trkpt>
      <trkpt lat="43.38789" lon="6.10665">
        <ele>269.79998779297</ele>
        <time>2015-11-25T13:57:00Z</time>
      </trkpt>
      <trkpt lat="43.38789" lon="6.10667">
        <ele>269.60000610352</ele>
        <time>2015-11-25T13:57:01Z</time>
      </trkpt>
      <trkpt lat="43.38788" lon="6.1067">
        <ele>269.60000610352</ele>
        <time>2015-11-25T13:57:03Z</time>
      </trkpt>
      <trkpt lat="43.38789" lon="6.1067">
        <ele>269.39999389648</ele>
        <time>2015-11-25T13:57:05Z</time>
      </trkpt>
      <trkpt lat="43.38789" lon="6.1067">
        <ele>269.39999389648</ele>
        <time>2015-11-25T13:57:06Z</time>
      </trkpt>
      <trkpt lat="43.38789" lon="6.1067">
        <ele>269.39999389648</ele>
        <time>2015-11-25T13:57:07Z</time>
      </trkpt>
      <trkpt lat="43.38789" lon="6.1067">
        <ele>269.20001220703</ele>
        <time>2015-11-25T13:57:09Z</time>
      </trkpt>
      <trkpt lat="43.38789" lon="6.10671">
        <ele>269.20001220703</ele>
        <time>2015-11-25T13:57:11Z</time>
      </trkpt>
      <trkpt lat="43.38787" lon="6.10675">
        <ele>269.20001220703</ele>
        <time>2015-11-25T13:57:13Z</time>
      </trkpt>
      <trkpt lat="43.38786" lon="6.10682">
        <ele>269.20001220703</ele>
        <time>2015-11-25T13:57:15Z</time>
      </trkpt>
      <trkpt lat="43.38784" lon="6.1069">
        <ele>269</ele>
        <time>2015-11-25T13:57:17Z</time>
      </trkpt>
      <trkpt lat="43.38783" lon="6.10695">
        <ele>268.79998779297</ele>
        <time>2015-11-25T13:57:18Z</time>
      </trkpt>
      <trkpt lat="43.38779" lon="6.10708">
        <ele>268.79998779297</ele>
        <time>2015-11-25T13:57:21Z</time>
      </trkpt>
      <trkpt lat="43.38777" lon="6.10719">
        <ele>268.39999389648</ele>
        <time>2015-11-25T13:57:23Z</time>
      </trkpt>
      <trkpt lat="43.38776" lon="6.10724">
        <ele>268.39999389648</ele>
        <time>2015-11-25T13:57:24Z</time>
      </trkpt>
      <trkpt lat="43.38774" lon="6.10729">
        <ele>268.20001220703</ele>
        <time>2015-11-25T13:57:25Z</time>
      </trkpt>
      <trkpt lat="43.38773" lon="6.10736">
        <ele>267.79998779297</ele>
        <time>2015-11-25T13:57:27Z</time>
      </trkpt>
      <trkpt lat="43.38773" lon="6.10738">
        <ele>267.60000610352</ele>
        <time>2015-11-25T13:57:28Z</time>
      </trkpt>
      <trkpt lat="43.38773" lon="6.10739">
        <ele>267.20001220703</ele>
        <time>2015-11-25T13:57:29Z</time>
      </trkpt>
      <trkpt lat="43.38773" lon="6.10739">
        <ele>267</ele>
        <time>2015-11-25T13:57:31Z</time>
      </trkpt>
      <trkpt lat="43.38773" lon="6.1074">
        <ele>267</ele>
        <time>2015-11-25T13:57:32Z</time>
      </trkpt>
      <trkpt lat="43.38773" lon="6.1074">
        <ele>267</ele>
        <time>2015-11-25T13:57:33Z</time>
      </trkpt>
      <trkpt lat="43.38773" lon="6.1074">
        <ele>267.20001220703</ele>
        <time>2015-11-25T13:57:35Z</time>
      </trkpt>
      <trkpt lat="43.38773" lon="6.1074">
        <ele>267.39999389648</ele>
        <time>2015-11-25T13:57:37Z</time>
      </trkpt>
      <trkpt lat="43.38773" lon="6.1074">
        <ele>267.60000610352</ele>
        <time>2015-11-25T13:57:39Z</time>
      </trkpt>
      <trkpt lat="43.38773" lon="6.1074">
        <ele>267.79998779297</ele>
        <time>2015-11-25T13:57:43Z</time>
      </trkpt>
      <trkpt lat="43.38773" lon="6.1074">
        <ele>267.39999389648</ele>
        <time>2015-11-25T13:57:45Z</time>
      </trkpt>
      <trkpt lat="43.38773" lon="6.1074">
        <ele>267.20001220703</ele>
        <time>2015-11-25T13:57:47Z</time>
      </trkpt>
      <trkpt lat="43.38773" lon="6.1074">
        <ele>267.20001220703</ele>
        <time>2015-11-25T13:57:49Z</time>
      </trkpt>
      <trkpt lat="43.38773" lon="6.1074">
        <ele>267.20001220703</ele>
        <time>2015-11-25T13:57:51Z</time>
      </trkpt>
      <trkpt lat="43.38773" lon="6.1074">
        <ele>267.39999389648</ele>
        <time>2015-11-25T13:57:53Z</time>
      </trkpt>
      <trkpt lat="43.38773" lon="6.1074">
        <ele>267.39999389648</ele>
        <time>2015-11-25T13:57:55Z</time>
      </trkpt>
      <trkpt lat="43.38773" lon="6.10742">
        <ele>267.20001220703</ele>
        <time>2015-11-25T13:57:57Z</time>
      </trkpt>
      <trkpt lat="43.38774" lon="6.10744">
        <ele>266.79998779297</ele>
        <time>2015-11-25T13:57:59Z</time>
      </trkpt>
      <trkpt lat="43.38774" lon="6.10746">
        <ele>266.60000610352</ele>
        <time>2015-11-25T13:58:01Z</time>
      </trkpt>
      <trkpt lat="43.38774" lon="6.10746">
        <ele>266.60000610352</ele>
        <time>2015-11-25T13:58:03Z</time>
      </trkpt>
      <trkpt lat="43.38774" lon="6.10746">
        <ele>266.60000610352</ele>
        <time>2015-11-25T13:58:05Z</time>
      </trkpt>
      <trkpt lat="43.38774" lon="6.10746">
        <ele>266.20001220703</ele>
        <time>2015-11-25T13:58:09Z</time>
      </trkpt>
      <trkpt lat="43.38774" lon="6.10746">
        <ele>267.79998779297</ele>
        <time>2015-11-25T13:58:17Z</time>
      </trkpt>
      <trkpt lat="43.38774" lon="6.10746">
        <ele>267.39999389648</ele>
        <time>2015-11-25T13:58:27Z</time>
      </trkpt>
      <trkpt lat="43.38774" lon="6.10746">
        <ele>267</ele>
        <time>2015-11-25T13:58:30Z</time>
      </trkpt>
      <trkpt lat="43.38774" lon="6.10746">
        <ele>267</ele>
        <time>2015-11-25T13:58:31Z</time>
      </trkpt>
      <trkpt lat="43.38774" lon="6.10746">
        <ele>267</ele>
        <time>2015-11-25T13:58:33Z</time>
      </trkpt>
      <trkpt lat="43.38774" lon="6.10747">
        <ele>266.79998779297</ele>
        <time>2015-11-25T13:58:35Z</time>
      </trkpt>
      <trkpt lat="43.38774" lon="6.10747">
        <ele>267</ele>
        <time>2015-11-25T13:58:36Z</time>
      </trkpt>
      <trkpt lat="43.38774" lon="6.10749">
        <ele>267</ele>
        <time>2015-11-25T13:58:37Z</time>
      </trkpt>
      <trkpt lat="43.38772" lon="6.10753">
        <ele>267.20001220703</ele>
        <time>2015-11-25T13:58:39Z</time>
      </trkpt>
      <trkpt lat="43.38768" lon="6.10757">
        <ele>267</ele>
        <time>2015-11-25T13:58:41Z</time>
      </trkpt>
      <trkpt lat="43.38764" lon="6.10761">
        <ele>266.79998779297</ele>
        <time>2015-11-25T13:58:43Z</time>
      </trkpt>
      <trkpt lat="43.38759" lon="6.10764">
        <ele>267.39999389648</ele>
        <time>2015-11-25T13:58:45Z</time>
      </trkpt>
      <trkpt lat="43.38757" lon="6.10764">
        <ele>267.79998779297</ele>
        <time>2015-11-25T13:58:46Z</time>
      </trkpt>
      <trkpt lat="43.38755" lon="6.10764">
        <ele>268.20001220703</ele>
        <time>2015-11-25T13:58:47Z</time>
      </trkpt>
      <trkpt lat="43.38751" lon="6.10765">
        <ele>268.60000610352</ele>
        <time>2015-11-25T13:58:49Z</time>
      </trkpt>
      <trkpt lat="43.38747" lon="6.10767">
        <ele>268.60000610352</ele>
        <time>2015-11-25T13:58:51Z</time>
      </trkpt>
      <trkpt lat="43.38743" lon="6.10769">
        <ele>268.20001220703</ele>
        <time>2015-11-25T13:58:53Z</time>
      </trkpt>
      <trkpt lat="43.38741" lon="6.1077">
        <ele>269</ele>
        <time>2015-11-25T13:58:55Z</time>
      </trkpt>
      <trkpt lat="43.3874" lon="6.10772">
        <ele>269</ele>
        <time>2015-11-25T13:58:56Z</time>
      </trkpt>
      <trkpt lat="43.38739" lon="6.10773">
        <ele>269</ele>
        <time>2015-11-25T13:58:57Z</time>
      </trkpt>
      <trkpt lat="43.38738" lon="6.10776">
        <ele>268.79998779297</ele>
        <time>2015-11-25T13:58:59Z</time>
      </trkpt>
      <trkpt lat="43.38737" lon="6.10778">
        <ele>268.79998779297</ele>
        <time>2015-11-25T13:59:00Z</time>
      </trkpt>
      <trkpt lat="43.38737" lon="6.10781">
        <ele>268.79998779297</ele>
        <time>2015-11-25T13:59:01Z</time>
      </trkpt>
      <trkpt lat="43.38735" lon="6.10785">
        <ele>268.60000610352</ele>
        <time>2015-11-25T13:59:03Z</time>
      </trkpt>
      <trkpt lat="43.38732" lon="6.10789">
        <ele>268.20001220703</ele>
        <time>2015-11-25T13:59:05Z</time>
      </trkpt>
      <trkpt lat="43.38726" lon="6.10794">
        <ele>268.39999389648</ele>
        <time>2015-11-25T13:59:09Z</time>
      </trkpt>
      <trkpt lat="43.38722" lon="6.10795">
        <ele>268.79998779297</ele>
        <time>2015-11-25T13:59:11Z</time>
      </trkpt>
      <trkpt lat="43.3872" lon="6.10796">
        <ele>268.79998779297</ele>
        <time>2015-11-25T13:59:13Z</time>
      </trkpt>
      <trkpt lat="43.38716" lon="6.10797">
        <ele>269</ele>
        <time>2015-11-25T13:59:15Z</time>
      </trkpt>
      <trkpt lat="43.38712" lon="6.10803">
        <ele>269.20001220703</ele>
        <time>2015-11-25T13:59:19Z</time>
      </trkpt>
      <trkpt lat="43.38709" lon="6.10806">
        <ele>269.39999389648</ele>
        <time>2015-11-25T13:59:21Z</time>
      </trkpt>
      <trkpt lat="43.38705" lon="6.10812">
        <ele>269.39999389648</ele>
        <time>2015-11-25T13:59:24Z</time>
      </trkpt>
      <trkpt lat="43.38703" lon="6.10814">
        <ele>269.60000610352</ele>
        <time>2015-11-25T13:59:25Z</time>
      </trkpt>
      <trkpt lat="43.387" lon="6.1082">
        <ele>269.79998779297</ele>
        <time>2015-11-25T13:59:27Z</time>
      </trkpt>
      <trkpt lat="43.38698" lon="6.10826">
        <ele>270</ele>
        <time>2015-11-25T13:59:29Z</time>
      </trkpt>
      <trkpt lat="43.38695" lon="6.10834">
        <ele>269.39999389648</ele>
        <time>2015-11-25T13:59:31Z</time>
      </trkpt>
      <trkpt lat="43.38693" lon="6.10842">
        <ele>269.79998779297</ele>
        <time>2015-11-25T13:59:33Z</time>
      </trkpt>
      <trkpt lat="43.38692" lon="6.10852">
        <ele>269.60000610352</ele>
        <time>2015-11-25T13:59:35Z</time>
      </trkpt>
      <trkpt lat="43.3869" lon="6.10862">
        <ele>269.60000610352</ele>
        <time>2015-11-25T13:59:37Z</time>
      </trkpt>
      <trkpt lat="43.38687" lon="6.1087">
        <ele>269.39999389648</ele>
        <time>2015-11-25T13:59:39Z</time>
      </trkpt>
      <trkpt lat="43.38684" lon="6.10879">
        <ele>269.39999389648</ele>
        <time>2015-11-25T13:59:41Z</time>
      </trkpt>
      <trkpt lat="43.38681" lon="6.10889">
        <ele>269.60000610352</ele>
        <time>2015-11-25T13:59:43Z</time>
      </trkpt>
      <trkpt lat="43.38678" lon="6.10898">
        <ele>269.60000610352</ele>
        <time>2015-11-25T13:59:45Z</time>
      </trkpt>
      <trkpt lat="43.38676" lon="6.10908">
        <ele>269.60000610352</ele>
        <time>2015-11-25T13:59:47Z</time>
      </trkpt>
      <trkpt lat="43.38675" lon="6.10913">
        <ele>269.39999389648</ele>
        <time>2015-11-25T13:59:48Z</time>
      </trkpt>
      <trkpt lat="43.38671" lon="6.10927">
        <ele>269.60000610352</ele>
        <time>2015-11-25T13:59:51Z</time>
      </trkpt>
      <trkpt lat="43.3867" lon="6.10938">
        <ele>269.60000610352</ele>
        <time>2015-11-25T13:59:53Z</time>
      </trkpt>
      <trkpt lat="43.38667" lon="6.10951">
        <ele>269.79998779297</ele>
        <time>2015-11-25T13:59:56Z</time>
      </trkpt>
      <trkpt lat="43.38667" lon="6.10956">
        <ele>270</ele>
        <time>2015-11-25T13:59:57Z</time>
      </trkpt>
      <trkpt lat="43.38666" lon="6.10965">
        <ele>270.20001220703</ele>
        <time>2015-11-25T13:59:59Z</time>
      </trkpt>
      <trkpt lat="43.38665" lon="6.10975">
        <ele>270</ele>
        <time>2015-11-25T14:00:01Z</time>
      </trkpt>
      <trkpt lat="43.38665" lon="6.10984">
        <ele>269.60000610352</ele>
        <time>2015-11-25T14:00:03Z</time>
      </trkpt>
      <trkpt lat="43.38663" lon="6.10992">
        <ele>269.79998779297</ele>
        <time>2015-11-25T14:00:05Z</time>
      </trkpt>
      <trkpt lat="43.38658" lon="6.10997">
        <ele>269.79998779297</ele>
        <time>2015-11-25T14:00:07Z</time>
      </trkpt>
      <trkpt lat="43.38654" lon="6.10997">
        <ele>270.39999389648</ele>
        <time>2015-11-25T14:00:09Z</time>
      </trkpt>
      <trkpt lat="43.38652" lon="6.10996">
        <ele>270.60000610352</ele>
        <time>2015-11-25T14:00:10Z</time>
      </trkpt>
      <trkpt lat="43.38651" lon="6.10996">
        <ele>270.79998779297</ele>
        <time>2015-11-25T14:00:11Z</time>
      </trkpt>
      <trkpt lat="43.38649" lon="6.10997">
        <ele>271.39999389648</ele>
        <time>2015-11-25T14:00:13Z</time>
      </trkpt>
      <trkpt lat="43.38649" lon="6.10997">
        <ele>271.39999389648</ele>
        <time>2015-11-25T14:00:14Z</time>
      </trkpt>
      <trkpt lat="43.38649" lon="6.10997">
        <ele>271.39999389648</ele>
        <time>2015-11-25T14:00:15Z</time>
      </trkpt>
      <trkpt lat="43.38651" lon="6.10999">
        <ele>271.39999389648</ele>
        <time>2015-11-25T14:00:17Z</time>
      </trkpt>
      <trkpt lat="43.38651" lon="6.11">
        <ele>271.39999389648</ele>
        <time>2015-11-25T14:00:19Z</time>
      </trkpt>
      <trkpt lat="43.38651" lon="6.11001">
        <ele>271.60000610352</ele>
        <time>2015-11-25T14:00:21Z</time>
      </trkpt>
      <trkpt lat="43.38651" lon="6.11001">
        <ele>271.79998779297</ele>
        <time>2015-11-25T14:00:23Z</time>
      </trkpt>
      <trkpt lat="43.38652" lon="6.11001">
        <ele>271.39999389648</ele>
        <time>2015-11-25T14:00:25Z</time>
      </trkpt>
      <trkpt lat="43.38652" lon="6.11001">
        <ele>271.20001220703</ele>
        <time>2015-11-25T14:00:27Z</time>
      </trkpt>
      <trkpt lat="43.38652" lon="6.11001">
        <ele>270.39999389648</ele>
        <time>2015-11-25T14:00:33Z</time>
      </trkpt>
      <trkpt lat="43.38652" lon="6.11001">
        <ele>270.79998779297</ele>
        <time>2015-11-25T14:00:35Z</time>
      </trkpt>
      <trkpt lat="43.38652" lon="6.11001">
        <ele>270.79998779297</ele>
        <time>2015-11-25T14:00:37Z</time>
      </trkpt>
      <trkpt lat="43.38652" lon="6.11001">
        <ele>270.20001220703</ele>
        <time>2015-11-25T14:00:39Z</time>
      </trkpt>
      <trkpt lat="43.38652" lon="6.11001">
        <ele>269.60000610352</ele>
        <time>2015-11-25T14:00:41Z</time>
      </trkpt>
      <trkpt lat="43.38652" lon="6.11001">
        <ele>269.39999389648</ele>
        <time>2015-11-25T14:00:43Z</time>
      </trkpt>
      <trkpt lat="43.38652" lon="6.11001">
        <ele>269.79998779297</ele>
        <time>2015-11-25T14:00:45Z</time>
      </trkpt>
      <trkpt lat="43.38652" lon="6.11001">
        <ele>270</ele>
        <time>2015-11-25T14:00:53Z</time>
      </trkpt>
      <trkpt lat="43.38652" lon="6.11001">
        <ele>270</ele>
        <time>2015-11-25T14:00:55Z</time>
      </trkpt>
      <trkpt lat="43.38651" lon="6.11002">
        <ele>270.20001220703</ele>
        <time>2015-11-25T14:00:57Z</time>
      </trkpt>
      <trkpt lat="43.38651" lon="6.11001">
        <ele>270.39999389648</ele>
        <time>2015-11-25T14:00:58Z</time>
      </trkpt>
      <trkpt lat="43.3865" lon="6.11001">
        <ele>270.39999389648</ele>
        <time>2015-11-25T14:00:59Z</time>
      </trkpt>
      <trkpt lat="43.38649" lon="6.11001">
        <ele>270.60000610352</ele>
        <time>2015-11-25T14:01:01Z</time>
      </trkpt>
      <trkpt lat="43.38649" lon="6.11001">
        <ele>270.60000610352</ele>
        <time>2015-11-25T14:01:03Z</time>
      </trkpt>
      <trkpt lat="43.38649" lon="6.11001">
        <ele>270.39999389648</ele>
        <time>2015-11-25T14:01:05Z</time>
      </trkpt>
      <trkpt lat="43.38649" lon="6.11001">
        <ele>270.39999389648</ele>
        <time>2015-11-25T14:01:07Z</time>
      </trkpt>
      <trkpt lat="43.38649" lon="6.11001">
        <ele>270.79998779297</ele>
        <time>2015-11-25T14:01:09Z</time>
      </trkpt>
      <trkpt lat="43.38647" lon="6.11001">
        <ele>271</ele>
        <time>2015-11-25T14:01:11Z</time>
      </trkpt>
      <trkpt lat="43.38645" lon="6.11002">
        <ele>271.60000610352</ele>
        <time>2015-11-25T14:01:13Z</time>
      </trkpt>
      <trkpt lat="43.38643" lon="6.11004">
        <ele>272</ele>
        <time>2015-11-25T14:01:15Z</time>
      </trkpt>
      <trkpt lat="43.38642" lon="6.11005">
        <ele>272</ele>
        <time>2015-11-25T14:01:16Z</time>
      </trkpt>
      <trkpt lat="43.38642" lon="6.11005">
        <ele>271.79998779297</ele>
        <time>2015-11-25T14:01:17Z</time>
      </trkpt>
      <trkpt lat="43.38642" lon="6.11005">
        <ele>271.60000610352</ele>
        <time>2015-11-25T14:01:18Z</time>
      </trkpt>
      <trkpt lat="43.38642" lon="6.11005">
        <ele>271.60000610352</ele>
        <time>2015-11-25T14:01:21Z</time>
      </trkpt>
      <trkpt lat="43.38641" lon="6.11005">
        <ele>271.60000610352</ele>
        <time>2015-11-25T14:01:23Z</time>
      </trkpt>
      <trkpt lat="43.38641" lon="6.11006">
        <ele>272</ele>
        <time>2015-11-25T14:01:25Z</time>
      </trkpt>
      <trkpt lat="43.38641" lon="6.11005">
        <ele>271.79998779297</ele>
        <time>2015-11-25T14:01:29Z</time>
      </trkpt>
      <trkpt lat="43.38641" lon="6.11005">
        <ele>271.79998779297</ele>
        <time>2015-11-25T14:01:33Z</time>
      </trkpt>
      <trkpt lat="43.38641" lon="6.11005">
        <ele>271.39999389648</ele>
        <time>2015-11-25T14:01:37Z</time>
      </trkpt>
      <trkpt lat="43.38641" lon="6.11006">
        <ele>271.60000610352</ele>
        <time>2015-11-25T14:01:39Z</time>
      </trkpt>
      <trkpt lat="43.38641" lon="6.11006">
        <ele>271.79998779297</ele>
        <time>2015-11-25T14:01:41Z</time>
      </trkpt>
      <trkpt lat="43.38641" lon="6.11006">
        <ele>272</ele>
        <time>2015-11-25T14:01:43Z</time>
      </trkpt>
      <trkpt lat="43.38641" lon="6.11006">
        <ele>272</ele>
        <time>2015-11-25T14:01:47Z</time>
      </trkpt>
      <trkpt lat="43.38639" lon="6.11006">
        <ele>271.79998779297</ele>
        <time>2015-11-25T14:01:49Z</time>
      </trkpt>
      <trkpt lat="43.38637" lon="6.11006">
        <ele>271.79998779297</ele>
        <time>2015-11-25T14:01:50Z</time>
      </trkpt>
      <trkpt lat="43.38636" lon="6.11005">
        <ele>271.79998779297</ele>
        <time>2015-11-25T14:01:51Z</time>
      </trkpt>
      <trkpt lat="43.38633" lon="6.11003">
        <ele>272.60000610352</ele>
        <time>2015-11-25T14:01:53Z</time>
      </trkpt>
      <trkpt lat="43.38631" lon="6.10999">
        <ele>273</ele>
        <time>2015-11-25T14:01:55Z</time>
      </trkpt>
      <trkpt lat="43.3863" lon="6.10998">
        <ele>273</ele>
        <time>2015-11-25T14:01:56Z</time>
      </trkpt>
      <trkpt lat="43.38628" lon="6.10997">
        <ele>273.20001220703</ele>
        <time>2015-11-25T14:01:57Z</time>
      </trkpt>
      <trkpt lat="43.38625" lon="6.10994">
        <ele>273.20001220703</ele>
        <time>2015-11-25T14:02:01Z</time>
      </trkpt>
      <trkpt lat="43.38624" lon="6.10993">
        <ele>273.20001220703</ele>
        <time>2015-11-25T14:02:02Z</time>
      </trkpt>
      <trkpt lat="43.38623" lon="6.10992">
        <ele>273</ele>
        <time>2015-11-25T14:02:05Z</time>
      </trkpt>
      <trkpt lat="43.3862" lon="6.10991">
        <ele>273</ele>
        <time>2015-11-25T14:02:07Z</time>
      </trkpt>
      <trkpt lat="43.38617" lon="6.10987">
        <ele>272.79998779297</ele>
        <time>2015-11-25T14:02:09Z</time>
      </trkpt>
      <trkpt lat="43.38613" lon="6.10985">
        <ele>272.20001220703</ele>
        <time>2015-11-25T14:02:11Z</time>
      </trkpt>
      <trkpt lat="43.38608" lon="6.10982">
        <ele>272.39999389648</ele>
        <time>2015-11-25T14:02:15Z</time>
      </trkpt>
      <trkpt lat="43.38605" lon="6.10983">
        <ele>272.20001220703</ele>
        <time>2015-11-25T14:02:17Z</time>
      </trkpt>
      <trkpt lat="43.38602" lon="6.10984">
        <ele>272.39999389648</ele>
        <time>2015-11-25T14:02:19Z</time>
      </trkpt>
      <trkpt lat="43.386" lon="6.10984">
        <ele>272.60000610352</ele>
        <time>2015-11-25T14:02:20Z</time>
      </trkpt>
      <trkpt lat="43.38597" lon="6.10984">
        <ele>272.39999389648</ele>
        <time>2015-11-25T14:02:21Z</time>
      </trkpt>
      <trkpt lat="43.38591" lon="6.10984">
        <ele>271.60000610352</ele>
        <time>2015-11-25T14:02:23Z</time>
      </trkpt>
      <trkpt lat="43.38584" lon="6.10983">
        <ele>271</ele>
        <time>2015-11-25T14:02:25Z</time>
      </trkpt>
      <trkpt lat="43.3857" lon="6.10983">
        <ele>270.79998779297</ele>
        <time>2015-11-25T14:02:28Z</time>
      </trkpt>
      <trkpt lat="43.38565" lon="6.10982">
        <ele>270.60000610352</ele>
        <time>2015-11-25T14:02:29Z</time>
      </trkpt>
      <trkpt lat="43.38554" lon="6.10977">
        <ele>270.60000610352</ele>
        <time>2015-11-25T14:02:31Z</time>
      </trkpt>
      <trkpt lat="43.38544" lon="6.10972">
        <ele>269.60000610352</ele>
        <time>2015-11-25T14:02:33Z</time>
      </trkpt>
      <trkpt lat="43.38538" lon="6.1097">
        <ele>269.39999389648</ele>
        <time>2015-11-25T14:02:34Z</time>
      </trkpt>
      <trkpt lat="43.38533" lon="6.10968">
        <ele>269.39999389648</ele>
        <time>2015-11-25T14:02:35Z</time>
      </trkpt>
      <trkpt lat="43.38521" lon="6.10965">
        <ele>268</ele>
        <time>2015-11-25T14:02:37Z</time>
      </trkpt>
      <trkpt lat="43.38508" lon="6.10962">
        <ele>267</ele>
        <time>2015-11-25T14:02:39Z</time>
      </trkpt>
      <trkpt lat="43.38496" lon="6.10958">
        <ele>265.60000610352</ele>
        <time>2015-11-25T14:02:41Z</time>
      </trkpt>
      <trkpt lat="43.38489" lon="6.10956">
        <ele>264.20001220703</ele>
        <time>2015-11-25T14:02:43Z</time>
      </trkpt>
      <trkpt lat="43.38485" lon="6.10954">
        <ele>263.39999389648</ele>
        <time>2015-11-25T14:02:45Z</time>
      </trkpt>
      <trkpt lat="43.38481" lon="6.10954">
        <ele>263.20001220703</ele>
        <time>2015-11-25T14:02:47Z</time>
      </trkpt>
      <trkpt lat="43.38479" lon="6.10953">
        <ele>263.39999389648</ele>
        <time>2015-11-25T14:02:51Z</time>
      </trkpt>
      <trkpt lat="43.38478" lon="6.10953">
        <ele>263.60000610352</ele>
        <time>2015-11-25T14:02:53Z</time>
      </trkpt>
      <trkpt lat="43.38477" lon="6.10952">
        <ele>263.79998779297</ele>
        <time>2015-11-25T14:02:54Z</time>
      </trkpt>
      <trkpt lat="43.38475" lon="6.10952">
        <ele>263.79998779297</ele>
        <time>2015-11-25T14:02:55Z</time>
      </trkpt>
      <trkpt lat="43.38471" lon="6.10953">
        <ele>263.79998779297</ele>
        <time>2015-11-25T14:02:57Z</time>
      </trkpt>
      <trkpt lat="43.38464" lon="6.10954">
        <ele>263.39999389648</ele>
        <time>2015-11-25T14:03:00Z</time>
      </trkpt>
      <trkpt lat="43.38461" lon="6.10954">
        <ele>263.39999389648</ele>
        <time>2015-11-25T14:03:01Z</time>
      </trkpt>
      <trkpt lat="43.38454" lon="6.10954">
        <ele>263</ele>
        <time>2015-11-25T14:03:03Z</time>
      </trkpt>
      <trkpt lat="43.38446" lon="6.10953">
        <ele>263</ele>
        <time>2015-11-25T14:03:05Z</time>
      </trkpt>
      <trkpt lat="43.38441" lon="6.10953">
        <ele>263</ele>
        <time>2015-11-25T14:03:06Z</time>
      </trkpt>
      <trkpt lat="43.38437" lon="6.10952">
        <ele>262.60000610352</ele>
        <time>2015-11-25T14:03:07Z</time>
      </trkpt>
      <trkpt lat="43.38428" lon="6.1095">
        <ele>262.20001220703</ele>
        <time>2015-11-25T14:03:09Z</time>
      </trkpt>
      <trkpt lat="43.38419" lon="6.10947">
        <ele>262</ele>
        <time>2015-11-25T14:03:11Z</time>
      </trkpt>
      <trkpt lat="43.38409" lon="6.10945">
        <ele>261.79998779297</ele>
        <time>2015-11-25T14:03:13Z</time>
      </trkpt>
      <trkpt lat="43.3839" lon="6.10941">
        <ele>260.39999389648</ele>
        <time>2015-11-25T14:03:17Z</time>
      </trkpt>
      <trkpt lat="43.38375" lon="6.10937">
        <ele>260.20001220703</ele>
        <time>2015-11-25T14:03:20Z</time>
      </trkpt>
      <trkpt lat="43.38369" lon="6.10936">
        <ele>260.39999389648</ele>
        <time>2015-11-25T14:03:21Z</time>
      </trkpt>
      <trkpt lat="43.38347" lon="6.10931">
        <ele>260.39999389648</ele>
        <time>2015-11-25T14:03:26Z</time>
      </trkpt>
      <trkpt lat="43.38342" lon="6.10929">
        <ele>260.20001220703</ele>
        <time>2015-11-25T14:03:27Z</time>
      </trkpt>
      <trkpt lat="43.38334" lon="6.10927">
        <ele>260</ele>
        <time>2015-11-25T14:03:29Z</time>
      </trkpt>
      <trkpt lat="43.38321" lon="6.10922">
        <ele>260.20001220703</ele>
        <time>2015-11-25T14:03:32Z</time>
      </trkpt>
      <trkpt lat="43.38317" lon="6.1092">
        <ele>260.39999389648</ele>
        <time>2015-11-25T14:03:33Z</time>
      </trkpt>
      <trkpt lat="43.38309" lon="6.10917">
        <ele>260.79998779297</ele>
        <time>2015-11-25T14:03:35Z</time>
      </trkpt>
      <trkpt lat="43.383" lon="6.10914">
        <ele>261.39999389648</ele>
        <time>2015-11-25T14:03:37Z</time>
      </trkpt>
      <trkpt lat="43.38292" lon="6.10912">
        <ele>261</ele>
        <time>2015-11-25T14:03:39Z</time>
      </trkpt>
      <trkpt lat="43.38282" lon="6.10909">
        <ele>260.60000610352</ele>
        <time>2015-11-25T14:03:41Z</time>
      </trkpt>
      <trkpt lat="43.38264" lon="6.10904">
        <ele>259.79998779297</ele>
        <time>2015-11-25T14:03:45Z</time>
      </trkpt>
      <trkpt lat="43.3825" lon="6.109">
        <ele>259.60000610352</ele>
        <time>2015-11-25T14:03:48Z</time>
      </trkpt>
      <trkpt lat="43.38245" lon="6.10899">
        <ele>259.79998779297</ele>
        <time>2015-11-25T14:03:49Z</time>
      </trkpt>
      <trkpt lat="43.38236" lon="6.10896">
        <ele>259.60000610352</ele>
        <time>2015-11-25T14:03:51Z</time>
      </trkpt>
      <trkpt lat="43.38227" lon="6.10894">
        <ele>260</ele>
        <time>2015-11-25T14:03:53Z</time>
      </trkpt>
      <trkpt lat="43.3822" lon="6.10891">
        <ele>260</ele>
        <time>2015-11-25T14:03:55Z</time>
      </trkpt>
      <trkpt lat="43.38213" lon="6.10889">
        <ele>260</ele>
        <time>2015-11-25T14:03:57Z</time>
      </trkpt>
      <trkpt lat="43.38207" lon="6.10888">
        <ele>260.20001220703</ele>
        <time>2015-11-25T14:03:59Z</time>
      </trkpt>
      <trkpt lat="43.38204" lon="6.10888">
        <ele>260.39999389648</ele>
        <time>2015-11-25T14:04:01Z</time>
      </trkpt>
      <trkpt lat="43.38202" lon="6.10888">
        <ele>260.60000610352</ele>
        <time>2015-11-25T14:04:03Z</time>
      </trkpt>
      <trkpt lat="43.382" lon="6.10889">
        <ele>260.79998779297</ele>
        <time>2015-11-25T14:04:05Z</time>
      </trkpt>
      <trkpt lat="43.38198" lon="6.10891">
        <ele>261</ele>
        <time>2015-11-25T14:04:07Z</time>
      </trkpt>
      <trkpt lat="43.38197" lon="6.10895">
        <ele>261</ele>
        <time>2015-11-25T14:04:09Z</time>
      </trkpt>
      <trkpt lat="43.38197" lon="6.10897">
        <ele>261.20001220703</ele>
        <time>2015-11-25T14:04:10Z</time>
      </trkpt>
      <trkpt lat="43.38196" lon="6.10899">
        <ele>261.39999389648</ele>
        <time>2015-11-25T14:04:11Z</time>
      </trkpt>
      <trkpt lat="43.38195" lon="6.10905">
        <ele>261.39999389648</ele>
        <time>2015-11-25T14:04:13Z</time>
      </trkpt>
      <trkpt lat="43.38195" lon="6.10907">
        <ele>261.39999389648</ele>
        <time>2015-11-25T14:04:14Z</time>
      </trkpt>
      <trkpt lat="43.38193" lon="6.10915">
        <ele>261.79998779297</ele>
        <time>2015-11-25T14:04:17Z</time>
      </trkpt>
      <trkpt lat="43.38192" lon="6.10921">
        <ele>262</ele>
        <time>2015-11-25T14:04:19Z</time>
      </trkpt>
      <trkpt lat="43.38191" lon="6.10928">
        <ele>262</ele>
        <time>2015-11-25T14:04:21Z</time>
      </trkpt>
      <trkpt lat="43.3819" lon="6.10934">
        <ele>261.79998779297</ele>
        <time>2015-11-25T14:04:23Z</time>
      </trkpt>
      <trkpt lat="43.38189" lon="6.10941">
        <ele>262</ele>
        <time>2015-11-25T14:04:25Z</time>
      </trkpt>
      <trkpt lat="43.38187" lon="6.10947">
        <ele>262</ele>
        <time>2015-11-25T14:04:27Z</time>
      </trkpt>
      <trkpt lat="43.38186" lon="6.10954">
        <ele>262.20001220703</ele>
        <time>2015-11-25T14:04:29Z</time>
      </trkpt>
      <trkpt lat="43.38185" lon="6.10961">
        <ele>262.39999389648</ele>
        <time>2015-11-25T14:04:31Z</time>
      </trkpt>
      <trkpt lat="43.38184" lon="6.10968">
        <ele>262.39999389648</ele>
        <time>2015-11-25T14:04:33Z</time>
      </trkpt>
      <trkpt lat="43.38181" lon="6.10983">
        <ele>262.60000610352</ele>
        <time>2015-11-25T14:04:37Z</time>
      </trkpt>
      <trkpt lat="43.38179" lon="6.1099">
        <ele>262.39999389648</ele>
        <time>2015-11-25T14:04:39Z</time>
      </trkpt>
      <trkpt lat="43.38177" lon="6.10997">
        <ele>262.79998779297</ele>
        <time>2015-11-25T14:04:41Z</time>
      </trkpt>
      <trkpt lat="43.38175" lon="6.11008">
        <ele>264</ele>
        <time>2015-11-25T14:04:44Z</time>
      </trkpt>
      <trkpt lat="43.38173" lon="6.1102">
        <ele>265</ele>
        <time>2015-11-25T14:04:47Z</time>
      </trkpt>
      <trkpt lat="43.3817" lon="6.11036">
        <ele>265.79998779297</ele>
        <time>2015-11-25T14:04:51Z</time>
      </trkpt>
      <trkpt lat="43.38169" lon="6.11043">
        <ele>266</ele>
        <time>2015-11-25T14:04:53Z</time>
      </trkpt>
      <trkpt lat="43.38167" lon="6.11051">
        <ele>266.20001220703</ele>
        <time>2015-11-25T14:04:55Z</time>
      </trkpt>
      <trkpt lat="43.38164" lon="6.11065">
        <ele>266.39999389648</ele>
        <time>2015-11-25T14:04:59Z</time>
      </trkpt>
      <trkpt lat="43.38161" lon="6.11075">
        <ele>266.60000610352</ele>
        <time>2015-11-25T14:05:02Z</time>
      </trkpt>
      <trkpt lat="43.3816" lon="6.11079">
        <ele>266.60000610352</ele>
        <time>2015-11-25T14:05:03Z</time>
      </trkpt>
      <trkpt lat="43.38157" lon="6.11085">
        <ele>267</ele>
        <time>2015-11-25T14:05:05Z</time>
      </trkpt>
      <trkpt lat="43.38155" lon="6.11091">
        <ele>267.20001220703</ele>
        <time>2015-11-25T14:05:07Z</time>
      </trkpt>
      <trkpt lat="43.38152" lon="6.11098">
        <ele>267</ele>
        <time>2015-11-25T14:05:09Z</time>
      </trkpt>
      <trkpt lat="43.38149" lon="6.11104">
        <ele>267.20001220703</ele>
        <time>2015-11-25T14:05:11Z</time>
      </trkpt>
      <trkpt lat="43.38146" lon="6.1111">
        <ele>267.20001220703</ele>
        <time>2015-11-25T14:05:13Z</time>
      </trkpt>
      <trkpt lat="43.38142" lon="6.11116">
        <ele>267.39999389648</ele>
        <time>2015-11-25T14:05:15Z</time>
      </trkpt>
      <trkpt lat="43.38139" lon="6.11121">
        <ele>267.39999389648</ele>
        <time>2015-11-25T14:05:17Z</time>
      </trkpt>
      <trkpt lat="43.38135" lon="6.11125">
        <ele>267.39999389648</ele>
        <time>2015-11-25T14:05:19Z</time>
      </trkpt>
      <trkpt lat="43.38133" lon="6.11127">
        <ele>267.60000610352</ele>
        <time>2015-11-25T14:05:20Z</time>
      </trkpt>
      <trkpt lat="43.38132" lon="6.11128">
        <ele>267.60000610352</ele>
        <time>2015-11-25T14:05:21Z</time>
      </trkpt>
      <trkpt lat="43.3813" lon="6.1113">
        <ele>267.60000610352</ele>
        <time>2015-11-25T14:05:22Z</time>
      </trkpt>
      <trkpt lat="43.38129" lon="6.11131">
        <ele>267.79998779297</ele>
        <time>2015-11-25T14:05:23Z</time>
      </trkpt>
      <trkpt lat="43.38127" lon="6.11134">
        <ele>267.79998779297</ele>
        <time>2015-11-25T14:05:25Z</time>
      </trkpt>
      <trkpt lat="43.38125" lon="6.11136">
        <ele>268</ele>
        <time>2015-11-25T14:05:27Z</time>
      </trkpt>
      <trkpt lat="43.38123" lon="6.11138">
        <ele>268.79998779297</ele>
        <time>2015-11-25T14:05:29Z</time>
      </trkpt>
      <trkpt lat="43.38122" lon="6.11139">
        <ele>269</ele>
        <time>2015-11-25T14:05:31Z</time>
      </trkpt>
      <trkpt lat="43.38122" lon="6.1114">
        <ele>269.20001220703</ele>
        <time>2015-11-25T14:05:33Z</time>
      </trkpt>
      <trkpt lat="43.38122" lon="6.1114">
        <ele>269.60000610352</ele>
        <time>2015-11-25T14:05:35Z</time>
      </trkpt>
      <trkpt lat="43.38122" lon="6.1114">
        <ele>269.60000610352</ele>
        <time>2015-11-25T14:05:39Z</time>
      </trkpt>
      <trkpt lat="43.38122" lon="6.11139">
        <ele>268.20001220703</ele>
        <time>2015-11-25T14:05:55Z</time>
      </trkpt>
      <trkpt lat="43.38122" lon="6.11139">
        <ele>269.20001220703</ele>
        <time>2015-11-25T14:06:02Z</time>
      </trkpt>
      <trkpt lat="43.38122" lon="6.11139">
        <ele>269</ele>
        <time>2015-11-25T14:06:05Z</time>
      </trkpt>
      <trkpt lat="43.38122" lon="6.11139">
        <ele>269</ele>
        <time>2015-11-25T14:06:07Z</time>
      </trkpt>
      <trkpt lat="43.38122" lon="6.1114">
        <ele>269.20001220703</ele>
        <time>2015-11-25T14:06:09Z</time>
      </trkpt>
      <trkpt lat="43.38122" lon="6.1114">
        <ele>269.20001220703</ele>
        <time>2015-11-25T14:06:13Z</time>
      </trkpt>
      <trkpt lat="43.38122" lon="6.1114">
        <ele>269</ele>
        <time>2015-11-25T14:06:14Z</time>
      </trkpt>
      <trkpt lat="43.38122" lon="6.1114">
        <ele>268.39999389648</ele>
        <time>2015-11-25T14:06:17Z</time>
      </trkpt>
      <trkpt lat="43.38122" lon="6.1114">
        <ele>268</ele>
        <time>2015-11-25T14:06:19Z</time>
      </trkpt>
      <trkpt lat="43.38121" lon="6.1114">
        <ele>268</ele>
        <time>2015-11-25T14:06:21Z</time>
      </trkpt>
      <trkpt lat="43.38122" lon="6.1114">
        <ele>268</ele>
        <time>2015-11-25T14:06:23Z</time>
      </trkpt>
      <trkpt lat="43.38122" lon="6.1114">
        <ele>268.39999389648</ele>
        <time>2015-11-25T14:06:25Z</time>
      </trkpt>
      <trkpt lat="43.38122" lon="6.1114">
        <ele>268</ele>
        <time>2015-11-25T14:06:27Z</time>
      </trkpt>
      <trkpt lat="43.38122" lon="6.1114">
        <ele>267.39999389648</ele>
        <time>2015-11-25T14:06:29Z</time>
      </trkpt>
      <trkpt lat="43.38121" lon="6.1114">
        <ele>267.39999389648</ele>
        <time>2015-11-25T14:06:31Z</time>
      </trkpt>
      <trkpt lat="43.38121" lon="6.1114">
        <ele>267.79998779297</ele>
        <time>2015-11-25T14:06:33Z</time>
      </trkpt>
      <trkpt lat="43.38121" lon="6.1114">
        <ele>267.60000610352</ele>
        <time>2015-11-25T14:06:35Z</time>
      </trkpt>
      <trkpt lat="43.38122" lon="6.1114">
        <ele>267.79998779297</ele>
        <time>2015-11-25T14:06:37Z</time>
      </trkpt>
      <trkpt lat="43.38121" lon="6.1114">
        <ele>268.20001220703</ele>
        <time>2015-11-25T14:06:39Z</time>
      </trkpt>
      <trkpt lat="43.3812" lon="6.11142">
        <ele>268.39999389648</ele>
        <time>2015-11-25T14:06:41Z</time>
      </trkpt>
      <trkpt lat="43.38117" lon="6.11146">
        <ele>269</ele>
        <time>2015-11-25T14:06:43Z</time>
      </trkpt>
      <trkpt lat="43.38113" lon="6.1115">
        <ele>269.39999389648</ele>
        <time>2015-11-25T14:06:45Z</time>
      </trkpt>
      <trkpt lat="43.38108" lon="6.11154">
        <ele>269.39999389648</ele>
        <time>2015-11-25T14:06:47Z</time>
      </trkpt>
      <trkpt lat="43.38104" lon="6.11158">
        <ele>269.79998779297</ele>
        <time>2015-11-25T14:06:49Z</time>
      </trkpt>
      <trkpt lat="43.381" lon="6.11162">
        <ele>270.60000610352</ele>
        <time>2015-11-25T14:06:51Z</time>
      </trkpt>
      <trkpt lat="43.38096" lon="6.11166">
        <ele>271</ele>
        <time>2015-11-25T14:06:53Z</time>
      </trkpt>
      <trkpt lat="43.38092" lon="6.11171">
        <ele>271.39999389648</ele>
        <time>2015-11-25T14:06:55Z</time>
      </trkpt>
      <trkpt lat="43.38088" lon="6.11175">
        <ele>272</ele>
        <time>2015-11-25T14:06:57Z</time>
      </trkpt>
      <trkpt lat="43.38084" lon="6.1118">
        <ele>272.60000610352</ele>
        <time>2015-11-25T14:06:59Z</time>
      </trkpt>
      <trkpt lat="43.3808" lon="6.11184">
        <ele>272.79998779297</ele>
        <time>2015-11-25T14:07:01Z</time>
      </trkpt>
      <trkpt lat="43.38075" lon="6.11189">
        <ele>273.20001220703</ele>
        <time>2015-11-25T14:07:03Z</time>
      </trkpt>
      <trkpt lat="43.38071" lon="6.11193">
        <ele>273.20001220703</ele>
        <time>2015-11-25T14:07:05Z</time>
      </trkpt>
      <trkpt lat="43.38062" lon="6.11202">
        <ele>272.79998779297</ele>
        <time>2015-11-25T14:07:09Z</time>
      </trkpt>
      <trkpt lat="43.38058" lon="6.11207">
        <ele>272.79998779297</ele>
        <time>2015-11-25T14:07:11Z</time>
      </trkpt>
      <trkpt lat="43.38056" lon="6.1121">
        <ele>272.79998779297</ele>
        <time>2015-11-25T14:07:12Z</time>
      </trkpt>
      <trkpt lat="43.38049" lon="6.11221">
        <ele>272.60000610352</ele>
        <time>2015-11-25T14:07:15Z</time>
      </trkpt>
      <trkpt lat="43.38046" lon="6.11229">
        <ele>272.60000610352</ele>
        <time>2015-11-25T14:07:17Z</time>
      </trkpt>
      <trkpt lat="43.38042" lon="6.11237">
        <ele>272.39999389648</ele>
        <time>2015-11-25T14:07:19Z</time>
      </trkpt>
      <trkpt lat="43.38039" lon="6.11245">
        <ele>272.39999389648</ele>
        <time>2015-11-25T14:07:21Z</time>
      </trkpt>
      <trkpt lat="43.38036" lon="6.11253">
        <ele>272.39999389648</ele>
        <time>2015-11-25T14:07:23Z</time>
      </trkpt>
      <trkpt lat="43.38029" lon="6.11267">
        <ele>272.60000610352</ele>
        <time>2015-11-25T14:07:27Z</time>
      </trkpt>
      <trkpt lat="43.38025" lon="6.11275">
        <ele>272.39999389648</ele>
        <time>2015-11-25T14:07:29Z</time>
      </trkpt>
      <trkpt lat="43.38022" lon="6.11282">
        <ele>272.79998779297</ele>
        <time>2015-11-25T14:07:31Z</time>
      </trkpt>
      <trkpt lat="43.38018" lon="6.11291">
        <ele>272.39999389648</ele>
        <time>2015-11-25T14:07:33Z</time>
      </trkpt>
      <trkpt lat="43.38015" lon="6.11299">
        <ele>272.39999389648</ele>
        <time>2015-11-25T14:07:35Z</time>
      </trkpt>
      <trkpt lat="43.38006" lon="6.11314">
        <ele>272.60000610352</ele>
        <time>2015-11-25T14:07:39Z</time>
      </trkpt>
      <trkpt lat="43.38002" lon="6.11323">
        <ele>272.79998779297</ele>
        <time>2015-11-25T14:07:41Z</time>
      </trkpt>
      <trkpt lat="43.37993" lon="6.1134">
        <ele>272.60000610352</ele>
        <time>2015-11-25T14:07:45Z</time>
      </trkpt>
      <trkpt lat="43.37991" lon="6.11343">
        <ele>272.60000610352</ele>
        <time>2015-11-25T14:07:46Z</time>
      </trkpt>
      <trkpt lat="43.37983" lon="6.11355">
        <ele>272.60000610352</ele>
        <time>2015-11-25T14:07:49Z</time>
      </trkpt>
      <trkpt lat="43.37978" lon="6.11361">
        <ele>272.60000610352</ele>
        <time>2015-11-25T14:07:51Z</time>
      </trkpt>
      <trkpt lat="43.37973" lon="6.11368">
        <ele>272.60000610352</ele>
        <time>2015-11-25T14:07:53Z</time>
      </trkpt>
      <trkpt lat="43.37968" lon="6.11374">
        <ele>272.79998779297</ele>
        <time>2015-11-25T14:07:55Z</time>
      </trkpt>
      <trkpt lat="43.37963" lon="6.11381">
        <ele>273</ele>
        <time>2015-11-25T14:07:57Z</time>
      </trkpt>
      <trkpt lat="43.37952" lon="6.11393">
        <ele>272.79998779297</ele>
        <time>2015-11-25T14:08:01Z</time>
      </trkpt>
      <trkpt lat="43.37943" lon="6.11405">
        <ele>273.60000610352</ele>
        <time>2015-11-25T14:08:05Z</time>
      </trkpt>
      <trkpt lat="43.37939" lon="6.11411">
        <ele>273.60000610352</ele>
        <time>2015-11-25T14:08:07Z</time>
      </trkpt>
      <trkpt lat="43.37937" lon="6.11414">
        <ele>273.60000610352</ele>
        <time>2015-11-25T14:08:08Z</time>
      </trkpt>
      <trkpt lat="43.37935" lon="6.11417">
        <ele>273.60000610352</ele>
        <time>2015-11-25T14:08:09Z</time>
      </trkpt>
      <trkpt lat="43.37925" lon="6.11429">
        <ele>273.79998779297</ele>
        <time>2015-11-25T14:08:13Z</time>
      </trkpt>
      <trkpt lat="43.3792" lon="6.11436">
        <ele>273.39999389648</ele>
        <time>2015-11-25T14:08:15Z</time>
      </trkpt>
      <trkpt lat="43.37914" lon="6.11443">
        <ele>272.79998779297</ele>
        <time>2015-11-25T14:08:17Z</time>
      </trkpt>
      <trkpt lat="43.37909" lon="6.11449">
        <ele>272.79998779297</ele>
        <time>2015-11-25T14:08:19Z</time>
      </trkpt>
      <trkpt lat="43.37903" lon="6.11454">
        <ele>272.60000610352</ele>
        <time>2015-11-25T14:08:21Z</time>
      </trkpt>
      <trkpt lat="43.37897" lon="6.11459">
        <ele>272.79998779297</ele>
        <time>2015-11-25T14:08:23Z</time>
      </trkpt>
      <trkpt lat="43.3789" lon="6.11462">
        <ele>272.79998779297</ele>
        <time>2015-11-25T14:08:25Z</time>
      </trkpt>
      <trkpt lat="43.37883" lon="6.11466">
        <ele>272.79998779297</ele>
        <time>2015-11-25T14:08:27Z</time>
      </trkpt>
      <trkpt lat="43.37877" lon="6.11468">
        <ele>273.20001220703</ele>
        <time>2015-11-25T14:08:29Z</time>
      </trkpt>
      <trkpt lat="43.37873" lon="6.11468">
        <ele>273.20001220703</ele>
        <time>2015-11-25T14:08:30Z</time>
      </trkpt>
      <trkpt lat="43.3787" lon="6.11469">
        <ele>273.20001220703</ele>
        <time>2015-11-25T14:08:31Z</time>
      </trkpt>
      <trkpt lat="43.37864" lon="6.11471">
        <ele>273.20001220703</ele>
        <time>2015-11-25T14:08:33Z</time>
      </trkpt>
      <trkpt lat="43.37859" lon="6.11474">
        <ele>273.39999389648</ele>
        <time>2015-11-25T14:08:35Z</time>
      </trkpt>
      <trkpt lat="43.37857" lon="6.11476">
        <ele>273.60000610352</ele>
        <time>2015-11-25T14:08:36Z</time>
      </trkpt>
      <trkpt lat="43.37855" lon="6.11479">
        <ele>273.39999389648</ele>
        <time>2015-11-25T14:08:37Z</time>
      </trkpt>
      <trkpt lat="43.37852" lon="6.11485">
        <ele>273.60000610352</ele>
        <time>2015-11-25T14:08:39Z</time>
      </trkpt>
      <trkpt lat="43.3785" lon="6.1149">
        <ele>274.39999389648</ele>
        <time>2015-11-25T14:08:41Z</time>
      </trkpt>
      <trkpt lat="43.37848" lon="6.11496">
        <ele>274.79998779297</ele>
        <time>2015-11-25T14:08:43Z</time>
      </trkpt>
      <trkpt lat="43.37846" lon="6.11502">
        <ele>275</ele>
        <time>2015-11-25T14:08:45Z</time>
      </trkpt>
      <trkpt lat="43.37844" lon="6.11505">
        <ele>275.20001220703</ele>
        <time>2015-11-25T14:08:46Z</time>
      </trkpt>
      <trkpt lat="43.37843" lon="6.11509">
        <ele>275.39999389648</ele>
        <time>2015-11-25T14:08:47Z</time>
      </trkpt>
      <trkpt lat="43.3784" lon="6.11516">
        <ele>275.60000610352</ele>
        <time>2015-11-25T14:08:49Z</time>
      </trkpt>
      <trkpt lat="43.37836" lon="6.11523">
        <ele>276</ele>
        <time>2015-11-25T14:08:51Z</time>
      </trkpt>
      <trkpt lat="43.37833" lon="6.1153">
        <ele>276.20001220703</ele>
        <time>2015-11-25T14:08:53Z</time>
      </trkpt>
      <trkpt lat="43.3783" lon="6.11542">
        <ele>277</ele>
        <time>2015-11-25T14:08:57Z</time>
      </trkpt>
      <trkpt lat="43.37828" lon="6.11547">
        <ele>277.60000610352</ele>
        <time>2015-11-25T14:08:59Z</time>
      </trkpt>
      <trkpt lat="43.37825" lon="6.11552">
        <ele>277.79998779297</ele>
        <time>2015-11-25T14:09:01Z</time>
      </trkpt>
      <trkpt lat="43.37823" lon="6.11558">
        <ele>278.60000610352</ele>
        <time>2015-11-25T14:09:03Z</time>
      </trkpt>
      <trkpt lat="43.3782" lon="6.11563">
        <ele>278.60000610352</ele>
        <time>2015-11-25T14:09:05Z</time>
      </trkpt>
      <trkpt lat="43.37817" lon="6.11568">
        <ele>279</ele>
        <time>2015-11-25T14:09:07Z</time>
      </trkpt>
      <trkpt lat="43.37814" lon="6.11572">
        <ele>278.79998779297</ele>
        <time>2015-11-25T14:09:09Z</time>
      </trkpt>
      <trkpt lat="43.3781" lon="6.11577">
        <ele>278.79998779297</ele>
        <time>2015-11-25T14:09:11Z</time>
      </trkpt>
      <trkpt lat="43.37802" lon="6.11586">
        <ele>279.20001220703</ele>
        <time>2015-11-25T14:09:15Z</time>
      </trkpt>
      <trkpt lat="43.37798" lon="6.11591">
        <ele>279</ele>
        <time>2015-11-25T14:09:17Z</time>
      </trkpt>
      <trkpt lat="43.37794" lon="6.11596">
        <ele>279.20001220703</ele>
        <time>2015-11-25T14:09:19Z</time>
      </trkpt>
      <trkpt lat="43.37786" lon="6.11603">
        <ele>280</ele>
        <time>2015-11-25T14:09:23Z</time>
      </trkpt>
      <trkpt lat="43.37783" lon="6.11608">
        <ele>280.39999389648</ele>
        <time>2015-11-25T14:09:25Z</time>
      </trkpt>
      <trkpt lat="43.37777" lon="6.11619">
        <ele>280.20001220703</ele>
        <time>2015-11-25T14:09:29Z</time>
      </trkpt>
      <trkpt lat="43.37774" lon="6.11624">
        <ele>281</ele>
        <time>2015-11-25T14:09:31Z</time>
      </trkpt>
      <trkpt lat="43.37772" lon="6.11629">
        <ele>281</ele>
        <time>2015-11-25T14:09:33Z</time>
      </trkpt>
      <trkpt lat="43.37767" lon="6.11641">
        <ele>282</ele>
        <time>2015-11-25T14:09:37Z</time>
      </trkpt>
      <trkpt lat="43.37764" lon="6.11646">
        <ele>282.20001220703</ele>
        <time>2015-11-25T14:09:39Z</time>
      </trkpt>
      <trkpt lat="43.37763" lon="6.11651">
        <ele>282.39999389648</ele>
        <time>2015-11-25T14:09:41Z</time>
      </trkpt>
      <trkpt lat="43.37762" lon="6.11653">
        <ele>282.60000610352</ele>
        <time>2015-11-25T14:09:42Z</time>
      </trkpt>
      <trkpt lat="43.37761" lon="6.11656">
        <ele>283</ele>
        <time>2015-11-25T14:09:43Z</time>
      </trkpt>
      <trkpt lat="43.37757" lon="6.11664">
        <ele>283</ele>
        <time>2015-11-25T14:09:46Z</time>
      </trkpt>
      <trkpt lat="43.37755" lon="6.11666">
        <ele>283.20001220703</ele>
        <time>2015-11-25T14:09:47Z</time>
      </trkpt>
      <trkpt lat="43.37752" lon="6.11672">
        <ele>283.60000610352</ele>
        <time>2015-11-25T14:09:49Z</time>
      </trkpt>
      <trkpt lat="43.3775" lon="6.11676">
        <ele>283.79998779297</ele>
        <time>2015-11-25T14:09:51Z</time>
      </trkpt>
      <trkpt lat="43.37747" lon="6.1168">
        <ele>284</ele>
        <time>2015-11-25T14:09:53Z</time>
      </trkpt>
      <trkpt lat="43.37746" lon="6.11681">
        <ele>284.20001220703</ele>
        <time>2015-11-25T14:09:54Z</time>
      </trkpt>
      <trkpt lat="43.37745" lon="6.11683">
        <ele>284.20001220703</ele>
        <time>2015-11-25T14:09:55Z</time>
      </trkpt>
      <trkpt lat="43.37745" lon="6.11685">
        <ele>284.20001220703</ele>
        <time>2015-11-25T14:09:56Z</time>
      </trkpt>
      <trkpt lat="43.37744" lon="6.11686">
        <ele>284.39999389648</ele>
        <time>2015-11-25T14:09:57Z</time>
      </trkpt>
      <trkpt lat="43.37742" lon="6.11691">
        <ele>284.60000610352</ele>
        <time>2015-11-25T14:09:59Z</time>
      </trkpt>
      <trkpt lat="43.3774" lon="6.11694">
        <ele>284.60000610352</ele>
        <time>2015-11-25T14:10:01Z</time>
      </trkpt>
      <trkpt lat="43.37738" lon="6.11698">
        <ele>284.79998779297</ele>
        <time>2015-11-25T14:10:03Z</time>
      </trkpt>
      <trkpt lat="43.37738" lon="6.117">
        <ele>284.79998779297</ele>
        <time>2015-11-25T14:10:04Z</time>
      </trkpt>
      <trkpt lat="43.37737" lon="6.11702">
        <ele>284.79998779297</ele>
        <time>2015-11-25T14:10:05Z</time>
      </trkpt>
      <trkpt lat="43.37734" lon="6.11707">
        <ele>285</ele>
        <time>2015-11-25T14:10:07Z</time>
      </trkpt>
      <trkpt lat="43.37733" lon="6.1171">
        <ele>285.20001220703</ele>
        <time>2015-11-25T14:10:08Z</time>
      </trkpt>
      <trkpt lat="43.3773" lon="6.11718">
        <ele>285.20001220703</ele>
        <time>2015-11-25T14:10:11Z</time>
      </trkpt>
      <trkpt lat="43.37729" lon="6.1172">
        <ele>285.39999389648</ele>
        <time>2015-11-25T14:10:12Z</time>
      </trkpt>
      <trkpt lat="43.37727" lon="6.11722">
        <ele>285.39999389648</ele>
        <time>2015-11-25T14:10:13Z</time>
      </trkpt>
      <trkpt lat="43.37725" lon="6.11726">
        <ele>285.60000610352</ele>
        <time>2015-11-25T14:10:15Z</time>
      </trkpt>
      <trkpt lat="43.37723" lon="6.11729">
        <ele>286</ele>
        <time>2015-11-25T14:10:17Z</time>
      </trkpt>
      <trkpt lat="43.3772" lon="6.11732">
        <ele>286</ele>
        <time>2015-11-25T14:10:19Z</time>
      </trkpt>
      <trkpt lat="43.37719" lon="6.11736">
        <ele>286</ele>
        <time>2015-11-25T14:10:21Z</time>
      </trkpt>
      <trkpt lat="43.37716" lon="6.1174">
        <ele>286.20001220703</ele>
        <time>2015-11-25T14:10:23Z</time>
      </trkpt>
      <trkpt lat="43.37713" lon="6.11746">
        <ele>286.60000610352</ele>
        <time>2015-11-25T14:10:26Z</time>
      </trkpt>
      <trkpt lat="43.37711" lon="6.11751">
        <ele>286.60000610352</ele>
        <time>2015-11-25T14:10:29Z</time>
      </trkpt>
      <trkpt lat="43.37709" lon="6.11755">
        <ele>287.20001220703</ele>
        <time>2015-11-25T14:10:31Z</time>
      </trkpt>
      <trkpt lat="43.37708" lon="6.11759">
        <ele>287.39999389648</ele>
        <time>2015-11-25T14:10:33Z</time>
      </trkpt>
      <trkpt lat="43.37707" lon="6.11762">
        <ele>287.60000610352</ele>
        <time>2015-11-25T14:10:35Z</time>
      </trkpt>
      <trkpt lat="43.37705" lon="6.11766">
        <ele>287.60000610352</ele>
        <time>2015-11-25T14:10:37Z</time>
      </trkpt>
      <trkpt lat="43.37702" lon="6.11775">
        <ele>288.20001220703</ele>
        <time>2015-11-25T14:10:41Z</time>
      </trkpt>
      <trkpt lat="43.377" lon="6.11779">
        <ele>288.60000610352</ele>
        <time>2015-11-25T14:10:43Z</time>
      </trkpt>
      <trkpt lat="43.37698" lon="6.11783">
        <ele>288.60000610352</ele>
        <time>2015-11-25T14:10:45Z</time>
      </trkpt>
      <trkpt lat="43.37696" lon="6.11788">
        <ele>289</ele>
        <time>2015-11-25T14:10:47Z</time>
      </trkpt>
      <trkpt lat="43.37694" lon="6.11795">
        <ele>289.39999389648</ele>
        <time>2015-11-25T14:10:50Z</time>
      </trkpt>
      <trkpt lat="43.37691" lon="6.11803">
        <ele>290</ele>
        <time>2015-11-25T14:10:53Z</time>
      </trkpt>
      <trkpt lat="43.3769" lon="6.11808">
        <ele>290.60000610352</ele>
        <time>2015-11-25T14:10:55Z</time>
      </trkpt>
      <trkpt lat="43.37689" lon="6.1181">
        <ele>290.79998779297</ele>
        <time>2015-11-25T14:10:56Z</time>
      </trkpt>
      <trkpt lat="43.37688" lon="6.11813">
        <ele>291</ele>
        <time>2015-11-25T14:10:57Z</time>
      </trkpt>
      <trkpt lat="43.37687" lon="6.11817">
        <ele>291.39999389648</ele>
        <time>2015-11-25T14:10:59Z</time>
      </trkpt>
      <trkpt lat="43.37686" lon="6.1182">
        <ele>291.79998779297</ele>
        <time>2015-11-25T14:11:01Z</time>
      </trkpt>
      <trkpt lat="43.37685" lon="6.11822">
        <ele>292</ele>
        <time>2015-11-25T14:11:02Z</time>
      </trkpt>
      <trkpt lat="43.37685" lon="6.11824">
        <ele>292.20001220703</ele>
        <time>2015-11-25T14:11:03Z</time>
      </trkpt>
      <trkpt lat="43.37683" lon="6.11827">
        <ele>292.20001220703</ele>
        <time>2015-11-25T14:11:05Z</time>
      </trkpt>
      <trkpt lat="43.37682" lon="6.11831">
        <ele>292.60000610352</ele>
        <time>2015-11-25T14:11:07Z</time>
      </trkpt>
      <trkpt lat="43.37681" lon="6.11832">
        <ele>293</ele>
        <time>2015-11-25T14:11:08Z</time>
      </trkpt>
      <trkpt lat="43.3768" lon="6.11834">
        <ele>293</ele>
        <time>2015-11-25T14:11:09Z</time>
      </trkpt>
      <trkpt lat="43.37677" lon="6.11836">
        <ele>293</ele>
        <time>2015-11-25T14:11:11Z</time>
      </trkpt>
      <trkpt lat="43.37674" lon="6.11838">
        <ele>293.20001220703</ele>
        <time>2015-11-25T14:11:13Z</time>
      </trkpt>
      <trkpt lat="43.37672" lon="6.11841">
        <ele>293.79998779297</ele>
        <time>2015-11-25T14:11:15Z</time>
      </trkpt>
      <trkpt lat="43.3767" lon="6.11843">
        <ele>294.20001220703</ele>
        <time>2015-11-25T14:11:17Z</time>
      </trkpt>
      <trkpt lat="43.37668" lon="6.11848">
        <ele>294.79998779297</ele>
        <time>2015-11-25T14:11:19Z</time>
      </trkpt>
      <trkpt lat="43.37658" lon="6.11865">
        <ele>295.79998779297</ele>
        <time>2015-11-25T14:11:27Z</time>
      </trkpt>
      <trkpt lat="43.37657" lon="6.11867">
        <ele>296</ele>
        <time>2015-11-25T14:11:28Z</time>
      </trkpt>
      <trkpt lat="43.37656" lon="6.11869">
        <ele>296.20001220703</ele>
        <time>2015-11-25T14:11:29Z</time>
      </trkpt>
      <trkpt lat="43.37653" lon="6.11873">
        <ele>296.60000610352</ele>
        <time>2015-11-25T14:11:31Z</time>
      </trkpt>
      <trkpt lat="43.37651" lon="6.11877">
        <ele>296.79998779297</ele>
        <time>2015-11-25T14:11:33Z</time>
      </trkpt>
      <trkpt lat="43.37649" lon="6.11881">
        <ele>297.20001220703</ele>
        <time>2015-11-25T14:11:35Z</time>
      </trkpt>
      <trkpt lat="43.37644" lon="6.11888">
        <ele>298</ele>
        <time>2015-11-25T14:11:39Z</time>
      </trkpt>
      <trkpt lat="43.37642" lon="6.11892">
        <ele>298.20001220703</ele>
        <time>2015-11-25T14:11:41Z</time>
      </trkpt>
      <trkpt lat="43.37639" lon="6.11896">
        <ele>298.39999389648</ele>
        <time>2015-11-25T14:11:43Z</time>
      </trkpt>
      <trkpt lat="43.37636" lon="6.11899">
        <ele>298.79998779297</ele>
        <time>2015-11-25T14:11:45Z</time>
      </trkpt>
      <trkpt lat="43.37634" lon="6.11903">
        <ele>299.39999389648</ele>
        <time>2015-11-25T14:11:47Z</time>
      </trkpt>
      <trkpt lat="43.37631" lon="6.11906">
        <ele>300.20001220703</ele>
        <time>2015-11-25T14:11:49Z</time>
      </trkpt>
      <trkpt lat="43.3763" lon="6.1191">
        <ele>301</ele>
        <time>2015-11-25T14:11:51Z</time>
      </trkpt>
      <trkpt lat="43.37629" lon="6.11913">
        <ele>301.20001220703</ele>
        <time>2015-11-25T14:11:53Z</time>
      </trkpt>
      <trkpt lat="43.3763" lon="6.11915">
        <ele>301</ele>
        <time>2015-11-25T14:11:55Z</time>
      </trkpt>
      <trkpt lat="43.37629" lon="6.11916">
        <ele>301</ele>
        <time>2015-11-25T14:11:57Z</time>
      </trkpt>
      <trkpt lat="43.37629" lon="6.11916">
        <ele>301</ele>
        <time>2015-11-25T14:11:59Z</time>
      </trkpt>
      <trkpt lat="43.37629" lon="6.11917">
        <ele>301</ele>
        <time>2015-11-25T14:12:01Z</time>
      </trkpt>
      <trkpt lat="43.37629" lon="6.11917">
        <ele>301.20001220703</ele>
        <time>2015-11-25T14:12:03Z</time>
      </trkpt>
      <trkpt lat="43.37629" lon="6.11917">
        <ele>301.20001220703</ele>
        <time>2015-11-25T14:12:05Z</time>
      </trkpt>
      <trkpt lat="43.37629" lon="6.11917">
        <ele>301.20001220703</ele>
        <time>2015-11-25T14:12:07Z</time>
      </trkpt>
      <trkpt lat="43.37629" lon="6.11917">
        <ele>301.20001220703</ele>
        <time>2015-11-25T14:12:09Z</time>
      </trkpt>
      <trkpt lat="43.37629" lon="6.11917">
        <ele>301.20001220703</ele>
        <time>2015-11-25T14:12:11Z</time>
      </trkpt>
      <trkpt lat="43.37629" lon="6.11917">
        <ele>301.20001220703</ele>
        <time>2015-11-25T14:12:13Z</time>
      </trkpt>
      <trkpt lat="43.37629" lon="6.11917">
        <ele>300.79998779297</ele>
        <time>2015-11-25T14:12:15Z</time>
      </trkpt>
      <trkpt lat="43.37629" lon="6.11917">
        <ele>300.60000610352</ele>
        <time>2015-11-25T14:12:17Z</time>
      </trkpt>
      <trkpt lat="43.37629" lon="6.11917">
        <ele>300.60000610352</ele>
        <time>2015-11-25T14:12:19Z</time>
      </trkpt>
      <trkpt lat="43.37629" lon="6.11917">
        <ele>300.60000610352</ele>
        <time>2015-11-25T14:12:21Z</time>
      </trkpt>
      <trkpt lat="43.37629" lon="6.11917">
        <ele>300.79998779297</ele>
        <time>2015-11-25T14:12:23Z</time>
      </trkpt>
      <trkpt lat="43.37629" lon="6.11917">
        <ele>300.60000610352</ele>
        <time>2015-11-25T14:12:27Z</time>
      </trkpt>
      <trkpt lat="43.37629" lon="6.11917">
        <ele>300.60000610352</ele>
        <time>2015-11-25T14:12:29Z</time>
      </trkpt>
      <trkpt lat="43.37629" lon="6.11917">
        <ele>300.60000610352</ele>
        <time>2015-11-25T14:12:33Z</time>
      </trkpt>
      <trkpt lat="43.37629" lon="6.11917">
        <ele>300.60000610352</ele>
        <time>2015-11-25T14:12:35Z</time>
      </trkpt>
      <trkpt lat="43.37629" lon="6.11917">
        <ele>300.60000610352</ele>
        <time>2015-11-25T14:12:37Z</time>
      </trkpt>
      <trkpt lat="43.37629" lon="6.11917">
        <ele>300.60000610352</ele>
        <time>2015-11-25T14:12:39Z</time>
      </trkpt>
      <trkpt lat="43.37629" lon="6.11917">
        <ele>300.60000610352</ele>
        <time>2015-11-25T14:12:41Z</time>
      </trkpt>
      <trkpt lat="43.37629" lon="6.11917">
        <ele>300.39999389648</ele>
        <time>2015-11-25T14:12:42Z</time>
      </trkpt>
      <trkpt lat="43.37629" lon="6.11917">
        <ele>301</ele>
        <time>2015-11-25T14:12:47Z</time>
      </trkpt>
      <trkpt lat="43.37629" lon="6.11917">
        <ele>301</ele>
        <time>2015-11-25T14:12:53Z</time>
      </trkpt>
      <trkpt lat="43.37629" lon="6.11917">
        <ele>300.60000610352</ele>
        <time>2015-11-25T14:12:57Z</time>
      </trkpt>
      <trkpt lat="43.37629" lon="6.11917">
        <ele>300.60000610352</ele>
        <time>2015-11-25T14:12:59Z</time>
      </trkpt>
      <trkpt lat="43.37629" lon="6.11917">
        <ele>300.79998779297</ele>
        <time>2015-11-25T14:13:03Z</time>
      </trkpt>
      <trkpt lat="43.37629" lon="6.11917">
        <ele>300.79998779297</ele>
        <time>2015-11-25T14:13:07Z</time>
      </trkpt>
      <trkpt lat="43.37629" lon="6.11917">
        <ele>300.79998779297</ele>
        <time>2015-11-25T14:13:09Z</time>
      </trkpt>
      <trkpt lat="43.37629" lon="6.11917">
        <ele>301.20001220703</ele>
        <time>2015-11-25T14:13:11Z</time>
      </trkpt>
      <trkpt lat="43.37629" lon="6.11917">
        <ele>301.20001220703</ele>
        <time>2015-11-25T14:13:15Z</time>
      </trkpt>
      <trkpt lat="43.37629" lon="6.11917">
        <ele>301</ele>
        <time>2015-11-25T14:13:17Z</time>
      </trkpt>
      <trkpt lat="43.37629" lon="6.11917">
        <ele>301</ele>
        <time>2015-11-25T14:13:19Z</time>
      </trkpt>
      <trkpt lat="43.37629" lon="6.11917">
        <ele>300.79998779297</ele>
        <time>2015-11-25T14:13:21Z</time>
      </trkpt>
      <trkpt lat="43.37629" lon="6.11917">
        <ele>300.60000610352</ele>
        <time>2015-11-25T14:13:23Z</time>
      </trkpt>
      <trkpt lat="43.37629" lon="6.11917">
        <ele>300.20001220703</ele>
        <time>2015-11-25T14:13:29Z</time>
      </trkpt>
      <trkpt lat="43.37629" lon="6.11917">
        <ele>300.39999389648</ele>
        <time>2015-11-25T14:13:49Z</time>
      </trkpt>
      <trkpt lat="43.37629" lon="6.11917">
        <ele>300.39999389648</ele>
        <time>2015-11-25T14:13:51Z</time>
      </trkpt>
      <trkpt lat="43.37629" lon="6.11917">
        <ele>301.39999389648</ele>
        <time>2015-11-25T14:13:55Z</time>
      </trkpt>
      <trkpt lat="43.37629" lon="6.11917">
        <ele>301</ele>
        <time>2015-11-25T14:14:03Z</time>
      </trkpt>
      <trkpt lat="43.37629" lon="6.11917">
        <ele>300.79998779297</ele>
        <time>2015-11-25T14:14:11Z</time>
      </trkpt>
      <trkpt lat="43.37629" lon="6.11917">
        <ele>301</ele>
        <time>2015-11-25T14:14:15Z</time>
      </trkpt>
      <trkpt lat="43.37629" lon="6.11917">
        <ele>301</ele>
        <time>2015-11-25T14:14:17Z</time>
      </trkpt>
      <trkpt lat="43.37629" lon="6.11917">
        <ele>300.79998779297</ele>
        <time>2015-11-25T14:14:19Z</time>
      </trkpt>
      <trkpt lat="43.37629" lon="6.11917">
        <ele>301</ele>
        <time>2015-11-25T14:14:21Z</time>
      </trkpt>
      <trkpt lat="43.37629" lon="6.11917">
        <ele>300.79998779297</ele>
        <time>2015-11-25T14:14:23Z</time>
      </trkpt>
      <trkpt lat="43.37629" lon="6.11917">
        <ele>300.79998779297</ele>
        <time>2015-11-25T14:14:37Z</time>
      </trkpt>
      <trkpt lat="43.37629" lon="6.11917">
        <ele>300.60000610352</ele>
        <time>2015-11-25T14:14:43Z</time>
      </trkpt>
      <trkpt lat="43.37629" lon="6.11917">
        <ele>300.60000610352</ele>
        <time>2015-11-25T14:14:47Z</time>
      </trkpt>
      <trkpt lat="43.37629" lon="6.11917">
        <ele>301</ele>
        <time>2015-11-25T14:14:49Z</time>
      </trkpt>
      <trkpt lat="43.37629" lon="6.11917">
        <ele>301</ele>
        <time>2015-11-25T14:14:50Z</time>
      </trkpt>
      <trkpt lat="43.37629" lon="6.11916">
        <ele>301</ele>
        <time>2015-11-25T14:14:51Z</time>
      </trkpt>
      <trkpt lat="43.37629" lon="6.11917">
        <ele>301.20001220703</ele>
        <time>2015-11-25T14:14:53Z</time>
      </trkpt>
      <trkpt lat="43.37629" lon="6.11917">
        <ele>301.20001220703</ele>
        <time>2015-11-25T14:14:55Z</time>
      </trkpt>
      <trkpt lat="43.37629" lon="6.11917">
        <ele>301</ele>
        <time>2015-11-25T14:14:59Z</time>
      </trkpt>
      <trkpt lat="43.37629" lon="6.11917">
        <ele>300.60000610352</ele>
        <time>2015-11-25T14:15:01Z</time>
      </trkpt>
      <trkpt lat="43.37629" lon="6.11917">
        <ele>300.60000610352</ele>
        <time>2015-11-25T14:15:02Z</time>
      </trkpt>
      <trkpt lat="43.37629" lon="6.11917">
        <ele>300.60000610352</ele>
        <time>2015-11-25T14:15:03Z</time>
      </trkpt>
      <trkpt lat="43.37629" lon="6.11917">
        <ele>301</ele>
        <time>2015-11-25T14:15:05Z</time>
      </trkpt>
      <trkpt lat="43.37629" lon="6.11917">
        <ele>301.20001220703</ele>
        <time>2015-11-25T14:15:07Z</time>
      </trkpt>
      <trkpt lat="43.37629" lon="6.11917">
        <ele>301.20001220703</ele>
        <time>2015-11-25T14:15:09Z</time>
      </trkpt>
      <trkpt lat="43.37629" lon="6.11917">
        <ele>301.60000610352</ele>
        <time>2015-11-25T14:15:11Z</time>
      </trkpt>
      <trkpt lat="43.37629" lon="6.11917">
        <ele>301.60000610352</ele>
        <time>2015-11-25T14:15:13Z</time>
      </trkpt>
      <trkpt lat="43.37629" lon="6.11917">
        <ele>301.39999389648</ele>
        <time>2015-11-25T14:15:15Z</time>
      </trkpt>
      <trkpt lat="43.37629" lon="6.11917">
        <ele>301.20001220703</ele>
        <time>2015-11-25T14:15:17Z</time>
      </trkpt>
      <trkpt lat="43.37628" lon="6.11918">
        <ele>301</ele>
        <time>2015-11-25T14:15:20Z</time>
      </trkpt>
      <trkpt lat="43.37628" lon="6.11918">
        <ele>301.39999389648</ele>
        <time>2015-11-25T14:15:23Z</time>
      </trkpt>
      <trkpt lat="43.37629" lon="6.11919">
        <ele>301.39999389648</ele>
        <time>2015-11-25T14:15:25Z</time>
      </trkpt>
      <trkpt lat="43.37631" lon="6.11922">
        <ele>301.39999389648</ele>
        <time>2015-11-25T14:15:27Z</time>
      </trkpt>
      <trkpt lat="43.37632" lon="6.11924">
        <ele>301.39999389648</ele>
        <time>2015-11-25T14:15:28Z</time>
      </trkpt>
      <trkpt lat="43.37633" lon="6.11927">
        <ele>301.39999389648</ele>
        <time>2015-11-25T14:15:29Z</time>
      </trkpt>
      <trkpt lat="43.37635" lon="6.11932">
        <ele>301.79998779297</ele>
        <time>2015-11-25T14:15:31Z</time>
      </trkpt>
      <trkpt lat="43.37637" lon="6.11938">
        <ele>302</ele>
        <time>2015-11-25T14:15:33Z</time>
      </trkpt>
      <trkpt lat="43.37638" lon="6.11944">
        <ele>301.79998779297</ele>
        <time>2015-11-25T14:15:35Z</time>
      </trkpt>
      <trkpt lat="43.3764" lon="6.11949">
        <ele>302.20001220703</ele>
        <time>2015-11-25T14:15:37Z</time>
      </trkpt>
      <trkpt lat="43.3764" lon="6.11954">
        <ele>302.60000610352</ele>
        <time>2015-11-25T14:15:39Z</time>
      </trkpt>
      <trkpt lat="43.37641" lon="6.11959">
        <ele>302.79998779297</ele>
        <time>2015-11-25T14:15:41Z</time>
      </trkpt>
      <trkpt lat="43.37641" lon="6.11964">
        <ele>303.39999389648</ele>
        <time>2015-11-25T14:15:43Z</time>
      </trkpt>
      <trkpt lat="43.3764" lon="6.11969">
        <ele>303.79998779297</ele>
        <time>2015-11-25T14:15:45Z</time>
      </trkpt>
      <trkpt lat="43.3764" lon="6.11972">
        <ele>304.39999389648</ele>
        <time>2015-11-25T14:15:46Z</time>
      </trkpt>
      <trkpt lat="43.37639" lon="6.11975">
        <ele>305</ele>
        <time>2015-11-25T14:15:47Z</time>
      </trkpt>
      <trkpt lat="43.37638" lon="6.11981">
        <ele>305.39999389648</ele>
        <time>2015-11-25T14:15:49Z</time>
      </trkpt>
      <trkpt lat="43.37637" lon="6.11986">
        <ele>305.60000610352</ele>
        <time>2015-11-25T14:15:51Z</time>
      </trkpt>
      <trkpt lat="43.37637" lon="6.11991">
        <ele>306</ele>
        <time>2015-11-25T14:15:53Z</time>
      </trkpt>
      <trkpt lat="43.37635" lon="6.11996">
        <ele>306.60000610352</ele>
        <time>2015-11-25T14:15:55Z</time>
      </trkpt>
      <trkpt lat="43.37634" lon="6.11998">
        <ele>306.60000610352</ele>
        <time>2015-11-25T14:15:56Z</time>
      </trkpt>
      <trkpt lat="43.37634" lon="6.12">
        <ele>306.79998779297</ele>
        <time>2015-11-25T14:15:57Z</time>
      </trkpt>
      <trkpt lat="43.37633" lon="6.12005">
        <ele>306.60000610352</ele>
        <time>2015-11-25T14:15:59Z</time>
      </trkpt>
      <trkpt lat="43.37632" lon="6.12007">
        <ele>306.60000610352</ele>
        <time>2015-11-25T14:16:00Z</time>
      </trkpt>
      <trkpt lat="43.37632" lon="6.12009">
        <ele>306.79998779297</ele>
        <time>2015-11-25T14:16:01Z</time>
      </trkpt>
      <trkpt lat="43.37632" lon="6.12013">
        <ele>307.20001220703</ele>
        <time>2015-11-25T14:16:03Z</time>
      </trkpt>
      <trkpt lat="43.37631" lon="6.12016">
        <ele>307.39999389648</ele>
        <time>2015-11-25T14:16:04Z</time>
      </trkpt>
      <trkpt lat="43.37631" lon="6.12018">
        <ele>307.60000610352</ele>
        <time>2015-11-25T14:16:05Z</time>
      </trkpt>
      <trkpt lat="43.37631" lon="6.1202">
        <ele>307.79998779297</ele>
        <time>2015-11-25T14:16:06Z</time>
      </trkpt>
      <trkpt lat="43.3763" lon="6.12022">
        <ele>307.79998779297</ele>
        <time>2015-11-25T14:16:07Z</time>
      </trkpt>
      <trkpt lat="43.3763" lon="6.12023">
        <ele>308</ele>
        <time>2015-11-25T14:16:08Z</time>
      </trkpt>
      <trkpt lat="43.37629" lon="6.12025">
        <ele>308.20001220703</ele>
        <time>2015-11-25T14:16:09Z</time>
      </trkpt>
      <trkpt lat="43.37629" lon="6.12029">
        <ele>308.39999389648</ele>
        <time>2015-11-25T14:16:11Z</time>
      </trkpt>
      <trkpt lat="43.37627" lon="6.12033">
        <ele>308.39999389648</ele>
        <time>2015-11-25T14:16:13Z</time>
      </trkpt>
      <trkpt lat="43.37626" lon="6.12037">
        <ele>308.60000610352</ele>
        <time>2015-11-25T14:16:15Z</time>
      </trkpt>
      <trkpt lat="43.37625" lon="6.12041">
        <ele>309.20001220703</ele>
        <time>2015-11-25T14:16:17Z</time>
      </trkpt>
      <trkpt lat="43.37623" lon="6.12044">
        <ele>309.60000610352</ele>
        <time>2015-11-25T14:16:19Z</time>
      </trkpt>
      <trkpt lat="43.37622" lon="6.12048">
        <ele>309.79998779297</ele>
        <time>2015-11-25T14:16:21Z</time>
      </trkpt>
      <trkpt lat="43.37622" lon="6.12049">
        <ele>309.79998779297</ele>
        <time>2015-11-25T14:16:22Z</time>
      </trkpt>
      <trkpt lat="43.37622" lon="6.1205">
        <ele>310.20001220703</ele>
        <time>2015-11-25T14:16:23Z</time>
      </trkpt>
      <trkpt lat="43.37621" lon="6.12054">
        <ele>310.20001220703</ele>
        <time>2015-11-25T14:16:25Z</time>
      </trkpt>
      <trkpt lat="43.3762" lon="6.12058">
        <ele>310.60000610352</ele>
        <time>2015-11-25T14:16:27Z</time>
      </trkpt>
      <trkpt lat="43.37619" lon="6.12062">
        <ele>310.79998779297</ele>
        <time>2015-11-25T14:16:29Z</time>
      </trkpt>
      <trkpt lat="43.37617" lon="6.12067">
        <ele>310.79998779297</ele>
        <time>2015-11-25T14:16:31Z</time>
      </trkpt>
      <trkpt lat="43.37617" lon="6.12072">
        <ele>310.79998779297</ele>
        <time>2015-11-25T14:16:33Z</time>
      </trkpt>
      <trkpt lat="43.37617" lon="6.12074">
        <ele>311</ele>
        <time>2015-11-25T14:16:34Z</time>
      </trkpt>
      <trkpt lat="43.37616" lon="6.12076">
        <ele>311</ele>
        <time>2015-11-25T14:16:35Z</time>
      </trkpt>
      <trkpt lat="43.37615" lon="6.12078">
        <ele>311</ele>
        <time>2015-11-25T14:16:36Z</time>
      </trkpt>
      <trkpt lat="43.37613" lon="6.12084">
        <ele>311</ele>
        <time>2015-11-25T14:16:39Z</time>
      </trkpt>
      <trkpt lat="43.3761" lon="6.1209">
        <ele>311.20001220703</ele>
        <time>2015-11-25T14:16:41Z</time>
      </trkpt>
      <trkpt lat="43.37609" lon="6.12092">
        <ele>311.20001220703</ele>
        <time>2015-11-25T14:16:42Z</time>
      </trkpt>
      <trkpt lat="43.37608" lon="6.12094">
        <ele>311.60000610352</ele>
        <time>2015-11-25T14:16:43Z</time>
      </trkpt>
      <trkpt lat="43.37605" lon="6.121">
        <ele>312</ele>
        <time>2015-11-25T14:16:47Z</time>
      </trkpt>
      <trkpt lat="43.37603" lon="6.12103">
        <ele>312.20001220703</ele>
        <time>2015-11-25T14:16:49Z</time>
      </trkpt>
      <trkpt lat="43.37601" lon="6.12103">
        <ele>312.60000610352</ele>
        <time>2015-11-25T14:16:50Z</time>
      </trkpt>
      <trkpt lat="43.376" lon="6.12104">
        <ele>312.79998779297</ele>
        <time>2015-11-25T14:16:51Z</time>
      </trkpt>
      <trkpt lat="43.37598" lon="6.12105">
        <ele>313.39999389648</ele>
        <time>2015-11-25T14:16:53Z</time>
      </trkpt>
      <trkpt lat="43.37598" lon="6.12105">
        <ele>313.60000610352</ele>
        <time>2015-11-25T14:16:54Z</time>
      </trkpt>
      <trkpt lat="43.37595" lon="6.12109">
        <ele>314.20001220703</ele>
        <time>2015-11-25T14:16:57Z</time>
      </trkpt>
      <trkpt lat="43.37593" lon="6.12111">
        <ele>314.60000610352</ele>
        <time>2015-11-25T14:16:59Z</time>
      </trkpt>
      <trkpt lat="43.37592" lon="6.12113">
        <ele>315</ele>
        <time>2015-11-25T14:17:00Z</time>
      </trkpt>
      <trkpt lat="43.37587" lon="6.1212">
        <ele>315.60000610352</ele>
        <time>2015-11-25T14:17:03Z</time>
      </trkpt>
      <trkpt lat="43.37584" lon="6.12126">
        <ele>315.79998779297</ele>
        <time>2015-11-25T14:17:05Z</time>
      </trkpt>
      <trkpt lat="43.3758" lon="6.12134">
        <ele>315.79998779297</ele>
        <time>2015-11-25T14:17:09Z</time>
      </trkpt>
      <trkpt lat="43.37579" lon="6.12136">
        <ele>315.79998779297</ele>
        <time>2015-11-25T14:17:10Z</time>
      </trkpt>
      <trkpt lat="43.37578" lon="6.12138">
        <ele>315.60000610352</ele>
        <time>2015-11-25T14:17:11Z</time>
      </trkpt>
      <trkpt lat="43.37576" lon="6.12143">
        <ele>315.79998779297</ele>
        <time>2015-11-25T14:17:13Z</time>
      </trkpt>
      <trkpt lat="43.37573" lon="6.12145">
        <ele>316</ele>
        <time>2015-11-25T14:17:15Z</time>
      </trkpt>
      <trkpt lat="43.37572" lon="6.12146">
        <ele>316</ele>
        <time>2015-11-25T14:17:16Z</time>
      </trkpt>
      <trkpt lat="43.37571" lon="6.12147">
        <ele>316.20001220703</ele>
        <time>2015-11-25T14:17:17Z</time>
      </trkpt>
      <trkpt lat="43.37569" lon="6.1215">
        <ele>316.20001220703</ele>
        <time>2015-11-25T14:17:19Z</time>
      </trkpt>
      <trkpt lat="43.37566" lon="6.12154">
        <ele>316.39999389648</ele>
        <time>2015-11-25T14:17:21Z</time>
      </trkpt>
      <trkpt lat="43.37562" lon="6.12158">
        <ele>316.79998779297</ele>
        <time>2015-11-25T14:17:25Z</time>
      </trkpt>
      <trkpt lat="43.3756" lon="6.1216">
        <ele>317.39999389648</ele>
        <time>2015-11-25T14:17:27Z</time>
      </trkpt>
      <trkpt lat="43.3756" lon="6.12161">
        <ele>317.60000610352</ele>
        <time>2015-11-25T14:17:28Z</time>
      </trkpt>
      <trkpt lat="43.37558" lon="6.12163">
        <ele>317.60000610352</ele>
        <time>2015-11-25T14:17:29Z</time>
      </trkpt>
      <trkpt lat="43.37556" lon="6.12166">
        <ele>317.79998779297</ele>
        <time>2015-11-25T14:17:31Z</time>
      </trkpt>
      <trkpt lat="43.37553" lon="6.12169">
        <ele>317.79998779297</ele>
        <time>2015-11-25T14:17:33Z</time>
      </trkpt>
      <trkpt lat="43.37551" lon="6.12173">
        <ele>318.20001220703</ele>
        <time>2015-11-25T14:17:35Z</time>
      </trkpt>
      <trkpt lat="43.3755" lon="6.12175">
        <ele>318.39999389648</ele>
        <time>2015-11-25T14:17:36Z</time>
      </trkpt>
      <trkpt lat="43.3755" lon="6.12176">
        <ele>318.39999389648</ele>
        <time>2015-11-25T14:17:37Z</time>
      </trkpt>
      <trkpt lat="43.37549" lon="6.12177">
        <ele>318.79998779297</ele>
        <time>2015-11-25T14:17:38Z</time>
      </trkpt>
      <trkpt lat="43.37548" lon="6.12179">
        <ele>319</ele>
        <time>2015-11-25T14:17:39Z</time>
      </trkpt>
      <trkpt lat="43.37546" lon="6.12181">
        <ele>319.20001220703</ele>
        <time>2015-11-25T14:17:40Z</time>
      </trkpt>
      <trkpt lat="43.37545" lon="6.12182">
        <ele>319</ele>
        <time>2015-11-25T14:17:41Z</time>
      </trkpt>
      <trkpt lat="43.37543" lon="6.12186">
        <ele>319.39999389648</ele>
        <time>2015-11-25T14:17:43Z</time>
      </trkpt>
      <trkpt lat="43.3754" lon="6.12191">
        <ele>319.79998779297</ele>
        <time>2015-11-25T14:17:45Z</time>
      </trkpt>
      <trkpt lat="43.37539" lon="6.12193">
        <ele>320</ele>
        <time>2015-11-25T14:17:46Z</time>
      </trkpt>
      <trkpt lat="43.37537" lon="6.12196">
        <ele>320</ele>
        <time>2015-11-25T14:17:47Z</time>
      </trkpt>
      <trkpt lat="43.37535" lon="6.12199">
        <ele>320.20001220703</ele>
        <time>2015-11-25T14:17:49Z</time>
      </trkpt>
      <trkpt lat="43.37533" lon="6.12203">
        <ele>320.20001220703</ele>
        <time>2015-11-25T14:17:51Z</time>
      </trkpt>
      <trkpt lat="43.37532" lon="6.12205">
        <ele>320.39999389648</ele>
        <time>2015-11-25T14:17:52Z</time>
      </trkpt>
      <trkpt lat="43.37531" lon="6.12208">
        <ele>320.39999389648</ele>
        <time>2015-11-25T14:17:53Z</time>
      </trkpt>
      <trkpt lat="43.37531" lon="6.12212">
        <ele>320.39999389648</ele>
        <time>2015-11-25T14:17:55Z</time>
      </trkpt>
      <trkpt lat="43.37529" lon="6.12218">
        <ele>320.39999389648</ele>
        <time>2015-11-25T14:17:57Z</time>
      </trkpt>
      <trkpt lat="43.37528" lon="6.1222">
        <ele>320.39999389648</ele>
        <time>2015-11-25T14:17:58Z</time>
      </trkpt>
      <trkpt lat="43.37528" lon="6.12223">
        <ele>320.60000610352</ele>
        <time>2015-11-25T14:17:59Z</time>
      </trkpt>
      <trkpt lat="43.37528" lon="6.12229">
        <ele>320.60000610352</ele>
        <time>2015-11-25T14:18:01Z</time>
      </trkpt>
      <trkpt lat="43.37528" lon="6.12241">
        <ele>320.39999389648</ele>
        <time>2015-11-25T14:18:05Z</time>
      </trkpt>
      <trkpt lat="43.37527" lon="6.12247">
        <ele>320.60000610352</ele>
        <time>2015-11-25T14:18:07Z</time>
      </trkpt>
      <trkpt lat="43.37527" lon="6.1225">
        <ele>320.79998779297</ele>
        <time>2015-11-25T14:18:08Z</time>
      </trkpt>
      <trkpt lat="43.37527" lon="6.12252">
        <ele>320.79998779297</ele>
        <time>2015-11-25T14:18:09Z</time>
      </trkpt>
      <trkpt lat="43.37528" lon="6.12255">
        <ele>320.79998779297</ele>
        <time>2015-11-25T14:18:11Z</time>
      </trkpt>
      <trkpt lat="43.37527" lon="6.1226">
        <ele>320.79998779297</ele>
        <time>2015-11-25T14:18:13Z</time>
      </trkpt>
      <trkpt lat="43.37527" lon="6.12263">
        <ele>321.20001220703</ele>
        <time>2015-11-25T14:18:14Z</time>
      </trkpt>
      <trkpt lat="43.37527" lon="6.12266">
        <ele>321.39999389648</ele>
        <time>2015-11-25T14:18:15Z</time>
      </trkpt>
      <trkpt lat="43.37526" lon="6.12272">
        <ele>321.60000610352</ele>
        <time>2015-11-25T14:18:17Z</time>
      </trkpt>
      <trkpt lat="43.37526" lon="6.12277">
        <ele>321.79998779297</ele>
        <time>2015-11-25T14:18:19Z</time>
      </trkpt>
      <trkpt lat="43.37527" lon="6.12282">
        <ele>322.20001220703</ele>
        <time>2015-11-25T14:18:21Z</time>
      </trkpt>
      <trkpt lat="43.37527" lon="6.12284">
        <ele>322.39999389648</ele>
        <time>2015-11-25T14:18:22Z</time>
      </trkpt>
      <trkpt lat="43.37527" lon="6.12286">
        <ele>322.60000610352</ele>
        <time>2015-11-25T14:18:23Z</time>
      </trkpt>
      <trkpt lat="43.37527" lon="6.12291">
        <ele>322.79998779297</ele>
        <time>2015-11-25T14:18:25Z</time>
      </trkpt>
      <trkpt lat="43.37526" lon="6.12294">
        <ele>323.20001220703</ele>
        <time>2015-11-25T14:18:26Z</time>
      </trkpt>
      <trkpt lat="43.37524" lon="6.12297">
        <ele>323.39999389648</ele>
        <time>2015-11-25T14:18:27Z</time>
      </trkpt>
      <trkpt lat="43.37523" lon="6.12302">
        <ele>323.60000610352</ele>
        <time>2015-11-25T14:18:29Z</time>
      </trkpt>
      <trkpt lat="43.37522" lon="6.12307">
        <ele>323.39999389648</ele>
        <time>2015-11-25T14:18:31Z</time>
      </trkpt>
      <trkpt lat="43.37522" lon="6.12309">
        <ele>323.60000610352</ele>
        <time>2015-11-25T14:18:32Z</time>
      </trkpt>
      <trkpt lat="43.37521" lon="6.12311">
        <ele>323.79998779297</ele>
        <time>2015-11-25T14:18:33Z</time>
      </trkpt>
      <trkpt lat="43.3752" lon="6.12317">
        <ele>323.79998779297</ele>
        <time>2015-11-25T14:18:35Z</time>
      </trkpt>
      <trkpt lat="43.37519" lon="6.12322">
        <ele>324.20001220703</ele>
        <time>2015-11-25T14:18:37Z</time>
      </trkpt>
      <trkpt lat="43.37519" lon="6.12326">
        <ele>324.60000610352</ele>
        <time>2015-11-25T14:18:39Z</time>
      </trkpt>
      <trkpt lat="43.37519" lon="6.12328">
        <ele>325</ele>
        <time>2015-11-25T14:18:40Z</time>
      </trkpt>
      <trkpt lat="43.37518" lon="6.12333">
        <ele>325.60000610352</ele>
        <time>2015-11-25T14:18:42Z</time>
      </trkpt>
      <trkpt lat="43.37518" lon="6.12336">
        <ele>325.79998779297</ele>
        <time>2015-11-25T14:18:43Z</time>
      </trkpt>
      <trkpt lat="43.37517" lon="6.1234">
        <ele>325.79998779297</ele>
        <time>2015-11-25T14:18:45Z</time>
      </trkpt>
      <trkpt lat="43.37518" lon="6.12343">
        <ele>326.20001220703</ele>
        <time>2015-11-25T14:18:47Z</time>
      </trkpt>
      <trkpt lat="43.37517" lon="6.12346">
        <ele>326.39999389648</ele>
        <time>2015-11-25T14:18:49Z</time>
      </trkpt>
      <trkpt lat="43.37517" lon="6.12348">
        <ele>326.79998779297</ele>
        <time>2015-11-25T14:18:51Z</time>
      </trkpt>
      <trkpt lat="43.37517" lon="6.12351">
        <ele>327.20001220703</ele>
        <time>2015-11-25T14:18:53Z</time>
      </trkpt>
      <trkpt lat="43.37516" lon="6.12352">
        <ele>327.20001220703</ele>
        <time>2015-11-25T14:18:54Z</time>
      </trkpt>
      <trkpt lat="43.37516" lon="6.12354">
        <ele>327.20001220703</ele>
        <time>2015-11-25T14:18:55Z</time>
      </trkpt>
      <trkpt lat="43.37517" lon="6.12358">
        <ele>327</ele>
        <time>2015-11-25T14:18:57Z</time>
      </trkpt>
      <trkpt lat="43.37517" lon="6.12362">
        <ele>327.60000610352</ele>
        <time>2015-11-25T14:18:59Z</time>
      </trkpt>
      <trkpt lat="43.37517" lon="6.12365">
        <ele>328</ele>
        <time>2015-11-25T14:19:01Z</time>
      </trkpt>
      <trkpt lat="43.37518" lon="6.12368">
        <ele>328.39999389648</ele>
        <time>2015-11-25T14:19:03Z</time>
      </trkpt>
      <trkpt lat="43.37518" lon="6.12374">
        <ele>329</ele>
        <time>2015-11-25T14:19:06Z</time>
      </trkpt>
      <trkpt lat="43.37518" lon="6.12375">
        <ele>329.20001220703</ele>
        <time>2015-11-25T14:19:07Z</time>
      </trkpt>
      <trkpt lat="43.37519" lon="6.12377">
        <ele>329.20001220703</ele>
        <time>2015-11-25T14:19:08Z</time>
      </trkpt>
      <trkpt lat="43.3752" lon="6.12378">
        <ele>329.20001220703</ele>
        <time>2015-11-25T14:19:09Z</time>
      </trkpt>
      <trkpt lat="43.37523" lon="6.1238">
        <ele>329</ele>
        <time>2015-11-25T14:19:11Z</time>
      </trkpt>
      <trkpt lat="43.37525" lon="6.12382">
        <ele>328.79998779297</ele>
        <time>2015-11-25T14:19:13Z</time>
      </trkpt>
      <trkpt lat="43.37527" lon="6.12385">
        <ele>328.39999389648</ele>
        <time>2015-11-25T14:19:15Z</time>
      </trkpt>
      <trkpt lat="43.37529" lon="6.12388">
        <ele>328.20001220703</ele>
        <time>2015-11-25T14:19:17Z</time>
      </trkpt>
      <trkpt lat="43.37532" lon="6.1239">
        <ele>328.39999389648</ele>
        <time>2015-11-25T14:19:19Z</time>
      </trkpt>
      <trkpt lat="43.37535" lon="6.12392">
        <ele>328.60000610352</ele>
        <time>2015-11-25T14:19:21Z</time>
      </trkpt>
      <trkpt lat="43.37538" lon="6.12395">
        <ele>328.79998779297</ele>
        <time>2015-11-25T14:19:23Z</time>
      </trkpt>
      <trkpt lat="43.3754" lon="6.12397">
        <ele>329</ele>
        <time>2015-11-25T14:19:24Z</time>
      </trkpt>
      <trkpt lat="43.37541" lon="6.12398">
        <ele>329.20001220703</ele>
        <time>2015-11-25T14:19:25Z</time>
      </trkpt>
      <trkpt lat="43.37545" lon="6.12404">
        <ele>330</ele>
        <time>2015-11-25T14:19:28Z</time>
      </trkpt>
      <trkpt lat="43.37548" lon="6.12411">
        <ele>330.79998779297</ele>
        <time>2015-11-25T14:19:31Z</time>
      </trkpt>
      <trkpt lat="43.37548" lon="6.12414">
        <ele>331</ele>
        <time>2015-11-25T14:19:32Z</time>
      </trkpt>
      <trkpt lat="43.37549" lon="6.12416">
        <ele>331.39999389648</ele>
        <time>2015-11-25T14:19:33Z</time>
      </trkpt>
      <trkpt lat="43.37548" lon="6.12423">
        <ele>331.79998779297</ele>
        <time>2015-11-25T14:19:35Z</time>
      </trkpt>
      <trkpt lat="43.37548" lon="6.12424">
        <ele>332.39999389648</ele>
        <time>2015-11-25T14:19:36Z</time>
      </trkpt>
      <trkpt lat="43.37548" lon="6.12426">
        <ele>332.79998779297</ele>
        <time>2015-11-25T14:19:37Z</time>
      </trkpt>
      <trkpt lat="43.37549" lon="6.12427">
        <ele>333.39999389648</ele>
        <time>2015-11-25T14:19:38Z</time>
      </trkpt>
      <trkpt lat="43.3755" lon="6.12429">
        <ele>333.79998779297</ele>
        <time>2015-11-25T14:19:39Z</time>
      </trkpt>
      <trkpt lat="43.37553" lon="6.1243">
        <ele>334.39999389648</ele>
        <time>2015-11-25T14:19:41Z</time>
      </trkpt>
      <trkpt lat="43.37553" lon="6.12433">
        <ele>334.60000610352</ele>
        <time>2015-11-25T14:19:43Z</time>
      </trkpt>
      <trkpt lat="43.37555" lon="6.12437">
        <ele>334.79998779297</ele>
        <time>2015-11-25T14:19:45Z</time>
      </trkpt>
      <trkpt lat="43.37555" lon="6.12439">
        <ele>334.79998779297</ele>
        <time>2015-11-25T14:19:46Z</time>
      </trkpt>
      <trkpt lat="43.37556" lon="6.12441">
        <ele>334.79998779297</ele>
        <time>2015-11-25T14:19:47Z</time>
      </trkpt>
      <trkpt lat="43.37556" lon="6.12445">
        <ele>335</ele>
        <time>2015-11-25T14:19:49Z</time>
      </trkpt>
      <trkpt lat="43.37557" lon="6.1245">
        <ele>335</ele>
        <time>2015-11-25T14:19:51Z</time>
      </trkpt>
      <trkpt lat="43.37556" lon="6.12454">
        <ele>334.79998779297</ele>
        <time>2015-11-25T14:19:53Z</time>
      </trkpt>
      <trkpt lat="43.37552" lon="6.12457">
        <ele>335.20001220703</ele>
        <time>2015-11-25T14:19:55Z</time>
      </trkpt>
      <trkpt lat="43.37551" lon="6.12459">
        <ele>335.39999389648</ele>
        <time>2015-11-25T14:19:56Z</time>
      </trkpt>
      <trkpt lat="43.3755" lon="6.12462">
        <ele>336.39999389648</ele>
        <time>2015-11-25T14:19:59Z</time>
      </trkpt>
      <trkpt lat="43.37549" lon="6.12463">
        <ele>336.60000610352</ele>
        <time>2015-11-25T14:20:00Z</time>
      </trkpt>
      <trkpt lat="43.37548" lon="6.12465">
        <ele>336.60000610352</ele>
        <time>2015-11-25T14:20:01Z</time>
      </trkpt>
      <trkpt lat="43.37548" lon="6.12469">
        <ele>336.60000610352</ele>
        <time>2015-11-25T14:20:03Z</time>
      </trkpt>
      <trkpt lat="43.37548" lon="6.12473">
        <ele>336.39999389648</ele>
        <time>2015-11-25T14:20:05Z</time>
      </trkpt>
      <trkpt lat="43.37548" lon="6.12478">
        <ele>336.39999389648</ele>
        <time>2015-11-25T14:20:07Z</time>
      </trkpt>
      <trkpt lat="43.37547" lon="6.12487">
        <ele>337.39999389648</ele>
        <time>2015-11-25T14:20:11Z</time>
      </trkpt>
      <trkpt lat="43.37547" lon="6.12492">
        <ele>337.39999389648</ele>
        <time>2015-11-25T14:20:13Z</time>
      </trkpt>
      <trkpt lat="43.37547" lon="6.12495">
        <ele>337.39999389648</ele>
        <time>2015-11-25T14:20:15Z</time>
      </trkpt>
      <trkpt lat="43.37547" lon="6.125">
        <ele>337.20001220703</ele>
        <time>2015-11-25T14:20:17Z</time>
      </trkpt>
      <trkpt lat="43.37547" lon="6.12504">
        <ele>337</ele>
        <time>2015-11-25T14:20:19Z</time>
      </trkpt>
      <trkpt lat="43.37548" lon="6.12508">
        <ele>337</ele>
        <time>2015-11-25T14:20:21Z</time>
      </trkpt>
      <trkpt lat="43.37548" lon="6.12512">
        <ele>337</ele>
        <time>2015-11-25T14:20:23Z</time>
      </trkpt>
      <trkpt lat="43.37548" lon="6.12515">
        <ele>336.79998779297</ele>
        <time>2015-11-25T14:20:25Z</time>
      </trkpt>
      <trkpt lat="43.37548" lon="6.12518">
        <ele>337</ele>
        <time>2015-11-25T14:20:27Z</time>
      </trkpt>
      <trkpt lat="43.37548" lon="6.1252">
        <ele>337.20001220703</ele>
        <time>2015-11-25T14:20:28Z</time>
      </trkpt>
      <trkpt lat="43.37547" lon="6.12521">
        <ele>337.20001220703</ele>
        <time>2015-11-25T14:20:29Z</time>
      </trkpt>
      <trkpt lat="43.37546" lon="6.12524">
        <ele>337.60000610352</ele>
        <time>2015-11-25T14:20:31Z</time>
      </trkpt>
      <trkpt lat="43.37547" lon="6.12527">
        <ele>338</ele>
        <time>2015-11-25T14:20:33Z</time>
      </trkpt>
      <trkpt lat="43.37548" lon="6.12529">
        <ele>338</ele>
        <time>2015-11-25T14:20:35Z</time>
      </trkpt>
      <trkpt lat="43.37548" lon="6.12531">
        <ele>338</ele>
        <time>2015-11-25T14:20:37Z</time>
      </trkpt>
      <trkpt lat="43.37549" lon="6.12534">
        <ele>337.79998779297</ele>
        <time>2015-11-25T14:20:39Z</time>
      </trkpt>
      <trkpt lat="43.37549" lon="6.12535">
        <ele>337.79998779297</ele>
        <time>2015-11-25T14:20:41Z</time>
      </trkpt>
      <trkpt lat="43.37549" lon="6.12535">
        <ele>337.60000610352</ele>
        <time>2015-11-25T14:20:42Z</time>
      </trkpt>
      <trkpt lat="43.37549" lon="6.12535">
        <ele>337.60000610352</ele>
        <time>2015-11-25T14:20:43Z</time>
      </trkpt>
      <trkpt lat="43.37549" lon="6.12535">
        <ele>337.39999389648</ele>
        <time>2015-11-25T14:20:45Z</time>
      </trkpt>
      <trkpt lat="43.37549" lon="6.12535">
        <ele>337.39999389648</ele>
        <time>2015-11-25T14:20:47Z</time>
      </trkpt>
      <trkpt lat="43.3755" lon="6.12534">
        <ele>337.60000610352</ele>
        <time>2015-11-25T14:20:49Z</time>
      </trkpt>
      <trkpt lat="43.3755" lon="6.12534">
        <ele>337.79998779297</ele>
        <time>2015-11-25T14:20:51Z</time>
      </trkpt>
      <trkpt lat="43.3755" lon="6.12534">
        <ele>338</ele>
        <time>2015-11-25T14:20:52Z</time>
      </trkpt>
      <trkpt lat="43.3755" lon="6.12534">
        <ele>338</ele>
        <time>2015-11-25T14:20:53Z</time>
      </trkpt>
      <trkpt lat="43.3755" lon="6.12534">
        <ele>338</ele>
        <time>2015-11-25T14:20:55Z</time>
      </trkpt>
      <trkpt lat="43.37549" lon="6.12534">
        <ele>338.20001220703</ele>
        <time>2015-11-25T14:20:57Z</time>
      </trkpt>
      <trkpt lat="43.37549" lon="6.12535">
        <ele>338</ele>
        <time>2015-11-25T14:20:59Z</time>
      </trkpt>
      <trkpt lat="43.37549" lon="6.12534">
        <ele>338</ele>
        <time>2015-11-25T14:21:01Z</time>
      </trkpt>
      <trkpt lat="43.37549" lon="6.12534">
        <ele>338</ele>
        <time>2015-11-25T14:21:03Z</time>
      </trkpt>
      <trkpt lat="43.37549" lon="6.12535">
        <ele>338.20001220703</ele>
        <time>2015-11-25T14:21:07Z</time>
      </trkpt>
      <trkpt lat="43.37549" lon="6.12535">
        <ele>338.20001220703</ele>
        <time>2015-11-25T14:21:13Z</time>
      </trkpt>
      <trkpt lat="43.37549" lon="6.12535">
        <ele>338.39999389648</ele>
        <time>2015-11-25T14:21:15Z</time>
      </trkpt>
      <trkpt lat="43.37549" lon="6.12535">
        <ele>338.39999389648</ele>
        <time>2015-11-25T14:21:17Z</time>
      </trkpt>
      <trkpt lat="43.3755" lon="6.12535">
        <ele>338.39999389648</ele>
        <time>2015-11-25T14:21:19Z</time>
      </trkpt>
      <trkpt lat="43.37551" lon="6.12539">
        <ele>338.60000610352</ele>
        <time>2015-11-25T14:21:21Z</time>
      </trkpt>
      <trkpt lat="43.37553" lon="6.12544">
        <ele>338.79998779297</ele>
        <time>2015-11-25T14:21:23Z</time>
      </trkpt>
      <trkpt lat="43.37554" lon="6.12546">
        <ele>338.79998779297</ele>
        <time>2015-11-25T14:21:24Z</time>
      </trkpt>
      <trkpt lat="43.37554" lon="6.12548">
        <ele>338.79998779297</ele>
        <time>2015-11-25T14:21:25Z</time>
      </trkpt>
      <trkpt lat="43.37556" lon="6.12552">
        <ele>339</ele>
        <time>2015-11-25T14:21:27Z</time>
      </trkpt>
      <trkpt lat="43.3756" lon="6.12557">
        <ele>339.20001220703</ele>
        <time>2015-11-25T14:21:30Z</time>
      </trkpt>
      <trkpt lat="43.3756" lon="6.12559">
        <ele>339.39999389648</ele>
        <time>2015-11-25T14:21:31Z</time>
      </trkpt>
      <trkpt lat="43.37561" lon="6.12563">
        <ele>339.60000610352</ele>
        <time>2015-11-25T14:21:33Z</time>
      </trkpt>
      <trkpt lat="43.37562" lon="6.12567">
        <ele>340</ele>
        <time>2015-11-25T14:21:35Z</time>
      </trkpt>
      <trkpt lat="43.37561" lon="6.12568">
        <ele>340</ele>
        <time>2015-11-25T14:21:36Z</time>
      </trkpt>
      <trkpt lat="43.37561" lon="6.12568">
        <ele>340.20001220703</ele>
        <time>2015-11-25T14:21:37Z</time>
      </trkpt>
      <trkpt lat="43.37561" lon="6.12568">
        <ele>340.20001220703</ele>
        <time>2015-11-25T14:21:39Z</time>
      </trkpt>
      <trkpt lat="43.37561" lon="6.12568">
        <ele>340.60000610352</ele>
        <time>2015-11-25T14:21:43Z</time>
      </trkpt>
      <trkpt lat="43.37561" lon="6.12568">
        <ele>340.39999389648</ele>
        <time>2015-11-25T14:21:47Z</time>
      </trkpt>
      <trkpt lat="43.37561" lon="6.12568">
        <ele>340.20001220703</ele>
        <time>2015-11-25T14:21:49Z</time>
      </trkpt>
      <trkpt lat="43.37561" lon="6.12568">
        <ele>340.20001220703</ele>
        <time>2015-11-25T14:21:51Z</time>
      </trkpt>
      <trkpt lat="43.3756" lon="6.12568">
        <ele>340.20001220703</ele>
        <time>2015-11-25T14:21:53Z</time>
      </trkpt>
      <trkpt lat="43.3756" lon="6.12568">
        <ele>340.39999389648</ele>
        <time>2015-11-25T14:21:55Z</time>
      </trkpt>
      <trkpt lat="43.3756" lon="6.12568">
        <ele>340.60000610352</ele>
        <time>2015-11-25T14:21:57Z</time>
      </trkpt>
      <trkpt lat="43.3756" lon="6.12568">
        <ele>340.60000610352</ele>
        <time>2015-11-25T14:21:59Z</time>
      </trkpt>
      <trkpt lat="43.3756" lon="6.12568">
        <ele>339.60000610352</ele>
        <time>2015-11-25T14:22:05Z</time>
      </trkpt>
      <trkpt lat="43.3756" lon="6.12568">
        <ele>339.39999389648</ele>
        <time>2015-11-25T14:22:06Z</time>
      </trkpt>
      <trkpt lat="43.3756" lon="6.12568">
        <ele>339.20001220703</ele>
        <time>2015-11-25T14:22:07Z</time>
      </trkpt>
      <trkpt lat="43.3756" lon="6.12566">
        <ele>339.20001220703</ele>
        <time>2015-11-25T14:22:09Z</time>
      </trkpt>
      <trkpt lat="43.37558" lon="6.12559">
        <ele>339.20001220703</ele>
        <time>2015-11-25T14:22:11Z</time>
      </trkpt>
      <trkpt lat="43.37555" lon="6.12554">
        <ele>339</ele>
        <time>2015-11-25T14:22:13Z</time>
      </trkpt>
      <trkpt lat="43.37554" lon="6.12551">
        <ele>338.60000610352</ele>
        <time>2015-11-25T14:22:14Z</time>
      </trkpt>
      <trkpt lat="43.37553" lon="6.12548">
        <ele>338.39999389648</ele>
        <time>2015-11-25T14:22:15Z</time>
      </trkpt>
      <trkpt lat="43.3755" lon="6.12542">
        <ele>338.20001220703</ele>
        <time>2015-11-25T14:22:17Z</time>
      </trkpt>
      <trkpt lat="43.37549" lon="6.12537">
        <ele>338</ele>
        <time>2015-11-25T14:22:19Z</time>
      </trkpt>
      <trkpt lat="43.37548" lon="6.12534">
        <ele>338.20001220703</ele>
        <time>2015-11-25T14:22:21Z</time>
      </trkpt>
      <trkpt lat="43.37547" lon="6.12532">
        <ele>337.79998779297</ele>
        <time>2015-11-25T14:22:23Z</time>
      </trkpt>
      <trkpt lat="43.37546" lon="6.12531">
        <ele>337.79998779297</ele>
        <time>2015-11-25T14:22:24Z</time>
      </trkpt>
      <trkpt lat="43.37545" lon="6.1253">
        <ele>337.60000610352</ele>
        <time>2015-11-25T14:22:25Z</time>
      </trkpt>
      <trkpt lat="43.37545" lon="6.1253">
        <ele>337.60000610352</ele>
        <time>2015-11-25T14:22:27Z</time>
      </trkpt>
      <trkpt lat="43.37546" lon="6.12529">
        <ele>337.60000610352</ele>
        <time>2015-11-25T14:22:29Z</time>
      </trkpt>
      <trkpt lat="43.37546" lon="6.12529">
        <ele>338</ele>
        <time>2015-11-25T14:22:33Z</time>
      </trkpt>
      <trkpt lat="43.37546" lon="6.12529">
        <ele>337.60000610352</ele>
        <time>2015-11-25T14:22:45Z</time>
      </trkpt>
      <trkpt lat="43.37546" lon="6.12529">
        <ele>337.60000610352</ele>
        <time>2015-11-25T14:23:09Z</time>
      </trkpt>
      <trkpt lat="43.37546" lon="6.12529">
        <ele>337.39999389648</ele>
        <time>2015-11-25T14:23:15Z</time>
      </trkpt>
      <trkpt lat="43.37546" lon="6.12528">
        <ele>337.79998779297</ele>
        <time>2015-11-25T14:23:19Z</time>
      </trkpt>
      <trkpt lat="43.37545" lon="6.12529">
        <ele>337.79998779297</ele>
        <time>2015-11-25T14:23:21Z</time>
      </trkpt>
      <trkpt lat="43.37545" lon="6.12528">
        <ele>338.39999389648</ele>
        <time>2015-11-25T14:23:23Z</time>
      </trkpt>
      <trkpt lat="43.37545" lon="6.12528">
        <ele>338.60000610352</ele>
        <time>2015-11-25T14:23:24Z</time>
      </trkpt>
      <trkpt lat="43.37545" lon="6.12528">
        <ele>338.79998779297</ele>
        <time>2015-11-25T14:23:25Z</time>
      </trkpt>
      <trkpt lat="43.37545" lon="6.12528">
        <ele>338.79998779297</ele>
        <time>2015-11-25T14:23:26Z</time>
      </trkpt>
      <trkpt lat="43.37545" lon="6.12528">
        <ele>338.79998779297</ele>
        <time>2015-11-25T14:23:27Z</time>
      </trkpt>
      <trkpt lat="43.37545" lon="6.12528">
        <ele>338.60000610352</ele>
        <time>2015-11-25T14:23:29Z</time>
      </trkpt>
      <trkpt lat="43.37544" lon="6.12528">
        <ele>338.39999389648</ele>
        <time>2015-11-25T14:23:31Z</time>
      </trkpt>
      <trkpt lat="43.37544" lon="6.12529">
        <ele>338.20001220703</ele>
        <time>2015-11-25T14:23:33Z</time>
      </trkpt>
      <trkpt lat="43.37544" lon="6.12529">
        <ele>337.79998779297</ele>
        <time>2015-11-25T14:23:37Z</time>
      </trkpt>
      <trkpt lat="43.37544" lon="6.12528">
        <ele>337.60000610352</ele>
        <time>2015-11-25T14:23:47Z</time>
      </trkpt>
      <trkpt lat="43.37544" lon="6.12529">
        <ele>337.60000610352</ele>
        <time>2015-11-25T14:23:50Z</time>
      </trkpt>
      <trkpt lat="43.37544" lon="6.12529">
        <ele>337.39999389648</ele>
        <time>2015-11-25T14:23:51Z</time>
      </trkpt>
      <trkpt lat="43.37545" lon="6.12529">
        <ele>337.60000610352</ele>
        <time>2015-11-25T14:23:53Z</time>
      </trkpt>
      <trkpt lat="43.37544" lon="6.12529">
        <ele>337.79998779297</ele>
        <time>2015-11-25T14:23:55Z</time>
      </trkpt>
      <trkpt lat="43.37544" lon="6.12529">
        <ele>338</ele>
        <time>2015-11-25T14:23:58Z</time>
      </trkpt>
      <trkpt lat="43.37544" lon="6.12529">
        <ele>337.79998779297</ele>
        <time>2015-11-25T14:24:01Z</time>
      </trkpt>
      <trkpt lat="43.37544" lon="6.12529">
        <ele>337.20001220703</ele>
        <time>2015-11-25T14:24:05Z</time>
      </trkpt>
      <trkpt lat="43.37544" lon="6.12528">
        <ele>337</ele>
        <time>2015-11-25T14:24:07Z</time>
      </trkpt>
      <trkpt lat="43.37544" lon="6.12528">
        <ele>337</ele>
        <time>2015-11-25T14:24:09Z</time>
      </trkpt>
      <trkpt lat="43.37544" lon="6.12528">
        <ele>337.20001220703</ele>
        <time>2015-11-25T14:24:11Z</time>
      </trkpt>
      <trkpt lat="43.37544" lon="6.12528">
        <ele>337.60000610352</ele>
        <time>2015-11-25T14:24:13Z</time>
      </trkpt>
      <trkpt lat="43.37544" lon="6.12528">
        <ele>337.60000610352</ele>
        <time>2015-11-25T14:24:21Z</time>
      </trkpt>
      <trkpt lat="43.37544" lon="6.12528">
        <ele>337.20001220703</ele>
        <time>2015-11-25T14:24:23Z</time>
      </trkpt>
      <trkpt lat="43.37544" lon="6.12528">
        <ele>337.39999389648</ele>
        <time>2015-11-25T14:24:25Z</time>
      </trkpt>
      <trkpt lat="43.37544" lon="6.12528">
        <ele>338.39999389648</ele>
        <time>2015-11-25T14:24:29Z</time>
      </trkpt>
      <trkpt lat="43.37544" lon="6.12528">
        <ele>338.60000610352</ele>
        <time>2015-11-25T14:24:35Z</time>
      </trkpt>
      <trkpt lat="43.37544" lon="6.12528">
        <ele>338.39999389648</ele>
        <time>2015-11-25T14:24:41Z</time>
      </trkpt>
      <trkpt lat="43.37544" lon="6.12528">
        <ele>338.60000610352</ele>
        <time>2015-11-25T14:24:47Z</time>
      </trkpt>
      <trkpt lat="43.37544" lon="6.12528">
        <ele>338.20001220703</ele>
        <time>2015-11-25T14:24:51Z</time>
      </trkpt>
      <trkpt lat="43.37544" lon="6.12528">
        <ele>337.60000610352</ele>
        <time>2015-11-25T14:24:55Z</time>
      </trkpt>
      <trkpt lat="43.37544" lon="6.12528">
        <ele>337</ele>
        <time>2015-11-25T14:24:59Z</time>
      </trkpt>
      <trkpt lat="43.37544" lon="6.12528">
        <ele>337</ele>
        <time>2015-11-25T14:25:01Z</time>
      </trkpt>
      <trkpt lat="43.37544" lon="6.12528">
        <ele>337</ele>
        <time>2015-11-25T14:25:03Z</time>
      </trkpt>
      <trkpt lat="43.37544" lon="6.12528">
        <ele>337</ele>
        <time>2015-11-25T14:25:07Z</time>
      </trkpt>
      <trkpt lat="43.37544" lon="6.12528">
        <ele>338</ele>
        <time>2015-11-25T14:25:19Z</time>
      </trkpt>
      <trkpt lat="43.37544" lon="6.12528">
        <ele>337.60000610352</ele>
        <time>2015-11-25T14:25:27Z</time>
      </trkpt>
      <trkpt lat="43.37544" lon="6.12528">
        <ele>337</ele>
        <time>2015-11-25T14:25:29Z</time>
      </trkpt>
      <trkpt lat="43.37544" lon="6.12527">
        <ele>336.60000610352</ele>
        <time>2015-11-25T14:25:31Z</time>
      </trkpt>
      <trkpt lat="43.37544" lon="6.12528">
        <ele>336.20001220703</ele>
        <time>2015-11-25T14:25:33Z</time>
      </trkpt>
      <trkpt lat="43.37544" lon="6.12526">
        <ele>335.79998779297</ele>
        <time>2015-11-25T14:25:37Z</time>
      </trkpt>
      <trkpt lat="43.37545" lon="6.12527">
        <ele>335.60000610352</ele>
        <time>2015-11-25T14:25:39Z</time>
      </trkpt>
      <trkpt lat="43.37545" lon="6.12527">
        <ele>335.20001220703</ele>
        <time>2015-11-25T14:25:41Z</time>
      </trkpt>
      <trkpt lat="43.37545" lon="6.12527">
        <ele>335.79998779297</ele>
        <time>2015-11-25T14:25:43Z</time>
      </trkpt>
      <trkpt lat="43.37544" lon="6.12527">
        <ele>336</ele>
        <time>2015-11-25T14:25:45Z</time>
      </trkpt>
      <trkpt lat="43.37544" lon="6.12527">
        <ele>336.20001220703</ele>
        <time>2015-11-25T14:25:47Z</time>
      </trkpt>
      <trkpt lat="43.37544" lon="6.12527">
        <ele>336.39999389648</ele>
        <time>2015-11-25T14:25:51Z</time>
      </trkpt>
      <trkpt lat="43.37544" lon="6.12527">
        <ele>337.79998779297</ele>
        <time>2015-11-25T14:25:57Z</time>
      </trkpt>
      <trkpt lat="43.37544" lon="6.12527">
        <ele>337.60000610352</ele>
        <time>2015-11-25T14:26:05Z</time>
      </trkpt>
      <trkpt lat="43.37544" lon="6.12527">
        <ele>337.60000610352</ele>
        <time>2015-11-25T14:26:09Z</time>
      </trkpt>
      <trkpt lat="43.37544" lon="6.12527">
        <ele>337.60000610352</ele>
        <time>2015-11-25T14:26:11Z</time>
      </trkpt>
      <trkpt lat="43.37544" lon="6.12526">
        <ele>337.60000610352</ele>
        <time>2015-11-25T14:26:13Z</time>
      </trkpt>
      <trkpt lat="43.37544" lon="6.12525">
        <ele>337.60000610352</ele>
        <time>2015-11-25T14:26:15Z</time>
      </trkpt>
      <trkpt lat="43.37544" lon="6.12524">
        <ele>337.60000610352</ele>
        <time>2015-11-25T14:26:17Z</time>
      </trkpt>
      <trkpt lat="43.37544" lon="6.12523">
        <ele>337.39999389648</ele>
        <time>2015-11-25T14:26:19Z</time>
      </trkpt>
      <trkpt lat="43.37544" lon="6.12523">
        <ele>337.39999389648</ele>
        <time>2015-11-25T14:26:21Z</time>
      </trkpt>
      <trkpt lat="43.37545" lon="6.1252">
        <ele>337.60000610352</ele>
        <time>2015-11-25T14:26:23Z</time>
      </trkpt>
      <trkpt lat="43.37548" lon="6.12518">
        <ele>337.39999389648</ele>
        <time>2015-11-25T14:26:25Z</time>
      </trkpt>
      <trkpt lat="43.3755" lon="6.12517">
        <ele>336.39999389648</ele>
        <time>2015-11-25T14:26:27Z</time>
      </trkpt>
      <trkpt lat="43.37552" lon="6.12517">
        <ele>336</ele>
        <time>2015-11-25T14:26:28Z</time>
      </trkpt>
      <trkpt lat="43.37554" lon="6.12516">
        <ele>335.39999389648</ele>
        <time>2015-11-25T14:26:29Z</time>
      </trkpt>
      <trkpt lat="43.3756" lon="6.12518">
        <ele>334.60000610352</ele>
        <time>2015-11-25T14:26:31Z</time>
      </trkpt>
      <trkpt lat="43.37562" lon="6.12518">
        <ele>334</ele>
        <time>2015-11-25T14:26:32Z</time>
      </trkpt>
      <trkpt lat="43.37564" lon="6.12518">
        <ele>333.79998779297</ele>
        <time>2015-11-25T14:26:33Z</time>
      </trkpt>
      <trkpt lat="43.37566" lon="6.12517">
        <ele>333</ele>
        <time>2015-11-25T14:26:34Z</time>
      </trkpt>
      <trkpt lat="43.37569" lon="6.12516">
        <ele>332.60000610352</ele>
        <time>2015-11-25T14:26:35Z</time>
      </trkpt>
      <trkpt lat="43.37574" lon="6.12512">
        <ele>332</ele>
        <time>2015-11-25T14:26:37Z</time>
      </trkpt>
      <trkpt lat="43.37576" lon="6.1251">
        <ele>331.60000610352</ele>
        <time>2015-11-25T14:26:38Z</time>
      </trkpt>
      <trkpt lat="43.37581" lon="6.12506">
        <ele>331</ele>
        <time>2015-11-25T14:26:40Z</time>
      </trkpt>
      <trkpt lat="43.37583" lon="6.12504">
        <ele>330.39999389648</ele>
        <time>2015-11-25T14:26:41Z</time>
      </trkpt>
      <trkpt lat="43.37585" lon="6.12503">
        <ele>329.79998779297</ele>
        <time>2015-11-25T14:26:42Z</time>
      </trkpt>
      <trkpt lat="43.37588" lon="6.12501">
        <ele>329.39999389648</ele>
        <time>2015-11-25T14:26:43Z</time>
      </trkpt>
      <trkpt lat="43.37591" lon="6.12498">
        <ele>328.60000610352</ele>
        <time>2015-11-25T14:26:44Z</time>
      </trkpt>
      <trkpt lat="43.37594" lon="6.12497">
        <ele>328.20001220703</ele>
        <time>2015-11-25T14:26:45Z</time>
      </trkpt>
      <trkpt lat="43.37597" lon="6.12497">
        <ele>328</ele>
        <time>2015-11-25T14:26:46Z</time>
      </trkpt>
      <trkpt lat="43.376" lon="6.12496">
        <ele>327.60000610352</ele>
        <time>2015-11-25T14:26:47Z</time>
      </trkpt>
      <trkpt lat="43.37603" lon="6.12496">
        <ele>327</ele>
        <time>2015-11-25T14:26:49Z</time>
      </trkpt>
      <trkpt lat="43.37604" lon="6.12495">
        <ele>326.60000610352</ele>
        <time>2015-11-25T14:26:50Z</time>
      </trkpt>
      <trkpt lat="43.37605" lon="6.12493">
        <ele>326.20001220703</ele>
        <time>2015-11-25T14:26:51Z</time>
      </trkpt>
      <trkpt lat="43.37605" lon="6.12492">
        <ele>326</ele>
        <time>2015-11-25T14:26:52Z</time>
      </trkpt>
      <trkpt lat="43.37606" lon="6.1249">
        <ele>325.79998779297</ele>
        <time>2015-11-25T14:26:53Z</time>
      </trkpt>
      <trkpt lat="43.37609" lon="6.12486">
        <ele>325.39999389648</ele>
        <time>2015-11-25T14:26:55Z</time>
      </trkpt>
      <trkpt lat="43.37611" lon="6.12482">
        <ele>325</ele>
        <time>2015-11-25T14:26:57Z</time>
      </trkpt>
      <trkpt lat="43.37611" lon="6.1248">
        <ele>324.60000610352</ele>
        <time>2015-11-25T14:26:58Z</time>
      </trkpt>
      <trkpt lat="43.37612" lon="6.12476">
        <ele>324.20001220703</ele>
        <time>2015-11-25T14:27:00Z</time>
      </trkpt>
      <trkpt lat="43.37612" lon="6.12474">
        <ele>324.20001220703</ele>
        <time>2015-11-25T14:27:01Z</time>
      </trkpt>
      <trkpt lat="43.37613" lon="6.12473">
        <ele>324.20001220703</ele>
        <time>2015-11-25T14:27:03Z</time>
      </trkpt>
      <trkpt lat="43.37614" lon="6.12471">
        <ele>324.20001220703</ele>
        <time>2015-11-25T14:27:05Z</time>
      </trkpt>
      <trkpt lat="43.37617" lon="6.12468">
        <ele>324</ele>
        <time>2015-11-25T14:27:07Z</time>
      </trkpt>
      <trkpt lat="43.3762" lon="6.12465">
        <ele>324</ele>
        <time>2015-11-25T14:27:09Z</time>
      </trkpt>
      <trkpt lat="43.37624" lon="6.12463">
        <ele>324</ele>
        <time>2015-11-25T14:27:11Z</time>
      </trkpt>
      <trkpt lat="43.37627" lon="6.12463">
        <ele>323.79998779297</ele>
        <time>2015-11-25T14:27:13Z</time>
      </trkpt>
      <trkpt lat="43.37628" lon="6.12462">
        <ele>323.60000610352</ele>
        <time>2015-11-25T14:27:15Z</time>
      </trkpt>
      <trkpt lat="43.37629" lon="6.12462">
        <ele>323.60000610352</ele>
        <time>2015-11-25T14:27:16Z</time>
      </trkpt>
      <trkpt lat="43.37629" lon="6.12461">
        <ele>323.60000610352</ele>
        <time>2015-11-25T14:27:17Z</time>
      </trkpt>
      <trkpt lat="43.3763" lon="6.12461">
        <ele>323.60000610352</ele>
        <time>2015-11-25T14:27:19Z</time>
      </trkpt>
      <trkpt lat="43.3763" lon="6.12461">
        <ele>323.39999389648</ele>
        <time>2015-11-25T14:27:21Z</time>
      </trkpt>
      <trkpt lat="43.3763" lon="6.12461">
        <ele>324</ele>
        <time>2015-11-25T14:27:25Z</time>
      </trkpt>
      <trkpt lat="43.3763" lon="6.12461">
        <ele>324.20001220703</ele>
        <time>2015-11-25T14:27:27Z</time>
      </trkpt>
      <trkpt lat="43.37631" lon="6.1246">
        <ele>324.20001220703</ele>
        <time>2015-11-25T14:27:29Z</time>
      </trkpt>
      <trkpt lat="43.37633" lon="6.12458">
        <ele>324</ele>
        <time>2015-11-25T14:27:31Z</time>
      </trkpt>
      <trkpt lat="43.37635" lon="6.12454">
        <ele>323.79998779297</ele>
        <time>2015-11-25T14:27:33Z</time>
      </trkpt>
      <trkpt lat="43.37636" lon="6.1245">
        <ele>323.60000610352</ele>
        <time>2015-11-25T14:27:35Z</time>
      </trkpt>
      <trkpt lat="43.37637" lon="6.12445">
        <ele>323.60000610352</ele>
        <time>2015-11-25T14:27:37Z</time>
      </trkpt>
      <trkpt lat="43.37636" lon="6.12437">
        <ele>323.39999389648</ele>
        <time>2015-11-25T14:27:39Z</time>
      </trkpt>
      <trkpt lat="43.37635" lon="6.12429">
        <ele>322.60000610352</ele>
        <time>2015-11-25T14:27:41Z</time>
      </trkpt>
      <trkpt lat="43.37635" lon="6.12425">
        <ele>322.20001220703</ele>
        <time>2015-11-25T14:27:42Z</time>
      </trkpt>
      <trkpt lat="43.37635" lon="6.12411">
        <ele>321.60000610352</ele>
        <time>2015-11-25T14:27:45Z</time>
      </trkpt>
      <trkpt lat="43.37634" lon="6.12406">
        <ele>321</ele>
        <time>2015-11-25T14:27:46Z</time>
      </trkpt>
      <trkpt lat="43.37633" lon="6.12399">
        <ele>320.60000610352</ele>
        <time>2015-11-25T14:27:47Z</time>
      </trkpt>
      <trkpt lat="43.37632" lon="6.12393">
        <ele>320.20001220703</ele>
        <time>2015-11-25T14:27:48Z</time>
      </trkpt>
      <trkpt lat="43.37631" lon="6.12381">
        <ele>320.39999389648</ele>
        <time>2015-11-25T14:27:50Z</time>
      </trkpt>
      <trkpt lat="43.37631" lon="6.12369">
        <ele>320</ele>
        <time>2015-11-25T14:27:52Z</time>
      </trkpt>
      <trkpt lat="43.37633" lon="6.12356">
        <ele>319.39999389648</ele>
        <time>2015-11-25T14:27:54Z</time>
      </trkpt>
      <trkpt lat="43.37634" lon="6.12349">
        <ele>319</ele>
        <time>2015-11-25T14:27:55Z</time>
      </trkpt>
      <trkpt lat="43.37637" lon="6.12341">
        <ele>318.60000610352</ele>
        <time>2015-11-25T14:27:56Z</time>
      </trkpt>
      <trkpt lat="43.37638" lon="6.12329">
        <ele>317.39999389648</ele>
        <time>2015-11-25T14:27:58Z</time>
      </trkpt>
      <trkpt lat="43.3764" lon="6.12322">
        <ele>317</ele>
        <time>2015-11-25T14:27:59Z</time>
      </trkpt>
      <trkpt lat="43.37643" lon="6.12318">
        <ele>317</ele>
        <time>2015-11-25T14:28:00Z</time>
      </trkpt>
      <trkpt lat="43.37653" lon="6.12308">
        <ele>316.20001220703</ele>
        <time>2015-11-25T14:28:02Z</time>
      </trkpt>
      <trkpt lat="43.37657" lon="6.12303">
        <ele>315.20001220703</ele>
        <time>2015-11-25T14:28:03Z</time>
      </trkpt>
      <trkpt lat="43.37662" lon="6.12299">
        <ele>314</ele>
        <time>2015-11-25T14:28:04Z</time>
      </trkpt>
      <trkpt lat="43.37668" lon="6.12289">
        <ele>312.60000610352</ele>
        <time>2015-11-25T14:28:06Z</time>
      </trkpt>
      <trkpt lat="43.3767" lon="6.12285">
        <ele>312.39999389648</ele>
        <time>2015-11-25T14:28:07Z</time>
      </trkpt>
      <trkpt lat="43.37672" lon="6.12283">
        <ele>312.20001220703</ele>
        <time>2015-11-25T14:28:08Z</time>
      </trkpt>
      <trkpt lat="43.37681" lon="6.1228">
        <ele>310.79998779297</ele>
        <time>2015-11-25T14:28:10Z</time>
      </trkpt>
      <trkpt lat="43.37687" lon="6.1228">
        <ele>310.20001220703</ele>
        <time>2015-11-25T14:28:11Z</time>
      </trkpt>
      <trkpt lat="43.37692" lon="6.12281">
        <ele>309.79998779297</ele>
        <time>2015-11-25T14:28:12Z</time>
      </trkpt>
      <trkpt lat="43.377" lon="6.12286">
        <ele>309.60000610352</ele>
        <time>2015-11-25T14:28:14Z</time>
      </trkpt>
      <trkpt lat="43.3771" lon="6.123">
        <ele>309.20001220703</ele>
        <time>2015-11-25T14:28:18Z</time>
      </trkpt>
      <trkpt lat="43.37711" lon="6.12304">
        <ele>309.20001220703</ele>
        <time>2015-11-25T14:28:19Z</time>
      </trkpt>
      <trkpt lat="43.37711" lon="6.12307">
        <ele>309.20001220703</ele>
        <time>2015-11-25T14:28:20Z</time>
      </trkpt>
      <trkpt lat="43.37711" lon="6.12317">
        <ele>308.79998779297</ele>
        <time>2015-11-25T14:28:22Z</time>
      </trkpt>
      <trkpt lat="43.37711" lon="6.12326">
        <ele>308</ele>
        <time>2015-11-25T14:28:24Z</time>
      </trkpt>
      <trkpt lat="43.37711" lon="6.12333">
        <ele>306.60000610352</ele>
        <time>2015-11-25T14:28:26Z</time>
      </trkpt>
      <trkpt lat="43.37713" lon="6.12337">
        <ele>305.79998779297</ele>
        <time>2015-11-25T14:28:27Z</time>
      </trkpt>
      <trkpt lat="43.37716" lon="6.12339">
        <ele>305</ele>
        <time>2015-11-25T14:28:28Z</time>
      </trkpt>
      <trkpt lat="43.37723" lon="6.12339">
        <ele>304.60000610352</ele>
        <time>2015-11-25T14:28:30Z</time>
      </trkpt>
      <trkpt lat="43.37726" lon="6.12336">
        <ele>304.20001220703</ele>
        <time>2015-11-25T14:28:32Z</time>
      </trkpt>
      <trkpt lat="43.37727" lon="6.12335">
        <ele>304.20001220703</ele>
        <time>2015-11-25T14:28:33Z</time>
      </trkpt>
      <trkpt lat="43.37727" lon="6.12335">
        <ele>304</ele>
        <time>2015-11-25T14:28:34Z</time>
      </trkpt>
      <trkpt lat="43.37728" lon="6.12335">
        <ele>303.60000610352</ele>
        <time>2015-11-25T14:28:36Z</time>
      </trkpt>
      <trkpt lat="43.37728" lon="6.12335">
        <ele>304</ele>
        <time>2015-11-25T14:28:38Z</time>
      </trkpt>
      <trkpt lat="43.37728" lon="6.12335">
        <ele>304.20001220703</ele>
        <time>2015-11-25T14:28:40Z</time>
      </trkpt>
      <trkpt lat="43.37728" lon="6.12335">
        <ele>304.39999389648</ele>
        <time>2015-11-25T14:28:46Z</time>
      </trkpt>
      <trkpt lat="43.37728" lon="6.12335">
        <ele>304.60000610352</ele>
        <time>2015-11-25T14:28:48Z</time>
      </trkpt>
      <trkpt lat="43.37728" lon="6.12335">
        <ele>304.39999389648</ele>
        <time>2015-11-25T14:28:50Z</time>
      </trkpt>
      <trkpt lat="43.37728" lon="6.12335">
        <ele>304.20001220703</ele>
        <time>2015-11-25T14:28:52Z</time>
      </trkpt>
      <trkpt lat="43.37728" lon="6.12335">
        <ele>304</ele>
        <time>2015-11-25T14:28:54Z</time>
      </trkpt>
      <trkpt lat="43.37728" lon="6.12335">
        <ele>304</ele>
        <time>2015-11-25T14:28:56Z</time>
      </trkpt>
      <trkpt lat="43.37728" lon="6.12334">
        <ele>304</ele>
        <time>2015-11-25T14:29:02Z</time>
      </trkpt>
      <trkpt lat="43.37728" lon="6.12334">
        <ele>304.20001220703</ele>
        <time>2015-11-25T14:29:04Z</time>
      </trkpt>
      <trkpt lat="43.37728" lon="6.12334">
        <ele>304.20001220703</ele>
        <time>2015-11-25T14:29:06Z</time>
      </trkpt>
      <trkpt lat="43.37728" lon="6.12335">
        <ele>304</ele>
        <time>2015-11-25T14:29:08Z</time>
      </trkpt>
      <trkpt lat="43.37728" lon="6.12334">
        <ele>304</ele>
        <time>2015-11-25T14:29:10Z</time>
      </trkpt>
      <trkpt lat="43.37728" lon="6.12334">
        <ele>304</ele>
        <time>2015-11-25T14:29:12Z</time>
      </trkpt>
      <trkpt lat="43.37728" lon="6.12334">
        <ele>304.39999389648</ele>
        <time>2015-11-25T14:29:16Z</time>
      </trkpt>
      <trkpt lat="43.37728" lon="6.12334">
        <ele>304.20001220703</ele>
        <time>2015-11-25T14:29:18Z</time>
      </trkpt>
      <trkpt lat="43.37728" lon="6.12334">
        <ele>304</ele>
        <time>2015-11-25T14:29:22Z</time>
      </trkpt>
      <trkpt lat="43.37728" lon="6.12334">
        <ele>304</ele>
        <time>2015-11-25T14:29:24Z</time>
      </trkpt>
      <trkpt lat="43.37728" lon="6.12334">
        <ele>304.60000610352</ele>
        <time>2015-11-25T14:29:28Z</time>
      </trkpt>
      <trkpt lat="43.37728" lon="6.12334">
        <ele>304.39999389648</ele>
        <time>2015-11-25T14:29:30Z</time>
      </trkpt>
      <trkpt lat="43.37728" lon="6.12334">
        <ele>303.79998779297</ele>
        <time>2015-11-25T14:29:40Z</time>
      </trkpt>
      <trkpt lat="43.37728" lon="6.12334">
        <ele>303.79998779297</ele>
        <time>2015-11-25T14:29:42Z</time>
      </trkpt>
      <trkpt lat="43.37728" lon="6.12334">
        <ele>304</ele>
        <time>2015-11-25T14:29:44Z</time>
      </trkpt>
      <trkpt lat="43.37729" lon="6.12334">
        <ele>304.20001220703</ele>
        <time>2015-11-25T14:29:46Z</time>
      </trkpt>
      <trkpt lat="43.37731" lon="6.12334">
        <ele>304.20001220703</ele>
        <time>2015-11-25T14:29:48Z</time>
      </trkpt>
      <trkpt lat="43.37732" lon="6.12334">
        <ele>304.20001220703</ele>
        <time>2015-11-25T14:29:49Z</time>
      </trkpt>
      <trkpt lat="43.37733" lon="6.12334">
        <ele>304.20001220703</ele>
        <time>2015-11-25T14:29:50Z</time>
      </trkpt>
      <trkpt lat="43.37735" lon="6.12334">
        <ele>304.20001220703</ele>
        <time>2015-11-25T14:29:51Z</time>
      </trkpt>
      <trkpt lat="43.37736" lon="6.12335">
        <ele>304.39999389648</ele>
        <time>2015-11-25T14:29:52Z</time>
      </trkpt>
      <trkpt lat="43.37738" lon="6.12338">
        <ele>304.39999389648</ele>
        <time>2015-11-25T14:29:54Z</time>
      </trkpt>
      <trkpt lat="43.37739" lon="6.12343">
        <ele>304.79998779297</ele>
        <time>2015-11-25T14:29:56Z</time>
      </trkpt>
      <trkpt lat="43.3774" lon="6.12346">
        <ele>305</ele>
        <time>2015-11-25T14:29:57Z</time>
      </trkpt>
      <trkpt lat="43.37739" lon="6.12354">
        <ele>305.39999389648</ele>
        <time>2015-11-25T14:30:00Z</time>
      </trkpt>
      <trkpt lat="43.37736" lon="6.12359">
        <ele>306</ele>
        <time>2015-11-25T14:30:02Z</time>
      </trkpt>
      <trkpt lat="43.37734" lon="6.12365">
        <ele>306.60000610352</ele>
        <time>2015-11-25T14:30:04Z</time>
      </trkpt>
      <trkpt lat="43.37732" lon="6.12371">
        <ele>307.20001220703</ele>
        <time>2015-11-25T14:30:06Z</time>
      </trkpt>
      <trkpt lat="43.37731" lon="6.12377">
        <ele>307.39999389648</ele>
        <time>2015-11-25T14:30:08Z</time>
      </trkpt>
      <trkpt lat="43.37731" lon="6.12384">
        <ele>307.60000610352</ele>
        <time>2015-11-25T14:30:10Z</time>
      </trkpt>
      <trkpt lat="43.3773" lon="6.12391">
        <ele>308</ele>
        <time>2015-11-25T14:30:12Z</time>
      </trkpt>
      <trkpt lat="43.3773" lon="6.12398">
        <ele>308.20001220703</ele>
        <time>2015-11-25T14:30:14Z</time>
      </trkpt>
      <trkpt lat="43.37729" lon="6.12404">
        <ele>308.20001220703</ele>
        <time>2015-11-25T14:30:16Z</time>
      </trkpt>
      <trkpt lat="43.37729" lon="6.1241">
        <ele>308</ele>
        <time>2015-11-25T14:30:18Z</time>
      </trkpt>
      <trkpt lat="43.37728" lon="6.12416">
        <ele>308.20001220703</ele>
        <time>2015-11-25T14:30:20Z</time>
      </trkpt>
      <trkpt lat="43.37728" lon="6.12422">
        <ele>308.39999389648</ele>
        <time>2015-11-25T14:30:22Z</time>
      </trkpt>
      <trkpt lat="43.37728" lon="6.12425">
        <ele>308.60000610352</ele>
        <time>2015-11-25T14:30:23Z</time>
      </trkpt>
      <trkpt lat="43.37728" lon="6.12431">
        <ele>308.79998779297</ele>
        <time>2015-11-25T14:30:25Z</time>
      </trkpt>
      <trkpt lat="43.37728" lon="6.12434">
        <ele>309</ele>
        <time>2015-11-25T14:30:26Z</time>
      </trkpt>
      <trkpt lat="43.37728" lon="6.12439">
        <ele>309.39999389648</ele>
        <time>2015-11-25T14:30:28Z</time>
      </trkpt>
      <trkpt lat="43.37728" lon="6.12442">
        <ele>309.60000610352</ele>
        <time>2015-11-25T14:30:29Z</time>
      </trkpt>
      <trkpt lat="43.37728" lon="6.12448">
        <ele>310</ele>
        <time>2015-11-25T14:30:31Z</time>
      </trkpt>
      <trkpt lat="43.37728" lon="6.12451">
        <ele>310.20001220703</ele>
        <time>2015-11-25T14:30:32Z</time>
      </trkpt>
      <trkpt lat="43.37727" lon="6.12453">
        <ele>310.39999389648</ele>
        <time>2015-11-25T14:30:33Z</time>
      </trkpt>
      <trkpt lat="43.37726" lon="6.12458">
        <ele>310.39999389648</ele>
        <time>2015-11-25T14:30:35Z</time>
      </trkpt>
      <trkpt lat="43.37724" lon="6.12463">
        <ele>310.60000610352</ele>
        <time>2015-11-25T14:30:37Z</time>
      </trkpt>
      <trkpt lat="43.37724" lon="6.12468">
        <ele>310.60000610352</ele>
        <time>2015-11-25T14:30:39Z</time>
      </trkpt>
      <trkpt lat="43.3772" lon="6.1248">
        <ele>310.39999389648</ele>
        <time>2015-11-25T14:30:43Z</time>
      </trkpt>
      <trkpt lat="43.37719" lon="6.12485">
        <ele>310.79998779297</ele>
        <time>2015-11-25T14:30:45Z</time>
      </trkpt>
      <trkpt lat="43.37718" lon="6.1249">
        <ele>311.20001220703</ele>
        <time>2015-11-25T14:30:47Z</time>
      </trkpt>
      <trkpt lat="43.37716" lon="6.12497">
        <ele>311.60000610352</ele>
        <time>2015-11-25T14:30:50Z</time>
      </trkpt>
      <trkpt lat="43.37716" lon="6.125">
        <ele>311.60000610352</ele>
        <time>2015-11-25T14:30:51Z</time>
      </trkpt>
      <trkpt lat="43.37715" lon="6.12511">
        <ele>311.79998779297</ele>
        <time>2015-11-25T14:30:55Z</time>
      </trkpt>
      <trkpt lat="43.37714" lon="6.12517">
        <ele>312.20001220703</ele>
        <time>2015-11-25T14:30:57Z</time>
      </trkpt>
      <trkpt lat="43.37714" lon="6.12524">
        <ele>312.20001220703</ele>
        <time>2015-11-25T14:30:59Z</time>
      </trkpt>
      <trkpt lat="43.37713" lon="6.12536">
        <ele>312</ele>
        <time>2015-11-25T14:31:03Z</time>
      </trkpt>
      <trkpt lat="43.37712" lon="6.12542">
        <ele>312.39999389648</ele>
        <time>2015-11-25T14:31:05Z</time>
      </trkpt>
      <trkpt lat="43.3771" lon="6.12547">
        <ele>312.60000610352</ele>
        <time>2015-11-25T14:31:07Z</time>
      </trkpt>
      <trkpt lat="43.3771" lon="6.1255">
        <ele>312.60000610352</ele>
        <time>2015-11-25T14:31:08Z</time>
      </trkpt>
      <trkpt lat="43.3771" lon="6.12554">
        <ele>312.79998779297</ele>
        <time>2015-11-25T14:31:09Z</time>
      </trkpt>
      <trkpt lat="43.3771" lon="6.12567">
        <ele>313</ele>
        <time>2015-11-25T14:31:13Z</time>
      </trkpt>
      <trkpt lat="43.37709" lon="6.12574">
        <ele>313</ele>
        <time>2015-11-25T14:31:15Z</time>
      </trkpt>
      <trkpt lat="43.37709" lon="6.12579">
        <ele>313.39999389648</ele>
        <time>2015-11-25T14:31:17Z</time>
      </trkpt>
      <trkpt lat="43.37709" lon="6.12586">
        <ele>313.39999389648</ele>
        <time>2015-11-25T14:31:19Z</time>
      </trkpt>
      <trkpt lat="43.37709" lon="6.12589">
        <ele>313.20001220703</ele>
        <time>2015-11-25T14:31:20Z</time>
      </trkpt>
      <trkpt lat="43.37709" lon="6.12593">
        <ele>313.20001220703</ele>
        <time>2015-11-25T14:31:21Z</time>
      </trkpt>
      <trkpt lat="43.37709" lon="6.12601">
        <ele>314</ele>
        <time>2015-11-25T14:31:23Z</time>
      </trkpt>
      <trkpt lat="43.37709" lon="6.12608">
        <ele>314.20001220703</ele>
        <time>2015-11-25T14:31:25Z</time>
      </trkpt>
      <trkpt lat="43.37709" lon="6.12615">
        <ele>314.20001220703</ele>
        <time>2015-11-25T14:31:27Z</time>
      </trkpt>
      <trkpt lat="43.37709" lon="6.12622">
        <ele>314.20001220703</ele>
        <time>2015-11-25T14:31:29Z</time>
      </trkpt>
      <trkpt lat="43.37708" lon="6.12628">
        <ele>314.20001220703</ele>
        <time>2015-11-25T14:31:31Z</time>
      </trkpt>
      <trkpt lat="43.37709" lon="6.12636">
        <ele>314.79998779297</ele>
        <time>2015-11-25T14:31:33Z</time>
      </trkpt>
      <trkpt lat="43.37709" lon="6.12643">
        <ele>315</ele>
        <time>2015-11-25T14:31:35Z</time>
      </trkpt>
      <trkpt lat="43.37709" lon="6.1265">
        <ele>314.79998779297</ele>
        <time>2015-11-25T14:31:37Z</time>
      </trkpt>
      <trkpt lat="43.37707" lon="6.12658">
        <ele>314.79998779297</ele>
        <time>2015-11-25T14:31:39Z</time>
      </trkpt>
      <trkpt lat="43.37706" lon="6.12667">
        <ele>315.20001220703</ele>
        <time>2015-11-25T14:31:42Z</time>
      </trkpt>
      <trkpt lat="43.37706" lon="6.12671">
        <ele>315.20001220703</ele>
        <time>2015-11-25T14:31:43Z</time>
      </trkpt>
      <trkpt lat="43.37706" lon="6.12686">
        <ele>315.60000610352</ele>
        <time>2015-11-25T14:31:47Z</time>
      </trkpt>
      <trkpt lat="43.37706" lon="6.12694">
        <ele>315.39999389648</ele>
        <time>2015-11-25T14:31:49Z</time>
      </trkpt>
      <trkpt lat="43.37705" lon="6.12702">
        <ele>315.60000610352</ele>
        <time>2015-11-25T14:31:51Z</time>
      </trkpt>
      <trkpt lat="43.37705" lon="6.12709">
        <ele>315.60000610352</ele>
        <time>2015-11-25T14:31:53Z</time>
      </trkpt>
      <trkpt lat="43.37704" lon="6.12715">
        <ele>316</ele>
        <time>2015-11-25T14:31:55Z</time>
      </trkpt>
      <trkpt lat="43.37704" lon="6.12718">
        <ele>316.20001220703</ele>
        <time>2015-11-25T14:31:56Z</time>
      </trkpt>
      <trkpt lat="43.37704" lon="6.12722">
        <ele>316</ele>
        <time>2015-11-25T14:31:57Z</time>
      </trkpt>
      <trkpt lat="43.37703" lon="6.12729">
        <ele>315.79998779297</ele>
        <time>2015-11-25T14:31:59Z</time>
      </trkpt>
      <trkpt lat="43.37703" lon="6.12732">
        <ele>315.79998779297</ele>
        <time>2015-11-25T14:32:00Z</time>
      </trkpt>
      <trkpt lat="43.37703" lon="6.12736">
        <ele>315.60000610352</ele>
        <time>2015-11-25T14:32:01Z</time>
      </trkpt>
      <trkpt lat="43.37703" lon="6.12744">
        <ele>316</ele>
        <time>2015-11-25T14:32:03Z</time>
      </trkpt>
      <trkpt lat="43.37704" lon="6.1275">
        <ele>316.60000610352</ele>
        <time>2015-11-25T14:32:05Z</time>
      </trkpt>
      <trkpt lat="43.37704" lon="6.12756">
        <ele>317.20001220703</ele>
        <time>2015-11-25T14:32:07Z</time>
      </trkpt>
      <trkpt lat="43.37706" lon="6.12773">
        <ele>318.20001220703</ele>
        <time>2015-11-25T14:32:13Z</time>
      </trkpt>
      <trkpt lat="43.37707" lon="6.1279">
        <ele>319.20001220703</ele>
        <time>2015-11-25T14:32:19Z</time>
      </trkpt>
      <trkpt lat="43.37707" lon="6.12795">
        <ele>319.60000610352</ele>
        <time>2015-11-25T14:32:21Z</time>
      </trkpt>
      <trkpt lat="43.37708" lon="6.12801">
        <ele>319.60000610352</ele>
        <time>2015-11-25T14:32:23Z</time>
      </trkpt>
      <trkpt lat="43.37708" lon="6.12804">
        <ele>319.79998779297</ele>
        <time>2015-11-25T14:32:24Z</time>
      </trkpt>
      <trkpt lat="43.37708" lon="6.12818">
        <ele>320.60000610352</ele>
        <time>2015-11-25T14:32:29Z</time>
      </trkpt>
      <trkpt lat="43.37708" lon="6.12821">
        <ele>320.60000610352</ele>
        <time>2015-11-25T14:32:30Z</time>
      </trkpt>
      <trkpt lat="43.37708" lon="6.12824">
        <ele>321</ele>
        <time>2015-11-25T14:32:31Z</time>
      </trkpt>
      <trkpt lat="43.37708" lon="6.12829">
        <ele>321.39999389648</ele>
        <time>2015-11-25T14:32:33Z</time>
      </trkpt>
      <trkpt lat="43.37707" lon="6.12834">
        <ele>321.60000610352</ele>
        <time>2015-11-25T14:32:35Z</time>
      </trkpt>
      <trkpt lat="43.37707" lon="6.12837">
        <ele>321.60000610352</ele>
        <time>2015-11-25T14:32:36Z</time>
      </trkpt>
      <trkpt lat="43.37707" lon="6.12849">
        <ele>322</ele>
        <time>2015-11-25T14:32:40Z</time>
      </trkpt>
      <trkpt lat="43.37707" lon="6.12858">
        <ele>322.39999389648</ele>
        <time>2015-11-25T14:32:43Z</time>
      </trkpt>
      <trkpt lat="43.37708" lon="6.12864">
        <ele>322.39999389648</ele>
        <time>2015-11-25T14:32:45Z</time>
      </trkpt>
      <trkpt lat="43.37708" lon="6.12869">
        <ele>322.60000610352</ele>
        <time>2015-11-25T14:32:47Z</time>
      </trkpt>
      <trkpt lat="43.37708" lon="6.12875">
        <ele>322.60000610352</ele>
        <time>2015-11-25T14:32:49Z</time>
      </trkpt>
      <trkpt lat="43.37707" lon="6.12883">
        <ele>322.79998779297</ele>
        <time>2015-11-25T14:32:52Z</time>
      </trkpt>
      <trkpt lat="43.37706" lon="6.1289">
        <ele>322.79998779297</ele>
        <time>2015-11-25T14:32:54Z</time>
      </trkpt>
      <trkpt lat="43.37706" lon="6.12893">
        <ele>322.60000610352</ele>
        <time>2015-11-25T14:32:55Z</time>
      </trkpt>
      <trkpt lat="43.37705" lon="6.12899">
        <ele>322.39999389648</ele>
        <time>2015-11-25T14:32:57Z</time>
      </trkpt>
      <trkpt lat="43.37704" lon="6.12904">
        <ele>322.39999389648</ele>
        <time>2015-11-25T14:32:59Z</time>
      </trkpt>
      <trkpt lat="43.37704" lon="6.12907">
        <ele>322.39999389648</ele>
        <time>2015-11-25T14:33:00Z</time>
      </trkpt>
      <trkpt lat="43.37704" lon="6.12909">
        <ele>322.39999389648</ele>
        <time>2015-11-25T14:33:01Z</time>
      </trkpt>
      <trkpt lat="43.37704" lon="6.12912">
        <ele>322.39999389648</ele>
        <time>2015-11-25T14:33:03Z</time>
      </trkpt>
      <trkpt lat="43.37704" lon="6.12914">
        <ele>322.60000610352</ele>
        <time>2015-11-25T14:33:05Z</time>
      </trkpt>
      <trkpt lat="43.37704" lon="6.12914">
        <ele>322.60000610352</ele>
        <time>2015-11-25T14:33:06Z</time>
      </trkpt>
      <trkpt lat="43.37704" lon="6.12914">
        <ele>322.60000610352</ele>
        <time>2015-11-25T14:33:07Z</time>
      </trkpt>
      <trkpt lat="43.37704" lon="6.12914">
        <ele>322.39999389648</ele>
        <time>2015-11-25T14:33:09Z</time>
      </trkpt>
      <trkpt lat="43.37704" lon="6.12913">
        <ele>322.39999389648</ele>
        <time>2015-11-25T14:33:11Z</time>
      </trkpt>
      <trkpt lat="43.37704" lon="6.12914">
        <ele>322.20001220703</ele>
        <time>2015-11-25T14:33:15Z</time>
      </trkpt>
      <trkpt lat="43.37704" lon="6.12914">
        <ele>322.60000610352</ele>
        <time>2015-11-25T14:33:21Z</time>
      </trkpt>
      <trkpt lat="43.37704" lon="6.12914">
        <ele>323</ele>
        <time>2015-11-25T14:33:55Z</time>
      </trkpt>
      <trkpt lat="43.37704" lon="6.12914">
        <ele>322.20001220703</ele>
        <time>2015-11-25T14:34:03Z</time>
      </trkpt>
      <trkpt lat="43.37704" lon="6.12914">
        <ele>322.20001220703</ele>
        <time>2015-11-25T14:34:07Z</time>
      </trkpt>
      <trkpt lat="43.37704" lon="6.12915">
        <ele>321.79998779297</ele>
        <time>2015-11-25T14:34:29Z</time>
      </trkpt>
      <trkpt lat="43.37704" lon="6.12915">
        <ele>322</ele>
        <time>2015-11-25T14:34:31Z</time>
      </trkpt>
      <trkpt lat="43.37704" lon="6.12915">
        <ele>322.60000610352</ele>
        <time>2015-11-25T14:34:33Z</time>
      </trkpt>
      <trkpt lat="43.37704" lon="6.12915">
        <ele>322.79998779297</ele>
        <time>2015-11-25T14:34:34Z</time>
      </trkpt>
      <trkpt lat="43.37704" lon="6.12915">
        <ele>322.79998779297</ele>
        <time>2015-11-25T14:34:37Z</time>
      </trkpt>
      <trkpt lat="43.37703" lon="6.12915">
        <ele>322.60000610352</ele>
        <time>2015-11-25T14:34:41Z</time>
      </trkpt>
      <trkpt lat="43.37703" lon="6.12916">
        <ele>322.20001220703</ele>
        <time>2015-11-25T14:34:47Z</time>
      </trkpt>
      <trkpt lat="43.37703" lon="6.12916">
        <ele>322.39999389648</ele>
        <time>2015-11-25T14:34:51Z</time>
      </trkpt>
      <trkpt lat="43.37703" lon="6.12915">
        <ele>322.60000610352</ele>
        <time>2015-11-25T14:34:55Z</time>
      </trkpt>
      <trkpt lat="43.37703" lon="6.12915">
        <ele>322.60000610352</ele>
        <time>2015-11-25T14:34:57Z</time>
      </trkpt>
      <trkpt lat="43.37703" lon="6.12915">
        <ele>322.39999389648</ele>
        <time>2015-11-25T14:34:59Z</time>
      </trkpt>
      <trkpt lat="43.37703" lon="6.12915">
        <ele>322.39999389648</ele>
        <time>2015-11-25T14:35:01Z</time>
      </trkpt>
      <trkpt lat="43.37703" lon="6.12916">
        <ele>322.39999389648</ele>
        <time>2015-11-25T14:35:02Z</time>
      </trkpt>
      <trkpt lat="43.37703" lon="6.12916">
        <ele>322.79998779297</ele>
        <time>2015-11-25T14:35:05Z</time>
      </trkpt>
      <trkpt lat="43.37703" lon="6.12916">
        <ele>323</ele>
        <time>2015-11-25T14:35:07Z</time>
      </trkpt>
      <trkpt lat="43.37703" lon="6.12916">
        <ele>322.60000610352</ele>
        <time>2015-11-25T14:35:09Z</time>
      </trkpt>
      <trkpt lat="43.37703" lon="6.12915">
        <ele>322.39999389648</ele>
        <time>2015-11-25T14:35:11Z</time>
      </trkpt>
      <trkpt lat="43.37703" lon="6.12915">
        <ele>322.20001220703</ele>
        <time>2015-11-25T14:35:13Z</time>
      </trkpt>
      <trkpt lat="43.37703" lon="6.12915">
        <ele>322.39999389648</ele>
        <time>2015-11-25T14:35:15Z</time>
      </trkpt>
      <trkpt lat="43.37703" lon="6.12915">
        <ele>322.39999389648</ele>
        <time>2015-11-25T14:35:17Z</time>
      </trkpt>
      <trkpt lat="43.37702" lon="6.12916">
        <ele>322</ele>
        <time>2015-11-25T14:35:19Z</time>
      </trkpt>
      <trkpt lat="43.37702" lon="6.12916">
        <ele>321.79998779297</ele>
        <time>2015-11-25T14:35:21Z</time>
      </trkpt>
      <trkpt lat="43.37702" lon="6.12916">
        <ele>321.79998779297</ele>
        <time>2015-11-25T14:35:23Z</time>
      </trkpt>
      <trkpt lat="43.37702" lon="6.12916">
        <ele>321.79998779297</ele>
        <time>2015-11-25T14:35:25Z</time>
      </trkpt>
      <trkpt lat="43.37701" lon="6.12917">
        <ele>321.79998779297</ele>
        <time>2015-11-25T14:35:27Z</time>
      </trkpt>
      <trkpt lat="43.37701" lon="6.12917">
        <ele>322</ele>
        <time>2015-11-25T14:35:29Z</time>
      </trkpt>
      <trkpt lat="43.37702" lon="6.12918">
        <ele>322</ele>
        <time>2015-11-25T14:35:30Z</time>
      </trkpt>
      <trkpt lat="43.37703" lon="6.12919">
        <ele>322</ele>
        <time>2015-11-25T14:35:31Z</time>
      </trkpt>
      <trkpt lat="43.37703" lon="6.12923">
        <ele>322.20001220703</ele>
        <time>2015-11-25T14:35:33Z</time>
      </trkpt>
      <trkpt lat="43.37704" lon="6.12928">
        <ele>322.39999389648</ele>
        <time>2015-11-25T14:35:35Z</time>
      </trkpt>
      <trkpt lat="43.37704" lon="6.12936">
        <ele>322.60000610352</ele>
        <time>2015-11-25T14:35:39Z</time>
      </trkpt>
      <trkpt lat="43.37705" lon="6.1294">
        <ele>322.79998779297</ele>
        <time>2015-11-25T14:35:41Z</time>
      </trkpt>
      <trkpt lat="43.37707" lon="6.12943">
        <ele>323.20001220703</ele>
        <time>2015-11-25T14:35:43Z</time>
      </trkpt>
      <trkpt lat="43.37708" lon="6.12945">
        <ele>323.39999389648</ele>
        <time>2015-11-25T14:35:44Z</time>
      </trkpt>
      <trkpt lat="43.37708" lon="6.12946">
        <ele>323.39999389648</ele>
        <time>2015-11-25T14:35:46Z</time>
      </trkpt>
      <trkpt lat="43.37711" lon="6.12948">
        <ele>323.79998779297</ele>
        <time>2015-11-25T14:35:50Z</time>
      </trkpt>
      <trkpt lat="43.37711" lon="6.12949">
        <ele>323.79998779297</ele>
        <time>2015-11-25T14:35:53Z</time>
      </trkpt>
      <trkpt lat="43.37712" lon="6.1295">
        <ele>323.79998779297</ele>
        <time>2015-11-25T14:35:55Z</time>
      </trkpt>
      <trkpt lat="43.37712" lon="6.12951">
        <ele>324.20001220703</ele>
        <time>2015-11-25T14:35:57Z</time>
      </trkpt>
      <trkpt lat="43.37713" lon="6.12952">
        <ele>324.39999389648</ele>
        <time>2015-11-25T14:35:59Z</time>
      </trkpt>
      <trkpt lat="43.37714" lon="6.12953">
        <ele>324.79998779297</ele>
        <time>2015-11-25T14:36:01Z</time>
      </trkpt>
      <trkpt lat="43.37717" lon="6.12957">
        <ele>325.20001220703</ele>
        <time>2015-11-25T14:36:05Z</time>
      </trkpt>
      <trkpt lat="43.37717" lon="6.12958">
        <ele>325.20001220703</ele>
        <time>2015-11-25T14:36:06Z</time>
      </trkpt>
      <trkpt lat="43.37719" lon="6.12961">
        <ele>325.20001220703</ele>
        <time>2015-11-25T14:36:09Z</time>
      </trkpt>
      <trkpt lat="43.37721" lon="6.12964">
        <ele>326</ele>
        <time>2015-11-25T14:36:13Z</time>
      </trkpt>
      <trkpt lat="43.37724" lon="6.12968">
        <ele>325.79998779297</ele>
        <time>2015-11-25T14:36:17Z</time>
      </trkpt>
      <trkpt lat="43.37725" lon="6.12969">
        <ele>326.20001220703</ele>
        <time>2015-11-25T14:36:19Z</time>
      </trkpt>
      <trkpt lat="43.37725" lon="6.12971">
        <ele>326.60000610352</ele>
        <time>2015-11-25T14:36:21Z</time>
      </trkpt>
      <trkpt lat="43.37726" lon="6.1297">
        <ele>326.79998779297</ele>
        <time>2015-11-25T14:36:25Z</time>
      </trkpt>
      <trkpt lat="43.37726" lon="6.12971">
        <ele>326.79998779297</ele>
        <time>2015-11-25T14:36:27Z</time>
      </trkpt>
      <trkpt lat="43.37726" lon="6.12971">
        <ele>326.79998779297</ele>
        <time>2015-11-25T14:36:29Z</time>
      </trkpt>
      <trkpt lat="43.37727" lon="6.12972">
        <ele>326.60000610352</ele>
        <time>2015-11-25T14:36:31Z</time>
      </trkpt>
      <trkpt lat="43.37727" lon="6.12972">
        <ele>326.60000610352</ele>
        <time>2015-11-25T14:36:33Z</time>
      </trkpt>
      <trkpt lat="43.37728" lon="6.12973">
        <ele>326.79998779297</ele>
        <time>2015-11-25T14:36:35Z</time>
      </trkpt>
      <trkpt lat="43.37728" lon="6.12974">
        <ele>327.20001220703</ele>
        <time>2015-11-25T14:36:36Z</time>
      </trkpt>
      <trkpt lat="43.37728" lon="6.12974">
        <ele>327</ele>
        <time>2015-11-25T14:36:39Z</time>
      </trkpt>
      <trkpt lat="43.37728" lon="6.12974">
        <ele>327</ele>
        <time>2015-11-25T14:36:41Z</time>
      </trkpt>
      <trkpt lat="43.37728" lon="6.12974">
        <ele>327.60000610352</ele>
        <time>2015-11-25T14:36:43Z</time>
      </trkpt>
      <trkpt lat="43.37729" lon="6.12974">
        <ele>327.60000610352</ele>
        <time>2015-11-25T14:36:45Z</time>
      </trkpt>
      <trkpt lat="43.37729" lon="6.12974">
        <ele>327.79998779297</ele>
        <time>2015-11-25T14:36:47Z</time>
      </trkpt>
      <trkpt lat="43.37729" lon="6.12975">
        <ele>327.79998779297</ele>
        <time>2015-11-25T14:36:51Z</time>
      </trkpt>
      <trkpt lat="43.37729" lon="6.12975">
        <ele>327.60000610352</ele>
        <time>2015-11-25T14:36:54Z</time>
      </trkpt>
      <trkpt lat="43.37729" lon="6.12975">
        <ele>327.60000610352</ele>
        <time>2015-11-25T14:36:57Z</time>
      </trkpt>
      <trkpt lat="43.3773" lon="6.12976">
        <ele>328</ele>
        <time>2015-11-25T14:37:00Z</time>
      </trkpt>
      <trkpt lat="43.3773" lon="6.12976">
        <ele>328</ele>
        <time>2015-11-25T14:37:01Z</time>
      </trkpt>
      <trkpt lat="43.3773" lon="6.12976">
        <ele>327.79998779297</ele>
        <time>2015-11-25T14:37:03Z</time>
      </trkpt>
      <trkpt lat="43.3773" lon="6.12976">
        <ele>327.79998779297</ele>
        <time>2015-11-25T14:37:05Z</time>
      </trkpt>
      <trkpt lat="43.3773" lon="6.12976">
        <ele>327.79998779297</ele>
        <time>2015-11-25T14:37:07Z</time>
      </trkpt>
      <trkpt lat="43.3773" lon="6.12976">
        <ele>327.79998779297</ele>
        <time>2015-11-25T14:37:09Z</time>
      </trkpt>
      <trkpt lat="43.3773" lon="6.12976">
        <ele>328.20001220703</ele>
        <time>2015-11-25T14:37:13Z</time>
      </trkpt>
      <trkpt lat="43.37731" lon="6.12976">
        <ele>328.20001220703</ele>
        <time>2015-11-25T14:37:15Z</time>
      </trkpt>
      <trkpt lat="43.37731" lon="6.12977">
        <ele>328.20001220703</ele>
        <time>2015-11-25T14:37:17Z</time>
      </trkpt>
      <trkpt lat="43.37731" lon="6.12977">
        <ele>328.20001220703</ele>
        <time>2015-11-25T14:37:19Z</time>
      </trkpt>
      <trkpt lat="43.37731" lon="6.12977">
        <ele>328.39999389648</ele>
        <time>2015-11-25T14:37:21Z</time>
      </trkpt>
      <trkpt lat="43.37731" lon="6.12976">
        <ele>328.20001220703</ele>
        <time>2015-11-25T14:37:23Z</time>
      </trkpt>
      <trkpt lat="43.37732" lon="6.12977">
        <ele>328.20001220703</ele>
        <time>2015-11-25T14:37:25Z</time>
      </trkpt>
      <trkpt lat="43.37732" lon="6.12977">
        <ele>328.20001220703</ele>
        <time>2015-11-25T14:37:27Z</time>
      </trkpt>
      <trkpt lat="43.37732" lon="6.12977">
        <ele>328.20001220703</ele>
        <time>2015-11-25T14:37:30Z</time>
      </trkpt>
      <trkpt lat="43.37731" lon="6.12977">
        <ele>328.20001220703</ele>
        <time>2015-11-25T14:37:33Z</time>
      </trkpt>
      <trkpt lat="43.37732" lon="6.12979">
        <ele>329</ele>
        <time>2015-11-25T14:37:37Z</time>
      </trkpt>
      <trkpt lat="43.37733" lon="6.12979">
        <ele>329.20001220703</ele>
        <time>2015-11-25T14:37:38Z</time>
      </trkpt>
      <trkpt lat="43.37733" lon="6.12979">
        <ele>329.39999389648</ele>
        <time>2015-11-25T14:37:39Z</time>
      </trkpt>
      <trkpt lat="43.37735" lon="6.12979">
        <ele>329.79998779297</ele>
        <time>2015-11-25T14:37:41Z</time>
      </trkpt>
      <trkpt lat="43.37735" lon="6.12979">
        <ele>330</ele>
        <time>2015-11-25T14:37:43Z</time>
      </trkpt>
      <trkpt lat="43.37736" lon="6.1298">
        <ele>330</ele>
        <time>2015-11-25T14:37:45Z</time>
      </trkpt>
      <trkpt lat="43.37736" lon="6.1298">
        <ele>330</ele>
        <time>2015-11-25T14:37:47Z</time>
      </trkpt>
      <trkpt lat="43.37738" lon="6.1298">
        <ele>330</ele>
        <time>2015-11-25T14:37:49Z</time>
      </trkpt>
      <trkpt lat="43.37738" lon="6.1298">
        <ele>329.39999389648</ele>
        <time>2015-11-25T14:37:51Z</time>
      </trkpt>
      <trkpt lat="43.37738" lon="6.1298">
        <ele>329.39999389648</ele>
        <time>2015-11-25T14:37:53Z</time>
      </trkpt>
      <trkpt lat="43.37738" lon="6.1298">
        <ele>329.79998779297</ele>
        <time>2015-11-25T14:37:55Z</time>
      </trkpt>
      <trkpt lat="43.37738" lon="6.1298">
        <ele>329.79998779297</ele>
        <time>2015-11-25T14:37:57Z</time>
      </trkpt>
      <trkpt lat="43.37738" lon="6.1298">
        <ele>330</ele>
        <time>2015-11-25T14:37:58Z</time>
      </trkpt>
      <trkpt lat="43.37738" lon="6.12979">
        <ele>330</ele>
        <time>2015-11-25T14:38:00Z</time>
      </trkpt>
      <trkpt lat="43.37739" lon="6.12979">
        <ele>330.39999389648</ele>
        <time>2015-11-25T14:38:04Z</time>
      </trkpt>
      <trkpt lat="43.3774" lon="6.12979">
        <ele>330.79998779297</ele>
        <time>2015-11-25T14:38:07Z</time>
      </trkpt>
      <trkpt lat="43.3774" lon="6.12979">
        <ele>331.20001220703</ele>
        <time>2015-11-25T14:38:09Z</time>
      </trkpt>
      <trkpt lat="43.37741" lon="6.12979">
        <ele>331.60000610352</ele>
        <time>2015-11-25T14:38:11Z</time>
      </trkpt>
      <trkpt lat="43.37741" lon="6.12979">
        <ele>331.60000610352</ele>
        <time>2015-11-25T14:38:12Z</time>
      </trkpt>
      <trkpt lat="43.37742" lon="6.12978">
        <ele>332</ele>
        <time>2015-11-25T14:38:13Z</time>
      </trkpt>
      <trkpt lat="43.37743" lon="6.12978">
        <ele>332.20001220703</ele>
        <time>2015-11-25T14:38:15Z</time>
      </trkpt>
      <trkpt lat="43.37743" lon="6.12978">
        <ele>332.39999389648</ele>
        <time>2015-11-25T14:38:18Z</time>
      </trkpt>
      <trkpt lat="43.37744" lon="6.12978">
        <ele>332.60000610352</ele>
        <time>2015-11-25T14:38:21Z</time>
      </trkpt>
      <trkpt lat="43.37745" lon="6.12977">
        <ele>332.79998779297</ele>
        <time>2015-11-25T14:38:23Z</time>
      </trkpt>
      <trkpt lat="43.37745" lon="6.12977">
        <ele>333.20001220703</ele>
        <time>2015-11-25T14:38:25Z</time>
      </trkpt>
      <trkpt lat="43.37745" lon="6.12977">
        <ele>333.20001220703</ele>
        <time>2015-11-25T14:38:26Z</time>
      </trkpt>
      <trkpt lat="43.37746" lon="6.12977">
        <ele>333.20001220703</ele>
        <time>2015-11-25T14:38:29Z</time>
      </trkpt>
      <trkpt lat="43.37746" lon="6.12977">
        <ele>333.20001220703</ele>
        <time>2015-11-25T14:38:30Z</time>
      </trkpt>
      <trkpt lat="43.37747" lon="6.12978">
        <ele>333.20001220703</ele>
        <time>2015-11-25T14:38:32Z</time>
      </trkpt>
      <trkpt lat="43.37749" lon="6.12978">
        <ele>333.79998779297</ele>
        <time>2015-11-25T14:38:35Z</time>
      </trkpt>
      <trkpt lat="43.3775" lon="6.12979">
        <ele>334</ele>
        <time>2015-11-25T14:38:36Z</time>
      </trkpt>
      <trkpt lat="43.37751" lon="6.1298">
        <ele>334.20001220703</ele>
        <time>2015-11-25T14:38:38Z</time>
      </trkpt>
      <trkpt lat="43.37751" lon="6.1298">
        <ele>334.39999389648</ele>
        <time>2015-11-25T14:38:40Z</time>
      </trkpt>
      <trkpt lat="43.37751" lon="6.1298">
        <ele>334.39999389648</ele>
        <time>2015-11-25T14:38:42Z</time>
      </trkpt>
      <trkpt lat="43.37751" lon="6.12981">
        <ele>334.60000610352</ele>
        <time>2015-11-25T14:38:44Z</time>
      </trkpt>
      <trkpt lat="43.37751" lon="6.12981">
        <ele>335</ele>
        <time>2015-11-25T14:38:50Z</time>
      </trkpt>
      <trkpt lat="43.37751" lon="6.12981">
        <ele>335</ele>
        <time>2015-11-25T14:38:52Z</time>
      </trkpt>
      <trkpt lat="43.37752" lon="6.12981">
        <ele>335.39999389648</ele>
        <time>2015-11-25T14:38:54Z</time>
      </trkpt>
      <trkpt lat="43.37752" lon="6.12981">
        <ele>335.39999389648</ele>
        <time>2015-11-25T14:38:56Z</time>
      </trkpt>
      <trkpt lat="43.37752" lon="6.12981">
        <ele>335.39999389648</ele>
        <time>2015-11-25T14:38:58Z</time>
      </trkpt>
      <trkpt lat="43.37753" lon="6.12982">
        <ele>335.39999389648</ele>
        <time>2015-11-25T14:39:00Z</time>
      </trkpt>
      <trkpt lat="43.37753" lon="6.12983">
        <ele>335.79998779297</ele>
        <time>2015-11-25T14:39:02Z</time>
      </trkpt>
      <trkpt lat="43.37754" lon="6.12984">
        <ele>336.39999389648</ele>
        <time>2015-11-25T14:39:04Z</time>
      </trkpt>
      <trkpt lat="43.37755" lon="6.12985">
        <ele>336.60000610352</ele>
        <time>2015-11-25T14:39:06Z</time>
      </trkpt>
      <trkpt lat="43.37756" lon="6.12987">
        <ele>337.20001220703</ele>
        <time>2015-11-25T14:39:09Z</time>
      </trkpt>
      <trkpt lat="43.37758" lon="6.12988">
        <ele>337.39999389648</ele>
        <time>2015-11-25T14:39:12Z</time>
      </trkpt>
      <trkpt lat="43.37759" lon="6.12988">
        <ele>337.39999389648</ele>
        <time>2015-11-25T14:39:14Z</time>
      </trkpt>
      <trkpt lat="43.37761" lon="6.12987">
        <ele>337.60000610352</ele>
        <time>2015-11-25T14:39:16Z</time>
      </trkpt>
      <trkpt lat="43.37761" lon="6.12987">
        <ele>337.79998779297</ele>
        <time>2015-11-25T14:39:18Z</time>
      </trkpt>
      <trkpt lat="43.37762" lon="6.12986">
        <ele>338</ele>
        <time>2015-11-25T14:39:20Z</time>
      </trkpt>
      <trkpt lat="43.37764" lon="6.12985">
        <ele>338.20001220703</ele>
        <time>2015-11-25T14:39:22Z</time>
      </trkpt>
      <trkpt lat="43.37764" lon="6.12984">
        <ele>338.60000610352</ele>
        <time>2015-11-25T14:39:24Z</time>
      </trkpt>
      <trkpt lat="43.37766" lon="6.12983">
        <ele>338.60000610352</ele>
        <time>2015-11-25T14:39:26Z</time>
      </trkpt>
      <trkpt lat="43.37767" lon="6.12983">
        <ele>338.79998779297</ele>
        <time>2015-11-25T14:39:28Z</time>
      </trkpt>
      <trkpt lat="43.37767" lon="6.12983">
        <ele>339.20001220703</ele>
        <time>2015-11-25T14:39:30Z</time>
      </trkpt>
      <trkpt lat="43.37767" lon="6.12983">
        <ele>339.39999389648</ele>
        <time>2015-11-25T14:39:31Z</time>
      </trkpt>
      <trkpt lat="43.37767" lon="6.12983">
        <ele>339.39999389648</ele>
        <time>2015-11-25T14:39:32Z</time>
      </trkpt>
      <trkpt lat="43.37767" lon="6.12983">
        <ele>339.60000610352</ele>
        <time>2015-11-25T14:39:34Z</time>
      </trkpt>
      <trkpt lat="43.37767" lon="6.12983">
        <ele>339.60000610352</ele>
        <time>2015-11-25T14:39:35Z</time>
      </trkpt>
      <trkpt lat="43.37767" lon="6.12983">
        <ele>339.60000610352</ele>
        <time>2015-11-25T14:39:36Z</time>
      </trkpt>
      <trkpt lat="43.37768" lon="6.12983">
        <ele>339.60000610352</ele>
        <time>2015-11-25T14:39:38Z</time>
      </trkpt>
      <trkpt lat="43.37768" lon="6.12984">
        <ele>339.79998779297</ele>
        <time>2015-11-25T14:39:40Z</time>
      </trkpt>
      <trkpt lat="43.37769" lon="6.12984">
        <ele>340</ele>
        <time>2015-11-25T14:39:42Z</time>
      </trkpt>
      <trkpt lat="43.37769" lon="6.12985">
        <ele>340.20001220703</ele>
        <time>2015-11-25T14:39:44Z</time>
      </trkpt>
      <trkpt lat="43.37769" lon="6.12985">
        <ele>340.39999389648</ele>
        <time>2015-11-25T14:39:48Z</time>
      </trkpt>
      <trkpt lat="43.37769" lon="6.12985">
        <ele>340.79998779297</ele>
        <time>2015-11-25T14:39:50Z</time>
      </trkpt>
      <trkpt lat="43.37768" lon="6.12985">
        <ele>340.79998779297</ele>
        <time>2015-11-25T14:39:52Z</time>
      </trkpt>
      <trkpt lat="43.37768" lon="6.12985">
        <ele>340.60000610352</ele>
        <time>2015-11-25T14:39:56Z</time>
      </trkpt>
      <trkpt lat="43.37769" lon="6.12985">
        <ele>340.79998779297</ele>
        <time>2015-11-25T14:39:58Z</time>
      </trkpt>
      <trkpt lat="43.37769" lon="6.12986">
        <ele>340.79998779297</ele>
        <time>2015-11-25T14:40:02Z</time>
      </trkpt>
      <trkpt lat="43.37769" lon="6.12986">
        <ele>341</ele>
        <time>2015-11-25T14:40:03Z</time>
      </trkpt>
      <trkpt lat="43.3777" lon="6.12986">
        <ele>341</ele>
        <time>2015-11-25T14:40:04Z</time>
      </trkpt>
      <trkpt lat="43.3777" lon="6.12985">
        <ele>341.20001220703</ele>
        <time>2015-11-25T14:40:06Z</time>
      </trkpt>
      <trkpt lat="43.37771" lon="6.12985">
        <ele>341.39999389648</ele>
        <time>2015-11-25T14:40:08Z</time>
      </trkpt>
      <trkpt lat="43.37771" lon="6.12984">
        <ele>341.60000610352</ele>
        <time>2015-11-25T14:40:10Z</time>
      </trkpt>
      <trkpt lat="43.37772" lon="6.12984">
        <ele>341.60000610352</ele>
        <time>2015-11-25T14:40:11Z</time>
      </trkpt>
      <trkpt lat="43.37772" lon="6.12984">
        <ele>341.79998779297</ele>
        <time>2015-11-25T14:40:12Z</time>
      </trkpt>
      <trkpt lat="43.37772" lon="6.12984">
        <ele>342.20001220703</ele>
        <time>2015-11-25T14:40:14Z</time>
      </trkpt>
      <trkpt lat="43.37772" lon="6.12984">
        <ele>342</ele>
        <time>2015-11-25T14:40:16Z</time>
      </trkpt>
      <trkpt lat="43.37772" lon="6.12984">
        <ele>342.20001220703</ele>
        <time>2015-11-25T14:40:18Z</time>
      </trkpt>
      <trkpt lat="43.37772" lon="6.12984">
        <ele>342</ele>
        <time>2015-11-25T14:40:21Z</time>
      </trkpt>
      <trkpt lat="43.37772" lon="6.12984">
        <ele>342.20001220703</ele>
        <time>2015-11-25T14:40:22Z</time>
      </trkpt>
      <trkpt lat="43.37773" lon="6.12984">
        <ele>342.39999389648</ele>
        <time>2015-11-25T14:40:24Z</time>
      </trkpt>
      <trkpt lat="43.37773" lon="6.12984">
        <ele>342.60000610352</ele>
        <time>2015-11-25T14:40:26Z</time>
      </trkpt>
      <trkpt lat="43.37773" lon="6.12984">
        <ele>342.79998779297</ele>
        <time>2015-11-25T14:40:28Z</time>
      </trkpt>
      <trkpt lat="43.37773" lon="6.12984">
        <ele>342.79998779297</ele>
        <time>2015-11-25T14:40:31Z</time>
      </trkpt>
      <trkpt lat="43.37773" lon="6.12984">
        <ele>343</ele>
        <time>2015-11-25T14:40:34Z</time>
      </trkpt>
      <trkpt lat="43.37773" lon="6.12984">
        <ele>343</ele>
        <time>2015-11-25T14:40:36Z</time>
      </trkpt>
      <trkpt lat="43.37773" lon="6.12984">
        <ele>342.79998779297</ele>
        <time>2015-11-25T14:40:38Z</time>
      </trkpt>
      <trkpt lat="43.37773" lon="6.12985">
        <ele>342.79998779297</ele>
        <time>2015-11-25T14:40:40Z</time>
      </trkpt>
      <trkpt lat="43.37773" lon="6.12984">
        <ele>342.39999389648</ele>
        <time>2015-11-25T14:41:12Z</time>
      </trkpt>
      <trkpt lat="43.37773" lon="6.12985">
        <ele>342.39999389648</ele>
        <time>2015-11-25T14:41:16Z</time>
      </trkpt>
      <trkpt lat="43.37773" lon="6.12985">
        <ele>342.20001220703</ele>
        <time>2015-11-25T14:41:22Z</time>
      </trkpt>
      <trkpt lat="43.37773" lon="6.12985">
        <ele>342.20001220703</ele>
        <time>2015-11-25T14:41:23Z</time>
      </trkpt>
      <trkpt lat="43.37773" lon="6.12985">
        <ele>342.20001220703</ele>
        <time>2015-11-25T14:41:24Z</time>
      </trkpt>
      <trkpt lat="43.37773" lon="6.12985">
        <ele>342.39999389648</ele>
        <time>2015-11-25T14:41:26Z</time>
      </trkpt>
      <trkpt lat="43.37773" lon="6.12985">
        <ele>342.60000610352</ele>
        <time>2015-11-25T14:41:28Z</time>
      </trkpt>
      <trkpt lat="43.37773" lon="6.12985">
        <ele>343</ele>
        <time>2015-11-25T14:41:30Z</time>
      </trkpt>
      <trkpt lat="43.37773" lon="6.12985">
        <ele>342.79998779297</ele>
        <time>2015-11-25T14:41:34Z</time>
      </trkpt>
      <trkpt lat="43.37773" lon="6.12985">
        <ele>342.79998779297</ele>
        <time>2015-11-25T14:41:36Z</time>
      </trkpt>
      <trkpt lat="43.37773" lon="6.12984">
        <ele>343</ele>
        <time>2015-11-25T14:41:38Z</time>
      </trkpt>
      <trkpt lat="43.37773" lon="6.12984">
        <ele>342.79998779297</ele>
        <time>2015-11-25T14:41:40Z</time>
      </trkpt>
      <trkpt lat="43.37773" lon="6.12984">
        <ele>342.79998779297</ele>
        <time>2015-11-25T14:41:42Z</time>
      </trkpt>
      <trkpt lat="43.37773" lon="6.12984">
        <ele>342.60000610352</ele>
        <time>2015-11-25T14:41:44Z</time>
      </trkpt>
      <trkpt lat="43.37773" lon="6.12984">
        <ele>342.60000610352</ele>
        <time>2015-11-25T14:41:46Z</time>
      </trkpt>
      <trkpt lat="43.37773" lon="6.12985">
        <ele>342.60000610352</ele>
        <time>2015-11-25T14:41:48Z</time>
      </trkpt>
      <trkpt lat="43.37773" lon="6.12985">
        <ele>342.60000610352</ele>
        <time>2015-11-25T14:41:50Z</time>
      </trkpt>
      <trkpt lat="43.37773" lon="6.12985">
        <ele>342.60000610352</ele>
        <time>2015-11-25T14:41:52Z</time>
      </trkpt>
      <trkpt lat="43.37773" lon="6.12985">
        <ele>342.39999389648</ele>
        <time>2015-11-25T14:41:54Z</time>
      </trkpt>
      <trkpt lat="43.37773" lon="6.12985">
        <ele>342.20001220703</ele>
        <time>2015-11-25T14:41:58Z</time>
      </trkpt>
      <trkpt lat="43.37773" lon="6.12984">
        <ele>342.39999389648</ele>
        <time>2015-11-25T14:42:04Z</time>
      </trkpt>
      <trkpt lat="43.37773" lon="6.12984">
        <ele>342.79998779297</ele>
        <time>2015-11-25T14:42:14Z</time>
      </trkpt>
      <trkpt lat="43.37773" lon="6.12984">
        <ele>342.79998779297</ele>
        <time>2015-11-25T14:42:18Z</time>
      </trkpt>
      <trkpt lat="43.37773" lon="6.12984">
        <ele>342.79998779297</ele>
        <time>2015-11-25T14:42:20Z</time>
      </trkpt>
      <trkpt lat="43.37773" lon="6.12984">
        <ele>342.60000610352</ele>
        <time>2015-11-25T14:42:21Z</time>
      </trkpt>
      <trkpt lat="43.37773" lon="6.12985">
        <ele>342.60000610352</ele>
        <time>2015-11-25T14:42:24Z</time>
      </trkpt>
      <trkpt lat="43.37773" lon="6.12985">
        <ele>342.60000610352</ele>
        <time>2015-11-25T14:42:28Z</time>
      </trkpt>
      <trkpt lat="43.37773" lon="6.12984">
        <ele>342.20001220703</ele>
        <time>2015-11-25T14:42:37Z</time>
      </trkpt>
      <trkpt lat="43.37773" lon="6.12985">
        <ele>342.20001220703</ele>
        <time>2015-11-25T14:42:38Z</time>
      </trkpt>
      <trkpt lat="43.37773" lon="6.12985">
        <ele>342.20001220703</ele>
        <time>2015-11-25T14:42:40Z</time>
      </trkpt>
      <trkpt lat="43.37773" lon="6.12985">
        <ele>342.39999389648</ele>
        <time>2015-11-25T14:42:42Z</time>
      </trkpt>
      <trkpt lat="43.37773" lon="6.12985">
        <ele>342.39999389648</ele>
        <time>2015-11-25T14:42:44Z</time>
      </trkpt>
      <trkpt lat="43.37773" lon="6.12985">
        <ele>342.60000610352</ele>
        <time>2015-11-25T14:42:46Z</time>
      </trkpt>
      <trkpt lat="43.37773" lon="6.12984">
        <ele>342.79998779297</ele>
        <time>2015-11-25T14:42:48Z</time>
      </trkpt>
      <trkpt lat="43.37773" lon="6.12984">
        <ele>343</ele>
        <time>2015-11-25T14:42:50Z</time>
      </trkpt>
      <trkpt lat="43.37773" lon="6.12984">
        <ele>343.20001220703</ele>
        <time>2015-11-25T14:42:52Z</time>
      </trkpt>
      <trkpt lat="43.37772" lon="6.12984">
        <ele>343.39999389648</ele>
        <time>2015-11-25T14:42:53Z</time>
      </trkpt>
      <trkpt lat="43.37773" lon="6.12984">
        <ele>343.60000610352</ele>
        <time>2015-11-25T14:42:54Z</time>
      </trkpt>
      <trkpt lat="43.37773" lon="6.12984">
        <ele>343.60000610352</ele>
        <time>2015-11-25T14:42:56Z</time>
      </trkpt>
      <trkpt lat="43.37773" lon="6.12984">
        <ele>343.60000610352</ele>
        <time>2015-11-25T14:42:58Z</time>
      </trkpt>
      <trkpt lat="43.37773" lon="6.12984">
        <ele>343.39999389648</ele>
        <time>2015-11-25T14:43:02Z</time>
      </trkpt>
      <trkpt lat="43.37773" lon="6.12984">
        <ele>343</ele>
        <time>2015-11-25T14:43:16Z</time>
      </trkpt>
      <trkpt lat="43.37773" lon="6.12984">
        <ele>343</ele>
        <time>2015-11-25T14:43:18Z</time>
      </trkpt>
      <trkpt lat="43.37773" lon="6.12984">
        <ele>343</ele>
        <time>2015-11-25T14:43:22Z</time>
      </trkpt>
      <trkpt lat="43.37773" lon="6.12984">
        <ele>343</ele>
        <time>2015-11-25T14:43:28Z</time>
      </trkpt>
      <trkpt lat="43.37773" lon="6.12984">
        <ele>342.79998779297</ele>
        <time>2015-11-25T14:43:36Z</time>
      </trkpt>
      <trkpt lat="43.37773" lon="6.12984">
        <ele>343</ele>
        <time>2015-11-25T14:43:50Z</time>
      </trkpt>
      <trkpt lat="43.37773" lon="6.12984">
        <ele>342.79998779297</ele>
        <time>2015-11-25T14:44:00Z</time>
      </trkpt>
      <trkpt lat="43.37773" lon="6.12984">
        <ele>343</ele>
        <time>2015-11-25T14:44:02Z</time>
      </trkpt>
      <trkpt lat="43.37773" lon="6.12984">
        <ele>343</ele>
        <time>2015-11-25T14:44:03Z</time>
      </trkpt>
      <trkpt lat="43.37773" lon="6.12984">
        <ele>343</ele>
        <time>2015-11-25T14:44:04Z</time>
      </trkpt>
      <trkpt lat="43.37774" lon="6.12984">
        <ele>343.39999389648</ele>
        <time>2015-11-25T14:44:06Z</time>
      </trkpt>
      <trkpt lat="43.37774" lon="6.12985">
        <ele>343.60000610352</ele>
        <time>2015-11-25T14:44:08Z</time>
      </trkpt>
      <trkpt lat="43.37774" lon="6.12985">
        <ele>343.60000610352</ele>
        <time>2015-11-25T14:44:09Z</time>
      </trkpt>
      <trkpt lat="43.37774" lon="6.12985">
        <ele>343.60000610352</ele>
        <time>2015-11-25T14:44:10Z</time>
      </trkpt>
      <trkpt lat="43.37774" lon="6.12985">
        <ele>343.60000610352</ele>
        <time>2015-11-25T14:44:12Z</time>
      </trkpt>
      <trkpt lat="43.37774" lon="6.12985">
        <ele>343.79998779297</ele>
        <time>2015-11-25T14:44:14Z</time>
      </trkpt>
      <trkpt lat="43.37774" lon="6.12985">
        <ele>344</ele>
        <time>2015-11-25T14:44:16Z</time>
      </trkpt>
      <trkpt lat="43.37774" lon="6.12986">
        <ele>344</ele>
        <time>2015-11-25T14:44:20Z</time>
      </trkpt>
      <trkpt lat="43.37775" lon="6.12987">
        <ele>344</ele>
        <time>2015-11-25T14:44:24Z</time>
      </trkpt>
      <trkpt lat="43.37775" lon="6.12988">
        <ele>344.20001220703</ele>
        <time>2015-11-25T14:44:26Z</time>
      </trkpt>
      <trkpt lat="43.37775" lon="6.1299">
        <ele>344.39999389648</ele>
        <time>2015-11-25T14:44:28Z</time>
      </trkpt>
      <trkpt lat="43.37775" lon="6.1299">
        <ele>344</ele>
        <time>2015-11-25T14:44:30Z</time>
      </trkpt>
      <trkpt lat="43.37775" lon="6.12991">
        <ele>343.79998779297</ele>
        <time>2015-11-25T14:44:32Z</time>
      </trkpt>
      <trkpt lat="43.37775" lon="6.12991">
        <ele>343.79998779297</ele>
        <time>2015-11-25T14:44:34Z</time>
      </trkpt>
      <trkpt lat="43.37775" lon="6.12992">
        <ele>344</ele>
        <time>2015-11-25T14:44:36Z</time>
      </trkpt>
      <trkpt lat="43.37776" lon="6.12994">
        <ele>343.79998779297</ele>
        <time>2015-11-25T14:44:38Z</time>
      </trkpt>
      <trkpt lat="43.37777" lon="6.12995">
        <ele>344.20001220703</ele>
        <time>2015-11-25T14:44:40Z</time>
      </trkpt>
      <trkpt lat="43.37777" lon="6.12995">
        <ele>344.20001220703</ele>
        <time>2015-11-25T14:44:42Z</time>
      </trkpt>
      <trkpt lat="43.37777" lon="6.12995">
        <ele>344.20001220703</ele>
        <time>2015-11-25T14:44:44Z</time>
      </trkpt>
      <trkpt lat="43.37777" lon="6.12995">
        <ele>344.20001220703</ele>
        <time>2015-11-25T14:44:48Z</time>
      </trkpt>
      <trkpt lat="43.37778" lon="6.12996">
        <ele>344.39999389648</ele>
        <time>2015-11-25T14:44:49Z</time>
      </trkpt>
      <trkpt lat="43.37778" lon="6.12996">
        <ele>344.39999389648</ele>
        <time>2015-11-25T14:44:50Z</time>
      </trkpt>
      <trkpt lat="43.37778" lon="6.12997">
        <ele>344.60000610352</ele>
        <time>2015-11-25T14:44:52Z</time>
      </trkpt>
      <trkpt lat="43.37779" lon="6.12999">
        <ele>344.60000610352</ele>
        <time>2015-11-25T14:44:54Z</time>
      </trkpt>
      <trkpt lat="43.37781" lon="6.13">
        <ele>344.79998779297</ele>
        <time>2015-11-25T14:44:56Z</time>
      </trkpt>
      <trkpt lat="43.37781" lon="6.13">
        <ele>345.20001220703</ele>
        <time>2015-11-25T14:44:57Z</time>
      </trkpt>
      <trkpt lat="43.37782" lon="6.13">
        <ele>345.79998779297</ele>
        <time>2015-11-25T14:45:00Z</time>
      </trkpt>
      <trkpt lat="43.37783" lon="6.13">
        <ele>346.20001220703</ele>
        <time>2015-11-25T14:45:02Z</time>
      </trkpt>
      <trkpt lat="43.37784" lon="6.13">
        <ele>346.39999389648</ele>
        <time>2015-11-25T14:45:04Z</time>
      </trkpt>
      <trkpt lat="43.37784" lon="6.13">
        <ele>346.79998779297</ele>
        <time>2015-11-25T14:45:06Z</time>
      </trkpt>
      <trkpt lat="43.37785" lon="6.13">
        <ele>347</ele>
        <time>2015-11-25T14:45:07Z</time>
      </trkpt>
      <trkpt lat="43.37785" lon="6.13">
        <ele>347.20001220703</ele>
        <time>2015-11-25T14:45:08Z</time>
      </trkpt>
      <trkpt lat="43.37786" lon="6.13001">
        <ele>347.60000610352</ele>
        <time>2015-11-25T14:45:10Z</time>
      </trkpt>
      <trkpt lat="43.37787" lon="6.13004">
        <ele>348.20001220703</ele>
        <time>2015-11-25T14:45:14Z</time>
      </trkpt>
      <trkpt lat="43.37788" lon="6.13005">
        <ele>348.39999389648</ele>
        <time>2015-11-25T14:45:16Z</time>
      </trkpt>
      <trkpt lat="43.37789" lon="6.13006">
        <ele>348.60000610352</ele>
        <time>2015-11-25T14:45:18Z</time>
      </trkpt>
      <trkpt lat="43.37789" lon="6.13006">
        <ele>348.60000610352</ele>
        <time>2015-11-25T14:45:20Z</time>
      </trkpt>
      <trkpt lat="43.3779" lon="6.13007">
        <ele>349</ele>
        <time>2015-11-25T14:45:22Z</time>
      </trkpt>
      <trkpt lat="43.37791" lon="6.13007">
        <ele>349.20001220703</ele>
        <time>2015-11-25T14:45:26Z</time>
      </trkpt>
      <trkpt lat="43.37791" lon="6.13008">
        <ele>348.79998779297</ele>
        <time>2015-11-25T14:45:32Z</time>
      </trkpt>
      <trkpt lat="43.37791" lon="6.13008">
        <ele>348.79998779297</ele>
        <time>2015-11-25T14:45:34Z</time>
      </trkpt>
      <trkpt lat="43.37791" lon="6.13008">
        <ele>348.79998779297</ele>
        <time>2015-11-25T14:45:36Z</time>
      </trkpt>
      <trkpt lat="43.37791" lon="6.13008">
        <ele>348.79998779297</ele>
        <time>2015-11-25T14:45:37Z</time>
      </trkpt>
      <trkpt lat="43.37791" lon="6.13008">
        <ele>349</ele>
        <time>2015-11-25T14:45:38Z</time>
      </trkpt>
      <trkpt lat="43.37791" lon="6.13008">
        <ele>349</ele>
        <time>2015-11-25T14:45:40Z</time>
      </trkpt>
      <trkpt lat="43.37791" lon="6.13008">
        <ele>349</ele>
        <time>2015-11-25T14:45:42Z</time>
      </trkpt>
      <trkpt lat="43.37791" lon="6.13008">
        <ele>349.20001220703</ele>
        <time>2015-11-25T14:45:44Z</time>
      </trkpt>
      <trkpt lat="43.37792" lon="6.13009">
        <ele>349</ele>
        <time>2015-11-25T14:45:46Z</time>
      </trkpt>
      <trkpt lat="43.37792" lon="6.13009">
        <ele>349.20001220703</ele>
        <time>2015-11-25T14:45:48Z</time>
      </trkpt>
      <trkpt lat="43.37792" lon="6.13009">
        <ele>349.20001220703</ele>
        <time>2015-11-25T14:45:50Z</time>
      </trkpt>
      <trkpt lat="43.37793" lon="6.13009">
        <ele>349.39999389648</ele>
        <time>2015-11-25T14:45:52Z</time>
      </trkpt>
      <trkpt lat="43.37793" lon="6.13009">
        <ele>350.20001220703</ele>
        <time>2015-11-25T14:45:56Z</time>
      </trkpt>
      <trkpt lat="43.37793" lon="6.13009">
        <ele>350.39999389648</ele>
        <time>2015-11-25T14:45:57Z</time>
      </trkpt>
      <trkpt lat="43.37793" lon="6.13009">
        <ele>350.79998779297</ele>
        <time>2015-11-25T14:45:58Z</time>
      </trkpt>
      <trkpt lat="43.37794" lon="6.13009">
        <ele>351</ele>
        <time>2015-11-25T14:46:00Z</time>
      </trkpt>
      <trkpt lat="43.37795" lon="6.13009">
        <ele>351.20001220703</ele>
        <time>2015-11-25T14:46:04Z</time>
      </trkpt>
      <trkpt lat="43.37796" lon="6.1301">
        <ele>351.20001220703</ele>
        <time>2015-11-25T14:46:06Z</time>
      </trkpt>
      <trkpt lat="43.37796" lon="6.1301">
        <ele>351.20001220703</ele>
        <time>2015-11-25T14:46:08Z</time>
      </trkpt>
      <trkpt lat="43.37797" lon="6.1301">
        <ele>351.39999389648</ele>
        <time>2015-11-25T14:46:09Z</time>
      </trkpt>
      <trkpt lat="43.37798" lon="6.1301">
        <ele>351.60000610352</ele>
        <time>2015-11-25T14:46:10Z</time>
      </trkpt>
      <trkpt lat="43.37798" lon="6.1301">
        <ele>352</ele>
        <time>2015-11-25T14:46:12Z</time>
      </trkpt>
      <trkpt lat="43.37798" lon="6.13009">
        <ele>352</ele>
        <time>2015-11-25T14:46:14Z</time>
      </trkpt>
      <trkpt lat="43.37798" lon="6.13009">
        <ele>351.79998779297</ele>
        <time>2015-11-25T14:46:16Z</time>
      </trkpt>
      <trkpt lat="43.37798" lon="6.13009">
        <ele>352</ele>
        <time>2015-11-25T14:46:18Z</time>
      </trkpt>
      <trkpt lat="43.37798" lon="6.13008">
        <ele>352</ele>
        <time>2015-11-25T14:46:22Z</time>
      </trkpt>
      <trkpt lat="43.37798" lon="6.13008">
        <ele>352</ele>
        <time>2015-11-25T14:46:24Z</time>
      </trkpt>
      <trkpt lat="43.37798" lon="6.13009">
        <ele>351.79998779297</ele>
        <time>2015-11-25T14:46:28Z</time>
      </trkpt>
      <trkpt lat="43.37798" lon="6.13009">
        <ele>351.79998779297</ele>
        <time>2015-11-25T14:46:29Z</time>
      </trkpt>
      <trkpt lat="43.37798" lon="6.13009">
        <ele>351.79998779297</ele>
        <time>2015-11-25T14:46:30Z</time>
      </trkpt>
      <trkpt lat="43.37799" lon="6.13009">
        <ele>351.79998779297</ele>
        <time>2015-11-25T14:46:32Z</time>
      </trkpt>
      <trkpt lat="43.37799" lon="6.1301">
        <ele>351.79998779297</ele>
        <time>2015-11-25T14:46:34Z</time>
      </trkpt>
      <trkpt lat="43.37799" lon="6.1301">
        <ele>351.79998779297</ele>
        <time>2015-11-25T14:46:36Z</time>
      </trkpt>
      <trkpt lat="43.37799" lon="6.1301">
        <ele>351.79998779297</ele>
        <time>2015-11-25T14:46:38Z</time>
      </trkpt>
      <trkpt lat="43.37799" lon="6.1301">
        <ele>352</ele>
        <time>2015-11-25T14:46:41Z</time>
      </trkpt>
      <trkpt lat="43.37799" lon="6.1301">
        <ele>352</ele>
        <time>2015-11-25T14:46:42Z</time>
      </trkpt>
      <trkpt lat="43.37799" lon="6.1301">
        <ele>352</ele>
        <time>2015-11-25T14:46:44Z</time>
      </trkpt>
      <trkpt lat="43.37799" lon="6.1301">
        <ele>352</ele>
        <time>2015-11-25T14:46:46Z</time>
      </trkpt>
      <trkpt lat="43.37798" lon="6.1301">
        <ele>351.60000610352</ele>
        <time>2015-11-25T14:46:48Z</time>
      </trkpt>
      <trkpt lat="43.37798" lon="6.1301">
        <ele>351.20001220703</ele>
        <time>2015-11-25T14:46:50Z</time>
      </trkpt>
      <trkpt lat="43.37798" lon="6.1301">
        <ele>351</ele>
        <time>2015-11-25T14:46:53Z</time>
      </trkpt>
      <trkpt lat="43.37798" lon="6.1301">
        <ele>351</ele>
        <time>2015-11-25T14:46:54Z</time>
      </trkpt>
      <trkpt lat="43.37798" lon="6.1301">
        <ele>351.79998779297</ele>
        <time>2015-11-25T14:46:56Z</time>
      </trkpt>
      <trkpt lat="43.37798" lon="6.1301">
        <ele>352.39999389648</ele>
        <time>2015-11-25T14:46:58Z</time>
      </trkpt>
      <trkpt lat="43.37799" lon="6.13011">
        <ele>352.79998779297</ele>
        <time>2015-11-25T14:46:59Z</time>
      </trkpt>
      <trkpt lat="43.37799" lon="6.13011">
        <ele>353.20001220703</ele>
        <time>2015-11-25T14:47:00Z</time>
      </trkpt>
      <trkpt lat="43.37799" lon="6.13011">
        <ele>353.39999389648</ele>
        <time>2015-11-25T14:47:01Z</time>
      </trkpt>
      <trkpt lat="43.378" lon="6.13012">
        <ele>353.60000610352</ele>
        <time>2015-11-25T14:47:02Z</time>
      </trkpt>
      <trkpt lat="43.37801" lon="6.13012">
        <ele>353.79998779297</ele>
        <time>2015-11-25T14:47:04Z</time>
      </trkpt>
      <trkpt lat="43.37801" lon="6.13012">
        <ele>353.79998779297</ele>
        <time>2015-11-25T14:47:05Z</time>
      </trkpt>
      <trkpt lat="43.37802" lon="6.13013">
        <ele>354</ele>
        <time>2015-11-25T14:47:06Z</time>
      </trkpt>
      <trkpt lat="43.37803" lon="6.13013">
        <ele>354.20001220703</ele>
        <time>2015-11-25T14:47:08Z</time>
      </trkpt>
      <trkpt lat="43.37804" lon="6.13013">
        <ele>354.60000610352</ele>
        <time>2015-11-25T14:47:10Z</time>
      </trkpt>
      <trkpt lat="43.37804" lon="6.13013">
        <ele>354.60000610352</ele>
        <time>2015-11-25T14:47:11Z</time>
      </trkpt>
      <trkpt lat="43.37805" lon="6.13013">
        <ele>354.60000610352</ele>
        <time>2015-11-25T14:47:12Z</time>
      </trkpt>
      <trkpt lat="43.37805" lon="6.13013">
        <ele>354.79998779297</ele>
        <time>2015-11-25T14:47:14Z</time>
      </trkpt>
      <trkpt lat="43.37805" lon="6.13013">
        <ele>355</ele>
        <time>2015-11-25T14:47:16Z</time>
      </trkpt>
      <trkpt lat="43.37806" lon="6.13012">
        <ele>355</ele>
        <time>2015-11-25T14:47:20Z</time>
      </trkpt>
      <trkpt lat="43.37806" lon="6.13012">
        <ele>355</ele>
        <time>2015-11-25T14:47:22Z</time>
      </trkpt>
      <trkpt lat="43.37806" lon="6.13012">
        <ele>355.20001220703</ele>
        <time>2015-11-25T14:47:24Z</time>
      </trkpt>
      <trkpt lat="43.37806" lon="6.13012">
        <ele>355.39999389648</ele>
        <time>2015-11-25T14:47:26Z</time>
      </trkpt>
      <trkpt lat="43.37806" lon="6.13012">
        <ele>355.60000610352</ele>
        <time>2015-11-25T14:47:28Z</time>
      </trkpt>
      <trkpt lat="43.37807" lon="6.13013">
        <ele>355.39999389648</ele>
        <time>2015-11-25T14:47:30Z</time>
      </trkpt>
      <trkpt lat="43.37808" lon="6.13013">
        <ele>356</ele>
        <time>2015-11-25T14:47:32Z</time>
      </trkpt>
      <trkpt lat="43.37808" lon="6.13013">
        <ele>356</ele>
        <time>2015-11-25T14:47:33Z</time>
      </trkpt>
      <trkpt lat="43.37808" lon="6.13014">
        <ele>356</ele>
        <time>2015-11-25T14:47:34Z</time>
      </trkpt>
      <trkpt lat="43.37809" lon="6.13014">
        <ele>356</ele>
        <time>2015-11-25T14:47:36Z</time>
      </trkpt>
      <trkpt lat="43.37809" lon="6.13014">
        <ele>356.20001220703</ele>
        <time>2015-11-25T14:47:40Z</time>
      </trkpt>
      <trkpt lat="43.37811" lon="6.13014">
        <ele>356.39999389648</ele>
        <time>2015-11-25T14:47:42Z</time>
      </trkpt>
      <trkpt lat="43.37811" lon="6.13015">
        <ele>356.79998779297</ele>
        <time>2015-11-25T14:47:44Z</time>
      </trkpt>
      <trkpt lat="43.37812" lon="6.13015">
        <ele>357.39999389648</ele>
        <time>2015-11-25T14:47:46Z</time>
      </trkpt>
      <trkpt lat="43.37812" lon="6.13015">
        <ele>357.79998779297</ele>
        <time>2015-11-25T14:47:48Z</time>
      </trkpt>
      <trkpt lat="43.37813" lon="6.13015">
        <ele>357.79998779297</ele>
        <time>2015-11-25T14:47:50Z</time>
      </trkpt>
      <trkpt lat="43.37814" lon="6.13015">
        <ele>358</ele>
        <time>2015-11-25T14:47:52Z</time>
      </trkpt>
      <trkpt lat="43.37814" lon="6.13016">
        <ele>358</ele>
        <time>2015-11-25T14:47:54Z</time>
      </trkpt>
      <trkpt lat="43.37815" lon="6.13016">
        <ele>358.20001220703</ele>
        <time>2015-11-25T14:47:56Z</time>
      </trkpt>
      <trkpt lat="43.37816" lon="6.13017">
        <ele>358.39999389648</ele>
        <time>2015-11-25T14:47:58Z</time>
      </trkpt>
      <trkpt lat="43.37817" lon="6.13017">
        <ele>358.60000610352</ele>
        <time>2015-11-25T14:48:00Z</time>
      </trkpt>
      <trkpt lat="43.3782" lon="6.13018">
        <ele>359.60000610352</ele>
        <time>2015-11-25T14:48:06Z</time>
      </trkpt>
      <trkpt lat="43.37821" lon="6.13019">
        <ele>360</ele>
        <time>2015-11-25T14:48:08Z</time>
      </trkpt>
      <trkpt lat="43.37822" lon="6.13019">
        <ele>360</ele>
        <time>2015-11-25T14:48:10Z</time>
      </trkpt>
      <trkpt lat="43.37823" lon="6.1302">
        <ele>360.20001220703</ele>
        <time>2015-11-25T14:48:12Z</time>
      </trkpt>
      <trkpt lat="43.37823" lon="6.1302">
        <ele>360</ele>
        <time>2015-11-25T14:48:14Z</time>
      </trkpt>
      <trkpt lat="43.37823" lon="6.1302">
        <ele>360</ele>
        <time>2015-11-25T14:48:16Z</time>
      </trkpt>
      <trkpt lat="43.37823" lon="6.1302">
        <ele>360</ele>
        <time>2015-11-25T14:48:18Z</time>
      </trkpt>
      <trkpt lat="43.37823" lon="6.1302">
        <ele>360.79998779297</ele>
        <time>2015-11-25T14:48:24Z</time>
      </trkpt>
      <trkpt lat="43.37823" lon="6.1302">
        <ele>360.60000610352</ele>
        <time>2015-11-25T14:48:28Z</time>
      </trkpt>
      <trkpt lat="43.37823" lon="6.1302">
        <ele>360.60000610352</ele>
        <time>2015-11-25T14:48:32Z</time>
      </trkpt>
      <trkpt lat="43.37823" lon="6.1302">
        <ele>360.60000610352</ele>
        <time>2015-11-25T14:48:34Z</time>
      </trkpt>
      <trkpt lat="43.37823" lon="6.1302">
        <ele>360.20001220703</ele>
        <time>2015-11-25T14:48:38Z</time>
      </trkpt>
      <trkpt lat="43.37824" lon="6.13021">
        <ele>360.39999389648</ele>
        <time>2015-11-25T14:48:40Z</time>
      </trkpt>
      <trkpt lat="43.37825" lon="6.13021">
        <ele>360.60000610352</ele>
        <time>2015-11-25T14:48:42Z</time>
      </trkpt>
      <trkpt lat="43.37825" lon="6.13021">
        <ele>360.39999389648</ele>
        <time>2015-11-25T14:48:45Z</time>
      </trkpt>
      <trkpt lat="43.37825" lon="6.13021">
        <ele>360.60000610352</ele>
        <time>2015-11-25T14:48:46Z</time>
      </trkpt>
      <trkpt lat="43.37827" lon="6.13022">
        <ele>360.79998779297</ele>
        <time>2015-11-25T14:48:48Z</time>
      </trkpt>
      <trkpt lat="43.37828" lon="6.13023">
        <ele>361</ele>
        <time>2015-11-25T14:48:50Z</time>
      </trkpt>
      <trkpt lat="43.37828" lon="6.13025">
        <ele>361.39999389648</ele>
        <time>2015-11-25T14:48:52Z</time>
      </trkpt>
      <trkpt lat="43.37828" lon="6.13025">
        <ele>361.79998779297</ele>
        <time>2015-11-25T14:48:53Z</time>
      </trkpt>
      <trkpt lat="43.37828" lon="6.13025">
        <ele>362</ele>
        <time>2015-11-25T14:48:54Z</time>
      </trkpt>
      <trkpt lat="43.37829" lon="6.13025">
        <ele>362.20001220703</ele>
        <time>2015-11-25T14:48:56Z</time>
      </trkpt>
      <trkpt lat="43.3783" lon="6.13025">
        <ele>362.39999389648</ele>
        <time>2015-11-25T14:48:58Z</time>
      </trkpt>
      <trkpt lat="43.37832" lon="6.13026">
        <ele>362.60000610352</ele>
        <time>2015-11-25T14:49:00Z</time>
      </trkpt>
      <trkpt lat="43.37834" lon="6.13027">
        <ele>363.20001220703</ele>
        <time>2015-11-25T14:49:02Z</time>
      </trkpt>
      <trkpt lat="43.37837" lon="6.13028">
        <ele>364.20001220703</ele>
        <time>2015-11-25T14:49:06Z</time>
      </trkpt>
      <trkpt lat="43.37838" lon="6.13028">
        <ele>364.60000610352</ele>
        <time>2015-11-25T14:49:08Z</time>
      </trkpt>
      <trkpt lat="43.3784" lon="6.1303">
        <ele>364.79998779297</ele>
        <time>2015-11-25T14:49:10Z</time>
      </trkpt>
      <trkpt lat="43.37841" lon="6.13031">
        <ele>365</ele>
        <time>2015-11-25T14:49:12Z</time>
      </trkpt>
      <trkpt lat="43.37843" lon="6.13032">
        <ele>365.20001220703</ele>
        <time>2015-11-25T14:49:14Z</time>
      </trkpt>
      <trkpt lat="43.37844" lon="6.13034">
        <ele>365.39999389648</ele>
        <time>2015-11-25T14:49:16Z</time>
      </trkpt>
      <trkpt lat="43.37846" lon="6.13035">
        <ele>366.20001220703</ele>
        <time>2015-11-25T14:49:20Z</time>
      </trkpt>
      <trkpt lat="43.37847" lon="6.13036">
        <ele>366.39999389648</ele>
        <time>2015-11-25T14:49:22Z</time>
      </trkpt>
      <trkpt lat="43.37848" lon="6.13037">
        <ele>366.79998779297</ele>
        <time>2015-11-25T14:49:24Z</time>
      </trkpt>
      <trkpt lat="43.37849" lon="6.13037">
        <ele>366.79998779297</ele>
        <time>2015-11-25T14:49:26Z</time>
      </trkpt>
      <trkpt lat="43.37851" lon="6.13037">
        <ele>367.39999389648</ele>
        <time>2015-11-25T14:49:28Z</time>
      </trkpt>
      <trkpt lat="43.37851" lon="6.13038">
        <ele>367.79998779297</ele>
        <time>2015-11-25T14:49:30Z</time>
      </trkpt>
      <trkpt lat="43.37852" lon="6.13039">
        <ele>367.79998779297</ele>
        <time>2015-11-25T14:49:32Z</time>
      </trkpt>
      <trkpt lat="43.37853" lon="6.13039">
        <ele>368.39999389648</ele>
        <time>2015-11-25T14:49:34Z</time>
      </trkpt>
      <trkpt lat="43.37854" lon="6.1304">
        <ele>368.79998779297</ele>
        <time>2015-11-25T14:49:35Z</time>
      </trkpt>
      <trkpt lat="43.37854" lon="6.13039">
        <ele>368.79998779297</ele>
        <time>2015-11-25T14:49:38Z</time>
      </trkpt>
      <trkpt lat="43.37855" lon="6.13039">
        <ele>368.79998779297</ele>
        <time>2015-11-25T14:49:42Z</time>
      </trkpt>
      <trkpt lat="43.37854" lon="6.13039">
        <ele>368.60000610352</ele>
        <time>2015-11-25T14:49:44Z</time>
      </trkpt>
      <trkpt lat="43.37854" lon="6.13039">
        <ele>368.39999389648</ele>
        <time>2015-11-25T14:49:46Z</time>
      </trkpt>
      <trkpt lat="43.37854" lon="6.13039">
        <ele>368</ele>
        <time>2015-11-25T14:49:52Z</time>
      </trkpt>
      <trkpt lat="43.37854" lon="6.13039">
        <ele>368.20001220703</ele>
        <time>2015-11-25T14:49:58Z</time>
      </trkpt>
      <trkpt lat="43.37854" lon="6.13039">
        <ele>368.39999389648</ele>
        <time>2015-11-25T14:50:00Z</time>
      </trkpt>
      <trkpt lat="43.37855" lon="6.13039">
        <ele>368.39999389648</ele>
        <time>2015-11-25T14:50:02Z</time>
      </trkpt>
      <trkpt lat="43.37855" lon="6.13039">
        <ele>368.39999389648</ele>
        <time>2015-11-25T14:50:04Z</time>
      </trkpt>
      <trkpt lat="43.37855" lon="6.13039">
        <ele>368.39999389648</ele>
        <time>2015-11-25T14:50:06Z</time>
      </trkpt>
      <trkpt lat="43.37855" lon="6.13039">
        <ele>368.39999389648</ele>
        <time>2015-11-25T14:50:08Z</time>
      </trkpt>
      <trkpt lat="43.37855" lon="6.13039">
        <ele>368.39999389648</ele>
        <time>2015-11-25T14:50:10Z</time>
      </trkpt>
      <trkpt lat="43.37856" lon="6.1304">
        <ele>368.39999389648</ele>
        <time>2015-11-25T14:50:12Z</time>
      </trkpt>
      <trkpt lat="43.37857" lon="6.1304">
        <ele>368.79998779297</ele>
        <time>2015-11-25T14:50:13Z</time>
      </trkpt>
      <trkpt lat="43.37859" lon="6.13041">
        <ele>369.20001220703</ele>
        <time>2015-11-25T14:50:14Z</time>
      </trkpt>
      <trkpt lat="43.37861" lon="6.13042">
        <ele>369.60000610352</ele>
        <time>2015-11-25T14:50:16Z</time>
      </trkpt>
      <trkpt lat="43.37865" lon="6.13049">
        <ele>371</ele>
        <time>2015-11-25T14:50:20Z</time>
      </trkpt>
      <trkpt lat="43.37866" lon="6.1305">
        <ele>371</ele>
        <time>2015-11-25T14:50:21Z</time>
      </trkpt>
      <trkpt lat="43.37868" lon="6.13054">
        <ele>371.79998779297</ele>
        <time>2015-11-25T14:50:24Z</time>
      </trkpt>
      <trkpt lat="43.3787" lon="6.13057">
        <ele>372.20001220703</ele>
        <time>2015-11-25T14:50:26Z</time>
      </trkpt>
      <trkpt lat="43.37872" lon="6.13059">
        <ele>372.39999389648</ele>
        <time>2015-11-25T14:50:28Z</time>
      </trkpt>
      <trkpt lat="43.37875" lon="6.13064">
        <ele>373</ele>
        <time>2015-11-25T14:50:32Z</time>
      </trkpt>
      <trkpt lat="43.37877" lon="6.13066">
        <ele>373</ele>
        <time>2015-11-25T14:50:34Z</time>
      </trkpt>
      <trkpt lat="43.37878" lon="6.13069">
        <ele>373</ele>
        <time>2015-11-25T14:50:36Z</time>
      </trkpt>
      <trkpt lat="43.3788" lon="6.13071">
        <ele>373.20001220703</ele>
        <time>2015-11-25T14:50:38Z</time>
      </trkpt>
      <trkpt lat="43.37881" lon="6.13074">
        <ele>373.20001220703</ele>
        <time>2015-11-25T14:50:40Z</time>
      </trkpt>
      <trkpt lat="43.37883" lon="6.13075">
        <ele>373.20001220703</ele>
        <time>2015-11-25T14:50:42Z</time>
      </trkpt>
      <trkpt lat="43.37884" lon="6.13075">
        <ele>373.20001220703</ele>
        <time>2015-11-25T14:50:43Z</time>
      </trkpt>
      <trkpt lat="43.37886" lon="6.13076">
        <ele>373</ele>
        <time>2015-11-25T14:50:44Z</time>
      </trkpt>
      <trkpt lat="43.37891" lon="6.13079">
        <ele>371.60000610352</ele>
        <time>2015-11-25T14:50:47Z</time>
      </trkpt>
      <trkpt lat="43.37893" lon="6.13081">
        <ele>371.20001220703</ele>
        <time>2015-11-25T14:50:48Z</time>
      </trkpt>
      <trkpt lat="43.37897" lon="6.13082">
        <ele>371.20001220703</ele>
        <time>2015-11-25T14:50:50Z</time>
      </trkpt>
      <trkpt lat="43.379" lon="6.13083">
        <ele>371</ele>
        <time>2015-11-25T14:50:52Z</time>
      </trkpt>
      <trkpt lat="43.37901" lon="6.13084">
        <ele>371</ele>
        <time>2015-11-25T14:50:53Z</time>
      </trkpt>
      <trkpt lat="43.37902" lon="6.13085">
        <ele>371</ele>
        <time>2015-11-25T14:50:54Z</time>
      </trkpt>
      <trkpt lat="43.37905" lon="6.13086">
        <ele>371</ele>
        <time>2015-11-25T14:50:56Z</time>
      </trkpt>
      <trkpt lat="43.37906" lon="6.13087">
        <ele>371</ele>
        <time>2015-11-25T14:50:57Z</time>
      </trkpt>
      <trkpt lat="43.37907" lon="6.13089">
        <ele>370.79998779297</ele>
        <time>2015-11-25T14:50:59Z</time>
      </trkpt>
      <trkpt lat="43.37908" lon="6.13091">
        <ele>371</ele>
        <time>2015-11-25T14:51:00Z</time>
      </trkpt>
      <trkpt lat="43.37908" lon="6.13094">
        <ele>371.20001220703</ele>
        <time>2015-11-25T14:51:02Z</time>
      </trkpt>
      <trkpt lat="43.37909" lon="6.13094">
        <ele>371.20001220703</ele>
        <time>2015-11-25T14:51:04Z</time>
      </trkpt>
      <trkpt lat="43.37909" lon="6.13094">
        <ele>371</ele>
        <time>2015-11-25T14:51:06Z</time>
      </trkpt>
      <trkpt lat="43.37909" lon="6.13094">
        <ele>371.20001220703</ele>
        <time>2015-11-25T14:51:08Z</time>
      </trkpt>
      <trkpt lat="43.3791" lon="6.13094">
        <ele>371</ele>
        <time>2015-11-25T14:51:10Z</time>
      </trkpt>
      <trkpt lat="43.3791" lon="6.13094">
        <ele>370.79998779297</ele>
        <time>2015-11-25T14:51:14Z</time>
      </trkpt>
      <trkpt lat="43.3791" lon="6.13094">
        <ele>370.79998779297</ele>
        <time>2015-11-25T14:51:20Z</time>
      </trkpt>
      <trkpt lat="43.3791" lon="6.13094">
        <ele>370.79998779297</ele>
        <time>2015-11-25T14:51:22Z</time>
      </trkpt>
      <trkpt lat="43.3791" lon="6.13094">
        <ele>371</ele>
        <time>2015-11-25T14:51:26Z</time>
      </trkpt>
      <trkpt lat="43.3791" lon="6.13094">
        <ele>371.39999389648</ele>
        <time>2015-11-25T14:51:32Z</time>
      </trkpt>
      <trkpt lat="43.3791" lon="6.13094">
        <ele>371.39999389648</ele>
        <time>2015-11-25T14:51:36Z</time>
      </trkpt>
      <trkpt lat="43.3791" lon="6.13094">
        <ele>371.39999389648</ele>
        <time>2015-11-25T14:51:38Z</time>
      </trkpt>
      <trkpt lat="43.3791" lon="6.13094">
        <ele>371.60000610352</ele>
        <time>2015-11-25T14:51:40Z</time>
      </trkpt>
      <trkpt lat="43.3791" lon="6.13094">
        <ele>371.79998779297</ele>
        <time>2015-11-25T14:51:42Z</time>
      </trkpt>
      <trkpt lat="43.3791" lon="6.13094">
        <ele>372</ele>
        <time>2015-11-25T14:51:44Z</time>
      </trkpt>
      <trkpt lat="43.37911" lon="6.13094">
        <ele>371.60000610352</ele>
        <time>2015-11-25T14:51:48Z</time>
      </trkpt>
      <trkpt lat="43.37911" lon="6.13094">
        <ele>371.60000610352</ele>
        <time>2015-11-25T14:51:50Z</time>
      </trkpt>
      <trkpt lat="43.37911" lon="6.13094">
        <ele>371.39999389648</ele>
        <time>2015-11-25T14:51:54Z</time>
      </trkpt>
      <trkpt lat="43.37912" lon="6.13094">
        <ele>371.39999389648</ele>
        <time>2015-11-25T14:51:58Z</time>
      </trkpt>
      <trkpt lat="43.37912" lon="6.13094">
        <ele>371.39999389648</ele>
        <time>2015-11-25T14:52:00Z</time>
      </trkpt>
      <trkpt lat="43.37911" lon="6.13093">
        <ele>371.20001220703</ele>
        <time>2015-11-25T14:52:04Z</time>
      </trkpt>
      <trkpt lat="43.37911" lon="6.13094">
        <ele>371.39999389648</ele>
        <time>2015-11-25T14:52:08Z</time>
      </trkpt>
      <trkpt lat="43.37911" lon="6.13094">
        <ele>371.39999389648</ele>
        <time>2015-11-25T14:52:10Z</time>
      </trkpt>
      <trkpt lat="43.37912" lon="6.13093">
        <ele>371.39999389648</ele>
        <time>2015-11-25T14:52:12Z</time>
      </trkpt>
      <trkpt lat="43.37912" lon="6.13093">
        <ele>371.39999389648</ele>
        <time>2015-11-25T14:52:14Z</time>
      </trkpt>
      <trkpt lat="43.37912" lon="6.13093">
        <ele>371.39999389648</ele>
        <time>2015-11-25T14:52:18Z</time>
      </trkpt>
      <trkpt lat="43.37913" lon="6.13093">
        <ele>371.60000610352</ele>
        <time>2015-11-25T14:52:22Z</time>
      </trkpt>
      <trkpt lat="43.37913" lon="6.13093">
        <ele>371.39999389648</ele>
        <time>2015-11-25T14:52:24Z</time>
      </trkpt>
      <trkpt lat="43.37913" lon="6.13093">
        <ele>371.60000610352</ele>
        <time>2015-11-25T14:52:26Z</time>
      </trkpt>
      <trkpt lat="43.37913" lon="6.13093">
        <ele>371.60000610352</ele>
        <time>2015-11-25T14:52:28Z</time>
      </trkpt>
      <trkpt lat="43.37913" lon="6.13093">
        <ele>371.39999389648</ele>
        <time>2015-11-25T14:52:32Z</time>
      </trkpt>
      <trkpt lat="43.37913" lon="6.13093">
        <ele>371.60000610352</ele>
        <time>2015-11-25T14:52:34Z</time>
      </trkpt>
      <trkpt lat="43.37914" lon="6.13093">
        <ele>371.60000610352</ele>
        <time>2015-11-25T14:52:36Z</time>
      </trkpt>
      <trkpt lat="43.37914" lon="6.13093">
        <ele>371.39999389648</ele>
        <time>2015-11-25T14:52:38Z</time>
      </trkpt>
      <trkpt lat="43.37914" lon="6.13093">
        <ele>371.60000610352</ele>
        <time>2015-11-25T14:52:40Z</time>
      </trkpt>
      <trkpt lat="43.37914" lon="6.13093">
        <ele>371.60000610352</ele>
        <time>2015-11-25T14:52:46Z</time>
      </trkpt>
      <trkpt lat="43.37914" lon="6.13092">
        <ele>371.79998779297</ele>
        <time>2015-11-25T14:52:48Z</time>
      </trkpt>
      <trkpt lat="43.37914" lon="6.13092">
        <ele>371.79998779297</ele>
        <time>2015-11-25T14:52:49Z</time>
      </trkpt>
      <trkpt lat="43.37914" lon="6.13093">
        <ele>371.79998779297</ele>
        <time>2015-11-25T14:52:50Z</time>
      </trkpt>
      <trkpt lat="43.37913" lon="6.13093">
        <ele>371.60000610352</ele>
        <time>2015-11-25T14:52:52Z</time>
      </trkpt>
      <trkpt lat="43.37914" lon="6.13093">
        <ele>371.39999389648</ele>
        <time>2015-11-25T14:52:58Z</time>
      </trkpt>
      <trkpt lat="43.37913" lon="6.13093">
        <ele>371.39999389648</ele>
        <time>2015-11-25T14:52:59Z</time>
      </trkpt>
      <trkpt lat="43.37913" lon="6.13093">
        <ele>371.39999389648</ele>
        <time>2015-11-25T14:53:00Z</time>
      </trkpt>
      <trkpt lat="43.37914" lon="6.13093">
        <ele>371.20001220703</ele>
        <time>2015-11-25T14:53:02Z</time>
      </trkpt>
      <trkpt lat="43.37914" lon="6.13093">
        <ele>371.20001220703</ele>
        <time>2015-11-25T14:53:06Z</time>
      </trkpt>
      <trkpt lat="43.37914" lon="6.13093">
        <ele>371.20001220703</ele>
        <time>2015-11-25T14:53:08Z</time>
      </trkpt>
      <trkpt lat="43.37914" lon="6.13093">
        <ele>371.20001220703</ele>
        <time>2015-11-25T14:53:12Z</time>
      </trkpt>
      <trkpt lat="43.37913" lon="6.13093">
        <ele>371.39999389648</ele>
        <time>2015-11-25T14:53:14Z</time>
      </trkpt>
      <trkpt lat="43.37913" lon="6.13094">
        <ele>371.20001220703</ele>
        <time>2015-11-25T14:53:16Z</time>
      </trkpt>
      <trkpt lat="43.37913" lon="6.13094">
        <ele>371.60000610352</ele>
        <time>2015-11-25T14:53:20Z</time>
      </trkpt>
      <trkpt lat="43.37913" lon="6.13094">
        <ele>371.79998779297</ele>
        <time>2015-11-25T14:53:24Z</time>
      </trkpt>
      <trkpt lat="43.37914" lon="6.13094">
        <ele>371.79998779297</ele>
        <time>2015-11-25T14:53:25Z</time>
      </trkpt>
      <trkpt lat="43.37913" lon="6.13094">
        <ele>372</ele>
        <time>2015-11-25T14:53:26Z</time>
      </trkpt>
      <trkpt lat="43.37914" lon="6.13093">
        <ele>371.79998779297</ele>
        <time>2015-11-25T14:53:28Z</time>
      </trkpt>
      <trkpt lat="43.37914" lon="6.13093">
        <ele>371.79998779297</ele>
        <time>2015-11-25T14:53:30Z</time>
      </trkpt>
      <trkpt lat="43.37914" lon="6.13093">
        <ele>371.60000610352</ele>
        <time>2015-11-25T14:53:34Z</time>
      </trkpt>
      <trkpt lat="43.37914" lon="6.13093">
        <ele>371.60000610352</ele>
        <time>2015-11-25T14:53:35Z</time>
      </trkpt>
      <trkpt lat="43.37914" lon="6.13093">
        <ele>371.39999389648</ele>
        <time>2015-11-25T14:53:42Z</time>
      </trkpt>
      <trkpt lat="43.37914" lon="6.13093">
        <ele>371.20001220703</ele>
        <time>2015-11-25T14:53:46Z</time>
      </trkpt>
      <trkpt lat="43.37914" lon="6.13093">
        <ele>371.20001220703</ele>
        <time>2015-11-25T14:53:48Z</time>
      </trkpt>
      <trkpt lat="43.37914" lon="6.13093">
        <ele>371</ele>
        <time>2015-11-25T14:53:50Z</time>
      </trkpt>
      <trkpt lat="43.37914" lon="6.13093">
        <ele>371.20001220703</ele>
        <time>2015-11-25T14:53:52Z</time>
      </trkpt>
      <trkpt lat="43.37914" lon="6.13093">
        <ele>371.39999389648</ele>
        <time>2015-11-25T14:53:54Z</time>
      </trkpt>
      <trkpt lat="43.37914" lon="6.13094">
        <ele>371.39999389648</ele>
        <time>2015-11-25T14:53:56Z</time>
      </trkpt>
      <trkpt lat="43.37914" lon="6.13094">
        <ele>371.20001220703</ele>
        <time>2015-11-25T14:53:57Z</time>
      </trkpt>
      <trkpt lat="43.37914" lon="6.13094">
        <ele>371.20001220703</ele>
        <time>2015-11-25T14:53:58Z</time>
      </trkpt>
      <trkpt lat="43.37914" lon="6.13094">
        <ele>371.39999389648</ele>
        <time>2015-11-25T14:54:00Z</time>
      </trkpt>
      <trkpt lat="43.37914" lon="6.13094">
        <ele>372</ele>
        <time>2015-11-25T14:54:02Z</time>
      </trkpt>
      <trkpt lat="43.37914" lon="6.13094">
        <ele>372.20001220703</ele>
        <time>2015-11-25T14:54:04Z</time>
      </trkpt>
      <trkpt lat="43.37914" lon="6.13094">
        <ele>372.39999389648</ele>
        <time>2015-11-25T14:54:06Z</time>
      </trkpt>
      <trkpt lat="43.37914" lon="6.13094">
        <ele>372.60000610352</ele>
        <time>2015-11-25T14:54:08Z</time>
      </trkpt>
      <trkpt lat="43.37914" lon="6.13094">
        <ele>372.39999389648</ele>
        <time>2015-11-25T14:54:10Z</time>
      </trkpt>
      <trkpt lat="43.37915" lon="6.13094">
        <ele>371.79998779297</ele>
        <time>2015-11-25T14:54:14Z</time>
      </trkpt>
      <trkpt lat="43.37915" lon="6.13094">
        <ele>371.39999389648</ele>
        <time>2015-11-25T14:54:16Z</time>
      </trkpt>
      <trkpt lat="43.37915" lon="6.13094">
        <ele>371.39999389648</ele>
        <time>2015-11-25T14:54:17Z</time>
      </trkpt>
      <trkpt lat="43.37915" lon="6.13094">
        <ele>371.20001220703</ele>
        <time>2015-11-25T14:54:18Z</time>
      </trkpt>
      <trkpt lat="43.37915" lon="6.13094">
        <ele>371.20001220703</ele>
        <time>2015-11-25T14:54:19Z</time>
      </trkpt>
      <trkpt lat="43.37915" lon="6.13094">
        <ele>371.20001220703</ele>
        <time>2015-11-25T14:54:20Z</time>
      </trkpt>
      <trkpt lat="43.37915" lon="6.13094">
        <ele>371.20001220703</ele>
        <time>2015-11-25T14:54:22Z</time>
      </trkpt>
      <trkpt lat="43.37915" lon="6.13097">
        <ele>371.60000610352</ele>
        <time>2015-11-25T14:54:24Z</time>
      </trkpt>
      <trkpt lat="43.37915" lon="6.131">
        <ele>372</ele>
        <time>2015-11-25T14:54:26Z</time>
      </trkpt>
      <trkpt lat="43.37915" lon="6.13102">
        <ele>372.39999389648</ele>
        <time>2015-11-25T14:54:27Z</time>
      </trkpt>
      <trkpt lat="43.37915" lon="6.13103">
        <ele>372.60000610352</ele>
        <time>2015-11-25T14:54:28Z</time>
      </trkpt>
      <trkpt lat="43.37915" lon="6.13107">
        <ele>372.60000610352</ele>
        <time>2015-11-25T14:54:30Z</time>
      </trkpt>
      <trkpt lat="43.37915" lon="6.1311">
        <ele>372.60000610352</ele>
        <time>2015-11-25T14:54:32Z</time>
      </trkpt>
      <trkpt lat="43.37914" lon="6.13114">
        <ele>373</ele>
        <time>2015-11-25T14:54:34Z</time>
      </trkpt>
      <trkpt lat="43.37914" lon="6.13116">
        <ele>373.20001220703</ele>
        <time>2015-11-25T14:54:35Z</time>
      </trkpt>
      <trkpt lat="43.37914" lon="6.13119">
        <ele>373.39999389648</ele>
        <time>2015-11-25T14:54:36Z</time>
      </trkpt>
      <trkpt lat="43.37912" lon="6.13124">
        <ele>373.60000610352</ele>
        <time>2015-11-25T14:54:38Z</time>
      </trkpt>
      <trkpt lat="43.37911" lon="6.13129">
        <ele>373.39999389648</ele>
        <time>2015-11-25T14:54:40Z</time>
      </trkpt>
      <trkpt lat="43.37909" lon="6.13135">
        <ele>374</ele>
        <time>2015-11-25T14:54:43Z</time>
      </trkpt>
      <trkpt lat="43.37909" lon="6.13137">
        <ele>374.20001220703</ele>
        <time>2015-11-25T14:54:44Z</time>
      </trkpt>
      <trkpt lat="43.37907" lon="6.13142">
        <ele>374.60000610352</ele>
        <time>2015-11-25T14:54:46Z</time>
      </trkpt>
      <trkpt lat="43.37907" lon="6.13147">
        <ele>374.79998779297</ele>
        <time>2015-11-25T14:54:48Z</time>
      </trkpt>
      <trkpt lat="43.37907" lon="6.13151">
        <ele>375</ele>
        <time>2015-11-25T14:54:50Z</time>
      </trkpt>
      <trkpt lat="43.37906" lon="6.13155">
        <ele>375.39999389648</ele>
        <time>2015-11-25T14:54:52Z</time>
      </trkpt>
      <trkpt lat="43.37906" lon="6.13159">
        <ele>375.79998779297</ele>
        <time>2015-11-25T14:54:54Z</time>
      </trkpt>
      <trkpt lat="43.37904" lon="6.13168">
        <ele>376.20001220703</ele>
        <time>2015-11-25T14:54:58Z</time>
      </trkpt>
      <trkpt lat="43.37903" lon="6.13172">
        <ele>376.60000610352</ele>
        <time>2015-11-25T14:55:00Z</time>
      </trkpt>
      <trkpt lat="43.37902" lon="6.13176">
        <ele>377.20001220703</ele>
        <time>2015-11-25T14:55:02Z</time>
      </trkpt>
      <trkpt lat="43.37902" lon="6.1318">
        <ele>377.60000610352</ele>
        <time>2015-11-25T14:55:04Z</time>
      </trkpt>
      <trkpt lat="43.37902" lon="6.13184">
        <ele>377.60000610352</ele>
        <time>2015-11-25T14:55:06Z</time>
      </trkpt>
      <trkpt lat="43.37901" lon="6.13188">
        <ele>377.79998779297</ele>
        <time>2015-11-25T14:55:08Z</time>
      </trkpt>
      <trkpt lat="43.37901" lon="6.13192">
        <ele>378.20001220703</ele>
        <time>2015-11-25T14:55:10Z</time>
      </trkpt>
      <trkpt lat="43.37901" lon="6.13194">
        <ele>378.20001220703</ele>
        <time>2015-11-25T14:55:11Z</time>
      </trkpt>
      <trkpt lat="43.37901" lon="6.13195">
        <ele>378.39999389648</ele>
        <time>2015-11-25T14:55:12Z</time>
      </trkpt>
      <trkpt lat="43.379" lon="6.13199">
        <ele>378.39999389648</ele>
        <time>2015-11-25T14:55:14Z</time>
      </trkpt>
      <trkpt lat="43.37899" lon="6.13207">
        <ele>378.79998779297</ele>
        <time>2015-11-25T14:55:18Z</time>
      </trkpt>
      <trkpt lat="43.37899" lon="6.1321">
        <ele>379.20001220703</ele>
        <time>2015-11-25T14:55:20Z</time>
      </trkpt>
      <trkpt lat="43.37898" lon="6.13215">
        <ele>379.60000610352</ele>
        <time>2015-11-25T14:55:23Z</time>
      </trkpt>
      <trkpt lat="43.37897" lon="6.13221">
        <ele>379.79998779297</ele>
        <time>2015-11-25T14:55:26Z</time>
      </trkpt>
      <trkpt lat="43.37897" lon="6.13224">
        <ele>380</ele>
        <time>2015-11-25T14:55:28Z</time>
      </trkpt>
      <trkpt lat="43.37896" lon="6.13226">
        <ele>380.60000610352</ele>
        <time>2015-11-25T14:55:30Z</time>
      </trkpt>
      <trkpt lat="43.37895" lon="6.1323">
        <ele>380.79998779297</ele>
        <time>2015-11-25T14:55:32Z</time>
      </trkpt>
      <trkpt lat="43.37894" lon="6.13233">
        <ele>381</ele>
        <time>2015-11-25T14:55:34Z</time>
      </trkpt>
      <trkpt lat="43.37893" lon="6.13235">
        <ele>381.20001220703</ele>
        <time>2015-11-25T14:55:36Z</time>
      </trkpt>
      <trkpt lat="43.37893" lon="6.13242">
        <ele>381.60000610352</ele>
        <time>2015-11-25T14:55:40Z</time>
      </trkpt>
      <trkpt lat="43.37892" lon="6.13245">
        <ele>381.60000610352</ele>
        <time>2015-11-25T14:55:42Z</time>
      </trkpt>
      <trkpt lat="43.37892" lon="6.13246">
        <ele>381.79998779297</ele>
        <time>2015-11-25T14:55:43Z</time>
      </trkpt>
      <trkpt lat="43.37892" lon="6.13249">
        <ele>382</ele>
        <time>2015-11-25T14:55:44Z</time>
      </trkpt>
      <trkpt lat="43.37893" lon="6.13253">
        <ele>382.39999389648</ele>
        <time>2015-11-25T14:55:46Z</time>
      </trkpt>
      <trkpt lat="43.37894" lon="6.13256">
        <ele>382.60000610352</ele>
        <time>2015-11-25T14:55:47Z</time>
      </trkpt>
      <trkpt lat="43.37893" lon="6.13258">
        <ele>382.79998779297</ele>
        <time>2015-11-25T14:55:48Z</time>
      </trkpt>
      <trkpt lat="43.37893" lon="6.1326">
        <ele>382.79998779297</ele>
        <time>2015-11-25T14:55:49Z</time>
      </trkpt>
      <trkpt lat="43.37893" lon="6.13266">
        <ele>383.20001220703</ele>
        <time>2015-11-25T14:55:52Z</time>
      </trkpt>
      <trkpt lat="43.37893" lon="6.13268">
        <ele>383.20001220703</ele>
        <time>2015-11-25T14:55:53Z</time>
      </trkpt>
      <trkpt lat="43.37893" lon="6.13269">
        <ele>383.60000610352</ele>
        <time>2015-11-25T14:55:54Z</time>
      </trkpt>
      <trkpt lat="43.37894" lon="6.13273">
        <ele>384.20001220703</ele>
        <time>2015-11-25T14:55:56Z</time>
      </trkpt>
      <trkpt lat="43.37895" lon="6.13277">
        <ele>384.39999389648</ele>
        <time>2015-11-25T14:55:58Z</time>
      </trkpt>
      <trkpt lat="43.37895" lon="6.13281">
        <ele>384.79998779297</ele>
        <time>2015-11-25T14:56:00Z</time>
      </trkpt>
      <trkpt lat="43.37894" lon="6.13285">
        <ele>384.79998779297</ele>
        <time>2015-11-25T14:56:02Z</time>
      </trkpt>
      <trkpt lat="43.37894" lon="6.13286">
        <ele>385.20001220703</ele>
        <time>2015-11-25T14:56:03Z</time>
      </trkpt>
      <trkpt lat="43.37893" lon="6.13288">
        <ele>385.60000610352</ele>
        <time>2015-11-25T14:56:04Z</time>
      </trkpt>
      <trkpt lat="43.37892" lon="6.13293">
        <ele>386.20001220703</ele>
        <time>2015-11-25T14:56:07Z</time>
      </trkpt>
      <trkpt lat="43.37891" lon="6.13295">
        <ele>386.60000610352</ele>
        <time>2015-11-25T14:56:08Z</time>
      </trkpt>
      <trkpt lat="43.37889" lon="6.13298">
        <ele>387</ele>
        <time>2015-11-25T14:56:10Z</time>
      </trkpt>
      <trkpt lat="43.37887" lon="6.13303">
        <ele>387.39999389648</ele>
        <time>2015-11-25T14:56:13Z</time>
      </trkpt>
      <trkpt lat="43.37884" lon="6.13309">
        <ele>387.60000610352</ele>
        <time>2015-11-25T14:56:16Z</time>
      </trkpt>
      <trkpt lat="43.37882" lon="6.13312">
        <ele>388</ele>
        <time>2015-11-25T14:56:18Z</time>
      </trkpt>
      <trkpt lat="43.37882" lon="6.13314">
        <ele>388.20001220703</ele>
        <time>2015-11-25T14:56:19Z</time>
      </trkpt>
      <trkpt lat="43.37881" lon="6.13319">
        <ele>389</ele>
        <time>2015-11-25T14:56:22Z</time>
      </trkpt>
      <trkpt lat="43.3788" lon="6.13325">
        <ele>389.39999389648</ele>
        <time>2015-11-25T14:56:26Z</time>
      </trkpt>
      <trkpt lat="43.37879" lon="6.13332">
        <ele>390</ele>
        <time>2015-11-25T14:56:30Z</time>
      </trkpt>
      <trkpt lat="43.37879" lon="6.13335">
        <ele>390</ele>
        <time>2015-11-25T14:56:32Z</time>
      </trkpt>
      <trkpt lat="43.37878" lon="6.13337">
        <ele>390.20001220703</ele>
        <time>2015-11-25T14:56:34Z</time>
      </trkpt>
      <trkpt lat="43.37878" lon="6.13339">
        <ele>390.60000610352</ele>
        <time>2015-11-25T14:56:36Z</time>
      </trkpt>
      <trkpt lat="43.37878" lon="6.1334">
        <ele>390.79998779297</ele>
        <time>2015-11-25T14:56:37Z</time>
      </trkpt>
      <trkpt lat="43.37878" lon="6.1334">
        <ele>391</ele>
        <time>2015-11-25T14:56:38Z</time>
      </trkpt>
      <trkpt lat="43.37878" lon="6.13341">
        <ele>391</ele>
        <time>2015-11-25T14:56:40Z</time>
      </trkpt>
      <trkpt lat="43.37878" lon="6.13341">
        <ele>390.79998779297</ele>
        <time>2015-11-25T14:56:42Z</time>
      </trkpt>
      <trkpt lat="43.37878" lon="6.13341">
        <ele>390.60000610352</ele>
        <time>2015-11-25T14:56:46Z</time>
      </trkpt>
      <trkpt lat="43.37878" lon="6.13341">
        <ele>390.39999389648</ele>
        <time>2015-11-25T14:56:48Z</time>
      </trkpt>
      <trkpt lat="43.37878" lon="6.13341">
        <ele>389.79998779297</ele>
        <time>2015-11-25T14:56:54Z</time>
      </trkpt>
      <trkpt lat="43.37878" lon="6.13341">
        <ele>390.79998779297</ele>
        <time>2015-11-25T14:57:02Z</time>
      </trkpt>
      <trkpt lat="43.37878" lon="6.13341">
        <ele>390.79998779297</ele>
        <time>2015-11-25T14:57:06Z</time>
      </trkpt>
      <trkpt lat="43.37878" lon="6.13341">
        <ele>390.39999389648</ele>
        <time>2015-11-25T14:57:08Z</time>
      </trkpt>
      <trkpt lat="43.37878" lon="6.1334">
        <ele>390.39999389648</ele>
        <time>2015-11-25T14:57:10Z</time>
      </trkpt>
      <trkpt lat="43.37878" lon="6.13341">
        <ele>390.39999389648</ele>
        <time>2015-11-25T14:57:12Z</time>
      </trkpt>
      <trkpt lat="43.37878" lon="6.13341">
        <ele>390</ele>
        <time>2015-11-25T14:57:14Z</time>
      </trkpt>
      <trkpt lat="43.37878" lon="6.13341">
        <ele>390.20001220703</ele>
        <time>2015-11-25T14:57:18Z</time>
      </trkpt>
      <trkpt lat="43.37878" lon="6.13341">
        <ele>390.79998779297</ele>
        <time>2015-11-25T14:57:20Z</time>
      </trkpt>
      <trkpt lat="43.37878" lon="6.13341">
        <ele>391.20001220703</ele>
        <time>2015-11-25T14:57:22Z</time>
      </trkpt>
      <trkpt lat="43.37878" lon="6.13341">
        <ele>391</ele>
        <time>2015-11-25T14:57:24Z</time>
      </trkpt>
      <trkpt lat="43.37878" lon="6.13341">
        <ele>390.79998779297</ele>
        <time>2015-11-25T14:57:26Z</time>
      </trkpt>
      <trkpt lat="43.37878" lon="6.13341">
        <ele>390.79998779297</ele>
        <time>2015-11-25T14:57:32Z</time>
      </trkpt>
      <trkpt lat="43.37878" lon="6.13341">
        <ele>390.79998779297</ele>
        <time>2015-11-25T14:57:48Z</time>
      </trkpt>
      <trkpt lat="43.37878" lon="6.13341">
        <ele>390.79998779297</ele>
        <time>2015-11-25T14:57:52Z</time>
      </trkpt>
      <trkpt lat="43.37878" lon="6.13341">
        <ele>391</ele>
        <time>2015-11-25T14:57:54Z</time>
      </trkpt>
      <trkpt lat="43.37878" lon="6.13341">
        <ele>391</ele>
        <time>2015-11-25T14:57:56Z</time>
      </trkpt>
      <trkpt lat="43.37878" lon="6.13341">
        <ele>391.20001220703</ele>
        <time>2015-11-25T14:57:59Z</time>
      </trkpt>
      <trkpt lat="43.37878" lon="6.13341">
        <ele>391.39999389648</ele>
        <time>2015-11-25T14:58:02Z</time>
      </trkpt>
      <trkpt lat="43.37878" lon="6.13341">
        <ele>391.20001220703</ele>
        <time>2015-11-25T14:58:08Z</time>
      </trkpt>
      <trkpt lat="43.37878" lon="6.13341">
        <ele>391</ele>
        <time>2015-11-25T14:58:10Z</time>
      </trkpt>
      <trkpt lat="43.37878" lon="6.13341">
        <ele>391.20001220703</ele>
        <time>2015-11-25T14:58:12Z</time>
      </trkpt>
      <trkpt lat="43.37878" lon="6.13342">
        <ele>391.20001220703</ele>
        <time>2015-11-25T14:58:14Z</time>
      </trkpt>
      <trkpt lat="43.37878" lon="6.13343">
        <ele>391.39999389648</ele>
        <time>2015-11-25T14:58:15Z</time>
      </trkpt>
      <trkpt lat="43.37877" lon="6.13345">
        <ele>391.60000610352</ele>
        <time>2015-11-25T14:58:16Z</time>
      </trkpt>
      <trkpt lat="43.37877" lon="6.13348">
        <ele>391.79998779297</ele>
        <time>2015-11-25T14:58:18Z</time>
      </trkpt>
      <trkpt lat="43.37876" lon="6.13351">
        <ele>392.20001220703</ele>
        <time>2015-11-25T14:58:20Z</time>
      </trkpt>
      <trkpt lat="43.37875" lon="6.13355">
        <ele>392.39999389648</ele>
        <time>2015-11-25T14:58:22Z</time>
      </trkpt>
      <trkpt lat="43.37873" lon="6.1336">
        <ele>392</ele>
        <time>2015-11-25T14:58:24Z</time>
      </trkpt>
      <trkpt lat="43.37873" lon="6.13364">
        <ele>392.60000610352</ele>
        <time>2015-11-25T14:58:26Z</time>
      </trkpt>
      <trkpt lat="43.37872" lon="6.13366">
        <ele>392.60000610352</ele>
        <time>2015-11-25T14:58:27Z</time>
      </trkpt>
      <trkpt lat="43.37872" lon="6.13369">
        <ele>392.79998779297</ele>
        <time>2015-11-25T14:58:28Z</time>
      </trkpt>
      <trkpt lat="43.37871" lon="6.13375">
        <ele>392.79998779297</ele>
        <time>2015-11-25T14:58:30Z</time>
      </trkpt>
      <trkpt lat="43.37871" lon="6.13381">
        <ele>392.39999389648</ele>
        <time>2015-11-25T14:58:32Z</time>
      </trkpt>
      <trkpt lat="43.3787" lon="6.13384">
        <ele>392.39999389648</ele>
        <time>2015-11-25T14:58:34Z</time>
      </trkpt>
      <trkpt lat="43.3787" lon="6.13389">
        <ele>392.60000610352</ele>
        <time>2015-11-25T14:58:36Z</time>
      </trkpt>
      <trkpt lat="43.37869" lon="6.13395">
        <ele>392.60000610352</ele>
        <time>2015-11-25T14:58:38Z</time>
      </trkpt>
      <trkpt lat="43.37869" lon="6.134">
        <ele>392.79998779297</ele>
        <time>2015-11-25T14:58:40Z</time>
      </trkpt>
      <trkpt lat="43.37868" lon="6.13406">
        <ele>392.79998779297</ele>
        <time>2015-11-25T14:58:42Z</time>
      </trkpt>
      <trkpt lat="43.37868" lon="6.13412">
        <ele>392.60000610352</ele>
        <time>2015-11-25T14:58:44Z</time>
      </trkpt>
      <trkpt lat="43.37866" lon="6.13416">
        <ele>392.60000610352</ele>
        <time>2015-11-25T14:58:46Z</time>
      </trkpt>
      <trkpt lat="43.37865" lon="6.13418">
        <ele>392.60000610352</ele>
        <time>2015-11-25T14:58:48Z</time>
      </trkpt>
      <trkpt lat="43.37865" lon="6.13419">
        <ele>392.39999389648</ele>
        <time>2015-11-25T14:58:49Z</time>
      </trkpt>
      <trkpt lat="43.37865" lon="6.1342">
        <ele>392.39999389648</ele>
        <time>2015-11-25T14:58:50Z</time>
      </trkpt>
      <trkpt lat="43.37866" lon="6.1342">
        <ele>392.60000610352</ele>
        <time>2015-11-25T14:58:52Z</time>
      </trkpt>
      <trkpt lat="43.37866" lon="6.1342">
        <ele>392.60000610352</ele>
        <time>2015-11-25T14:58:54Z</time>
      </trkpt>
      <trkpt lat="43.37867" lon="6.1342">
        <ele>392.60000610352</ele>
        <time>2015-11-25T14:58:56Z</time>
      </trkpt>
      <trkpt lat="43.37867" lon="6.1342">
        <ele>392.39999389648</ele>
        <time>2015-11-25T14:58:58Z</time>
      </trkpt>
      <trkpt lat="43.37867" lon="6.1342">
        <ele>392.20001220703</ele>
        <time>2015-11-25T14:59:02Z</time>
      </trkpt>
      <trkpt lat="43.37867" lon="6.1342">
        <ele>392</ele>
        <time>2015-11-25T14:59:06Z</time>
      </trkpt>
      <trkpt lat="43.37867" lon="6.13421">
        <ele>392.20001220703</ele>
        <time>2015-11-25T14:59:08Z</time>
      </trkpt>
      <trkpt lat="43.37867" lon="6.13421">
        <ele>392</ele>
        <time>2015-11-25T14:59:18Z</time>
      </trkpt>
      <trkpt lat="43.37867" lon="6.13421">
        <ele>392</ele>
        <time>2015-11-25T14:59:20Z</time>
      </trkpt>
      <trkpt lat="43.37867" lon="6.13421">
        <ele>392</ele>
        <time>2015-11-25T14:59:22Z</time>
      </trkpt>
      <trkpt lat="43.37866" lon="6.13421">
        <ele>392.60000610352</ele>
        <time>2015-11-25T14:59:24Z</time>
      </trkpt>
      <trkpt lat="43.37866" lon="6.13421">
        <ele>392.79998779297</ele>
        <time>2015-11-25T14:59:26Z</time>
      </trkpt>
      <trkpt lat="43.37866" lon="6.13421">
        <ele>393.39999389648</ele>
        <time>2015-11-25T14:59:28Z</time>
      </trkpt>
      <trkpt lat="43.37866" lon="6.13421">
        <ele>393.60000610352</ele>
        <time>2015-11-25T14:59:32Z</time>
      </trkpt>
      <trkpt lat="43.37866" lon="6.13421">
        <ele>393.79998779297</ele>
        <time>2015-11-25T14:59:36Z</time>
      </trkpt>
      <trkpt lat="43.37865" lon="6.13424">
        <ele>393.60000610352</ele>
        <time>2015-11-25T14:59:38Z</time>
      </trkpt>
      <trkpt lat="43.37865" lon="6.13429">
        <ele>393.60000610352</ele>
        <time>2015-11-25T14:59:40Z</time>
      </trkpt>
      <trkpt lat="43.37865" lon="6.13435">
        <ele>393.20001220703</ele>
        <time>2015-11-25T14:59:42Z</time>
      </trkpt>
      <trkpt lat="43.37865" lon="6.13437">
        <ele>393.20001220703</ele>
        <time>2015-11-25T14:59:43Z</time>
      </trkpt>
      <trkpt lat="43.37864" lon="6.13444">
        <ele>393.60000610352</ele>
        <time>2015-11-25T14:59:46Z</time>
      </trkpt>
      <trkpt lat="43.37864" lon="6.1345">
        <ele>393.39999389648</ele>
        <time>2015-11-25T14:59:48Z</time>
      </trkpt>
      <trkpt lat="43.37864" lon="6.13455">
        <ele>393.39999389648</ele>
        <time>2015-11-25T14:59:50Z</time>
      </trkpt>
      <trkpt lat="43.37865" lon="6.1346">
        <ele>393.79998779297</ele>
        <time>2015-11-25T14:59:52Z</time>
      </trkpt>
      <trkpt lat="43.37864" lon="6.13464">
        <ele>394.20001220703</ele>
        <time>2015-11-25T14:59:54Z</time>
      </trkpt>
      <trkpt lat="43.37865" lon="6.13468">
        <ele>395</ele>
        <time>2015-11-25T14:59:56Z</time>
      </trkpt>
      <trkpt lat="43.37864" lon="6.13471">
        <ele>395</ele>
        <time>2015-11-25T14:59:57Z</time>
      </trkpt>
      <trkpt lat="43.37864" lon="6.13477">
        <ele>395.60000610352</ele>
        <time>2015-11-25T15:00:00Z</time>
      </trkpt>
      <trkpt lat="43.37864" lon="6.13482">
        <ele>395.79998779297</ele>
        <time>2015-11-25T15:00:02Z</time>
      </trkpt>
      <trkpt lat="43.37864" lon="6.13486">
        <ele>396</ele>
        <time>2015-11-25T15:00:04Z</time>
      </trkpt>
      <trkpt lat="43.37864" lon="6.13491">
        <ele>396.39999389648</ele>
        <time>2015-11-25T15:00:06Z</time>
      </trkpt>
      <trkpt lat="43.37864" lon="6.13497">
        <ele>396.60000610352</ele>
        <time>2015-11-25T15:00:09Z</time>
      </trkpt>
      <trkpt lat="43.37864" lon="6.13499">
        <ele>396.60000610352</ele>
        <time>2015-11-25T15:00:10Z</time>
      </trkpt>
      <trkpt lat="43.37864" lon="6.13503">
        <ele>397.20001220703</ele>
        <time>2015-11-25T15:00:12Z</time>
      </trkpt>
      <trkpt lat="43.37864" lon="6.13506">
        <ele>397.39999389648</ele>
        <time>2015-11-25T15:00:13Z</time>
      </trkpt>
      <trkpt lat="43.37864" lon="6.13508">
        <ele>397.60000610352</ele>
        <time>2015-11-25T15:00:14Z</time>
      </trkpt>
      <trkpt lat="43.37864" lon="6.1351">
        <ele>397.39999389648</ele>
        <time>2015-11-25T15:00:15Z</time>
      </trkpt>
      <trkpt lat="43.37864" lon="6.13513">
        <ele>397.60000610352</ele>
        <time>2015-11-25T15:00:16Z</time>
      </trkpt>
      <trkpt lat="43.37864" lon="6.13517">
        <ele>398</ele>
        <time>2015-11-25T15:00:18Z</time>
      </trkpt>
      <trkpt lat="43.37863" lon="6.1352">
        <ele>398</ele>
        <time>2015-11-25T15:00:20Z</time>
      </trkpt>
      <trkpt lat="43.37862" lon="6.13524">
        <ele>398.20001220703</ele>
        <time>2015-11-25T15:00:22Z</time>
      </trkpt>
      <trkpt lat="43.37862" lon="6.13528">
        <ele>398.20001220703</ele>
        <time>2015-11-25T15:00:24Z</time>
      </trkpt>
      <trkpt lat="43.37861" lon="6.13531">
        <ele>398.20001220703</ele>
        <time>2015-11-25T15:00:26Z</time>
      </trkpt>
      <trkpt lat="43.3786" lon="6.13534">
        <ele>398.39999389648</ele>
        <time>2015-11-25T15:00:28Z</time>
      </trkpt>
      <trkpt lat="43.37859" lon="6.13538">
        <ele>398.39999389648</ele>
        <time>2015-11-25T15:00:30Z</time>
      </trkpt>
      <trkpt lat="43.37858" lon="6.13542">
        <ele>398.60000610352</ele>
        <time>2015-11-25T15:00:32Z</time>
      </trkpt>
      <trkpt lat="43.37857" lon="6.13551">
        <ele>398.60000610352</ele>
        <time>2015-11-25T15:00:36Z</time>
      </trkpt>
      <trkpt lat="43.37856" lon="6.13556">
        <ele>398.39999389648</ele>
        <time>2015-11-25T15:00:38Z</time>
      </trkpt>
      <trkpt lat="43.37854" lon="6.13561">
        <ele>398.60000610352</ele>
        <time>2015-11-25T15:00:40Z</time>
      </trkpt>
      <trkpt lat="43.37853" lon="6.13563">
        <ele>398.60000610352</ele>
        <time>2015-11-25T15:00:41Z</time>
      </trkpt>
      <trkpt lat="43.37851" lon="6.13565">
        <ele>398.60000610352</ele>
        <time>2015-11-25T15:00:42Z</time>
      </trkpt>
      <trkpt lat="43.3785" lon="6.13566">
        <ele>399</ele>
        <time>2015-11-25T15:00:43Z</time>
      </trkpt>
      <trkpt lat="43.37849" lon="6.13567">
        <ele>399.20001220703</ele>
        <time>2015-11-25T15:00:44Z</time>
      </trkpt>
      <trkpt lat="43.37848" lon="6.13567">
        <ele>399.39999389648</ele>
        <time>2015-11-25T15:00:46Z</time>
      </trkpt>
      <trkpt lat="43.37847" lon="6.13567">
        <ele>399.60000610352</ele>
        <time>2015-11-25T15:00:48Z</time>
      </trkpt>
      <trkpt lat="43.37846" lon="6.13567">
        <ele>399.20001220703</ele>
        <time>2015-11-25T15:00:50Z</time>
      </trkpt>
      <trkpt lat="43.37845" lon="6.13567">
        <ele>399.39999389648</ele>
        <time>2015-11-25T15:00:52Z</time>
      </trkpt>
      <trkpt lat="43.37843" lon="6.13568">
        <ele>400</ele>
        <time>2015-11-25T15:00:58Z</time>
      </trkpt>
      <trkpt lat="43.37842" lon="6.13568">
        <ele>400</ele>
        <time>2015-11-25T15:01:00Z</time>
      </trkpt>
      <trkpt lat="43.37841" lon="6.13569">
        <ele>399.79998779297</ele>
        <time>2015-11-25T15:01:02Z</time>
      </trkpt>
      <trkpt lat="43.37841" lon="6.1357">
        <ele>399.79998779297</ele>
        <time>2015-11-25T15:01:04Z</time>
      </trkpt>
      <trkpt lat="43.37841" lon="6.13569">
        <ele>400</ele>
        <time>2015-11-25T15:01:06Z</time>
      </trkpt>
      <trkpt lat="43.37841" lon="6.13569">
        <ele>399.79998779297</ele>
        <time>2015-11-25T15:01:10Z</time>
      </trkpt>
      <trkpt lat="43.37841" lon="6.1357">
        <ele>400</ele>
        <time>2015-11-25T15:01:14Z</time>
      </trkpt>
      <trkpt lat="43.37841" lon="6.1357">
        <ele>400.39999389648</ele>
        <time>2015-11-25T15:01:22Z</time>
      </trkpt>
      <trkpt lat="43.37841" lon="6.1357">
        <ele>400.39999389648</ele>
        <time>2015-11-25T15:01:26Z</time>
      </trkpt>
      <trkpt lat="43.37841" lon="6.1357">
        <ele>400.39999389648</ele>
        <time>2015-11-25T15:01:28Z</time>
      </trkpt>
      <trkpt lat="43.3784" lon="6.1357">
        <ele>400.20001220703</ele>
        <time>2015-11-25T15:01:30Z</time>
      </trkpt>
      <trkpt lat="43.37838" lon="6.1357">
        <ele>399.79998779297</ele>
        <time>2015-11-25T15:01:32Z</time>
      </trkpt>
      <trkpt lat="43.37837" lon="6.13569">
        <ele>399.60000610352</ele>
        <time>2015-11-25T15:01:33Z</time>
      </trkpt>
      <trkpt lat="43.37836" lon="6.13569">
        <ele>399.60000610352</ele>
        <time>2015-11-25T15:01:34Z</time>
      </trkpt>
      <trkpt lat="43.3783" lon="6.13568">
        <ele>399.20001220703</ele>
        <time>2015-11-25T15:01:36Z</time>
      </trkpt>
      <trkpt lat="43.37827" lon="6.13567">
        <ele>399</ele>
        <time>2015-11-25T15:01:37Z</time>
      </trkpt>
      <trkpt lat="43.37823" lon="6.13566">
        <ele>399.20001220703</ele>
        <time>2015-11-25T15:01:38Z</time>
      </trkpt>
      <trkpt lat="43.37815" lon="6.13566">
        <ele>398.60000610352</ele>
        <time>2015-11-25T15:01:40Z</time>
      </trkpt>
      <trkpt lat="43.37806" lon="6.13568">
        <ele>397.79998779297</ele>
        <time>2015-11-25T15:01:42Z</time>
      </trkpt>
      <trkpt lat="43.37796" lon="6.13572">
        <ele>397.20001220703</ele>
        <time>2015-11-25T15:01:44Z</time>
      </trkpt>
      <trkpt lat="43.37791" lon="6.13573">
        <ele>396.79998779297</ele>
        <time>2015-11-25T15:01:45Z</time>
      </trkpt>
      <trkpt lat="43.37786" lon="6.13575">
        <ele>396.60000610352</ele>
        <time>2015-11-25T15:01:46Z</time>
      </trkpt>
      <trkpt lat="43.37782" lon="6.13578">
        <ele>396.60000610352</ele>
        <time>2015-11-25T15:01:47Z</time>
      </trkpt>
      <trkpt lat="43.37777" lon="6.13582">
        <ele>396.79998779297</ele>
        <time>2015-11-25T15:01:48Z</time>
      </trkpt>
      <trkpt lat="43.37772" lon="6.13589">
        <ele>396.39999389648</ele>
        <time>2015-11-25T15:01:50Z</time>
      </trkpt>
      <trkpt lat="43.3777" lon="6.13591">
        <ele>396.39999389648</ele>
        <time>2015-11-25T15:01:51Z</time>
      </trkpt>
      <trkpt lat="43.37769" lon="6.13593">
        <ele>396.60000610352</ele>
        <time>2015-11-25T15:01:52Z</time>
      </trkpt>
      <trkpt lat="43.37766" lon="6.13596">
        <ele>396.79998779297</ele>
        <time>2015-11-25T15:01:54Z</time>
      </trkpt>
      <trkpt lat="43.37764" lon="6.13598">
        <ele>396.79998779297</ele>
        <time>2015-11-25T15:01:55Z</time>
      </trkpt>
      <trkpt lat="43.37762" lon="6.136">
        <ele>396.79998779297</ele>
        <time>2015-11-25T15:01:56Z</time>
      </trkpt>
      <trkpt lat="43.37758" lon="6.13604">
        <ele>397</ele>
        <time>2015-11-25T15:01:58Z</time>
      </trkpt>
      <trkpt lat="43.37753" lon="6.13607">
        <ele>397</ele>
        <time>2015-11-25T15:02:00Z</time>
      </trkpt>
      <trkpt lat="43.3775" lon="6.13608">
        <ele>396.79998779297</ele>
        <time>2015-11-25T15:02:01Z</time>
      </trkpt>
      <trkpt lat="43.37742" lon="6.13613">
        <ele>395</ele>
        <time>2015-11-25T15:02:03Z</time>
      </trkpt>
      <trkpt lat="43.37738" lon="6.13617">
        <ele>395</ele>
        <time>2015-11-25T15:02:04Z</time>
      </trkpt>
      <trkpt lat="43.37735" lon="6.13622">
        <ele>394.60000610352</ele>
        <time>2015-11-25T15:02:05Z</time>
      </trkpt>
      <trkpt lat="43.37732" lon="6.13627">
        <ele>393.79998779297</ele>
        <time>2015-11-25T15:02:06Z</time>
      </trkpt>
      <trkpt lat="43.37725" lon="6.13637">
        <ele>393</ele>
        <time>2015-11-25T15:02:08Z</time>
      </trkpt>
      <trkpt lat="43.37722" lon="6.13641">
        <ele>392.60000610352</ele>
        <time>2015-11-25T15:02:09Z</time>
      </trkpt>
      <trkpt lat="43.37718" lon="6.13647">
        <ele>392.20001220703</ele>
        <time>2015-11-25T15:02:10Z</time>
      </trkpt>
      <trkpt lat="43.37714" lon="6.13652">
        <ele>391.79998779297</ele>
        <time>2015-11-25T15:02:11Z</time>
      </trkpt>
      <trkpt lat="43.3771" lon="6.13657">
        <ele>391</ele>
        <time>2015-11-25T15:02:12Z</time>
      </trkpt>
      <trkpt lat="43.37706" lon="6.13661">
        <ele>390</ele>
        <time>2015-11-25T15:02:13Z</time>
      </trkpt>
      <trkpt lat="43.37703" lon="6.13665">
        <ele>389.60000610352</ele>
        <time>2015-11-25T15:02:14Z</time>
      </trkpt>
      <trkpt lat="43.37696" lon="6.13673">
        <ele>389</ele>
        <time>2015-11-25T15:02:16Z</time>
      </trkpt>
      <trkpt lat="43.37693" lon="6.13675">
        <ele>388</ele>
        <time>2015-11-25T15:02:17Z</time>
      </trkpt>
      <trkpt lat="43.3769" lon="6.13676">
        <ele>387.20001220703</ele>
        <time>2015-11-25T15:02:18Z</time>
      </trkpt>
      <trkpt lat="43.37687" lon="6.13676">
        <ele>387</ele>
        <time>2015-11-25T15:02:19Z</time>
      </trkpt>
      <trkpt lat="43.37684" lon="6.13673">
        <ele>386.79998779297</ele>
        <time>2015-11-25T15:02:20Z</time>
      </trkpt>
      <trkpt lat="43.37683" lon="6.13671">
        <ele>386.39999389648</ele>
        <time>2015-11-25T15:02:21Z</time>
      </trkpt>
      <trkpt lat="43.37682" lon="6.13668">
        <ele>386.20001220703</ele>
        <time>2015-11-25T15:02:22Z</time>
      </trkpt>
      <trkpt lat="43.3768" lon="6.13667">
        <ele>385.79998779297</ele>
        <time>2015-11-25T15:02:23Z</time>
      </trkpt>
      <trkpt lat="43.37679" lon="6.13665">
        <ele>385.39999389648</ele>
        <time>2015-11-25T15:02:24Z</time>
      </trkpt>
      <trkpt lat="43.37677" lon="6.13663">
        <ele>384.60000610352</ele>
        <time>2015-11-25T15:02:25Z</time>
      </trkpt>
      <trkpt lat="43.37675" lon="6.13661">
        <ele>384.20001220703</ele>
        <time>2015-11-25T15:02:26Z</time>
      </trkpt>
      <trkpt lat="43.37672" lon="6.13656">
        <ele>383.79998779297</ele>
        <time>2015-11-25T15:02:28Z</time>
      </trkpt>
      <trkpt lat="43.3767" lon="6.13651">
        <ele>383.20001220703</ele>
        <time>2015-11-25T15:02:30Z</time>
      </trkpt>
      <trkpt lat="43.37667" lon="6.13645">
        <ele>382.79998779297</ele>
        <time>2015-11-25T15:02:32Z</time>
      </trkpt>
      <trkpt lat="43.37666" lon="6.13643">
        <ele>382.39999389648</ele>
        <time>2015-11-25T15:02:33Z</time>
      </trkpt>
      <trkpt lat="43.37663" lon="6.13632">
        <ele>381.60000610352</ele>
        <time>2015-11-25T15:02:36Z</time>
      </trkpt>
      <trkpt lat="43.37663" lon="6.1363">
        <ele>381.20001220703</ele>
        <time>2015-11-25T15:02:37Z</time>
      </trkpt>
      <trkpt lat="43.3766" lon="6.13625">
        <ele>380.20001220703</ele>
        <time>2015-11-25T15:02:39Z</time>
      </trkpt>
      <trkpt lat="43.37659" lon="6.13622">
        <ele>380.20001220703</ele>
        <time>2015-11-25T15:02:40Z</time>
      </trkpt>
      <trkpt lat="43.37656" lon="6.13618">
        <ele>379.60000610352</ele>
        <time>2015-11-25T15:02:42Z</time>
      </trkpt>
      <trkpt lat="43.37651" lon="6.13608">
        <ele>378.60000610352</ele>
        <time>2015-11-25T15:02:46Z</time>
      </trkpt>
      <trkpt lat="43.3765" lon="6.13602">
        <ele>377.79998779297</ele>
        <time>2015-11-25T15:02:48Z</time>
      </trkpt>
      <trkpt lat="43.37648" lon="6.13595">
        <ele>378</ele>
        <time>2015-11-25T15:02:50Z</time>
      </trkpt>
      <trkpt lat="43.37645" lon="6.13588">
        <ele>376.60000610352</ele>
        <time>2015-11-25T15:02:52Z</time>
      </trkpt>
      <trkpt lat="43.37642" lon="6.13584">
        <ele>375.60000610352</ele>
        <time>2015-11-25T15:02:54Z</time>
      </trkpt>
      <trkpt lat="43.3764" lon="6.13581">
        <ele>374.60000610352</ele>
        <time>2015-11-25T15:02:56Z</time>
      </trkpt>
      <trkpt lat="43.37637" lon="6.13575">
        <ele>375</ele>
        <time>2015-11-25T15:02:58Z</time>
      </trkpt>
      <trkpt lat="43.37634" lon="6.13568">
        <ele>374.20001220703</ele>
        <time>2015-11-25T15:03:00Z</time>
      </trkpt>
      <trkpt lat="43.37634" lon="6.13565">
        <ele>373.60000610352</ele>
        <time>2015-11-25T15:03:01Z</time>
      </trkpt>
      <trkpt lat="43.37633" lon="6.13562">
        <ele>372.79998779297</ele>
        <time>2015-11-25T15:03:02Z</time>
      </trkpt>
      <trkpt lat="43.37631" lon="6.13556">
        <ele>372</ele>
        <time>2015-11-25T15:03:04Z</time>
      </trkpt>
      <trkpt lat="43.3763" lon="6.13553">
        <ele>371.60000610352</ele>
        <time>2015-11-25T15:03:05Z</time>
      </trkpt>
      <trkpt lat="43.37629" lon="6.13548">
        <ele>371</ele>
        <time>2015-11-25T15:03:07Z</time>
      </trkpt>
      <trkpt lat="43.37628" lon="6.13543">
        <ele>371</ele>
        <time>2015-11-25T15:03:08Z</time>
      </trkpt>
      <trkpt lat="43.37626" lon="6.13535">
        <ele>370.20001220703</ele>
        <time>2015-11-25T15:03:10Z</time>
      </trkpt>
      <trkpt lat="43.37625" lon="6.13531">
        <ele>369.60000610352</ele>
        <time>2015-11-25T15:03:11Z</time>
      </trkpt>
      <trkpt lat="43.37623" lon="6.13525">
        <ele>369.39999389648</ele>
        <time>2015-11-25T15:03:12Z</time>
      </trkpt>
      <trkpt lat="43.37621" lon="6.1352">
        <ele>368.79998779297</ele>
        <time>2015-11-25T15:03:13Z</time>
      </trkpt>
      <trkpt lat="43.37619" lon="6.13514">
        <ele>367.39999389648</ele>
        <time>2015-11-25T15:03:14Z</time>
      </trkpt>
      <trkpt lat="43.37617" lon="6.13508">
        <ele>366.20001220703</ele>
        <time>2015-11-25T15:03:15Z</time>
      </trkpt>
      <trkpt lat="43.37615" lon="6.13502">
        <ele>366.39999389648</ele>
        <time>2015-11-25T15:03:16Z</time>
      </trkpt>
      <trkpt lat="43.37613" lon="6.13497">
        <ele>366.60000610352</ele>
        <time>2015-11-25T15:03:17Z</time>
      </trkpt>
      <trkpt lat="43.37611" lon="6.13492">
        <ele>366.39999389648</ele>
        <time>2015-11-25T15:03:18Z</time>
      </trkpt>
      <trkpt lat="43.37607" lon="6.13484">
        <ele>364.79998779297</ele>
        <time>2015-11-25T15:03:20Z</time>
      </trkpt>
      <trkpt lat="43.37604" lon="6.13477">
        <ele>365</ele>
        <time>2015-11-25T15:03:22Z</time>
      </trkpt>
      <trkpt lat="43.37601" lon="6.1347">
        <ele>362.79998779297</ele>
        <time>2015-11-25T15:03:24Z</time>
      </trkpt>
      <trkpt lat="43.37597" lon="6.13465">
        <ele>361.60000610352</ele>
        <time>2015-11-25T15:03:26Z</time>
      </trkpt>
      <trkpt lat="43.37595" lon="6.13465">
        <ele>361</ele>
        <time>2015-11-25T15:03:27Z</time>
      </trkpt>
      <trkpt lat="43.37595" lon="6.13465">
        <ele>360.39999389648</ele>
        <time>2015-11-25T15:03:28Z</time>
      </trkpt>
      <trkpt lat="43.37595" lon="6.13464">
        <ele>359.79998779297</ele>
        <time>2015-11-25T15:03:32Z</time>
      </trkpt>
      <trkpt lat="43.37597" lon="6.13463">
        <ele>360</ele>
        <time>2015-11-25T15:03:36Z</time>
      </trkpt>
      <trkpt lat="43.37597" lon="6.13463">
        <ele>360.39999389648</ele>
        <time>2015-11-25T15:03:38Z</time>
      </trkpt>
      <trkpt lat="43.37597" lon="6.13462">
        <ele>360.39999389648</ele>
        <time>2015-11-25T15:03:40Z</time>
      </trkpt>
      <trkpt lat="43.37597" lon="6.13462">
        <ele>360.39999389648</ele>
        <time>2015-11-25T15:03:42Z</time>
      </trkpt>
      <trkpt lat="43.37597" lon="6.13462">
        <ele>361</ele>
        <time>2015-11-25T15:03:46Z</time>
      </trkpt>
      <trkpt lat="43.37597" lon="6.13462">
        <ele>360.79998779297</ele>
        <time>2015-11-25T15:03:50Z</time>
      </trkpt>
      <trkpt lat="43.37597" lon="6.13462">
        <ele>360.60000610352</ele>
        <time>2015-11-25T15:03:58Z</time>
      </trkpt>
      <trkpt lat="43.37597" lon="6.13462">
        <ele>361.20001220703</ele>
        <time>2015-11-25T15:04:18Z</time>
      </trkpt>
      <trkpt lat="43.37597" lon="6.13462">
        <ele>360.79998779297</ele>
        <time>2015-11-25T15:04:28Z</time>
      </trkpt>
      <trkpt lat="43.37598" lon="6.13462">
        <ele>360.79998779297</ele>
        <time>2015-11-25T15:04:30Z</time>
      </trkpt>
      <trkpt lat="43.37598" lon="6.13464">
        <ele>360.79998779297</ele>
        <time>2015-11-25T15:04:32Z</time>
      </trkpt>
      <trkpt lat="43.37598" lon="6.13464">
        <ele>360.79998779297</ele>
        <time>2015-11-25T15:04:33Z</time>
      </trkpt>
      <trkpt lat="43.37598" lon="6.13464">
        <ele>360.60000610352</ele>
        <time>2015-11-25T15:04:34Z</time>
      </trkpt>
      <trkpt lat="43.37598" lon="6.13464">
        <ele>360.39999389648</ele>
        <time>2015-11-25T15:04:36Z</time>
      </trkpt>
      <trkpt lat="43.37598" lon="6.13463">
        <ele>360.39999389648</ele>
        <time>2015-11-25T15:04:38Z</time>
      </trkpt>
      <trkpt lat="43.37598" lon="6.13464">
        <ele>360.39999389648</ele>
        <time>2015-11-25T15:04:42Z</time>
      </trkpt>
      <trkpt lat="43.37598" lon="6.13464">
        <ele>360.60000610352</ele>
        <time>2015-11-25T15:04:44Z</time>
      </trkpt>
      <trkpt lat="43.37598" lon="6.13463">
        <ele>360.79998779297</ele>
        <time>2015-11-25T15:04:46Z</time>
      </trkpt>
      <trkpt lat="43.37598" lon="6.13463">
        <ele>361</ele>
        <time>2015-11-25T15:04:48Z</time>
      </trkpt>
      <trkpt lat="43.37598" lon="6.13464">
        <ele>360.79998779297</ele>
        <time>2015-11-25T15:04:52Z</time>
      </trkpt>
      <trkpt lat="43.37598" lon="6.13464">
        <ele>361</ele>
        <time>2015-11-25T15:04:54Z</time>
      </trkpt>
      <trkpt lat="43.37598" lon="6.13464">
        <ele>360.60000610352</ele>
        <time>2015-11-25T15:04:56Z</time>
      </trkpt>
      <trkpt lat="43.37598" lon="6.13464">
        <ele>360.60000610352</ele>
        <time>2015-11-25T15:04:58Z</time>
      </trkpt>
      <trkpt lat="43.37598" lon="6.13464">
        <ele>360.60000610352</ele>
        <time>2015-11-25T15:05:00Z</time>
      </trkpt>
      <trkpt lat="43.37598" lon="6.13464">
        <ele>360.39999389648</ele>
        <time>2015-11-25T15:05:02Z</time>
      </trkpt>
      <trkpt lat="43.37598" lon="6.13464">
        <ele>360.79998779297</ele>
        <time>2015-11-25T15:05:06Z</time>
      </trkpt>
      <trkpt lat="43.37598" lon="6.13464">
        <ele>360.79998779297</ele>
        <time>2015-11-25T15:05:08Z</time>
      </trkpt>
      <trkpt lat="43.37598" lon="6.13464">
        <ele>360.79998779297</ele>
        <time>2015-11-25T15:05:10Z</time>
      </trkpt>
      <trkpt lat="43.37598" lon="6.13464">
        <ele>360.60000610352</ele>
        <time>2015-11-25T15:05:12Z</time>
      </trkpt>
      <trkpt lat="43.37598" lon="6.13464">
        <ele>360.60000610352</ele>
        <time>2015-11-25T15:05:14Z</time>
      </trkpt>
      <trkpt lat="43.37598" lon="6.13464">
        <ele>360.79998779297</ele>
        <time>2015-11-25T15:05:16Z</time>
      </trkpt>
      <trkpt lat="43.37598" lon="6.13464">
        <ele>361</ele>
        <time>2015-11-25T15:05:17Z</time>
      </trkpt>
      <trkpt lat="43.37598" lon="6.13464">
        <ele>361</ele>
        <time>2015-11-25T15:05:18Z</time>
      </trkpt>
      <trkpt lat="43.37597" lon="6.13465">
        <ele>361</ele>
        <time>2015-11-25T15:05:19Z</time>
      </trkpt>
      <trkpt lat="43.37595" lon="6.13466">
        <ele>360.79998779297</ele>
        <time>2015-11-25T15:05:20Z</time>
      </trkpt>
      <trkpt lat="43.37593" lon="6.13468">
        <ele>360</ele>
        <time>2015-11-25T15:05:22Z</time>
      </trkpt>
      <trkpt lat="43.37593" lon="6.13468">
        <ele>359.79998779297</ele>
        <time>2015-11-25T15:05:24Z</time>
      </trkpt>
      <trkpt lat="43.37593" lon="6.13469">
        <ele>360</ele>
        <time>2015-11-25T15:05:26Z</time>
      </trkpt>
      <trkpt lat="43.37593" lon="6.13469">
        <ele>360</ele>
        <time>2015-11-25T15:05:28Z</time>
      </trkpt>
      <trkpt lat="43.37593" lon="6.13469">
        <ele>360</ele>
        <time>2015-11-25T15:05:30Z</time>
      </trkpt>
      <trkpt lat="43.37593" lon="6.13469">
        <ele>360</ele>
        <time>2015-11-25T15:05:36Z</time>
      </trkpt>
      <trkpt lat="43.37593" lon="6.13469">
        <ele>359.79998779297</ele>
        <time>2015-11-25T15:05:42Z</time>
      </trkpt>
      <trkpt lat="43.37593" lon="6.13469">
        <ele>359.60000610352</ele>
        <time>2015-11-25T15:05:44Z</time>
      </trkpt>
      <trkpt lat="43.37593" lon="6.13469">
        <ele>360</ele>
        <time>2015-11-25T15:05:56Z</time>
      </trkpt>
      <trkpt lat="43.37593" lon="6.13469">
        <ele>359.60000610352</ele>
        <time>2015-11-25T15:06:20Z</time>
      </trkpt>
      <trkpt lat="43.37593" lon="6.13468">
        <ele>359.60000610352</ele>
        <time>2015-11-25T15:06:24Z</time>
      </trkpt>
      <trkpt lat="43.37593" lon="6.13467">
        <ele>359.60000610352</ele>
        <time>2015-11-25T15:06:25Z</time>
      </trkpt>
      <trkpt lat="43.37593" lon="6.13466">
        <ele>359.79998779297</ele>
        <time>2015-11-25T15:06:26Z</time>
      </trkpt>
      <trkpt lat="43.37595" lon="6.13464">
        <ele>359.79998779297</ele>
        <time>2015-11-25T15:06:28Z</time>
      </trkpt>
      <trkpt lat="43.37597" lon="6.13463">
        <ele>360.20001220703</ele>
        <time>2015-11-25T15:06:30Z</time>
      </trkpt>
      <trkpt lat="43.37598" lon="6.13463">
        <ele>360.39999389648</ele>
        <time>2015-11-25T15:06:32Z</time>
      </trkpt>
      <trkpt lat="43.376" lon="6.13463">
        <ele>360.79998779297</ele>
        <time>2015-11-25T15:06:34Z</time>
      </trkpt>
      <trkpt lat="43.376" lon="6.13464">
        <ele>361.20001220703</ele>
        <time>2015-11-25T15:06:36Z</time>
      </trkpt>
      <trkpt lat="43.37601" lon="6.13465">
        <ele>361.39999389648</ele>
        <time>2015-11-25T15:06:38Z</time>
      </trkpt>
      <trkpt lat="43.37601" lon="6.13465">
        <ele>361.60000610352</ele>
        <time>2015-11-25T15:06:40Z</time>
      </trkpt>
      <trkpt lat="43.37601" lon="6.13465">
        <ele>361.60000610352</ele>
        <time>2015-11-25T15:06:42Z</time>
      </trkpt>
      <trkpt lat="43.37601" lon="6.13466">
        <ele>361.39999389648</ele>
        <time>2015-11-25T15:06:44Z</time>
      </trkpt>
      <trkpt lat="43.37601" lon="6.13466">
        <ele>361.39999389648</ele>
        <time>2015-11-25T15:06:46Z</time>
      </trkpt>
      <trkpt lat="43.37601" lon="6.13467">
        <ele>361.79998779297</ele>
        <time>2015-11-25T15:06:50Z</time>
      </trkpt>
      <trkpt lat="43.37602" lon="6.13467">
        <ele>361.79998779297</ele>
        <time>2015-11-25T15:06:52Z</time>
      </trkpt>
      <trkpt lat="43.37602" lon="6.13468">
        <ele>361.79998779297</ele>
        <time>2015-11-25T15:06:54Z</time>
      </trkpt>
      <trkpt lat="43.37603" lon="6.13471">
        <ele>361.79998779297</ele>
        <time>2015-11-25T15:06:56Z</time>
      </trkpt>
      <trkpt lat="43.37605" lon="6.13474">
        <ele>362.39999389648</ele>
        <time>2015-11-25T15:06:58Z</time>
      </trkpt>
      <trkpt lat="43.37605" lon="6.13475">
        <ele>362.79998779297</ele>
        <time>2015-11-25T15:06:59Z</time>
      </trkpt>
      <trkpt lat="43.37607" lon="6.13478">
        <ele>363.39999389648</ele>
        <time>2015-11-25T15:07:02Z</time>
      </trkpt>
      <trkpt lat="43.37607" lon="6.1348">
        <ele>363.60000610352</ele>
        <time>2015-11-25T15:07:04Z</time>
      </trkpt>
      <trkpt lat="43.37608" lon="6.13483">
        <ele>363.79998779297</ele>
        <time>2015-11-25T15:07:06Z</time>
      </trkpt>
      <trkpt lat="43.37609" lon="6.13483">
        <ele>364</ele>
        <time>2015-11-25T15:07:08Z</time>
      </trkpt>
      <trkpt lat="43.37609" lon="6.13483">
        <ele>364.20001220703</ele>
        <time>2015-11-25T15:07:10Z</time>
      </trkpt>
      <trkpt lat="43.37609" lon="6.13483">
        <ele>364.39999389648</ele>
        <time>2015-11-25T15:07:12Z</time>
      </trkpt>
      <trkpt lat="43.37608" lon="6.13483">
        <ele>364.39999389648</ele>
        <time>2015-11-25T15:07:14Z</time>
      </trkpt>
      <trkpt lat="43.37608" lon="6.13484">
        <ele>364.39999389648</ele>
        <time>2015-11-25T15:07:16Z</time>
      </trkpt>
      <trkpt lat="43.37607" lon="6.13483">
        <ele>364.60000610352</ele>
        <time>2015-11-25T15:07:18Z</time>
      </trkpt>
      <trkpt lat="43.37607" lon="6.13483">
        <ele>364.60000610352</ele>
        <time>2015-11-25T15:07:20Z</time>
      </trkpt>
      <trkpt lat="43.37607" lon="6.13483">
        <ele>364.39999389648</ele>
        <time>2015-11-25T15:07:22Z</time>
      </trkpt>
      <trkpt lat="43.37607" lon="6.13483">
        <ele>364.39999389648</ele>
        <time>2015-11-25T15:07:26Z</time>
      </trkpt>
      <trkpt lat="43.37607" lon="6.13483">
        <ele>364.20001220703</ele>
        <time>2015-11-25T15:07:28Z</time>
      </trkpt>
      <trkpt lat="43.37607" lon="6.13483">
        <ele>364.39999389648</ele>
        <time>2015-11-25T15:07:30Z</time>
      </trkpt>
      <trkpt lat="43.37607" lon="6.13483">
        <ele>364.39999389648</ele>
        <time>2015-11-25T15:07:32Z</time>
      </trkpt>
      <trkpt lat="43.37608" lon="6.13483">
        <ele>364.39999389648</ele>
        <time>2015-11-25T15:07:34Z</time>
      </trkpt>
      <trkpt lat="43.37607" lon="6.13483">
        <ele>364.20001220703</ele>
        <time>2015-11-25T15:07:36Z</time>
      </trkpt>
      <trkpt lat="43.37607" lon="6.13483">
        <ele>364.39999389648</ele>
        <time>2015-11-25T15:07:38Z</time>
      </trkpt>
      <trkpt lat="43.37607" lon="6.13483">
        <ele>364.39999389648</ele>
        <time>2015-11-25T15:07:40Z</time>
      </trkpt>
      <trkpt lat="43.37607" lon="6.13483">
        <ele>364.39999389648</ele>
        <time>2015-11-25T15:07:42Z</time>
      </trkpt>
      <trkpt lat="43.37607" lon="6.13483">
        <ele>364.39999389648</ele>
        <time>2015-11-25T15:07:44Z</time>
      </trkpt>
      <trkpt lat="43.37606" lon="6.13481">
        <ele>364.20001220703</ele>
        <time>2015-11-25T15:07:46Z</time>
      </trkpt>
      <trkpt lat="43.37606" lon="6.13478">
        <ele>363.79998779297</ele>
        <time>2015-11-25T15:07:48Z</time>
      </trkpt>
      <trkpt lat="43.37603" lon="6.13474">
        <ele>363.39999389648</ele>
        <time>2015-11-25T15:07:50Z</time>
      </trkpt>
      <trkpt lat="43.37602" lon="6.13472">
        <ele>363.20001220703</ele>
        <time>2015-11-25T15:07:51Z</time>
      </trkpt>
      <trkpt lat="43.37601" lon="6.1347">
        <ele>362.39999389648</ele>
        <time>2015-11-25T15:07:52Z</time>
      </trkpt>
      <trkpt lat="43.37599" lon="6.13468">
        <ele>362</ele>
        <time>2015-11-25T15:07:53Z</time>
      </trkpt>
      <trkpt lat="43.37597" lon="6.13467">
        <ele>361</ele>
        <time>2015-11-25T15:07:55Z</time>
      </trkpt>
      <trkpt lat="43.37595" lon="6.13468">
        <ele>360.60000610352</ele>
        <time>2015-11-25T15:07:56Z</time>
      </trkpt>
      <trkpt lat="43.37593" lon="6.1347">
        <ele>360.20001220703</ele>
        <time>2015-11-25T15:07:57Z</time>
      </trkpt>
      <trkpt lat="43.37592" lon="6.13472">
        <ele>360.20001220703</ele>
        <time>2015-11-25T15:07:58Z</time>
      </trkpt>
      <trkpt lat="43.3759" lon="6.13476">
        <ele>360</ele>
        <time>2015-11-25T15:08:00Z</time>
      </trkpt>
      <trkpt lat="43.37588" lon="6.13479">
        <ele>359.20001220703</ele>
        <time>2015-11-25T15:08:02Z</time>
      </trkpt>
      <trkpt lat="43.37586" lon="6.13484">
        <ele>359</ele>
        <time>2015-11-25T15:08:05Z</time>
      </trkpt>
      <trkpt lat="43.37585" lon="6.13486">
        <ele>359</ele>
        <time>2015-11-25T15:08:06Z</time>
      </trkpt>
      <trkpt lat="43.37584" lon="6.13487">
        <ele>359.20001220703</ele>
        <time>2015-11-25T15:08:07Z</time>
      </trkpt>
      <trkpt lat="43.37584" lon="6.13489">
        <ele>359.20001220703</ele>
        <time>2015-11-25T15:08:08Z</time>
      </trkpt>
      <trkpt lat="43.37582" lon="6.13494">
        <ele>358.60000610352</ele>
        <time>2015-11-25T15:08:10Z</time>
      </trkpt>
      <trkpt lat="43.3758" lon="6.135">
        <ele>358.60000610352</ele>
        <time>2015-11-25T15:08:12Z</time>
      </trkpt>
      <trkpt lat="43.37579" lon="6.13502">
        <ele>358.39999389648</ele>
        <time>2015-11-25T15:08:13Z</time>
      </trkpt>
      <trkpt lat="43.37577" lon="6.13507">
        <ele>357.39999389648</ele>
        <time>2015-11-25T15:08:16Z</time>
      </trkpt>
      <trkpt lat="43.37576" lon="6.13511">
        <ele>357</ele>
        <time>2015-11-25T15:08:18Z</time>
      </trkpt>
      <trkpt lat="43.37575" lon="6.13515">
        <ele>356.20001220703</ele>
        <time>2015-11-25T15:08:20Z</time>
      </trkpt>
      <trkpt lat="43.37573" lon="6.13517">
        <ele>355.79998779297</ele>
        <time>2015-11-25T15:08:22Z</time>
      </trkpt>
      <trkpt lat="43.37572" lon="6.13517">
        <ele>355.79998779297</ele>
        <time>2015-11-25T15:08:23Z</time>
      </trkpt>
      <trkpt lat="43.37571" lon="6.13518">
        <ele>355.79998779297</ele>
        <time>2015-11-25T15:08:24Z</time>
      </trkpt>
      <trkpt lat="43.37571" lon="6.13518">
        <ele>355.79998779297</ele>
        <time>2015-11-25T15:08:25Z</time>
      </trkpt>
      <trkpt lat="43.3757" lon="6.13517">
        <ele>355.60000610352</ele>
        <time>2015-11-25T15:08:26Z</time>
      </trkpt>
      <trkpt lat="43.37569" lon="6.13517">
        <ele>355.20001220703</ele>
        <time>2015-11-25T15:08:28Z</time>
      </trkpt>
      <trkpt lat="43.37569" lon="6.13517">
        <ele>355</ele>
        <time>2015-11-25T15:08:30Z</time>
      </trkpt>
      <trkpt lat="43.37569" lon="6.13517">
        <ele>355</ele>
        <time>2015-11-25T15:08:31Z</time>
      </trkpt>
      <trkpt lat="43.37569" lon="6.13517">
        <ele>354.79998779297</ele>
        <time>2015-11-25T15:08:32Z</time>
      </trkpt>
      <trkpt lat="43.37568" lon="6.13517">
        <ele>354.79998779297</ele>
        <time>2015-11-25T15:08:34Z</time>
      </trkpt>
      <trkpt lat="43.37567" lon="6.13517">
        <ele>354.60000610352</ele>
        <time>2015-11-25T15:08:35Z</time>
      </trkpt>
      <trkpt lat="43.37566" lon="6.13516">
        <ele>354.39999389648</ele>
        <time>2015-11-25T15:08:36Z</time>
      </trkpt>
      <trkpt lat="43.37566" lon="6.13514">
        <ele>354.20001220703</ele>
        <time>2015-11-25T15:08:38Z</time>
      </trkpt>
      <trkpt lat="43.37565" lon="6.13508">
        <ele>354</ele>
        <time>2015-11-25T15:08:40Z</time>
      </trkpt>
      <trkpt lat="43.37564" lon="6.13499">
        <ele>353.79998779297</ele>
        <time>2015-11-25T15:08:42Z</time>
      </trkpt>
      <trkpt lat="43.37563" lon="6.13495">
        <ele>352.39999389648</ele>
        <time>2015-11-25T15:08:43Z</time>
      </trkpt>
      <trkpt lat="43.37562" lon="6.13491">
        <ele>352.39999389648</ele>
        <time>2015-11-25T15:08:44Z</time>
      </trkpt>
      <trkpt lat="43.3756" lon="6.13488">
        <ele>352.39999389648</ele>
        <time>2015-11-25T15:08:45Z</time>
      </trkpt>
      <trkpt lat="43.37558" lon="6.13484">
        <ele>352.39999389648</ele>
        <time>2015-11-25T15:08:46Z</time>
      </trkpt>
      <trkpt lat="43.37557" lon="6.1348">
        <ele>352.20001220703</ele>
        <time>2015-11-25T15:08:47Z</time>
      </trkpt>
      <trkpt lat="43.37556" lon="6.13476">
        <ele>351.79998779297</ele>
        <time>2015-11-25T15:08:48Z</time>
      </trkpt>
      <trkpt lat="43.37554" lon="6.13473">
        <ele>350.60000610352</ele>
        <time>2015-11-25T15:08:49Z</time>
      </trkpt>
      <trkpt lat="43.37553" lon="6.1347">
        <ele>349.60000610352</ele>
        <time>2015-11-25T15:08:50Z</time>
      </trkpt>
      <trkpt lat="43.37548" lon="6.13465">
        <ele>348</ele>
        <time>2015-11-25T15:08:52Z</time>
      </trkpt>
      <trkpt lat="43.37546" lon="6.13463">
        <ele>347.20001220703</ele>
        <time>2015-11-25T15:08:53Z</time>
      </trkpt>
      <trkpt lat="43.37543" lon="6.13463">
        <ele>347</ele>
        <time>2015-11-25T15:08:54Z</time>
      </trkpt>
      <trkpt lat="43.3754" lon="6.13463">
        <ele>346.79998779297</ele>
        <time>2015-11-25T15:08:55Z</time>
      </trkpt>
      <trkpt lat="43.37537" lon="6.13464">
        <ele>346.39999389648</ele>
        <time>2015-11-25T15:08:56Z</time>
      </trkpt>
      <trkpt lat="43.37534" lon="6.13466">
        <ele>345.20001220703</ele>
        <time>2015-11-25T15:08:57Z</time>
      </trkpt>
      <trkpt lat="43.37533" lon="6.13466">
        <ele>344.60000610352</ele>
        <time>2015-11-25T15:08:58Z</time>
      </trkpt>
      <trkpt lat="43.3753" lon="6.13468">
        <ele>344.39999389648</ele>
        <time>2015-11-25T15:09:00Z</time>
      </trkpt>
      <trkpt lat="43.37529" lon="6.1347">
        <ele>344.39999389648</ele>
        <time>2015-11-25T15:09:01Z</time>
      </trkpt>
      <trkpt lat="43.37528" lon="6.1347">
        <ele>344.20001220703</ele>
        <time>2015-11-25T15:09:02Z</time>
      </trkpt>
      <trkpt lat="43.37528" lon="6.13471">
        <ele>344</ele>
        <time>2015-11-25T15:09:04Z</time>
      </trkpt>
      <trkpt lat="43.37528" lon="6.13471">
        <ele>344</ele>
        <time>2015-11-25T15:09:06Z</time>
      </trkpt>
      <trkpt lat="43.37528" lon="6.13471">
        <ele>344</ele>
        <time>2015-11-25T15:09:08Z</time>
      </trkpt>
      <trkpt lat="43.37528" lon="6.13471">
        <ele>343.79998779297</ele>
        <time>2015-11-25T15:09:10Z</time>
      </trkpt>
      <trkpt lat="43.37528" lon="6.13471">
        <ele>343.79998779297</ele>
        <time>2015-11-25T15:09:12Z</time>
      </trkpt>
      <trkpt lat="43.37527" lon="6.13471">
        <ele>343.79998779297</ele>
        <time>2015-11-25T15:09:14Z</time>
      </trkpt>
      <trkpt lat="43.37527" lon="6.13471">
        <ele>343.60000610352</ele>
        <time>2015-11-25T15:09:16Z</time>
      </trkpt>
      <trkpt lat="43.37527" lon="6.13471">
        <ele>343.60000610352</ele>
        <time>2015-11-25T15:09:18Z</time>
      </trkpt>
      <trkpt lat="43.37527" lon="6.13471">
        <ele>343.60000610352</ele>
        <time>2015-11-25T15:09:20Z</time>
      </trkpt>
      <trkpt lat="43.37527" lon="6.13471">
        <ele>343.79998779297</ele>
        <time>2015-11-25T15:09:22Z</time>
      </trkpt>
      <trkpt lat="43.37528" lon="6.13471">
        <ele>343.60000610352</ele>
        <time>2015-11-25T15:09:24Z</time>
      </trkpt>
      <trkpt lat="43.37528" lon="6.13471">
        <ele>343.60000610352</ele>
        <time>2015-11-25T15:09:26Z</time>
      </trkpt>
      <trkpt lat="43.37528" lon="6.13471">
        <ele>343.79998779297</ele>
        <time>2015-11-25T15:09:28Z</time>
      </trkpt>
      <trkpt lat="43.37528" lon="6.13471">
        <ele>343.79998779297</ele>
        <time>2015-11-25T15:09:36Z</time>
      </trkpt>
      <trkpt lat="43.37528" lon="6.13471">
        <ele>343.39999389648</ele>
        <time>2015-11-25T15:09:42Z</time>
      </trkpt>
      <trkpt lat="43.37528" lon="6.13471">
        <ele>343.39999389648</ele>
        <time>2015-11-25T15:09:43Z</time>
      </trkpt>
      <trkpt lat="43.37528" lon="6.13471">
        <ele>343.39999389648</ele>
        <time>2015-11-25T15:09:44Z</time>
      </trkpt>
      <trkpt lat="43.37528" lon="6.13471">
        <ele>343.79998779297</ele>
        <time>2015-11-25T15:09:48Z</time>
      </trkpt>
      <trkpt lat="43.37527" lon="6.13471">
        <ele>343.60000610352</ele>
        <time>2015-11-25T15:09:50Z</time>
      </trkpt>
      <trkpt lat="43.37528" lon="6.13471">
        <ele>343.60000610352</ele>
        <time>2015-11-25T15:09:52Z</time>
      </trkpt>
      <trkpt lat="43.37528" lon="6.13471">
        <ele>343.60000610352</ele>
        <time>2015-11-25T15:09:54Z</time>
      </trkpt>
      <trkpt lat="43.37528" lon="6.13471">
        <ele>343.79998779297</ele>
        <time>2015-11-25T15:09:56Z</time>
      </trkpt>
      <trkpt lat="43.37528" lon="6.13471">
        <ele>343.60000610352</ele>
        <time>2015-11-25T15:10:02Z</time>
      </trkpt>
      <trkpt lat="43.37528" lon="6.13471">
        <ele>343.60000610352</ele>
        <time>2015-11-25T15:10:04Z</time>
      </trkpt>
      <trkpt lat="43.37527" lon="6.1347">
        <ele>343.79998779297</ele>
        <time>2015-11-25T15:10:06Z</time>
      </trkpt>
      <trkpt lat="43.37527" lon="6.1347">
        <ele>343.79998779297</ele>
        <time>2015-11-25T15:10:08Z</time>
      </trkpt>
      <trkpt lat="43.37525" lon="6.13468">
        <ele>343.79998779297</ele>
        <time>2015-11-25T15:10:10Z</time>
      </trkpt>
      <trkpt lat="43.37523" lon="6.13464">
        <ele>343.39999389648</ele>
        <time>2015-11-25T15:10:12Z</time>
      </trkpt>
      <trkpt lat="43.37523" lon="6.13459">
        <ele>343.60000610352</ele>
        <time>2015-11-25T15:10:14Z</time>
      </trkpt>
      <trkpt lat="43.37523" lon="6.13456">
        <ele>343.60000610352</ele>
        <time>2015-11-25T15:10:15Z</time>
      </trkpt>
      <trkpt lat="43.37523" lon="6.1345">
        <ele>343.20001220703</ele>
        <time>2015-11-25T15:10:17Z</time>
      </trkpt>
      <trkpt lat="43.37523" lon="6.13447">
        <ele>343.20001220703</ele>
        <time>2015-11-25T15:10:18Z</time>
      </trkpt>
      <trkpt lat="43.37525" lon="6.13436">
        <ele>342.39999389648</ele>
        <time>2015-11-25T15:10:22Z</time>
      </trkpt>
      <trkpt lat="43.37527" lon="6.1343">
        <ele>342.39999389648</ele>
        <time>2015-11-25T15:10:24Z</time>
      </trkpt>
      <trkpt lat="43.37528" lon="6.13425">
        <ele>342.39999389648</ele>
        <time>2015-11-25T15:10:26Z</time>
      </trkpt>
      <trkpt lat="43.3753" lon="6.13421">
        <ele>342</ele>
        <time>2015-11-25T15:10:28Z</time>
      </trkpt>
      <trkpt lat="43.37532" lon="6.13417">
        <ele>341.20001220703</ele>
        <time>2015-11-25T15:10:31Z</time>
      </trkpt>
      <trkpt lat="43.37532" lon="6.13415">
        <ele>341.39999389648</ele>
        <time>2015-11-25T15:10:32Z</time>
      </trkpt>
      <trkpt lat="43.37533" lon="6.13413">
        <ele>341.20001220703</ele>
        <time>2015-11-25T15:10:34Z</time>
      </trkpt>
      <trkpt lat="43.37534" lon="6.13412">
        <ele>341.20001220703</ele>
        <time>2015-11-25T15:10:35Z</time>
      </trkpt>
      <trkpt lat="43.37536" lon="6.134">
        <ele>340.79998779297</ele>
        <time>2015-11-25T15:10:39Z</time>
      </trkpt>
      <trkpt lat="43.37537" lon="6.13397">
        <ele>340.79998779297</ele>
        <time>2015-11-25T15:10:40Z</time>
      </trkpt>
      <trkpt lat="43.37538" lon="6.1339">
        <ele>341</ele>
        <time>2015-11-25T15:10:42Z</time>
      </trkpt>
      <trkpt lat="43.37539" lon="6.13387">
        <ele>340.60000610352</ele>
        <time>2015-11-25T15:10:43Z</time>
      </trkpt>
      <trkpt lat="43.37542" lon="6.13378">
        <ele>340.20001220703</ele>
        <time>2015-11-25T15:10:46Z</time>
      </trkpt>
      <trkpt lat="43.37543" lon="6.13376">
        <ele>339.79998779297</ele>
        <time>2015-11-25T15:10:47Z</time>
      </trkpt>
      <trkpt lat="43.37544" lon="6.13374">
        <ele>339.60000610352</ele>
        <time>2015-11-25T15:10:48Z</time>
      </trkpt>
      <trkpt lat="43.37549" lon="6.13366">
        <ele>340</ele>
        <time>2015-11-25T15:10:51Z</time>
      </trkpt>
      <trkpt lat="43.37551" lon="6.13363">
        <ele>340</ele>
        <time>2015-11-25T15:10:52Z</time>
      </trkpt>
      <trkpt lat="43.37553" lon="6.13356">
        <ele>339.79998779297</ele>
        <time>2015-11-25T15:10:54Z</time>
      </trkpt>
      <trkpt lat="43.37557" lon="6.1335">
        <ele>339.79998779297</ele>
        <time>2015-11-25T15:10:56Z</time>
      </trkpt>
      <trkpt lat="43.3756" lon="6.13349">
        <ele>340</ele>
        <time>2015-11-25T15:10:57Z</time>
      </trkpt>
      <trkpt lat="43.37563" lon="6.13347">
        <ele>340</ele>
        <time>2015-11-25T15:10:58Z</time>
      </trkpt>
      <trkpt lat="43.37568" lon="6.13342">
        <ele>340.20001220703</ele>
        <time>2015-11-25T15:11:00Z</time>
      </trkpt>
      <trkpt lat="43.37571" lon="6.13338">
        <ele>340.39999389648</ele>
        <time>2015-11-25T15:11:02Z</time>
      </trkpt>
      <trkpt lat="43.37573" lon="6.13336">
        <ele>340.60000610352</ele>
        <time>2015-11-25T15:11:04Z</time>
      </trkpt>
      <trkpt lat="43.37574" lon="6.13332">
        <ele>339.79998779297</ele>
        <time>2015-11-25T15:11:06Z</time>
      </trkpt>
      <trkpt lat="43.37574" lon="6.13328">
        <ele>339.39999389648</ele>
        <time>2015-11-25T15:11:07Z</time>
      </trkpt>
      <trkpt lat="43.37573" lon="6.13324">
        <ele>338.79998779297</ele>
        <time>2015-11-25T15:11:08Z</time>
      </trkpt>
      <trkpt lat="43.37572" lon="6.13313">
        <ele>338.79998779297</ele>
        <time>2015-11-25T15:11:10Z</time>
      </trkpt>
      <trkpt lat="43.37573" lon="6.13307">
        <ele>338.79998779297</ele>
        <time>2015-11-25T15:11:11Z</time>
      </trkpt>
      <trkpt lat="43.37574" lon="6.133">
        <ele>338.60000610352</ele>
        <time>2015-11-25T15:11:12Z</time>
      </trkpt>
      <trkpt lat="43.37575" lon="6.13288">
        <ele>338.20001220703</ele>
        <time>2015-11-25T15:11:14Z</time>
      </trkpt>
      <trkpt lat="43.37575" lon="6.13268">
        <ele>338</ele>
        <time>2015-11-25T15:11:18Z</time>
      </trkpt>
      <trkpt lat="43.37575" lon="6.13259">
        <ele>337.60000610352</ele>
        <time>2015-11-25T15:11:20Z</time>
      </trkpt>
      <trkpt lat="43.37577" lon="6.13248">
        <ele>337.39999389648</ele>
        <time>2015-11-25T15:11:22Z</time>
      </trkpt>
      <trkpt lat="43.37577" lon="6.13238">
        <ele>337</ele>
        <time>2015-11-25T15:11:24Z</time>
      </trkpt>
      <trkpt lat="43.37578" lon="6.13228">
        <ele>336.60000610352</ele>
        <time>2015-11-25T15:11:26Z</time>
      </trkpt>
      <trkpt lat="43.37579" lon="6.13223">
        <ele>336</ele>
        <time>2015-11-25T15:11:27Z</time>
      </trkpt>
      <trkpt lat="43.37579" lon="6.13217">
        <ele>335.79998779297</ele>
        <time>2015-11-25T15:11:28Z</time>
      </trkpt>
      <trkpt lat="43.37581" lon="6.13206">
        <ele>336.20001220703</ele>
        <time>2015-11-25T15:11:30Z</time>
      </trkpt>
      <trkpt lat="43.37583" lon="6.13195">
        <ele>335.60000610352</ele>
        <time>2015-11-25T15:11:32Z</time>
      </trkpt>
      <trkpt lat="43.37587" lon="6.13183">
        <ele>334.79998779297</ele>
        <time>2015-11-25T15:11:34Z</time>
      </trkpt>
      <trkpt lat="43.37592" lon="6.13169">
        <ele>333.79998779297</ele>
        <time>2015-11-25T15:11:36Z</time>
      </trkpt>
      <trkpt lat="43.37598" lon="6.13155">
        <ele>333.20001220703</ele>
        <time>2015-11-25T15:11:38Z</time>
      </trkpt>
      <trkpt lat="43.37601" lon="6.13148">
        <ele>333</ele>
        <time>2015-11-25T15:11:39Z</time>
      </trkpt>
      <trkpt lat="43.37604" lon="6.13139">
        <ele>333</ele>
        <time>2015-11-25T15:11:40Z</time>
      </trkpt>
      <trkpt lat="43.37608" lon="6.13132">
        <ele>332.20001220703</ele>
        <time>2015-11-25T15:11:41Z</time>
      </trkpt>
      <trkpt lat="43.37613" lon="6.13125">
        <ele>331.79998779297</ele>
        <time>2015-11-25T15:11:42Z</time>
      </trkpt>
      <trkpt lat="43.37616" lon="6.13119">
        <ele>331.79998779297</ele>
        <time>2015-11-25T15:11:43Z</time>
      </trkpt>
      <trkpt lat="43.37621" lon="6.13112">
        <ele>332</ele>
        <time>2015-11-25T15:11:44Z</time>
      </trkpt>
      <trkpt lat="43.3763" lon="6.13099">
        <ele>330.79998779297</ele>
        <time>2015-11-25T15:11:46Z</time>
      </trkpt>
      <trkpt lat="43.37634" lon="6.13093">
        <ele>329.60000610352</ele>
        <time>2015-11-25T15:11:47Z</time>
      </trkpt>
      <trkpt lat="43.37638" lon="6.13085">
        <ele>329.79998779297</ele>
        <time>2015-11-25T15:11:48Z</time>
      </trkpt>
      <trkpt lat="43.37648" lon="6.13071">
        <ele>329.60000610352</ele>
        <time>2015-11-25T15:11:50Z</time>
      </trkpt>
      <trkpt lat="43.37657" lon="6.13056">
        <ele>329.39999389648</ele>
        <time>2015-11-25T15:11:52Z</time>
      </trkpt>
      <trkpt lat="43.37666" lon="6.13042">
        <ele>328</ele>
        <time>2015-11-25T15:11:54Z</time>
      </trkpt>
      <trkpt lat="43.37669" lon="6.13035">
        <ele>327.39999389648</ele>
        <time>2015-11-25T15:11:55Z</time>
      </trkpt>
      <trkpt lat="43.37672" lon="6.13028">
        <ele>327.39999389648</ele>
        <time>2015-11-25T15:11:56Z</time>
      </trkpt>
      <trkpt lat="43.37673" lon="6.13014">
        <ele>327</ele>
        <time>2015-11-25T15:11:58Z</time>
      </trkpt>
      <trkpt lat="43.37673" lon="6.1301">
        <ele>327</ele>
        <time>2015-11-25T15:11:59Z</time>
      </trkpt>
      <trkpt lat="43.37672" lon="6.13005">
        <ele>327.20001220703</ele>
        <time>2015-11-25T15:12:00Z</time>
      </trkpt>
      <trkpt lat="43.3767" lon="6.12997">
        <ele>327</ele>
        <time>2015-11-25T15:12:02Z</time>
      </trkpt>
      <trkpt lat="43.37669" lon="6.12996">
        <ele>327</ele>
        <time>2015-11-25T15:12:03Z</time>
      </trkpt>
      <trkpt lat="43.37666" lon="6.1299">
        <ele>327.39999389648</ele>
        <time>2015-11-25T15:12:06Z</time>
      </trkpt>
      <trkpt lat="43.37667" lon="6.12986">
        <ele>327</ele>
        <time>2015-11-25T15:12:08Z</time>
      </trkpt>
      <trkpt lat="43.37669" lon="6.12986">
        <ele>326.79998779297</ele>
        <time>2015-11-25T15:12:09Z</time>
      </trkpt>
      <trkpt lat="43.37669" lon="6.12987">
        <ele>326.60000610352</ele>
        <time>2015-11-25T15:12:10Z</time>
      </trkpt>
      <trkpt lat="43.37669" lon="6.12986">
        <ele>326</ele>
        <time>2015-11-25T15:12:11Z</time>
      </trkpt>
      <trkpt lat="43.37669" lon="6.12986">
        <ele>325.79998779297</ele>
        <time>2015-11-25T15:12:12Z</time>
      </trkpt>
      <trkpt lat="43.3767" lon="6.12986">
        <ele>325.60000610352</ele>
        <time>2015-11-25T15:12:14Z</time>
      </trkpt>
      <trkpt lat="43.3767" lon="6.12986">
        <ele>325.60000610352</ele>
        <time>2015-11-25T15:12:16Z</time>
      </trkpt>
      <trkpt lat="43.3767" lon="6.12986">
        <ele>325.60000610352</ele>
        <time>2015-11-25T15:12:18Z</time>
      </trkpt>
      <trkpt lat="43.3767" lon="6.12986">
        <ele>325.79998779297</ele>
        <time>2015-11-25T15:12:20Z</time>
      </trkpt>
      <trkpt lat="43.3767" lon="6.12986">
        <ele>325.79998779297</ele>
        <time>2015-11-25T15:12:24Z</time>
      </trkpt>
      <trkpt lat="43.3767" lon="6.12986">
        <ele>325.79998779297</ele>
        <time>2015-11-25T15:12:26Z</time>
      </trkpt>
      <trkpt lat="43.37669" lon="6.12985">
        <ele>326</ele>
        <time>2015-11-25T15:12:28Z</time>
      </trkpt>
      <trkpt lat="43.37668" lon="6.12986">
        <ele>326</ele>
        <time>2015-11-25T15:12:30Z</time>
      </trkpt>
      <trkpt lat="43.37667" lon="6.12986">
        <ele>326</ele>
        <time>2015-11-25T15:12:32Z</time>
      </trkpt>
      <trkpt lat="43.37667" lon="6.12986">
        <ele>325.79998779297</ele>
        <time>2015-11-25T15:12:34Z</time>
      </trkpt>
      <trkpt lat="43.37667" lon="6.12986">
        <ele>325.39999389648</ele>
        <time>2015-11-25T15:12:36Z</time>
      </trkpt>
      <trkpt lat="43.37667" lon="6.12986">
        <ele>325.39999389648</ele>
        <time>2015-11-25T15:12:38Z</time>
      </trkpt>
      <trkpt lat="43.37667" lon="6.12986">
        <ele>325.39999389648</ele>
        <time>2015-11-25T15:12:40Z</time>
      </trkpt>
      <trkpt lat="43.37667" lon="6.12986">
        <ele>325.39999389648</ele>
        <time>2015-11-25T15:12:42Z</time>
      </trkpt>
      <trkpt lat="43.37667" lon="6.12986">
        <ele>326</ele>
        <time>2015-11-25T15:12:44Z</time>
      </trkpt>
      <trkpt lat="43.37668" lon="6.12989">
        <ele>326.79998779297</ele>
        <time>2015-11-25T15:12:49Z</time>
      </trkpt>
      <trkpt lat="43.37669" lon="6.1299">
        <ele>327</ele>
        <time>2015-11-25T15:12:50Z</time>
      </trkpt>
      <trkpt lat="43.37669" lon="6.12991">
        <ele>327.20001220703</ele>
        <time>2015-11-25T15:12:52Z</time>
      </trkpt>
      <trkpt lat="43.37669" lon="6.12991">
        <ele>327</ele>
        <time>2015-11-25T15:12:54Z</time>
      </trkpt>
      <trkpt lat="43.37669" lon="6.12991">
        <ele>327</ele>
        <time>2015-11-25T15:12:55Z</time>
      </trkpt>
      <trkpt lat="43.37669" lon="6.12991">
        <ele>327</ele>
        <time>2015-11-25T15:12:56Z</time>
      </trkpt>
      <trkpt lat="43.37669" lon="6.12992">
        <ele>327.39999389648</ele>
        <time>2015-11-25T15:12:58Z</time>
      </trkpt>
      <trkpt lat="43.37668" lon="6.12992">
        <ele>327</ele>
        <time>2015-11-25T15:13:00Z</time>
      </trkpt>
      <trkpt lat="43.37668" lon="6.12992">
        <ele>327</ele>
        <time>2015-11-25T15:13:02Z</time>
      </trkpt>
      <trkpt lat="43.37668" lon="6.12992">
        <ele>327</ele>
        <time>2015-11-25T15:13:04Z</time>
      </trkpt>
      <trkpt lat="43.37668" lon="6.12992">
        <ele>327.20001220703</ele>
        <time>2015-11-25T15:13:06Z</time>
      </trkpt>
      <trkpt lat="43.37668" lon="6.12991">
        <ele>327.39999389648</ele>
        <time>2015-11-25T15:13:08Z</time>
      </trkpt>
      <trkpt lat="43.37667" lon="6.12988">
        <ele>327.39999389648</ele>
        <time>2015-11-25T15:13:10Z</time>
      </trkpt>
      <trkpt lat="43.37667" lon="6.12986">
        <ele>327.20001220703</ele>
        <time>2015-11-25T15:13:11Z</time>
      </trkpt>
      <trkpt lat="43.37668" lon="6.12985">
        <ele>327</ele>
        <time>2015-11-25T15:13:12Z</time>
      </trkpt>
      <trkpt lat="43.37672" lon="6.12984">
        <ele>326.39999389648</ele>
        <time>2015-11-25T15:13:14Z</time>
      </trkpt>
      <trkpt lat="43.37674" lon="6.12985">
        <ele>326.20001220703</ele>
        <time>2015-11-25T15:13:15Z</time>
      </trkpt>
      <trkpt lat="43.37675" lon="6.12987">
        <ele>326.39999389648</ele>
        <time>2015-11-25T15:13:16Z</time>
      </trkpt>
      <trkpt lat="43.37679" lon="6.12988">
        <ele>326.39999389648</ele>
        <time>2015-11-25T15:13:18Z</time>
      </trkpt>
      <trkpt lat="43.37681" lon="6.12986">
        <ele>326.39999389648</ele>
        <time>2015-11-25T15:13:19Z</time>
      </trkpt>
      <trkpt lat="43.37682" lon="6.12975">
        <ele>326.60000610352</ele>
        <time>2015-11-25T15:13:22Z</time>
      </trkpt>
      <trkpt lat="43.37683" lon="6.12966">
        <ele>326.39999389648</ele>
        <time>2015-11-25T15:13:24Z</time>
      </trkpt>
      <trkpt lat="43.37686" lon="6.12959">
        <ele>326.20001220703</ele>
        <time>2015-11-25T15:13:26Z</time>
      </trkpt>
      <trkpt lat="43.37693" lon="6.12947">
        <ele>326.20001220703</ele>
        <time>2015-11-25T15:13:29Z</time>
      </trkpt>
      <trkpt lat="43.37695" lon="6.12942">
        <ele>326</ele>
        <time>2015-11-25T15:13:30Z</time>
      </trkpt>
      <trkpt lat="43.377" lon="6.12932">
        <ele>326</ele>
        <time>2015-11-25T15:13:32Z</time>
      </trkpt>
      <trkpt lat="43.37704" lon="6.12922">
        <ele>325.60000610352</ele>
        <time>2015-11-25T15:13:34Z</time>
      </trkpt>
      <trkpt lat="43.37708" lon="6.12912">
        <ele>325.60000610352</ele>
        <time>2015-11-25T15:13:36Z</time>
      </trkpt>
      <trkpt lat="43.37711" lon="6.129">
        <ele>325.79998779297</ele>
        <time>2015-11-25T15:13:38Z</time>
      </trkpt>
      <trkpt lat="43.37714" lon="6.1289">
        <ele>325.60000610352</ele>
        <time>2015-11-25T15:13:40Z</time>
      </trkpt>
      <trkpt lat="43.37715" lon="6.12877">
        <ele>325.39999389648</ele>
        <time>2015-11-25T15:13:42Z</time>
      </trkpt>
      <trkpt lat="43.37716" lon="6.12864">
        <ele>325.79998779297</ele>
        <time>2015-11-25T15:13:44Z</time>
      </trkpt>
      <trkpt lat="43.37717" lon="6.12849">
        <ele>325.60000610352</ele>
        <time>2015-11-25T15:13:46Z</time>
      </trkpt>
      <trkpt lat="43.37717" lon="6.12835">
        <ele>325.39999389648</ele>
        <time>2015-11-25T15:13:48Z</time>
      </trkpt>
      <trkpt lat="43.37715" lon="6.12813">
        <ele>324.20001220703</ele>
        <time>2015-11-25T15:13:51Z</time>
      </trkpt>
      <trkpt lat="43.37714" lon="6.12804">
        <ele>324.20001220703</ele>
        <time>2015-11-25T15:13:52Z</time>
      </trkpt>
      <trkpt lat="43.37712" lon="6.12797">
        <ele>324.20001220703</ele>
        <time>2015-11-25T15:13:53Z</time>
      </trkpt>
      <trkpt lat="43.37711" lon="6.12789">
        <ele>323.79998779297</ele>
        <time>2015-11-25T15:13:54Z</time>
      </trkpt>
      <trkpt lat="43.3771" lon="6.1278">
        <ele>323.20001220703</ele>
        <time>2015-11-25T15:13:55Z</time>
      </trkpt>
      <trkpt lat="43.37708" lon="6.12762">
        <ele>322</ele>
        <time>2015-11-25T15:13:57Z</time>
      </trkpt>
      <trkpt lat="43.37707" lon="6.12752">
        <ele>321.20001220703</ele>
        <time>2015-11-25T15:13:58Z</time>
      </trkpt>
      <trkpt lat="43.37707" lon="6.12734">
        <ele>320.39999389648</ele>
        <time>2015-11-25T15:14:00Z</time>
      </trkpt>
      <trkpt lat="43.37707" lon="6.12717">
        <ele>320</ele>
        <time>2015-11-25T15:14:02Z</time>
      </trkpt>
      <trkpt lat="43.37707" lon="6.12708">
        <ele>320</ele>
        <time>2015-11-25T15:14:03Z</time>
      </trkpt>
      <trkpt lat="43.37708" lon="6.12683">
        <ele>319.20001220703</ele>
        <time>2015-11-25T15:14:06Z</time>
      </trkpt>
      <trkpt lat="43.3771" lon="6.12668">
        <ele>319.20001220703</ele>
        <time>2015-11-25T15:14:08Z</time>
      </trkpt>
      <trkpt lat="43.37712" lon="6.12653">
        <ele>318.60000610352</ele>
        <time>2015-11-25T15:14:10Z</time>
      </trkpt>
      <trkpt lat="43.37713" lon="6.12646">
        <ele>318</ele>
        <time>2015-11-25T15:14:11Z</time>
      </trkpt>
      <trkpt lat="43.37714" lon="6.12638">
        <ele>318</ele>
        <time>2015-11-25T15:14:12Z</time>
      </trkpt>
      <trkpt lat="43.37714" lon="6.12632">
        <ele>318</ele>
        <time>2015-11-25T15:14:13Z</time>
      </trkpt>
      <trkpt lat="43.37713" lon="6.1261">
        <ele>317.79998779297</ele>
        <time>2015-11-25T15:14:16Z</time>
      </trkpt>
      <trkpt lat="43.37712" lon="6.12596">
        <ele>317.79998779297</ele>
        <time>2015-11-25T15:14:18Z</time>
      </trkpt>
      <trkpt lat="43.37712" lon="6.12583">
        <ele>317.60000610352</ele>
        <time>2015-11-25T15:14:20Z</time>
      </trkpt>
      <trkpt lat="43.37712" lon="6.12568">
        <ele>317</ele>
        <time>2015-11-25T15:14:22Z</time>
      </trkpt>
      <trkpt lat="43.37714" lon="6.12555">
        <ele>316.20001220703</ele>
        <time>2015-11-25T15:14:24Z</time>
      </trkpt>
      <trkpt lat="43.37715" lon="6.12539">
        <ele>316.60000610352</ele>
        <time>2015-11-25T15:14:26Z</time>
      </trkpt>
      <trkpt lat="43.37717" lon="6.12523">
        <ele>316.39999389648</ele>
        <time>2015-11-25T15:14:28Z</time>
      </trkpt>
      <trkpt lat="43.37718" lon="6.12516">
        <ele>316.39999389648</ele>
        <time>2015-11-25T15:14:29Z</time>
      </trkpt>
      <trkpt lat="43.3772" lon="6.12507">
        <ele>316</ele>
        <time>2015-11-25T15:14:30Z</time>
      </trkpt>
      <trkpt lat="43.37721" lon="6.12499">
        <ele>315.39999389648</ele>
        <time>2015-11-25T15:14:31Z</time>
      </trkpt>
      <trkpt lat="43.37723" lon="6.12491">
        <ele>314.79998779297</ele>
        <time>2015-11-25T15:14:32Z</time>
      </trkpt>
      <trkpt lat="43.37725" lon="6.12484">
        <ele>314.20001220703</ele>
        <time>2015-11-25T15:14:33Z</time>
      </trkpt>
      <trkpt lat="43.37727" lon="6.12475">
        <ele>314.20001220703</ele>
        <time>2015-11-25T15:14:34Z</time>
      </trkpt>
      <trkpt lat="43.3773" lon="6.12459">
        <ele>313.39999389648</ele>
        <time>2015-11-25T15:14:36Z</time>
      </trkpt>
      <trkpt lat="43.37731" lon="6.12453">
        <ele>313.39999389648</ele>
        <time>2015-11-25T15:14:37Z</time>
      </trkpt>
      <trkpt lat="43.37732" lon="6.12446">
        <ele>313.39999389648</ele>
        <time>2015-11-25T15:14:38Z</time>
      </trkpt>
      <trkpt lat="43.37732" lon="6.12439">
        <ele>313.20001220703</ele>
        <time>2015-11-25T15:14:39Z</time>
      </trkpt>
      <trkpt lat="43.37733" lon="6.12433">
        <ele>312.60000610352</ele>
        <time>2015-11-25T15:14:40Z</time>
      </trkpt>
      <trkpt lat="43.37735" lon="6.12419">
        <ele>311.20001220703</ele>
        <time>2015-11-25T15:14:42Z</time>
      </trkpt>
      <trkpt lat="43.37735" lon="6.12411">
        <ele>311</ele>
        <time>2015-11-25T15:14:43Z</time>
      </trkpt>
      <trkpt lat="43.37736" lon="6.12404">
        <ele>311</ele>
        <time>2015-11-25T15:14:44Z</time>
      </trkpt>
      <trkpt lat="43.37738" lon="6.12389">
        <ele>310.79998779297</ele>
        <time>2015-11-25T15:14:46Z</time>
      </trkpt>
      <trkpt lat="43.3774" lon="6.12375">
        <ele>310</ele>
        <time>2015-11-25T15:14:48Z</time>
      </trkpt>
      <trkpt lat="43.37741" lon="6.1237">
        <ele>310</ele>
        <time>2015-11-25T15:14:49Z</time>
      </trkpt>
      <trkpt lat="43.37743" lon="6.12365">
        <ele>310</ele>
        <time>2015-11-25T15:14:50Z</time>
      </trkpt>
      <trkpt lat="43.37745" lon="6.12357">
        <ele>309.60000610352</ele>
        <time>2015-11-25T15:14:52Z</time>
      </trkpt>
      <trkpt lat="43.37745" lon="6.12353">
        <ele>309.60000610352</ele>
        <time>2015-11-25T15:14:53Z</time>
      </trkpt>
      <trkpt lat="43.37744" lon="6.12349">
        <ele>309.79998779297</ele>
        <time>2015-11-25T15:14:54Z</time>
      </trkpt>
      <trkpt lat="43.3774" lon="6.12343">
        <ele>308.79998779297</ele>
        <time>2015-11-25T15:14:56Z</time>
      </trkpt>
      <trkpt lat="43.37738" lon="6.12341">
        <ele>308.39999389648</ele>
        <time>2015-11-25T15:14:57Z</time>
      </trkpt>
      <trkpt lat="43.37737" lon="6.12339">
        <ele>308</ele>
        <time>2015-11-25T15:14:58Z</time>
      </trkpt>
      <trkpt lat="43.37734" lon="6.12336">
        <ele>308</ele>
        <time>2015-11-25T15:15:00Z</time>
      </trkpt>
      <trkpt lat="43.37733" lon="6.12334">
        <ele>307.79998779297</ele>
        <time>2015-11-25T15:15:02Z</time>
      </trkpt>
      <trkpt lat="43.37733" lon="6.12334">
        <ele>307.79998779297</ele>
        <time>2015-11-25T15:15:03Z</time>
      </trkpt>
      <trkpt lat="43.37733" lon="6.12333">
        <ele>307.79998779297</ele>
        <time>2015-11-25T15:15:04Z</time>
      </trkpt>
      <trkpt lat="43.37733" lon="6.12333">
        <ele>308</ele>
        <time>2015-11-25T15:15:06Z</time>
      </trkpt>
      <trkpt lat="43.37733" lon="6.12333">
        <ele>308</ele>
        <time>2015-11-25T15:15:08Z</time>
      </trkpt>
      <trkpt lat="43.37733" lon="6.12333">
        <ele>308</ele>
        <time>2015-11-25T15:15:10Z</time>
      </trkpt>
      <trkpt lat="43.37733" lon="6.12333">
        <ele>307.79998779297</ele>
        <time>2015-11-25T15:15:14Z</time>
      </trkpt>
      <trkpt lat="43.37733" lon="6.12332">
        <ele>308</ele>
        <time>2015-11-25T15:15:22Z</time>
      </trkpt>
      <trkpt lat="43.37733" lon="6.12332">
        <ele>307.60000610352</ele>
        <time>2015-11-25T15:15:26Z</time>
      </trkpt>
      <trkpt lat="43.37732" lon="6.1233">
        <ele>307.60000610352</ele>
        <time>2015-11-25T15:15:28Z</time>
      </trkpt>
      <trkpt lat="43.37729" lon="6.12327">
        <ele>307</ele>
        <time>2015-11-25T15:15:30Z</time>
      </trkpt>
      <trkpt lat="43.37728" lon="6.1232">
        <ele>307</ele>
        <time>2015-11-25T15:15:32Z</time>
      </trkpt>
      <trkpt lat="43.37729" lon="6.12312">
        <ele>307</ele>
        <time>2015-11-25T15:15:34Z</time>
      </trkpt>
      <trkpt lat="43.37731" lon="6.12304">
        <ele>307.20001220703</ele>
        <time>2015-11-25T15:15:36Z</time>
      </trkpt>
      <trkpt lat="43.37735" lon="6.12294">
        <ele>307.60000610352</ele>
        <time>2015-11-25T15:15:38Z</time>
      </trkpt>
      <trkpt lat="43.37739" lon="6.12286">
        <ele>308.20001220703</ele>
        <time>2015-11-25T15:15:40Z</time>
      </trkpt>
      <trkpt lat="43.37742" lon="6.12281">
        <ele>308</ele>
        <time>2015-11-25T15:15:41Z</time>
      </trkpt>
      <trkpt lat="43.37746" lon="6.12277">
        <ele>307.60000610352</ele>
        <time>2015-11-25T15:15:42Z</time>
      </trkpt>
      <trkpt lat="43.37754" lon="6.12266">
        <ele>307</ele>
        <time>2015-11-25T15:15:44Z</time>
      </trkpt>
      <trkpt lat="43.37759" lon="6.1226">
        <ele>307</ele>
        <time>2015-11-25T15:15:45Z</time>
      </trkpt>
      <trkpt lat="43.37763" lon="6.12254">
        <ele>306.39999389648</ele>
        <time>2015-11-25T15:15:46Z</time>
      </trkpt>
      <trkpt lat="43.37772" lon="6.12241">
        <ele>305.79998779297</ele>
        <time>2015-11-25T15:15:48Z</time>
      </trkpt>
      <trkpt lat="43.37774" lon="6.12234">
        <ele>305.39999389648</ele>
        <time>2015-11-25T15:15:49Z</time>
      </trkpt>
      <trkpt lat="43.37776" lon="6.12228">
        <ele>305.20001220703</ele>
        <time>2015-11-25T15:15:50Z</time>
      </trkpt>
      <trkpt lat="43.37777" lon="6.12222">
        <ele>305</ele>
        <time>2015-11-25T15:15:51Z</time>
      </trkpt>
      <trkpt lat="43.3778" lon="6.12216">
        <ele>304.79998779297</ele>
        <time>2015-11-25T15:15:52Z</time>
      </trkpt>
      <trkpt lat="43.37781" lon="6.12211">
        <ele>304.79998779297</ele>
        <time>2015-11-25T15:15:53Z</time>
      </trkpt>
      <trkpt lat="43.37783" lon="6.12205">
        <ele>305.20001220703</ele>
        <time>2015-11-25T15:15:54Z</time>
      </trkpt>
      <trkpt lat="43.37788" lon="6.12191">
        <ele>305</ele>
        <time>2015-11-25T15:15:56Z</time>
      </trkpt>
      <trkpt lat="43.37793" lon="6.12178">
        <ele>304.39999389648</ele>
        <time>2015-11-25T15:15:58Z</time>
      </trkpt>
      <trkpt lat="43.37795" lon="6.12172">
        <ele>303.79998779297</ele>
        <time>2015-11-25T15:15:59Z</time>
      </trkpt>
      <trkpt lat="43.37797" lon="6.12164">
        <ele>303.60000610352</ele>
        <time>2015-11-25T15:16:00Z</time>
      </trkpt>
      <trkpt lat="43.37801" lon="6.1215">
        <ele>303.60000610352</ele>
        <time>2015-11-25T15:16:02Z</time>
      </trkpt>
      <trkpt lat="43.37803" lon="6.12142">
        <ele>303.20001220703</ele>
        <time>2015-11-25T15:16:03Z</time>
      </trkpt>
      <trkpt lat="43.37806" lon="6.12134">
        <ele>302.60000610352</ele>
        <time>2015-11-25T15:16:04Z</time>
      </trkpt>
      <trkpt lat="43.37806" lon="6.12127">
        <ele>302.20001220703</ele>
        <time>2015-11-25T15:16:05Z</time>
      </trkpt>
      <trkpt lat="43.37809" lon="6.12119">
        <ele>302.39999389648</ele>
        <time>2015-11-25T15:16:06Z</time>
      </trkpt>
      <trkpt lat="43.37811" lon="6.1211">
        <ele>302.20001220703</ele>
        <time>2015-11-25T15:16:07Z</time>
      </trkpt>
      <trkpt lat="43.37813" lon="6.12102">
        <ele>301.79998779297</ele>
        <time>2015-11-25T15:16:08Z</time>
      </trkpt>
      <trkpt lat="43.37816" lon="6.12087">
        <ele>301.20001220703</ele>
        <time>2015-11-25T15:16:10Z</time>
      </trkpt>
      <trkpt lat="43.37819" lon="6.12081">
        <ele>301</ele>
        <time>2015-11-25T15:16:11Z</time>
      </trkpt>
      <trkpt lat="43.37821" lon="6.12074">
        <ele>301</ele>
        <time>2015-11-25T15:16:12Z</time>
      </trkpt>
      <trkpt lat="43.37825" lon="6.12062">
        <ele>300.39999389648</ele>
        <time>2015-11-25T15:16:14Z</time>
      </trkpt>
      <trkpt lat="43.37828" lon="6.12046">
        <ele>300.60000610352</ele>
        <time>2015-11-25T15:16:16Z</time>
      </trkpt>
      <trkpt lat="43.37829" lon="6.12039">
        <ele>300.79998779297</ele>
        <time>2015-11-25T15:16:17Z</time>
      </trkpt>
      <trkpt lat="43.37831" lon="6.12032">
        <ele>300.79998779297</ele>
        <time>2015-11-25T15:16:18Z</time>
      </trkpt>
      <trkpt lat="43.37837" lon="6.1202">
        <ele>300.20001220703</ele>
        <time>2015-11-25T15:16:20Z</time>
      </trkpt>
      <trkpt lat="43.37839" lon="6.12014">
        <ele>299.39999389648</ele>
        <time>2015-11-25T15:16:21Z</time>
      </trkpt>
      <trkpt lat="43.37844" lon="6.11999">
        <ele>297.20001220703</ele>
        <time>2015-11-25T15:16:24Z</time>
      </trkpt>
      <trkpt lat="43.37848" lon="6.1199">
        <ele>296.60000610352</ele>
        <time>2015-11-25T15:16:26Z</time>
      </trkpt>
      <trkpt lat="43.37854" lon="6.11965">
        <ele>295.39999389648</ele>
        <time>2015-11-25T15:16:30Z</time>
      </trkpt>
      <trkpt lat="43.37853" lon="6.11946">
        <ele>295.39999389648</ele>
        <time>2015-11-25T15:16:32Z</time>
      </trkpt>
      <trkpt lat="43.37851" lon="6.11924">
        <ele>295</ele>
        <time>2015-11-25T15:16:34Z</time>
      </trkpt>
      <trkpt lat="43.37849" lon="6.11914">
        <ele>293.79998779297</ele>
        <time>2015-11-25T15:16:35Z</time>
      </trkpt>
      <trkpt lat="43.37847" lon="6.11904">
        <ele>293.20001220703</ele>
        <time>2015-11-25T15:16:36Z</time>
      </trkpt>
      <trkpt lat="43.37843" lon="6.11888">
        <ele>292.79998779297</ele>
        <time>2015-11-25T15:16:38Z</time>
      </trkpt>
      <trkpt lat="43.37841" lon="6.11881">
        <ele>292.39999389648</ele>
        <time>2015-11-25T15:16:39Z</time>
      </trkpt>
      <trkpt lat="43.37839" lon="6.11873">
        <ele>292.39999389648</ele>
        <time>2015-11-25T15:16:40Z</time>
      </trkpt>
      <trkpt lat="43.37839" lon="6.11863">
        <ele>291.79998779297</ele>
        <time>2015-11-25T15:16:42Z</time>
      </trkpt>
      <trkpt lat="43.37841" lon="6.11858">
        <ele>290.79998779297</ele>
        <time>2015-11-25T15:16:43Z</time>
      </trkpt>
      <trkpt lat="43.37843" lon="6.11853">
        <ele>290.60000610352</ele>
        <time>2015-11-25T15:16:44Z</time>
      </trkpt>
      <trkpt lat="43.37844" lon="6.11848">
        <ele>290.79998779297</ele>
        <time>2015-11-25T15:16:45Z</time>
      </trkpt>
      <trkpt lat="43.37846" lon="6.11843">
        <ele>290.39999389648</ele>
        <time>2015-11-25T15:16:46Z</time>
      </trkpt>
      <trkpt lat="43.3785" lon="6.11834">
        <ele>290.20001220703</ele>
        <time>2015-11-25T15:16:48Z</time>
      </trkpt>
      <trkpt lat="43.37853" lon="6.11829">
        <ele>290.20001220703</ele>
        <time>2015-11-25T15:16:49Z</time>
      </trkpt>
      <trkpt lat="43.37856" lon="6.11823">
        <ele>290</ele>
        <time>2015-11-25T15:16:50Z</time>
      </trkpt>
      <trkpt lat="43.37864" lon="6.11812">
        <ele>290.20001220703</ele>
        <time>2015-11-25T15:16:52Z</time>
      </trkpt>
      <trkpt lat="43.37868" lon="6.11806">
        <ele>290.39999389648</ele>
        <time>2015-11-25T15:16:53Z</time>
      </trkpt>
      <trkpt lat="43.3787" lon="6.11799">
        <ele>290.39999389648</ele>
        <time>2015-11-25T15:16:54Z</time>
      </trkpt>
      <trkpt lat="43.37873" lon="6.11793">
        <ele>290</ele>
        <time>2015-11-25T15:16:55Z</time>
      </trkpt>
      <trkpt lat="43.37875" lon="6.11786">
        <ele>289.60000610352</ele>
        <time>2015-11-25T15:16:56Z</time>
      </trkpt>
      <trkpt lat="43.37879" lon="6.11773">
        <ele>289.20001220703</ele>
        <time>2015-11-25T15:16:58Z</time>
      </trkpt>
      <trkpt lat="43.37882" lon="6.11759">
        <ele>288.79998779297</ele>
        <time>2015-11-25T15:17:00Z</time>
      </trkpt>
      <trkpt lat="43.37886" lon="6.11744">
        <ele>287.60000610352</ele>
        <time>2015-11-25T15:17:02Z</time>
      </trkpt>
      <trkpt lat="43.37888" lon="6.11737">
        <ele>287.60000610352</ele>
        <time>2015-11-25T15:17:03Z</time>
      </trkpt>
      <trkpt lat="43.3789" lon="6.11729">
        <ele>287.39999389648</ele>
        <time>2015-11-25T15:17:04Z</time>
      </trkpt>
      <trkpt lat="43.37892" lon="6.11719">
        <ele>286.79998779297</ele>
        <time>2015-11-25T15:17:05Z</time>
      </trkpt>
      <trkpt lat="43.37893" lon="6.11708">
        <ele>286.20001220703</ele>
        <time>2015-11-25T15:17:06Z</time>
      </trkpt>
      <trkpt lat="43.37896" lon="6.1169">
        <ele>286.60000610352</ele>
        <time>2015-11-25T15:17:08Z</time>
      </trkpt>
      <trkpt lat="43.37898" lon="6.11673">
        <ele>285</ele>
        <time>2015-11-25T15:17:10Z</time>
      </trkpt>
      <trkpt lat="43.37901" lon="6.11656">
        <ele>285</ele>
        <time>2015-11-25T15:17:12Z</time>
      </trkpt>
      <trkpt lat="43.37903" lon="6.11648">
        <ele>285.20001220703</ele>
        <time>2015-11-25T15:17:13Z</time>
      </trkpt>
      <trkpt lat="43.37905" lon="6.1164">
        <ele>285</ele>
        <time>2015-11-25T15:17:14Z</time>
      </trkpt>
      <trkpt lat="43.37909" lon="6.11623">
        <ele>284.39999389648</ele>
        <time>2015-11-25T15:17:16Z</time>
      </trkpt>
      <trkpt lat="43.37915" lon="6.11593">
        <ele>284.20001220703</ele>
        <time>2015-11-25T15:17:20Z</time>
      </trkpt>
      <trkpt lat="43.37915" lon="6.11585">
        <ele>283.20001220703</ele>
        <time>2015-11-25T15:17:21Z</time>
      </trkpt>
      <trkpt lat="43.37917" lon="6.11577">
        <ele>282.79998779297</ele>
        <time>2015-11-25T15:17:22Z</time>
      </trkpt>
      <trkpt lat="43.37918" lon="6.11571">
        <ele>283.20001220703</ele>
        <time>2015-11-25T15:17:23Z</time>
      </trkpt>
      <trkpt lat="43.3792" lon="6.11563">
        <ele>283</ele>
        <time>2015-11-25T15:17:24Z</time>
      </trkpt>
      <trkpt lat="43.37923" lon="6.11549">
        <ele>282.39999389648</ele>
        <time>2015-11-25T15:17:26Z</time>
      </trkpt>
      <trkpt lat="43.37925" lon="6.11542">
        <ele>282.20001220703</ele>
        <time>2015-11-25T15:17:27Z</time>
      </trkpt>
      <trkpt lat="43.37927" lon="6.11534">
        <ele>282</ele>
        <time>2015-11-25T15:17:28Z</time>
      </trkpt>
      <trkpt lat="43.37928" lon="6.11527">
        <ele>281.60000610352</ele>
        <time>2015-11-25T15:17:29Z</time>
      </trkpt>
      <trkpt lat="43.37928" lon="6.11519">
        <ele>281.60000610352</ele>
        <time>2015-11-25T15:17:30Z</time>
      </trkpt>
      <trkpt lat="43.37931" lon="6.11505">
        <ele>281.39999389648</ele>
        <time>2015-11-25T15:17:32Z</time>
      </trkpt>
      <trkpt lat="43.37935" lon="6.11493">
        <ele>280.79998779297</ele>
        <time>2015-11-25T15:17:34Z</time>
      </trkpt>
      <trkpt lat="43.3794" lon="6.1148">
        <ele>279.79998779297</ele>
        <time>2015-11-25T15:17:36Z</time>
      </trkpt>
      <trkpt lat="43.37943" lon="6.11476">
        <ele>279.60000610352</ele>
        <time>2015-11-25T15:17:37Z</time>
      </trkpt>
      <trkpt lat="43.37944" lon="6.11471">
        <ele>279.39999389648</ele>
        <time>2015-11-25T15:17:38Z</time>
      </trkpt>
      <trkpt lat="43.37945" lon="6.11467">
        <ele>279.39999389648</ele>
        <time>2015-11-25T15:17:39Z</time>
      </trkpt>
      <trkpt lat="43.37946" lon="6.11464">
        <ele>279.39999389648</ele>
        <time>2015-11-25T15:17:40Z</time>
      </trkpt>
      <trkpt lat="43.37945" lon="6.11458">
        <ele>279.39999389648</ele>
        <time>2015-11-25T15:17:42Z</time>
      </trkpt>
      <trkpt lat="43.37944" lon="6.11457">
        <ele>279.20001220703</ele>
        <time>2015-11-25T15:17:43Z</time>
      </trkpt>
      <trkpt lat="43.37944" lon="6.11455">
        <ele>279</ele>
        <time>2015-11-25T15:17:44Z</time>
      </trkpt>
      <trkpt lat="43.37944" lon="6.11453">
        <ele>279</ele>
        <time>2015-11-25T15:17:46Z</time>
      </trkpt>
      <trkpt lat="43.37943" lon="6.11453">
        <ele>279</ele>
        <time>2015-11-25T15:17:48Z</time>
      </trkpt>
      <trkpt lat="43.37943" lon="6.11453">
        <ele>279</ele>
        <time>2015-11-25T15:17:50Z</time>
      </trkpt>
      <trkpt lat="43.37943" lon="6.11453">
        <ele>278.79998779297</ele>
        <time>2015-11-25T15:17:54Z</time>
      </trkpt>
      <trkpt lat="43.37943" lon="6.11453">
        <ele>279.60000610352</ele>
        <time>2015-11-25T15:18:14Z</time>
      </trkpt>
      <trkpt lat="43.37943" lon="6.11452">
        <ele>280</ele>
        <time>2015-11-25T15:18:26Z</time>
      </trkpt>
      <trkpt lat="43.37943" lon="6.11452">
        <ele>279.39999389648</ele>
        <time>2015-11-25T15:18:34Z</time>
      </trkpt>
      <trkpt lat="43.37943" lon="6.11453">
        <ele>278.60000610352</ele>
        <time>2015-11-25T15:18:40Z</time>
      </trkpt>
      <trkpt lat="43.37943" lon="6.11453">
        <ele>278.39999389648</ele>
        <time>2015-11-25T15:18:44Z</time>
      </trkpt>
      <trkpt lat="43.37944" lon="6.11453">
        <ele>278.79998779297</ele>
        <time>2015-11-25T15:18:46Z</time>
      </trkpt>
      <trkpt lat="43.37943" lon="6.11452">
        <ele>279.39999389648</ele>
        <time>2015-11-25T15:18:48Z</time>
      </trkpt>
      <trkpt lat="43.37943" lon="6.11452">
        <ele>279.39999389648</ele>
        <time>2015-11-25T15:18:50Z</time>
      </trkpt>
      <trkpt lat="43.37943" lon="6.11452">
        <ele>279</ele>
        <time>2015-11-25T15:18:52Z</time>
      </trkpt>
      <trkpt lat="43.37943" lon="6.11452">
        <ele>279</ele>
        <time>2015-11-25T15:18:54Z</time>
      </trkpt>
      <trkpt lat="43.37943" lon="6.11452">
        <ele>279</ele>
        <time>2015-11-25T15:18:56Z</time>
      </trkpt>
      <trkpt lat="43.37943" lon="6.11452">
        <ele>278.60000610352</ele>
        <time>2015-11-25T15:18:58Z</time>
      </trkpt>
      <trkpt lat="43.37943" lon="6.11452">
        <ele>278</ele>
        <time>2015-11-25T15:19:00Z</time>
      </trkpt>
      <trkpt lat="43.37943" lon="6.11452">
        <ele>278.79998779297</ele>
        <time>2015-11-25T15:19:02Z</time>
      </trkpt>
      <trkpt lat="43.37943" lon="6.11452">
        <ele>279.39999389648</ele>
        <time>2015-11-25T15:19:04Z</time>
      </trkpt>
      <trkpt lat="43.37943" lon="6.11452">
        <ele>279.39999389648</ele>
        <time>2015-11-25T15:19:06Z</time>
      </trkpt>
      <trkpt lat="43.37943" lon="6.11448">
        <ele>279.39999389648</ele>
        <time>2015-11-25T15:19:08Z</time>
      </trkpt>
      <trkpt lat="43.37944" lon="6.11444">
        <ele>279</ele>
        <time>2015-11-25T15:19:10Z</time>
      </trkpt>
      <trkpt lat="43.37946" lon="6.1144">
        <ele>279.20001220703</ele>
        <time>2015-11-25T15:19:12Z</time>
      </trkpt>
      <trkpt lat="43.37949" lon="6.11435">
        <ele>279</ele>
        <time>2015-11-25T15:19:14Z</time>
      </trkpt>
      <trkpt lat="43.37952" lon="6.1143">
        <ele>278.79998779297</ele>
        <time>2015-11-25T15:19:16Z</time>
      </trkpt>
      <trkpt lat="43.37957" lon="6.11423">
        <ele>278.39999389648</ele>
        <time>2015-11-25T15:19:18Z</time>
      </trkpt>
      <trkpt lat="43.37962" lon="6.11416">
        <ele>278.20001220703</ele>
        <time>2015-11-25T15:19:20Z</time>
      </trkpt>
      <trkpt lat="43.37968" lon="6.11406">
        <ele>278</ele>
        <time>2015-11-25T15:19:22Z</time>
      </trkpt>
      <trkpt lat="43.37975" lon="6.11397">
        <ele>278</ele>
        <time>2015-11-25T15:19:24Z</time>
      </trkpt>
      <trkpt lat="43.37983" lon="6.11387">
        <ele>277.60000610352</ele>
        <time>2015-11-25T15:19:26Z</time>
      </trkpt>
      <trkpt lat="43.3799" lon="6.11376">
        <ele>277.79998779297</ele>
        <time>2015-11-25T15:19:28Z</time>
      </trkpt>
      <trkpt lat="43.37997" lon="6.11366">
        <ele>278</ele>
        <time>2015-11-25T15:19:30Z</time>
      </trkpt>
      <trkpt lat="43.38003" lon="6.11355">
        <ele>277.79998779297</ele>
        <time>2015-11-25T15:19:32Z</time>
      </trkpt>
      <trkpt lat="43.38008" lon="6.11345">
        <ele>278.20001220703</ele>
        <time>2015-11-25T15:19:34Z</time>
      </trkpt>
      <trkpt lat="43.38012" lon="6.11335">
        <ele>278.39999389648</ele>
        <time>2015-11-25T15:19:36Z</time>
      </trkpt>
      <trkpt lat="43.38014" lon="6.11331">
        <ele>278.79998779297</ele>
        <time>2015-11-25T15:19:37Z</time>
      </trkpt>
      <trkpt lat="43.38017" lon="6.11326">
        <ele>279.20001220703</ele>
        <time>2015-11-25T15:19:38Z</time>
      </trkpt>
      <trkpt lat="43.38021" lon="6.11316">
        <ele>279.39999389648</ele>
        <time>2015-11-25T15:19:40Z</time>
      </trkpt>
      <trkpt lat="43.38025" lon="6.11305">
        <ele>279</ele>
        <time>2015-11-25T15:19:42Z</time>
      </trkpt>
      <trkpt lat="43.38028" lon="6.113">
        <ele>278.79998779297</ele>
        <time>2015-11-25T15:19:43Z</time>
      </trkpt>
      <trkpt lat="43.38031" lon="6.11295">
        <ele>278.79998779297</ele>
        <time>2015-11-25T15:19:44Z</time>
      </trkpt>
      <trkpt lat="43.38033" lon="6.11289">
        <ele>278.79998779297</ele>
        <time>2015-11-25T15:19:45Z</time>
      </trkpt>
      <trkpt lat="43.38036" lon="6.11283">
        <ele>278.79998779297</ele>
        <time>2015-11-25T15:19:46Z</time>
      </trkpt>
      <trkpt lat="43.38042" lon="6.1127">
        <ele>278.79998779297</ele>
        <time>2015-11-25T15:19:48Z</time>
      </trkpt>
      <trkpt lat="43.38047" lon="6.11257">
        <ele>278.79998779297</ele>
        <time>2015-11-25T15:19:50Z</time>
      </trkpt>
      <trkpt lat="43.38059" lon="6.11236">
        <ele>278.39999389648</ele>
        <time>2015-11-25T15:19:54Z</time>
      </trkpt>
      <trkpt lat="43.38065" lon="6.11224">
        <ele>279.20001220703</ele>
        <time>2015-11-25T15:19:56Z</time>
      </trkpt>
      <trkpt lat="43.38068" lon="6.1122">
        <ele>279.60000610352</ele>
        <time>2015-11-25T15:19:57Z</time>
      </trkpt>
      <trkpt lat="43.38072" lon="6.11216">
        <ele>280</ele>
        <time>2015-11-25T15:19:58Z</time>
      </trkpt>
      <trkpt lat="43.38078" lon="6.1121">
        <ele>279.39999389648</ele>
        <time>2015-11-25T15:20:00Z</time>
      </trkpt>
      <trkpt lat="43.38084" lon="6.11203">
        <ele>279.20001220703</ele>
        <time>2015-11-25T15:20:02Z</time>
      </trkpt>
      <trkpt lat="43.3809" lon="6.11196">
        <ele>279</ele>
        <time>2015-11-25T15:20:04Z</time>
      </trkpt>
      <trkpt lat="43.38098" lon="6.11187">
        <ele>278.39999389648</ele>
        <time>2015-11-25T15:20:06Z</time>
      </trkpt>
      <trkpt lat="43.38106" lon="6.11176">
        <ele>277.60000610352</ele>
        <time>2015-11-25T15:20:08Z</time>
      </trkpt>
      <trkpt lat="43.38111" lon="6.11171">
        <ele>277</ele>
        <time>2015-11-25T15:20:09Z</time>
      </trkpt>
      <trkpt lat="43.38116" lon="6.11164">
        <ele>276.79998779297</ele>
        <time>2015-11-25T15:20:10Z</time>
      </trkpt>
      <trkpt lat="43.38126" lon="6.1115">
        <ele>275.60000610352</ele>
        <time>2015-11-25T15:20:12Z</time>
      </trkpt>
      <trkpt lat="43.38136" lon="6.11137">
        <ele>275.39999389648</ele>
        <time>2015-11-25T15:20:14Z</time>
      </trkpt>
      <trkpt lat="43.38147" lon="6.11124">
        <ele>275.20001220703</ele>
        <time>2015-11-25T15:20:16Z</time>
      </trkpt>
      <trkpt lat="43.38157" lon="6.11108">
        <ele>274.79998779297</ele>
        <time>2015-11-25T15:20:18Z</time>
      </trkpt>
      <trkpt lat="43.3816" lon="6.111">
        <ele>274.39999389648</ele>
        <time>2015-11-25T15:20:19Z</time>
      </trkpt>
      <trkpt lat="43.38163" lon="6.11091">
        <ele>274.39999389648</ele>
        <time>2015-11-25T15:20:20Z</time>
      </trkpt>
      <trkpt lat="43.38169" lon="6.11073">
        <ele>273.60000610352</ele>
        <time>2015-11-25T15:20:22Z</time>
      </trkpt>
      <trkpt lat="43.38171" lon="6.11065">
        <ele>273.20001220703</ele>
        <time>2015-11-25T15:20:23Z</time>
      </trkpt>
      <trkpt lat="43.38173" lon="6.11055">
        <ele>273</ele>
        <time>2015-11-25T15:20:24Z</time>
      </trkpt>
      <trkpt lat="43.38175" lon="6.11046">
        <ele>272.60000610352</ele>
        <time>2015-11-25T15:20:25Z</time>
      </trkpt>
      <trkpt lat="43.38177" lon="6.11036">
        <ele>272.39999389648</ele>
        <time>2015-11-25T15:20:26Z</time>
      </trkpt>
      <trkpt lat="43.38179" lon="6.11027">
        <ele>272</ele>
        <time>2015-11-25T15:20:27Z</time>
      </trkpt>
      <trkpt lat="43.38181" lon="6.11017">
        <ele>271.60000610352</ele>
        <time>2015-11-25T15:20:28Z</time>
      </trkpt>
      <trkpt lat="43.38186" lon="6.10989">
        <ele>270.60000610352</ele>
        <time>2015-11-25T15:20:31Z</time>
      </trkpt>
      <trkpt lat="43.38188" lon="6.10979">
        <ele>270.20001220703</ele>
        <time>2015-11-25T15:20:32Z</time>
      </trkpt>
      <trkpt lat="43.38192" lon="6.1096">
        <ele>269.79998779297</ele>
        <time>2015-11-25T15:20:34Z</time>
      </trkpt>
      <trkpt lat="43.38193" lon="6.10951">
        <ele>269.39999389648</ele>
        <time>2015-11-25T15:20:35Z</time>
      </trkpt>
      <trkpt lat="43.38195" lon="6.10942">
        <ele>269.60000610352</ele>
        <time>2015-11-25T15:20:36Z</time>
      </trkpt>
      <trkpt lat="43.38198" lon="6.10926">
        <ele>269.79998779297</ele>
        <time>2015-11-25T15:20:38Z</time>
      </trkpt>
      <trkpt lat="43.38199" lon="6.1092">
        <ele>269.60000610352</ele>
        <time>2015-11-25T15:20:39Z</time>
      </trkpt>
      <trkpt lat="43.382" lon="6.10914">
        <ele>269.79998779297</ele>
        <time>2015-11-25T15:20:40Z</time>
      </trkpt>
      <trkpt lat="43.38201" lon="6.10908">
        <ele>269.60000610352</ele>
        <time>2015-11-25T15:20:41Z</time>
      </trkpt>
      <trkpt lat="43.38202" lon="6.10904">
        <ele>269.20001220703</ele>
        <time>2015-11-25T15:20:42Z</time>
      </trkpt>
      <trkpt lat="43.38202" lon="6.109">
        <ele>268.79998779297</ele>
        <time>2015-11-25T15:20:43Z</time>
      </trkpt>
      <trkpt lat="43.38203" lon="6.10896">
        <ele>268.60000610352</ele>
        <time>2015-11-25T15:20:44Z</time>
      </trkpt>
      <trkpt lat="43.38204" lon="6.10893">
        <ele>268.39999389648</ele>
        <time>2015-11-25T15:20:45Z</time>
      </trkpt>
      <trkpt lat="43.38206" lon="6.10892">
        <ele>268.20001220703</ele>
        <time>2015-11-25T15:20:46Z</time>
      </trkpt>
      <trkpt lat="43.38209" lon="6.10892">
        <ele>268</ele>
        <time>2015-11-25T15:20:47Z</time>
      </trkpt>
      <trkpt lat="43.38218" lon="6.10894">
        <ele>267.60000610352</ele>
        <time>2015-11-25T15:20:50Z</time>
      </trkpt>
      <trkpt lat="43.38226" lon="6.10896">
        <ele>267.79998779297</ele>
        <time>2015-11-25T15:20:52Z</time>
      </trkpt>
      <trkpt lat="43.38233" lon="6.10898">
        <ele>268</ele>
        <time>2015-11-25T15:20:54Z</time>
      </trkpt>
      <trkpt lat="43.38248" lon="6.10903">
        <ele>267.79998779297</ele>
        <time>2015-11-25T15:20:58Z</time>
      </trkpt>
      <trkpt lat="43.38261" lon="6.10906">
        <ele>267.60000610352</ele>
        <time>2015-11-25T15:21:01Z</time>
      </trkpt>
      <trkpt lat="43.38275" lon="6.10909">
        <ele>267.20001220703</ele>
        <time>2015-11-25T15:21:04Z</time>
      </trkpt>
      <trkpt lat="43.38298" lon="6.10916">
        <ele>267.20001220703</ele>
        <time>2015-11-25T15:21:09Z</time>
      </trkpt>
      <trkpt lat="43.38312" lon="6.1092">
        <ele>267.20001220703</ele>
        <time>2015-11-25T15:21:12Z</time>
      </trkpt>
      <trkpt lat="43.38321" lon="6.10924">
        <ele>267.39999389648</ele>
        <time>2015-11-25T15:21:14Z</time>
      </trkpt>
      <trkpt lat="43.3833" lon="6.10927">
        <ele>266.79998779297</ele>
        <time>2015-11-25T15:21:16Z</time>
      </trkpt>
      <trkpt lat="43.38339" lon="6.1093">
        <ele>267.39999389648</ele>
        <time>2015-11-25T15:21:18Z</time>
      </trkpt>
      <trkpt lat="43.38348" lon="6.10933">
        <ele>267.79998779297</ele>
        <time>2015-11-25T15:21:20Z</time>
      </trkpt>
      <trkpt lat="43.38357" lon="6.10935">
        <ele>268.20001220703</ele>
        <time>2015-11-25T15:21:22Z</time>
      </trkpt>
      <trkpt lat="43.38361" lon="6.10937">
        <ele>268</ele>
        <time>2015-11-25T15:21:23Z</time>
      </trkpt>
      <trkpt lat="43.38364" lon="6.10938">
        <ele>268</ele>
        <time>2015-11-25T15:21:24Z</time>
      </trkpt>
      <trkpt lat="43.38373" lon="6.1094">
        <ele>268.20001220703</ele>
        <time>2015-11-25T15:21:26Z</time>
      </trkpt>
      <trkpt lat="43.38382" lon="6.10942">
        <ele>268.60000610352</ele>
        <time>2015-11-25T15:21:28Z</time>
      </trkpt>
      <trkpt lat="43.38386" lon="6.10943">
        <ele>268.79998779297</ele>
        <time>2015-11-25T15:21:29Z</time>
      </trkpt>
      <trkpt lat="43.3839" lon="6.10945">
        <ele>268.79998779297</ele>
        <time>2015-11-25T15:21:30Z</time>
      </trkpt>
      <trkpt lat="43.38399" lon="6.10947">
        <ele>268.79998779297</ele>
        <time>2015-11-25T15:21:32Z</time>
      </trkpt>
      <trkpt lat="43.38408" lon="6.10949">
        <ele>269</ele>
        <time>2015-11-25T15:21:34Z</time>
      </trkpt>
      <trkpt lat="43.38412" lon="6.1095">
        <ele>269.20001220703</ele>
        <time>2015-11-25T15:21:35Z</time>
      </trkpt>
      <trkpt lat="43.38416" lon="6.10951">
        <ele>269.20001220703</ele>
        <time>2015-11-25T15:21:36Z</time>
      </trkpt>
      <trkpt lat="43.38425" lon="6.10953">
        <ele>269.39999389648</ele>
        <time>2015-11-25T15:21:38Z</time>
      </trkpt>
      <trkpt lat="43.38433" lon="6.10954">
        <ele>269.79998779297</ele>
        <time>2015-11-25T15:21:40Z</time>
      </trkpt>
      <trkpt lat="43.3844" lon="6.10956">
        <ele>269.60000610352</ele>
        <time>2015-11-25T15:21:42Z</time>
      </trkpt>
      <trkpt lat="43.38454" lon="6.10959">
        <ele>270.39999389648</ele>
        <time>2015-11-25T15:21:46Z</time>
      </trkpt>
      <trkpt lat="43.38457" lon="6.1096">
        <ele>270.60000610352</ele>
        <time>2015-11-25T15:21:47Z</time>
      </trkpt>
      <trkpt lat="43.3846" lon="6.1096">
        <ele>270.60000610352</ele>
        <time>2015-11-25T15:21:48Z</time>
      </trkpt>
      <trkpt lat="43.38462" lon="6.1096">
        <ele>270.60000610352</ele>
        <time>2015-11-25T15:21:49Z</time>
      </trkpt>
      <trkpt lat="43.38465" lon="6.1096">
        <ele>270.39999389648</ele>
        <time>2015-11-25T15:21:50Z</time>
      </trkpt>
      <trkpt lat="43.38469" lon="6.1096">
        <ele>270.60000610352</ele>
        <time>2015-11-25T15:21:52Z</time>
      </trkpt>
      <trkpt lat="43.38472" lon="6.10959">
        <ele>271.20001220703</ele>
        <time>2015-11-25T15:21:54Z</time>
      </trkpt>
      <trkpt lat="43.38475" lon="6.10958">
        <ele>271</ele>
        <time>2015-11-25T15:21:56Z</time>
      </trkpt>
      <trkpt lat="43.38476" lon="6.10959">
        <ele>271</ele>
        <time>2015-11-25T15:21:58Z</time>
      </trkpt>
      <trkpt lat="43.38477" lon="6.10959">
        <ele>270.79998779297</ele>
        <time>2015-11-25T15:22:00Z</time>
      </trkpt>
      <trkpt lat="43.38477" lon="6.10959">
        <ele>271</ele>
        <time>2015-11-25T15:22:01Z</time>
      </trkpt>
      <trkpt lat="43.38477" lon="6.10959">
        <ele>271.20001220703</ele>
        <time>2015-11-25T15:22:04Z</time>
      </trkpt>
      <trkpt lat="43.38477" lon="6.10959">
        <ele>271.20001220703</ele>
        <time>2015-11-25T15:22:06Z</time>
      </trkpt>
      <trkpt lat="43.38477" lon="6.10959">
        <ele>271.20001220703</ele>
        <time>2015-11-25T15:22:08Z</time>
      </trkpt>
      <trkpt lat="43.38477" lon="6.10959">
        <ele>271.20001220703</ele>
        <time>2015-11-25T15:22:10Z</time>
      </trkpt>
      <trkpt lat="43.38477" lon="6.10959">
        <ele>271.39999389648</ele>
        <time>2015-11-25T15:22:12Z</time>
      </trkpt>
      <trkpt lat="43.38477" lon="6.10959">
        <ele>271.20001220703</ele>
        <time>2015-11-25T15:22:14Z</time>
      </trkpt>
      <trkpt lat="43.38477" lon="6.10959">
        <ele>271.20001220703</ele>
        <time>2015-11-25T15:22:22Z</time>
      </trkpt>
      <trkpt lat="43.38477" lon="6.10959">
        <ele>271.20001220703</ele>
        <time>2015-11-25T15:22:26Z</time>
      </trkpt>
      <trkpt lat="43.38477" lon="6.10959">
        <ele>271.39999389648</ele>
        <time>2015-11-25T15:22:28Z</time>
      </trkpt>
      <trkpt lat="43.38477" lon="6.10959">
        <ele>271.39999389648</ele>
        <time>2015-11-25T15:22:30Z</time>
      </trkpt>
      <trkpt lat="43.38477" lon="6.10959">
        <ele>271.20001220703</ele>
        <time>2015-11-25T15:22:36Z</time>
      </trkpt>
      <trkpt lat="43.38477" lon="6.10959">
        <ele>271</ele>
        <time>2015-11-25T15:22:40Z</time>
      </trkpt>
      <trkpt lat="43.38477" lon="6.10959">
        <ele>271</ele>
        <time>2015-11-25T15:22:42Z</time>
      </trkpt>
      <trkpt lat="43.38478" lon="6.10959">
        <ele>271.20001220703</ele>
        <time>2015-11-25T15:22:44Z</time>
      </trkpt>
      <trkpt lat="43.38481" lon="6.1096">
        <ele>271.20001220703</ele>
        <time>2015-11-25T15:22:46Z</time>
      </trkpt>
      <trkpt lat="43.38485" lon="6.10961">
        <ele>271.20001220703</ele>
        <time>2015-11-25T15:22:48Z</time>
      </trkpt>
      <trkpt lat="43.38489" lon="6.10962">
        <ele>271.20001220703</ele>
        <time>2015-11-25T15:22:50Z</time>
      </trkpt>
      <trkpt lat="43.38492" lon="6.10963">
        <ele>271.79998779297</ele>
        <time>2015-11-25T15:22:52Z</time>
      </trkpt>
      <trkpt lat="43.38495" lon="6.10963">
        <ele>272</ele>
        <time>2015-11-25T15:22:54Z</time>
      </trkpt>
      <trkpt lat="43.38499" lon="6.10964">
        <ele>272.20001220703</ele>
        <time>2015-11-25T15:22:56Z</time>
      </trkpt>
      <trkpt lat="43.38503" lon="6.10965">
        <ele>272.79998779297</ele>
        <time>2015-11-25T15:22:58Z</time>
      </trkpt>
      <trkpt lat="43.38505" lon="6.10966">
        <ele>273</ele>
        <time>2015-11-25T15:22:59Z</time>
      </trkpt>
      <trkpt lat="43.38511" lon="6.10967">
        <ele>273.39999389648</ele>
        <time>2015-11-25T15:23:02Z</time>
      </trkpt>
      <trkpt lat="43.38514" lon="6.10968">
        <ele>274</ele>
        <time>2015-11-25T15:23:04Z</time>
      </trkpt>
      <trkpt lat="43.38516" lon="6.10968">
        <ele>274.39999389648</ele>
        <time>2015-11-25T15:23:05Z</time>
      </trkpt>
      <trkpt lat="43.38522" lon="6.1097">
        <ele>275.60000610352</ele>
        <time>2015-11-25T15:23:08Z</time>
      </trkpt>
      <trkpt lat="43.38526" lon="6.10971">
        <ele>276</ele>
        <time>2015-11-25T15:23:10Z</time>
      </trkpt>
      <trkpt lat="43.3853" lon="6.10973">
        <ele>276.39999389648</ele>
        <time>2015-11-25T15:23:12Z</time>
      </trkpt>
      <trkpt lat="43.38533" lon="6.10974">
        <ele>276.79998779297</ele>
        <time>2015-11-25T15:23:14Z</time>
      </trkpt>
      <trkpt lat="43.38536" lon="6.10976">
        <ele>277</ele>
        <time>2015-11-25T15:23:16Z</time>
      </trkpt>
      <trkpt lat="43.3854" lon="6.10978">
        <ele>277</ele>
        <time>2015-11-25T15:23:18Z</time>
      </trkpt>
      <trkpt lat="43.38545" lon="6.10982">
        <ele>277.20001220703</ele>
        <time>2015-11-25T15:23:21Z</time>
      </trkpt>
      <trkpt lat="43.38547" lon="6.10983">
        <ele>276.79998779297</ele>
        <time>2015-11-25T15:23:22Z</time>
      </trkpt>
      <trkpt lat="43.38555" lon="6.10987">
        <ele>276.60000610352</ele>
        <time>2015-11-25T15:23:26Z</time>
      </trkpt>
      <trkpt lat="43.38559" lon="6.10988">
        <ele>277.20001220703</ele>
        <time>2015-11-25T15:23:28Z</time>
      </trkpt>
      <trkpt lat="43.38563" lon="6.1099">
        <ele>277.79998779297</ele>
        <time>2015-11-25T15:23:30Z</time>
      </trkpt>
      <trkpt lat="43.38567" lon="6.10989">
        <ele>278.60000610352</ele>
        <time>2015-11-25T15:23:32Z</time>
      </trkpt>
      <trkpt lat="43.38568" lon="6.1099">
        <ele>278.79998779297</ele>
        <time>2015-11-25T15:23:33Z</time>
      </trkpt>
      <trkpt lat="43.3857" lon="6.1099">
        <ele>279</ele>
        <time>2015-11-25T15:23:34Z</time>
      </trkpt>
      <trkpt lat="43.38574" lon="6.1099">
        <ele>279.20001220703</ele>
        <time>2015-11-25T15:23:36Z</time>
      </trkpt>
      <trkpt lat="43.38578" lon="6.1099">
        <ele>279.20001220703</ele>
        <time>2015-11-25T15:23:38Z</time>
      </trkpt>
      <trkpt lat="43.38581" lon="6.10989">
        <ele>279.60000610352</ele>
        <time>2015-11-25T15:23:40Z</time>
      </trkpt>
      <trkpt lat="43.38585" lon="6.10989">
        <ele>279.79998779297</ele>
        <time>2015-11-25T15:23:42Z</time>
      </trkpt>
      <trkpt lat="43.38588" lon="6.10989">
        <ele>279.79998779297</ele>
        <time>2015-11-25T15:23:43Z</time>
      </trkpt>
      <trkpt lat="43.3859" lon="6.10988">
        <ele>280</ele>
        <time>2015-11-25T15:23:44Z</time>
      </trkpt>
      <trkpt lat="43.38594" lon="6.10988">
        <ele>280.39999389648</ele>
        <time>2015-11-25T15:23:46Z</time>
      </trkpt>
      <trkpt lat="43.38602" lon="6.10987">
        <ele>281.20001220703</ele>
        <time>2015-11-25T15:23:50Z</time>
      </trkpt>
      <trkpt lat="43.38606" lon="6.10987">
        <ele>281.39999389648</ele>
        <time>2015-11-25T15:23:52Z</time>
      </trkpt>
      <trkpt lat="43.38609" lon="6.10989">
        <ele>281.39999389648</ele>
        <time>2015-11-25T15:23:54Z</time>
      </trkpt>
      <trkpt lat="43.38614" lon="6.10992">
        <ele>281.20001220703</ele>
        <time>2015-11-25T15:23:57Z</time>
      </trkpt>
      <trkpt lat="43.38618" lon="6.10995">
        <ele>281.20001220703</ele>
        <time>2015-11-25T15:24:00Z</time>
      </trkpt>
      <trkpt lat="43.38622" lon="6.10997">
        <ele>281.20001220703</ele>
        <time>2015-11-25T15:24:02Z</time>
      </trkpt>
      <trkpt lat="43.38624" lon="6.11">
        <ele>281</ele>
        <time>2015-11-25T15:24:04Z</time>
      </trkpt>
      <trkpt lat="43.38628" lon="6.11003">
        <ele>280.79998779297</ele>
        <time>2015-11-25T15:24:06Z</time>
      </trkpt>
      <trkpt lat="43.3863" lon="6.11006">
        <ele>281</ele>
        <time>2015-11-25T15:24:08Z</time>
      </trkpt>
      <trkpt lat="43.38632" lon="6.11008">
        <ele>280.39999389648</ele>
        <time>2015-11-25T15:24:10Z</time>
      </trkpt>
      <trkpt lat="43.38634" lon="6.11009">
        <ele>279.79998779297</ele>
        <time>2015-11-25T15:24:12Z</time>
      </trkpt>
      <trkpt lat="43.38635" lon="6.11009">
        <ele>279.60000610352</ele>
        <time>2015-11-25T15:24:13Z</time>
      </trkpt>
      <trkpt lat="43.38635" lon="6.11009">
        <ele>279.60000610352</ele>
        <time>2015-11-25T15:24:14Z</time>
      </trkpt>
      <trkpt lat="43.38635" lon="6.11009">
        <ele>279.20001220703</ele>
        <time>2015-11-25T15:24:16Z</time>
      </trkpt>
      <trkpt lat="43.38636" lon="6.11009">
        <ele>279.39999389648</ele>
        <time>2015-11-25T15:24:18Z</time>
      </trkpt>
      <trkpt lat="43.38636" lon="6.11009">
        <ele>279.20001220703</ele>
        <time>2015-11-25T15:24:20Z</time>
      </trkpt>
      <trkpt lat="43.38636" lon="6.11009">
        <ele>279.20001220703</ele>
        <time>2015-11-25T15:24:21Z</time>
      </trkpt>
      <trkpt lat="43.38636" lon="6.11008">
        <ele>279.20001220703</ele>
        <time>2015-11-25T15:24:22Z</time>
      </trkpt>
      <trkpt lat="43.38639" lon="6.11005">
        <ele>279.39999389648</ele>
        <time>2015-11-25T15:24:24Z</time>
      </trkpt>
      <trkpt lat="43.38643" lon="6.11002">
        <ele>279.20001220703</ele>
        <time>2015-11-25T15:24:26Z</time>
      </trkpt>
      <trkpt lat="43.38645" lon="6.11001">
        <ele>278.79998779297</ele>
        <time>2015-11-25T15:24:27Z</time>
      </trkpt>
      <trkpt lat="43.38648" lon="6.11001">
        <ele>278.79998779297</ele>
        <time>2015-11-25T15:24:28Z</time>
      </trkpt>
      <trkpt lat="43.38653" lon="6.11003">
        <ele>278.60000610352</ele>
        <time>2015-11-25T15:24:30Z</time>
      </trkpt>
      <trkpt lat="43.38658" lon="6.10997">
        <ele>277.79998779297</ele>
        <time>2015-11-25T15:24:32Z</time>
      </trkpt>
      <trkpt lat="43.38659" lon="6.10993">
        <ele>277.79998779297</ele>
        <time>2015-11-25T15:24:33Z</time>
      </trkpt>
      <trkpt lat="43.3866" lon="6.10989">
        <ele>277.79998779297</ele>
        <time>2015-11-25T15:24:34Z</time>
      </trkpt>
      <trkpt lat="43.38661" lon="6.1098">
        <ele>277.39999389648</ele>
        <time>2015-11-25T15:24:36Z</time>
      </trkpt>
      <trkpt lat="43.38664" lon="6.10954">
        <ele>277.20001220703</ele>
        <time>2015-11-25T15:24:42Z</time>
      </trkpt>
      <trkpt lat="43.38665" lon="6.10945">
        <ele>276.60000610352</ele>
        <time>2015-11-25T15:24:44Z</time>
      </trkpt>
      <trkpt lat="43.38668" lon="6.10936">
        <ele>276.39999389648</ele>
        <time>2015-11-25T15:24:46Z</time>
      </trkpt>
      <trkpt lat="43.3867" lon="6.10927">
        <ele>276.60000610352</ele>
        <time>2015-11-25T15:24:48Z</time>
      </trkpt>
      <trkpt lat="43.38672" lon="6.10919">
        <ele>276.79998779297</ele>
        <time>2015-11-25T15:24:50Z</time>
      </trkpt>
      <trkpt lat="43.38675" lon="6.1091">
        <ele>276.79998779297</ele>
        <time>2015-11-25T15:24:52Z</time>
      </trkpt>
      <trkpt lat="43.38675" lon="6.10905">
        <ele>277</ele>
        <time>2015-11-25T15:24:53Z</time>
      </trkpt>
      <trkpt lat="43.38677" lon="6.10901">
        <ele>277.20001220703</ele>
        <time>2015-11-25T15:24:54Z</time>
      </trkpt>
      <trkpt lat="43.3868" lon="6.10893">
        <ele>277</ele>
        <time>2015-11-25T15:24:56Z</time>
      </trkpt>
      <trkpt lat="43.38683" lon="6.10884">
        <ele>276</ele>
        <time>2015-11-25T15:24:58Z</time>
      </trkpt>
      <trkpt lat="43.38686" lon="6.10878">
        <ele>276</ele>
        <time>2015-11-25T15:25:00Z</time>
      </trkpt>
      <trkpt lat="43.38688" lon="6.1087">
        <ele>276</ele>
        <time>2015-11-25T15:25:02Z</time>
      </trkpt>
      <trkpt lat="43.38688" lon="6.10868">
        <ele>276.20001220703</ele>
        <time>2015-11-25T15:25:03Z</time>
      </trkpt>
      <trkpt lat="43.38689" lon="6.10864">
        <ele>276.39999389648</ele>
        <time>2015-11-25T15:25:04Z</time>
      </trkpt>
      <trkpt lat="43.38692" lon="6.10842">
        <ele>277.20001220703</ele>
        <time>2015-11-25T15:25:10Z</time>
      </trkpt>
      <trkpt lat="43.38694" lon="6.10835">
        <ele>277.60000610352</ele>
        <time>2015-11-25T15:25:12Z</time>
      </trkpt>
      <trkpt lat="43.38695" lon="6.10831">
        <ele>277.60000610352</ele>
        <time>2015-11-25T15:25:13Z</time>
      </trkpt>
      <trkpt lat="43.38699" lon="6.10824">
        <ele>277.60000610352</ele>
        <time>2015-11-25T15:25:15Z</time>
      </trkpt>
      <trkpt lat="43.38701" lon="6.1082">
        <ele>277.60000610352</ele>
        <time>2015-11-25T15:25:16Z</time>
      </trkpt>
      <trkpt lat="43.38706" lon="6.10813">
        <ele>276.79998779297</ele>
        <time>2015-11-25T15:25:18Z</time>
      </trkpt>
      <trkpt lat="43.38709" lon="6.1081">
        <ele>276.60000610352</ele>
        <time>2015-11-25T15:25:19Z</time>
      </trkpt>
      <trkpt lat="43.38713" lon="6.10806">
        <ele>276.60000610352</ele>
        <time>2015-11-25T15:25:20Z</time>
      </trkpt>
      <trkpt lat="43.38721" lon="6.10802">
        <ele>276.79998779297</ele>
        <time>2015-11-25T15:25:22Z</time>
      </trkpt>
      <trkpt lat="43.38729" lon="6.10796">
        <ele>275.60000610352</ele>
        <time>2015-11-25T15:25:24Z</time>
      </trkpt>
      <trkpt lat="43.38732" lon="6.10786">
        <ele>275.79998779297</ele>
        <time>2015-11-25T15:25:26Z</time>
      </trkpt>
      <trkpt lat="43.38733" lon="6.10783">
        <ele>275.60000610352</ele>
        <time>2015-11-25T15:25:27Z</time>
      </trkpt>
      <trkpt lat="43.38734" lon="6.10778">
        <ele>275.79998779297</ele>
        <time>2015-11-25T15:25:28Z</time>
      </trkpt>
      <trkpt lat="43.38739" lon="6.10772">
        <ele>276.39999389648</ele>
        <time>2015-11-25T15:25:30Z</time>
      </trkpt>
      <trkpt lat="43.38742" lon="6.10771">
        <ele>276.20001220703</ele>
        <time>2015-11-25T15:25:31Z</time>
      </trkpt>
      <trkpt lat="43.38745" lon="6.1077">
        <ele>276</ele>
        <time>2015-11-25T15:25:32Z</time>
      </trkpt>
      <trkpt lat="43.38749" lon="6.10768">
        <ele>275.79998779297</ele>
        <time>2015-11-25T15:25:33Z</time>
      </trkpt>
      <trkpt lat="43.38752" lon="6.10767">
        <ele>276</ele>
        <time>2015-11-25T15:25:34Z</time>
      </trkpt>
      <trkpt lat="43.38755" lon="6.10766">
        <ele>276</ele>
        <time>2015-11-25T15:25:35Z</time>
      </trkpt>
      <trkpt lat="43.38758" lon="6.10766">
        <ele>275.60000610352</ele>
        <time>2015-11-25T15:25:36Z</time>
      </trkpt>
      <trkpt lat="43.38763" lon="6.10763">
        <ele>274.79998779297</ele>
        <time>2015-11-25T15:25:38Z</time>
      </trkpt>
      <trkpt lat="43.38766" lon="6.10759">
        <ele>274.20001220703</ele>
        <time>2015-11-25T15:25:40Z</time>
      </trkpt>
      <trkpt lat="43.38766" lon="6.10758">
        <ele>274.20001220703</ele>
        <time>2015-11-25T15:25:42Z</time>
      </trkpt>
      <trkpt lat="43.38766" lon="6.10758">
        <ele>274.20001220703</ele>
        <time>2015-11-25T15:25:43Z</time>
      </trkpt>
      <trkpt lat="43.38767" lon="6.10757">
        <ele>274.20001220703</ele>
        <time>2015-11-25T15:25:44Z</time>
      </trkpt>
      <trkpt lat="43.38767" lon="6.10757">
        <ele>274.20001220703</ele>
        <time>2015-11-25T15:25:46Z</time>
      </trkpt>
      <trkpt lat="43.38767" lon="6.10757">
        <ele>274.20001220703</ele>
        <time>2015-11-25T15:25:48Z</time>
      </trkpt>
      <trkpt lat="43.38767" lon="6.10757">
        <ele>274.20001220703</ele>
        <time>2015-11-25T15:25:50Z</time>
      </trkpt>
      <trkpt lat="43.38767" lon="6.10757">
        <ele>274.39999389648</ele>
        <time>2015-11-25T15:25:52Z</time>
      </trkpt>
      <trkpt lat="43.38767" lon="6.10757">
        <ele>274.39999389648</ele>
        <time>2015-11-25T15:25:56Z</time>
      </trkpt>
      <trkpt lat="43.38767" lon="6.10757">
        <ele>274.39999389648</ele>
        <time>2015-11-25T15:25:58Z</time>
      </trkpt>
      <trkpt lat="43.38767" lon="6.10757">
        <ele>274.20001220703</ele>
        <time>2015-11-25T15:26:02Z</time>
      </trkpt>
      <trkpt lat="43.38767" lon="6.10757">
        <ele>274.20001220703</ele>
        <time>2015-11-25T15:26:04Z</time>
      </trkpt>
      <trkpt lat="43.38767" lon="6.10757">
        <ele>274</ele>
        <time>2015-11-25T15:26:06Z</time>
      </trkpt>
      <trkpt lat="43.38767" lon="6.10757">
        <ele>274</ele>
        <time>2015-11-25T15:26:08Z</time>
      </trkpt>
      <trkpt lat="43.38769" lon="6.10758">
        <ele>274.20001220703</ele>
        <time>2015-11-25T15:26:10Z</time>
      </trkpt>
      <trkpt lat="43.3877" lon="6.10757">
        <ele>274.20001220703</ele>
        <time>2015-11-25T15:26:11Z</time>
      </trkpt>
      <trkpt lat="43.38771" lon="6.10756">
        <ele>274.39999389648</ele>
        <time>2015-11-25T15:26:12Z</time>
      </trkpt>
      <trkpt lat="43.38771" lon="6.10754">
        <ele>274.60000610352</ele>
        <time>2015-11-25T15:26:14Z</time>
      </trkpt>
      <trkpt lat="43.38769" lon="6.10755">
        <ele>274.60000610352</ele>
        <time>2015-11-25T15:26:15Z</time>
      </trkpt>
      <trkpt lat="43.38768" lon="6.10756">
        <ele>274.60000610352</ele>
        <time>2015-11-25T15:26:16Z</time>
      </trkpt>
      <trkpt lat="43.38763" lon="6.10759">
        <ele>274.60000610352</ele>
        <time>2015-11-25T15:26:18Z</time>
      </trkpt>
      <trkpt lat="43.38758" lon="6.10762">
        <ele>274.60000610352</ele>
        <time>2015-11-25T15:26:20Z</time>
      </trkpt>
      <trkpt lat="43.38756" lon="6.10762">
        <ele>275</ele>
        <time>2015-11-25T15:26:21Z</time>
      </trkpt>
      <trkpt lat="43.38754" lon="6.10762">
        <ele>275.39999389648</ele>
        <time>2015-11-25T15:26:22Z</time>
      </trkpt>
      <trkpt lat="43.38748" lon="6.10763">
        <ele>275.60000610352</ele>
        <time>2015-11-25T15:26:24Z</time>
      </trkpt>
      <trkpt lat="43.3874" lon="6.10767">
        <ele>276.20001220703</ele>
        <time>2015-11-25T15:26:27Z</time>
      </trkpt>
      <trkpt lat="43.38738" lon="6.10768">
        <ele>276.20001220703</ele>
        <time>2015-11-25T15:26:28Z</time>
      </trkpt>
      <trkpt lat="43.38736" lon="6.1077">
        <ele>275.79998779297</ele>
        <time>2015-11-25T15:26:29Z</time>
      </trkpt>
      <trkpt lat="43.38735" lon="6.10774">
        <ele>275.79998779297</ele>
        <time>2015-11-25T15:26:30Z</time>
      </trkpt>
      <trkpt lat="43.38732" lon="6.10781">
        <ele>275.60000610352</ele>
        <time>2015-11-25T15:26:32Z</time>
      </trkpt>
      <trkpt lat="43.38732" lon="6.10782">
        <ele>275.60000610352</ele>
        <time>2015-11-25T15:26:33Z</time>
      </trkpt>
      <trkpt lat="43.38732" lon="6.10784">
        <ele>275.60000610352</ele>
        <time>2015-11-25T15:26:34Z</time>
      </trkpt>
      <trkpt lat="43.38732" lon="6.10788">
        <ele>275.39999389648</ele>
        <time>2015-11-25T15:26:36Z</time>
      </trkpt>
      <trkpt lat="43.3873" lon="6.10792">
        <ele>275.60000610352</ele>
        <time>2015-11-25T15:26:38Z</time>
      </trkpt>
      <trkpt lat="43.38728" lon="6.10791">
        <ele>275.79998779297</ele>
        <time>2015-11-25T15:26:40Z</time>
      </trkpt>
      <trkpt lat="43.38728" lon="6.10791">
        <ele>275.79998779297</ele>
        <time>2015-11-25T15:26:41Z</time>
      </trkpt>
      <trkpt lat="43.38729" lon="6.10792">
        <ele>275.79998779297</ele>
        <time>2015-11-25T15:26:42Z</time>
      </trkpt>
      <trkpt lat="43.38729" lon="6.10792">
        <ele>275.79998779297</ele>
        <time>2015-11-25T15:26:44Z</time>
      </trkpt>
      <trkpt lat="43.38728" lon="6.10792">
        <ele>275.79998779297</ele>
        <time>2015-11-25T15:26:46Z</time>
      </trkpt>
      <trkpt lat="43.38728" lon="6.10792">
        <ele>275.20001220703</ele>
        <time>2015-11-25T15:26:48Z</time>
      </trkpt>
      <trkpt lat="43.38728" lon="6.10792">
        <ele>275</ele>
        <time>2015-11-25T15:26:50Z</time>
      </trkpt>
      <trkpt lat="43.38728" lon="6.10792">
        <ele>274.79998779297</ele>
        <time>2015-11-25T15:26:52Z</time>
      </trkpt>
      <trkpt lat="43.38728" lon="6.10792">
        <ele>275</ele>
        <time>2015-11-25T15:26:54Z</time>
      </trkpt>
      <trkpt lat="43.38728" lon="6.10792">
        <ele>275.60000610352</ele>
        <time>2015-11-25T15:26:58Z</time>
      </trkpt>
      <trkpt lat="43.38729" lon="6.10792">
        <ele>276.20001220703</ele>
        <time>2015-11-25T15:27:01Z</time>
      </trkpt>
      <trkpt lat="43.38729" lon="6.10792">
        <ele>276.20001220703</ele>
        <time>2015-11-25T15:27:04Z</time>
      </trkpt>
      <trkpt lat="43.3873" lon="6.1079">
        <ele>276.39999389648</ele>
        <time>2015-11-25T15:27:06Z</time>
      </trkpt>
      <trkpt lat="43.38732" lon="6.10786">
        <ele>276.60000610352</ele>
        <time>2015-11-25T15:27:08Z</time>
      </trkpt>
      <trkpt lat="43.38734" lon="6.1078">
        <ele>276.39999389648</ele>
        <time>2015-11-25T15:27:10Z</time>
      </trkpt>
      <trkpt lat="43.38735" lon="6.10775">
        <ele>276.39999389648</ele>
        <time>2015-11-25T15:27:12Z</time>
      </trkpt>
      <trkpt lat="43.38736" lon="6.10772">
        <ele>276.60000610352</ele>
        <time>2015-11-25T15:27:13Z</time>
      </trkpt>
      <trkpt lat="43.38737" lon="6.1077">
        <ele>276.60000610352</ele>
        <time>2015-11-25T15:27:14Z</time>
      </trkpt>
      <trkpt lat="43.38741" lon="6.10768">
        <ele>277</ele>
        <time>2015-11-25T15:27:16Z</time>
      </trkpt>
      <trkpt lat="43.38743" lon="6.10767">
        <ele>277</ele>
        <time>2015-11-25T15:27:17Z</time>
      </trkpt>
      <trkpt lat="43.38746" lon="6.10766">
        <ele>276.60000610352</ele>
        <time>2015-11-25T15:27:18Z</time>
      </trkpt>
      <trkpt lat="43.38752" lon="6.10764">
        <ele>276.20001220703</ele>
        <time>2015-11-25T15:27:20Z</time>
      </trkpt>
      <trkpt lat="43.38755" lon="6.10763">
        <ele>276</ele>
        <time>2015-11-25T15:27:21Z</time>
      </trkpt>
      <trkpt lat="43.38762" lon="6.10761">
        <ele>275.39999389648</ele>
        <time>2015-11-25T15:27:24Z</time>
      </trkpt>
      <trkpt lat="43.38765" lon="6.10758">
        <ele>275</ele>
        <time>2015-11-25T15:27:25Z</time>
      </trkpt>
      <trkpt lat="43.38768" lon="6.10757">
        <ele>274.79998779297</ele>
        <time>2015-11-25T15:27:26Z</time>
      </trkpt>
      <trkpt lat="43.38774" lon="6.10757">
        <ele>274.39999389648</ele>
        <time>2015-11-25T15:27:28Z</time>
      </trkpt>
      <trkpt lat="43.3878" lon="6.10756">
        <ele>274.39999389648</ele>
        <time>2015-11-25T15:27:30Z</time>
      </trkpt>
      <trkpt lat="43.38787" lon="6.10756">
        <ele>273.79998779297</ele>
        <time>2015-11-25T15:27:32Z</time>
      </trkpt>
      <trkpt lat="43.38797" lon="6.10756">
        <ele>273.20001220703</ele>
        <time>2015-11-25T15:27:34Z</time>
      </trkpt>
      <trkpt lat="43.38805" lon="6.10756">
        <ele>272.60000610352</ele>
        <time>2015-11-25T15:27:36Z</time>
      </trkpt>
      <trkpt lat="43.3881" lon="6.10755">
        <ele>272.20001220703</ele>
        <time>2015-11-25T15:27:38Z</time>
      </trkpt>
      <trkpt lat="43.38813" lon="6.10755">
        <ele>272</ele>
        <time>2015-11-25T15:27:39Z</time>
      </trkpt>
      <trkpt lat="43.38815" lon="6.10754">
        <ele>272</ele>
        <time>2015-11-25T15:27:40Z</time>
      </trkpt>
      <trkpt lat="43.38818" lon="6.10754">
        <ele>271.79998779297</ele>
        <time>2015-11-25T15:27:42Z</time>
      </trkpt>
      <trkpt lat="43.38821" lon="6.10754">
        <ele>271.79998779297</ele>
        <time>2015-11-25T15:27:44Z</time>
      </trkpt>
      <trkpt lat="43.38824" lon="6.10754">
        <ele>271.79998779297</ele>
        <time>2015-11-25T15:27:46Z</time>
      </trkpt>
      <trkpt lat="43.38824" lon="6.10754">
        <ele>272</ele>
        <time>2015-11-25T15:27:48Z</time>
      </trkpt>
      <trkpt lat="43.38824" lon="6.10754">
        <ele>272</ele>
        <time>2015-11-25T15:27:54Z</time>
      </trkpt>
      <trkpt lat="43.38824" lon="6.10754">
        <ele>272</ele>
        <time>2015-11-25T15:27:56Z</time>
      </trkpt>
      <trkpt lat="43.38824" lon="6.10754">
        <ele>271.79998779297</ele>
        <time>2015-11-25T15:28:00Z</time>
      </trkpt>
      <trkpt lat="43.38824" lon="6.10754">
        <ele>271.60000610352</ele>
        <time>2015-11-25T15:28:02Z</time>
      </trkpt>
      <trkpt lat="43.38826" lon="6.10754">
        <ele>271.79998779297</ele>
        <time>2015-11-25T15:28:04Z</time>
      </trkpt>
      <trkpt lat="43.38826" lon="6.10754">
        <ele>272.39999389648</ele>
        <time>2015-11-25T15:28:06Z</time>
      </trkpt>
      <trkpt lat="43.38826" lon="6.10754">
        <ele>272.79998779297</ele>
        <time>2015-11-25T15:28:10Z</time>
      </trkpt>
      <trkpt lat="43.38826" lon="6.10754">
        <ele>272.20001220703</ele>
        <time>2015-11-25T15:28:12Z</time>
      </trkpt>
      <trkpt lat="43.38828" lon="6.10754">
        <ele>272</ele>
        <time>2015-11-25T15:28:14Z</time>
      </trkpt>
      <trkpt lat="43.3883" lon="6.10753">
        <ele>272.20001220703</ele>
        <time>2015-11-25T15:28:15Z</time>
      </trkpt>
      <trkpt lat="43.38833" lon="6.10753">
        <ele>272.20001220703</ele>
        <time>2015-11-25T15:28:16Z</time>
      </trkpt>
      <trkpt lat="43.38839" lon="6.10753">
        <ele>272</ele>
        <time>2015-11-25T15:28:18Z</time>
      </trkpt>
      <trkpt lat="43.38846" lon="6.10753">
        <ele>271.60000610352</ele>
        <time>2015-11-25T15:28:20Z</time>
      </trkpt>
      <trkpt lat="43.38849" lon="6.10753">
        <ele>271.20001220703</ele>
        <time>2015-11-25T15:28:21Z</time>
      </trkpt>
      <trkpt lat="43.38852" lon="6.10752">
        <ele>271.20001220703</ele>
        <time>2015-11-25T15:28:22Z</time>
      </trkpt>
      <trkpt lat="43.38858" lon="6.10751">
        <ele>271.60000610352</ele>
        <time>2015-11-25T15:28:24Z</time>
      </trkpt>
      <trkpt lat="43.38864" lon="6.10751">
        <ele>271.60000610352</ele>
        <time>2015-11-25T15:28:26Z</time>
      </trkpt>
      <trkpt lat="43.38868" lon="6.1075">
        <ele>271</ele>
        <time>2015-11-25T15:28:28Z</time>
      </trkpt>
      <trkpt lat="43.38874" lon="6.1075">
        <ele>270.60000610352</ele>
        <time>2015-11-25T15:28:30Z</time>
      </trkpt>
      <trkpt lat="43.3888" lon="6.10752">
        <ele>270.20001220703</ele>
        <time>2015-11-25T15:28:32Z</time>
      </trkpt>
      <trkpt lat="43.38886" lon="6.10754">
        <ele>270.60000610352</ele>
        <time>2015-11-25T15:28:34Z</time>
      </trkpt>
      <trkpt lat="43.38889" lon="6.10755">
        <ele>270.60000610352</ele>
        <time>2015-11-25T15:28:35Z</time>
      </trkpt>
      <trkpt lat="43.38893" lon="6.10755">
        <ele>270.39999389648</ele>
        <time>2015-11-25T15:28:36Z</time>
      </trkpt>
      <trkpt lat="43.38901" lon="6.10758">
        <ele>270.60000610352</ele>
        <time>2015-11-25T15:28:38Z</time>
      </trkpt>
      <trkpt lat="43.38908" lon="6.10761">
        <ele>270.20001220703</ele>
        <time>2015-11-25T15:28:40Z</time>
      </trkpt>
      <trkpt lat="43.38912" lon="6.10764">
        <ele>270</ele>
        <time>2015-11-25T15:28:41Z</time>
      </trkpt>
      <trkpt lat="43.38916" lon="6.10767">
        <ele>269.79998779297</ele>
        <time>2015-11-25T15:28:42Z</time>
      </trkpt>
      <trkpt lat="43.38919" lon="6.10771">
        <ele>269.60000610352</ele>
        <time>2015-11-25T15:28:43Z</time>
      </trkpt>
      <trkpt lat="43.38921" lon="6.10776">
        <ele>269.79998779297</ele>
        <time>2015-11-25T15:28:44Z</time>
      </trkpt>
      <trkpt lat="43.38924" lon="6.10787">
        <ele>269.79998779297</ele>
        <time>2015-11-25T15:28:46Z</time>
      </trkpt>
      <trkpt lat="43.38924" lon="6.10792">
        <ele>269.60000610352</ele>
        <time>2015-11-25T15:28:47Z</time>
      </trkpt>
      <trkpt lat="43.38926" lon="6.10798">
        <ele>269.60000610352</ele>
        <time>2015-11-25T15:28:48Z</time>
      </trkpt>
      <trkpt lat="43.38929" lon="6.10808">
        <ele>269.20001220703</ele>
        <time>2015-11-25T15:28:50Z</time>
      </trkpt>
      <trkpt lat="43.38935" lon="6.10818">
        <ele>269.39999389648</ele>
        <time>2015-11-25T15:28:52Z</time>
      </trkpt>
      <trkpt lat="43.38939" lon="6.10821">
        <ele>269.60000610352</ele>
        <time>2015-11-25T15:28:53Z</time>
      </trkpt>
      <trkpt lat="43.38953" lon="6.10829">
        <ele>268.79998779297</ele>
        <time>2015-11-25T15:28:56Z</time>
      </trkpt>
      <trkpt lat="43.38963" lon="6.10833">
        <ele>269</ele>
        <time>2015-11-25T15:28:58Z</time>
      </trkpt>
      <trkpt lat="43.38972" lon="6.10836">
        <ele>268.79998779297</ele>
        <time>2015-11-25T15:29:00Z</time>
      </trkpt>
      <trkpt lat="43.38983" lon="6.10841">
        <ele>268.79998779297</ele>
        <time>2015-11-25T15:29:02Z</time>
      </trkpt>
      <trkpt lat="43.38994" lon="6.10844">
        <ele>268.60000610352</ele>
        <time>2015-11-25T15:29:04Z</time>
      </trkpt>
      <trkpt lat="43.38999" lon="6.10844">
        <ele>268.79998779297</ele>
        <time>2015-11-25T15:29:05Z</time>
      </trkpt>
      <trkpt lat="43.39005" lon="6.10842">
        <ele>269.20001220703</ele>
        <time>2015-11-25T15:29:06Z</time>
      </trkpt>
      <trkpt lat="43.39016" lon="6.10837">
        <ele>269</ele>
        <time>2015-11-25T15:29:08Z</time>
      </trkpt>
      <trkpt lat="43.39022" lon="6.10834">
        <ele>268.39999389648</ele>
        <time>2015-11-25T15:29:09Z</time>
      </trkpt>
      <trkpt lat="43.39029" lon="6.10831">
        <ele>268.20001220703</ele>
        <time>2015-11-25T15:29:10Z</time>
      </trkpt>
      <trkpt lat="43.39041" lon="6.10828">
        <ele>267.20001220703</ele>
        <time>2015-11-25T15:29:12Z</time>
      </trkpt>
      <trkpt lat="43.39047" lon="6.10826">
        <ele>267</ele>
        <time>2015-11-25T15:29:13Z</time>
      </trkpt>
      <trkpt lat="43.39065" lon="6.10821">
        <ele>266.79998779297</ele>
        <time>2015-11-25T15:29:16Z</time>
      </trkpt>
      <trkpt lat="43.39069" lon="6.10818">
        <ele>266.79998779297</ele>
        <time>2015-11-25T15:29:17Z</time>
      </trkpt>
      <trkpt lat="43.39074" lon="6.10815">
        <ele>267.20001220703</ele>
        <time>2015-11-25T15:29:18Z</time>
      </trkpt>
      <trkpt lat="43.39083" lon="6.10808">
        <ele>267.39999389648</ele>
        <time>2015-11-25T15:29:20Z</time>
      </trkpt>
      <trkpt lat="43.39091" lon="6.10799">
        <ele>267.20001220703</ele>
        <time>2015-11-25T15:29:22Z</time>
      </trkpt>
      <trkpt lat="43.39099" lon="6.10789">
        <ele>267.60000610352</ele>
        <time>2015-11-25T15:29:24Z</time>
      </trkpt>
      <trkpt lat="43.39107" lon="6.10781">
        <ele>267</ele>
        <time>2015-11-25T15:29:26Z</time>
      </trkpt>
      <trkpt lat="43.39117" lon="6.10775">
        <ele>267</ele>
        <time>2015-11-25T15:29:28Z</time>
      </trkpt>
      <trkpt lat="43.39127" lon="6.10768">
        <ele>266.60000610352</ele>
        <time>2015-11-25T15:29:30Z</time>
      </trkpt>
      <trkpt lat="43.39137" lon="6.10762">
        <ele>266.39999389648</ele>
        <time>2015-11-25T15:29:32Z</time>
      </trkpt>
      <trkpt lat="43.3915" lon="6.10754">
        <ele>265.60000610352</ele>
        <time>2015-11-25T15:29:34Z</time>
      </trkpt>
      <trkpt lat="43.39161" lon="6.10746">
        <ele>265</ele>
        <time>2015-11-25T15:29:36Z</time>
      </trkpt>
      <trkpt lat="43.39165" lon="6.1074">
        <ele>264.79998779297</ele>
        <time>2015-11-25T15:29:37Z</time>
      </trkpt>
      <trkpt lat="43.39168" lon="6.10733">
        <ele>264.39999389648</ele>
        <time>2015-11-25T15:29:38Z</time>
      </trkpt>
      <trkpt lat="43.3917" lon="6.10726">
        <ele>263.79998779297</ele>
        <time>2015-11-25T15:29:39Z</time>
      </trkpt>
      <trkpt lat="43.39173" lon="6.10717">
        <ele>263.39999389648</ele>
        <time>2015-11-25T15:29:40Z</time>
      </trkpt>
      <trkpt lat="43.39177" lon="6.10701">
        <ele>262.20001220703</ele>
        <time>2015-11-25T15:29:42Z</time>
      </trkpt>
      <trkpt lat="43.3918" lon="6.10694">
        <ele>262.39999389648</ele>
        <time>2015-11-25T15:29:43Z</time>
      </trkpt>
      <trkpt lat="43.39183" lon="6.10687">
        <ele>262.39999389648</ele>
        <time>2015-11-25T15:29:44Z</time>
      </trkpt>
      <trkpt lat="43.39189" lon="6.10674">
        <ele>262.60000610352</ele>
        <time>2015-11-25T15:29:46Z</time>
      </trkpt>
      <trkpt lat="43.39196" lon="6.10661">
        <ele>263</ele>
        <time>2015-11-25T15:29:48Z</time>
      </trkpt>
      <trkpt lat="43.39199" lon="6.10656">
        <ele>263</ele>
        <time>2015-11-25T15:29:49Z</time>
      </trkpt>
      <trkpt lat="43.39212" lon="6.10643">
        <ele>263</ele>
        <time>2015-11-25T15:29:52Z</time>
      </trkpt>
      <trkpt lat="43.39216" lon="6.1064">
        <ele>263.20001220703</ele>
        <time>2015-11-25T15:29:53Z</time>
      </trkpt>
      <trkpt lat="43.39223" lon="6.10632">
        <ele>262.79998779297</ele>
        <time>2015-11-25T15:29:55Z</time>
      </trkpt>
      <trkpt lat="43.39227" lon="6.10629">
        <ele>262.79998779297</ele>
        <time>2015-11-25T15:29:56Z</time>
      </trkpt>
      <trkpt lat="43.39233" lon="6.10622">
        <ele>263.20001220703</ele>
        <time>2015-11-25T15:29:58Z</time>
      </trkpt>
      <trkpt lat="43.39237" lon="6.10614">
        <ele>263.60000610352</ele>
        <time>2015-11-25T15:30:00Z</time>
      </trkpt>
      <trkpt lat="43.39243" lon="6.1061">
        <ele>263.60000610352</ele>
        <time>2015-11-25T15:30:02Z</time>
      </trkpt>
      <trkpt lat="43.39246" lon="6.10608">
        <ele>263.79998779297</ele>
        <time>2015-11-25T15:30:03Z</time>
      </trkpt>
      <trkpt lat="43.39249" lon="6.10605">
        <ele>263.79998779297</ele>
        <time>2015-11-25T15:30:04Z</time>
      </trkpt>
      <trkpt lat="43.39256" lon="6.10599">
        <ele>263.39999389648</ele>
        <time>2015-11-25T15:30:06Z</time>
      </trkpt>
      <trkpt lat="43.39259" lon="6.10595">
        <ele>263.39999389648</ele>
        <time>2015-11-25T15:30:07Z</time>
      </trkpt>
      <trkpt lat="43.39262" lon="6.1059">
        <ele>263.60000610352</ele>
        <time>2015-11-25T15:30:08Z</time>
      </trkpt>
      <trkpt lat="43.39267" lon="6.10579">
        <ele>263.79998779297</ele>
        <time>2015-11-25T15:30:10Z</time>
      </trkpt>
      <trkpt lat="43.39269" lon="6.10574">
        <ele>263.60000610352</ele>
        <time>2015-11-25T15:30:11Z</time>
      </trkpt>
      <trkpt lat="43.39271" lon="6.10569">
        <ele>263.39999389648</ele>
        <time>2015-11-25T15:30:12Z</time>
      </trkpt>
      <trkpt lat="43.39274" lon="6.10559">
        <ele>263.39999389648</ele>
        <time>2015-11-25T15:30:14Z</time>
      </trkpt>
      <trkpt lat="43.39277" lon="6.1055">
        <ele>263.39999389648</ele>
        <time>2015-11-25T15:30:16Z</time>
      </trkpt>
      <trkpt lat="43.3928" lon="6.10542">
        <ele>263.60000610352</ele>
        <time>2015-11-25T15:30:18Z</time>
      </trkpt>
      <trkpt lat="43.39284" lon="6.10533">
        <ele>263.60000610352</ele>
        <time>2015-11-25T15:30:20Z</time>
      </trkpt>
      <trkpt lat="43.39289" lon="6.10524">
        <ele>263.39999389648</ele>
        <time>2015-11-25T15:30:22Z</time>
      </trkpt>
      <trkpt lat="43.39291" lon="6.10518">
        <ele>263</ele>
        <time>2015-11-25T15:30:23Z</time>
      </trkpt>
      <trkpt lat="43.39294" lon="6.10512">
        <ele>263</ele>
        <time>2015-11-25T15:30:24Z</time>
      </trkpt>
      <trkpt lat="43.39295" lon="6.10505">
        <ele>262.60000610352</ele>
        <time>2015-11-25T15:30:25Z</time>
      </trkpt>
      <trkpt lat="43.39297" lon="6.10499">
        <ele>262.39999389648</ele>
        <time>2015-11-25T15:30:26Z</time>
      </trkpt>
      <trkpt lat="43.39299" lon="6.10495">
        <ele>262</ele>
        <time>2015-11-25T15:30:27Z</time>
      </trkpt>
      <trkpt lat="43.39301" lon="6.1049">
        <ele>262</ele>
        <time>2015-11-25T15:30:28Z</time>
      </trkpt>
      <trkpt lat="43.39304" lon="6.10486">
        <ele>262.20001220703</ele>
        <time>2015-11-25T15:30:29Z</time>
      </trkpt>
      <trkpt lat="43.39306" lon="6.10483">
        <ele>262.39999389648</ele>
        <time>2015-11-25T15:30:30Z</time>
      </trkpt>
      <trkpt lat="43.39309" lon="6.10476">
        <ele>262</ele>
        <time>2015-11-25T15:30:32Z</time>
      </trkpt>
      <trkpt lat="43.39313" lon="6.10468">
        <ele>260.39999389648</ele>
        <time>2015-11-25T15:30:34Z</time>
      </trkpt>
      <trkpt lat="43.39316" lon="6.10464">
        <ele>260.20001220703</ele>
        <time>2015-11-25T15:30:35Z</time>
      </trkpt>
      <trkpt lat="43.39319" lon="6.10458">
        <ele>260.20001220703</ele>
        <time>2015-11-25T15:30:36Z</time>
      </trkpt>
      <trkpt lat="43.39325" lon="6.10448">
        <ele>260.20001220703</ele>
        <time>2015-11-25T15:30:38Z</time>
      </trkpt>
      <trkpt lat="43.39328" lon="6.10443">
        <ele>260</ele>
        <time>2015-11-25T15:30:39Z</time>
      </trkpt>
      <trkpt lat="43.39331" lon="6.10439">
        <ele>260</ele>
        <time>2015-11-25T15:30:40Z</time>
      </trkpt>
      <trkpt lat="43.39336" lon="6.10431">
        <ele>260</ele>
        <time>2015-11-25T15:30:42Z</time>
      </trkpt>
      <trkpt lat="43.39342" lon="6.10425">
        <ele>259.60000610352</ele>
        <time>2015-11-25T15:30:44Z</time>
      </trkpt>
      <trkpt lat="43.39348" lon="6.1042">
        <ele>259.39999389648</ele>
        <time>2015-11-25T15:30:46Z</time>
      </trkpt>
      <trkpt lat="43.3935" lon="6.1042">
        <ele>259.39999389648</ele>
        <time>2015-11-25T15:30:47Z</time>
      </trkpt>
      <trkpt lat="43.39352" lon="6.10419">
        <ele>259</ele>
        <time>2015-11-25T15:30:48Z</time>
      </trkpt>
      <trkpt lat="43.39355" lon="6.1042">
        <ele>258.79998779297</ele>
        <time>2015-11-25T15:30:49Z</time>
      </trkpt>
      <trkpt lat="43.3936" lon="6.10422">
        <ele>259</ele>
        <time>2015-11-25T15:30:51Z</time>
      </trkpt>
      <trkpt lat="43.39363" lon="6.10422">
        <ele>258.60000610352</ele>
        <time>2015-11-25T15:30:52Z</time>
      </trkpt>
      <trkpt lat="43.39366" lon="6.10421">
        <ele>257.79998779297</ele>
        <time>2015-11-25T15:30:54Z</time>
      </trkpt>
      <trkpt lat="43.39367" lon="6.10419">
        <ele>257.60000610352</ele>
        <time>2015-11-25T15:30:55Z</time>
      </trkpt>
      <trkpt lat="43.39368" lon="6.10417">
        <ele>257.39999389648</ele>
        <time>2015-11-25T15:30:56Z</time>
      </trkpt>
      <trkpt lat="43.39371" lon="6.10412">
        <ele>257.60000610352</ele>
        <time>2015-11-25T15:30:58Z</time>
      </trkpt>
      <trkpt lat="43.39373" lon="6.10406">
        <ele>257.79998779297</ele>
        <time>2015-11-25T15:31:00Z</time>
      </trkpt>
      <trkpt lat="43.39373" lon="6.10399">
        <ele>257.60000610352</ele>
        <time>2015-11-25T15:31:02Z</time>
      </trkpt>
      <trkpt lat="43.39375" lon="6.10393">
        <ele>256.60000610352</ele>
        <time>2015-11-25T15:31:04Z</time>
      </trkpt>
      <trkpt lat="43.39378" lon="6.10388">
        <ele>256</ele>
        <time>2015-11-25T15:31:06Z</time>
      </trkpt>
      <trkpt lat="43.39383" lon="6.10381">
        <ele>256.39999389648</ele>
        <time>2015-11-25T15:31:08Z</time>
      </trkpt>
      <trkpt lat="43.39387" lon="6.10373">
        <ele>256.39999389648</ele>
        <time>2015-11-25T15:31:10Z</time>
      </trkpt>
      <trkpt lat="43.39389" lon="6.1037">
        <ele>256</ele>
        <time>2015-11-25T15:31:11Z</time>
      </trkpt>
      <trkpt lat="43.39395" lon="6.10357">
        <ele>256.20001220703</ele>
        <time>2015-11-25T15:31:14Z</time>
      </trkpt>
      <trkpt lat="43.39399" lon="6.10348">
        <ele>255.60000610352</ele>
        <time>2015-11-25T15:31:16Z</time>
      </trkpt>
      <trkpt lat="43.39404" lon="6.1034">
        <ele>255.39999389648</ele>
        <time>2015-11-25T15:31:18Z</time>
      </trkpt>
      <trkpt lat="43.3941" lon="6.10332">
        <ele>255.39999389648</ele>
        <time>2015-11-25T15:31:20Z</time>
      </trkpt>
      <trkpt lat="43.3942" lon="6.10312">
        <ele>255.60000610352</ele>
        <time>2015-11-25T15:31:24Z</time>
      </trkpt>
      <trkpt lat="43.39427" lon="6.10304">
        <ele>255.80000305176</ele>
        <time>2015-11-25T15:31:26Z</time>
      </trkpt>
      <trkpt lat="43.39439" lon="6.10296">
        <ele>255.19999694824</ele>
        <time>2015-11-25T15:31:29Z</time>
      </trkpt>
      <trkpt lat="43.3945" lon="6.10286">
        <ele>254.19999694824</ele>
        <time>2015-11-25T15:31:32Z</time>
      </trkpt>
      <trkpt lat="43.39458" lon="6.1028">
        <ele>253.60000610352</ele>
        <time>2015-11-25T15:31:34Z</time>
      </trkpt>
      <trkpt lat="43.39466" lon="6.10273">
        <ele>253.80000305176</ele>
        <time>2015-11-25T15:31:36Z</time>
      </trkpt>
      <trkpt lat="43.39474" lon="6.10266">
        <ele>253.39999389648</ele>
        <time>2015-11-25T15:31:38Z</time>
      </trkpt>
      <trkpt lat="43.39481" lon="6.10259">
        <ele>252.80000305176</ele>
        <time>2015-11-25T15:31:40Z</time>
      </trkpt>
      <trkpt lat="43.39487" lon="6.10252">
        <ele>251.80000305176</ele>
        <time>2015-11-25T15:31:42Z</time>
      </trkpt>
      <trkpt lat="43.39492" lon="6.10243">
        <ele>251.80000305176</ele>
        <time>2015-11-25T15:31:44Z</time>
      </trkpt>
      <trkpt lat="43.39497" lon="6.10233">
        <ele>251.60000610352</ele>
        <time>2015-11-25T15:31:46Z</time>
      </trkpt>
      <trkpt lat="43.39502" lon="6.10222">
        <ele>251.19999694824</ele>
        <time>2015-11-25T15:31:48Z</time>
      </trkpt>
      <trkpt lat="43.39505" lon="6.1021">
        <ele>251</ele>
        <time>2015-11-25T15:31:50Z</time>
      </trkpt>
      <trkpt lat="43.39507" lon="6.10204">
        <ele>250.60000610352</ele>
        <time>2015-11-25T15:31:51Z</time>
      </trkpt>
      <trkpt lat="43.39509" lon="6.10197">
        <ele>250.39999389648</ele>
        <time>2015-11-25T15:31:52Z</time>
      </trkpt>
      <trkpt lat="43.39511" lon="6.10184">
        <ele>250.39999389648</ele>
        <time>2015-11-25T15:31:54Z</time>
      </trkpt>
      <trkpt lat="43.39514" lon="6.10177">
        <ele>250.39999389648</ele>
        <time>2015-11-25T15:31:55Z</time>
      </trkpt>
      <trkpt lat="43.39515" lon="6.1017">
        <ele>250.80000305176</ele>
        <time>2015-11-25T15:31:56Z</time>
      </trkpt>
      <trkpt lat="43.39519" lon="6.10157">
        <ele>249.80000305176</ele>
        <time>2015-11-25T15:31:58Z</time>
      </trkpt>
      <trkpt lat="43.39521" lon="6.10151">
        <ele>249.19999694824</ele>
        <time>2015-11-25T15:31:59Z</time>
      </trkpt>
      <trkpt lat="43.39523" lon="6.10144">
        <ele>249.19999694824</ele>
        <time>2015-11-25T15:32:00Z</time>
      </trkpt>
      <trkpt lat="43.39526" lon="6.10131">
        <ele>249</ele>
        <time>2015-11-25T15:32:02Z</time>
      </trkpt>
      <trkpt lat="43.39529" lon="6.10119">
        <ele>248</ele>
        <time>2015-11-25T15:32:04Z</time>
      </trkpt>
      <trkpt lat="43.39531" lon="6.10114">
        <ele>248.19999694824</ele>
        <time>2015-11-25T15:32:05Z</time>
      </trkpt>
      <trkpt lat="43.39534" lon="6.10108">
        <ele>248.39999389648</ele>
        <time>2015-11-25T15:32:06Z</time>
      </trkpt>
      <trkpt lat="43.39539" lon="6.10098">
        <ele>248</ele>
        <time>2015-11-25T15:32:08Z</time>
      </trkpt>
      <trkpt lat="43.39544" lon="6.10088">
        <ele>248</ele>
        <time>2015-11-25T15:32:10Z</time>
      </trkpt>
      <trkpt lat="43.39546" lon="6.10082">
        <ele>247.60000610352</ele>
        <time>2015-11-25T15:32:11Z</time>
      </trkpt>
      <trkpt lat="43.39548" lon="6.10075">
        <ele>247.39999389648</ele>
        <time>2015-11-25T15:32:12Z</time>
      </trkpt>
      <trkpt lat="43.39552" lon="6.10061">
        <ele>247.19999694824</ele>
        <time>2015-11-25T15:32:14Z</time>
      </trkpt>
      <trkpt lat="43.39555" lon="6.10047">
        <ele>246.80000305176</ele>
        <time>2015-11-25T15:32:16Z</time>
      </trkpt>
      <trkpt lat="43.39557" lon="6.1004">
        <ele>246.60000610352</ele>
        <time>2015-11-25T15:32:17Z</time>
      </trkpt>
      <trkpt lat="43.39557" lon="6.10033">
        <ele>246.60000610352</ele>
        <time>2015-11-25T15:32:18Z</time>
      </trkpt>
      <trkpt lat="43.39557" lon="6.10019">
        <ele>246.39999389648</ele>
        <time>2015-11-25T15:32:20Z</time>
      </trkpt>
      <trkpt lat="43.39557" lon="6.10014">
        <ele>246.60000610352</ele>
        <time>2015-11-25T15:32:21Z</time>
      </trkpt>
      <trkpt lat="43.39556" lon="6.10009">
        <ele>246.60000610352</ele>
        <time>2015-11-25T15:32:22Z</time>
      </trkpt>
      <trkpt lat="43.39554" lon="6.09999">
        <ele>247</ele>
        <time>2015-11-25T15:32:24Z</time>
      </trkpt>
      <trkpt lat="43.39557" lon="6.09981">
        <ele>246.39999389648</ele>
        <time>2015-11-25T15:32:28Z</time>
      </trkpt>
      <trkpt lat="43.39557" lon="6.09973">
        <ele>246.60000610352</ele>
        <time>2015-11-25T15:32:30Z</time>
      </trkpt>
      <trkpt lat="43.39558" lon="6.0997">
        <ele>246.80000305176</ele>
        <time>2015-11-25T15:32:31Z</time>
      </trkpt>
      <trkpt lat="43.39559" lon="6.09966">
        <ele>247.19999694824</ele>
        <time>2015-11-25T15:32:32Z</time>
      </trkpt>
      <trkpt lat="43.39558" lon="6.09958">
        <ele>247.80000305176</ele>
        <time>2015-11-25T15:32:34Z</time>
      </trkpt>
      <trkpt lat="43.39557" lon="6.09953">
        <ele>247.60000610352</ele>
        <time>2015-11-25T15:32:35Z</time>
      </trkpt>
      <trkpt lat="43.39555" lon="6.09948">
        <ele>247.80000305176</ele>
        <time>2015-11-25T15:32:36Z</time>
      </trkpt>
      <trkpt lat="43.39553" lon="6.0994">
        <ele>248.60000610352</ele>
        <time>2015-11-25T15:32:38Z</time>
      </trkpt>
      <trkpt lat="43.39552" lon="6.09937">
        <ele>249</ele>
        <time>2015-11-25T15:32:39Z</time>
      </trkpt>
      <trkpt lat="43.3955" lon="6.09934">
        <ele>249</ele>
        <time>2015-11-25T15:32:40Z</time>
      </trkpt>
      <trkpt lat="43.39549" lon="6.09932">
        <ele>249.39999389648</ele>
        <time>2015-11-25T15:32:41Z</time>
      </trkpt>
      <trkpt lat="43.39548" lon="6.09928">
        <ele>249.80000305176</ele>
        <time>2015-11-25T15:32:42Z</time>
      </trkpt>
      <trkpt lat="43.39546" lon="6.09921">
        <ele>250.80000305176</ele>
        <time>2015-11-25T15:32:44Z</time>
      </trkpt>
      <trkpt lat="43.39546" lon="6.09913">
        <ele>251</ele>
        <time>2015-11-25T15:32:46Z</time>
      </trkpt>
      <trkpt lat="43.39548" lon="6.09905">
        <ele>251.60000610352</ele>
        <time>2015-11-25T15:32:48Z</time>
      </trkpt>
      <trkpt lat="43.39551" lon="6.099">
        <ele>251.39999389648</ele>
        <time>2015-11-25T15:32:50Z</time>
      </trkpt>
      <trkpt lat="43.39552" lon="6.09897">
        <ele>251.60000610352</ele>
        <time>2015-11-25T15:32:51Z</time>
      </trkpt>
      <trkpt lat="43.39553" lon="6.09894">
        <ele>251.80000305176</ele>
        <time>2015-11-25T15:32:52Z</time>
      </trkpt>
      <trkpt lat="43.39555" lon="6.09886">
        <ele>251.60000610352</ele>
        <time>2015-11-25T15:32:54Z</time>
      </trkpt>
      <trkpt lat="43.39557" lon="6.09876">
        <ele>251.60000610352</ele>
        <time>2015-11-25T15:32:56Z</time>
      </trkpt>
      <trkpt lat="43.39559" lon="6.09867">
        <ele>251.39999389648</ele>
        <time>2015-11-25T15:32:58Z</time>
      </trkpt>
      <trkpt lat="43.3956" lon="6.09857">
        <ele>251.39999389648</ele>
        <time>2015-11-25T15:33:00Z</time>
      </trkpt>
      <trkpt lat="43.39561" lon="6.09848">
        <ele>251.60000610352</ele>
        <time>2015-11-25T15:33:02Z</time>
      </trkpt>
      <trkpt lat="43.39562" lon="6.09839">
        <ele>251.60000610352</ele>
        <time>2015-11-25T15:33:04Z</time>
      </trkpt>
      <trkpt lat="43.39564" lon="6.0983">
        <ele>251.60000610352</ele>
        <time>2015-11-25T15:33:06Z</time>
      </trkpt>
      <trkpt lat="43.39566" lon="6.09821">
        <ele>251.60000610352</ele>
        <time>2015-11-25T15:33:08Z</time>
      </trkpt>
      <trkpt lat="43.39568" lon="6.09812">
        <ele>251.39999389648</ele>
        <time>2015-11-25T15:33:10Z</time>
      </trkpt>
      <trkpt lat="43.39569" lon="6.09803">
        <ele>251.19999694824</ele>
        <time>2015-11-25T15:33:12Z</time>
      </trkpt>
      <trkpt lat="43.39571" lon="6.09794">
        <ele>251.39999389648</ele>
        <time>2015-11-25T15:33:14Z</time>
      </trkpt>
      <trkpt lat="43.39573" lon="6.09786">
        <ele>251.80000305176</ele>
        <time>2015-11-25T15:33:16Z</time>
      </trkpt>
      <trkpt lat="43.39574" lon="6.09782">
        <ele>251.80000305176</ele>
        <time>2015-11-25T15:33:17Z</time>
      </trkpt>
      <trkpt lat="43.39577" lon="6.09769">
        <ele>252</ele>
        <time>2015-11-25T15:33:20Z</time>
      </trkpt>
      <trkpt lat="43.3958" lon="6.0976">
        <ele>251.80000305176</ele>
        <time>2015-11-25T15:33:22Z</time>
      </trkpt>
      <trkpt lat="43.39583" lon="6.0975">
        <ele>251.80000305176</ele>
        <time>2015-11-25T15:33:24Z</time>
      </trkpt>
      <trkpt lat="43.39586" lon="6.09741">
        <ele>251.80000305176</ele>
        <time>2015-11-25T15:33:26Z</time>
      </trkpt>
      <trkpt lat="43.39592" lon="6.09719">
        <ele>251.80000305176</ele>
        <time>2015-11-25T15:33:30Z</time>
      </trkpt>
      <trkpt lat="43.39593" lon="6.09713">
        <ele>251.80000305176</ele>
        <time>2015-11-25T15:33:31Z</time>
      </trkpt>
      <trkpt lat="43.39594" lon="6.09707">
        <ele>251.80000305176</ele>
        <time>2015-11-25T15:33:32Z</time>
      </trkpt>
      <trkpt lat="43.39597" lon="6.09695">
        <ele>251.60000610352</ele>
        <time>2015-11-25T15:33:34Z</time>
      </trkpt>
      <trkpt lat="43.39602" lon="6.09673">
        <ele>251.19999694824</ele>
        <time>2015-11-25T15:33:38Z</time>
      </trkpt>
      <trkpt lat="43.39604" lon="6.09661">
        <ele>251.60000610352</ele>
        <time>2015-11-25T15:33:40Z</time>
      </trkpt>
      <trkpt lat="43.39606" lon="6.0965">
        <ele>251.39999389648</ele>
        <time>2015-11-25T15:33:42Z</time>
      </trkpt>
      <trkpt lat="43.39609" lon="6.09639">
        <ele>251.60000610352</ele>
        <time>2015-11-25T15:33:44Z</time>
      </trkpt>
      <trkpt lat="43.39611" lon="6.09628">
        <ele>251.19999694824</ele>
        <time>2015-11-25T15:33:46Z</time>
      </trkpt>
      <trkpt lat="43.39613" lon="6.09618">
        <ele>251</ele>
        <time>2015-11-25T15:33:48Z</time>
      </trkpt>
      <trkpt lat="43.39614" lon="6.09609">
        <ele>251.39999389648</ele>
        <time>2015-11-25T15:33:50Z</time>
      </trkpt>
      <trkpt lat="43.39616" lon="6.09601">
        <ele>251.60000610352</ele>
        <time>2015-11-25T15:33:52Z</time>
      </trkpt>
      <trkpt lat="43.39618" lon="6.09595">
        <ele>251.80000305176</ele>
        <time>2015-11-25T15:33:54Z</time>
      </trkpt>
      <trkpt lat="43.39619" lon="6.09592">
        <ele>251.60000610352</ele>
        <time>2015-11-25T15:33:55Z</time>
      </trkpt>
      <trkpt lat="43.39619" lon="6.09591">
        <ele>251.60000610352</ele>
        <time>2015-11-25T15:33:56Z</time>
      </trkpt>
      <trkpt lat="43.3962" lon="6.09589">
        <ele>251.60000610352</ele>
        <time>2015-11-25T15:33:58Z</time>
      </trkpt>
      <trkpt lat="43.3962" lon="6.09589">
        <ele>251.39999389648</ele>
        <time>2015-11-25T15:33:59Z</time>
      </trkpt>
      <trkpt lat="43.3962" lon="6.09589">
        <ele>251.39999389648</ele>
        <time>2015-11-25T15:34:00Z</time>
      </trkpt>
      <trkpt lat="43.3962" lon="6.09589">
        <ele>251.19999694824</ele>
        <time>2015-11-25T15:34:02Z</time>
      </trkpt>
      <trkpt lat="43.3962" lon="6.09589">
        <ele>251.19999694824</ele>
        <time>2015-11-25T15:34:04Z</time>
      </trkpt>
      <trkpt lat="43.3962" lon="6.09589">
        <ele>251.19999694824</ele>
        <time>2015-11-25T15:34:06Z</time>
      </trkpt>
      <trkpt lat="43.39619" lon="6.09589">
        <ele>251.39999389648</ele>
        <time>2015-11-25T15:34:08Z</time>
      </trkpt>
      <trkpt lat="43.39619" lon="6.09589">
        <ele>251.39999389648</ele>
        <time>2015-11-25T15:34:14Z</time>
      </trkpt>
      <trkpt lat="43.39619" lon="6.09589">
        <ele>251.60000610352</ele>
        <time>2015-11-25T15:34:18Z</time>
      </trkpt>
      <trkpt lat="43.3962" lon="6.09589">
        <ele>251.60000610352</ele>
        <time>2015-11-25T15:34:20Z</time>
      </trkpt>
      <trkpt lat="43.3962" lon="6.09589">
        <ele>251.19999694824</ele>
        <time>2015-11-25T15:34:26Z</time>
      </trkpt>
      <trkpt lat="43.3962" lon="6.09589">
        <ele>251</ele>
        <time>2015-11-25T15:34:30Z</time>
      </trkpt>
      <trkpt lat="43.39619" lon="6.09589">
        <ele>251</ele>
        <time>2015-11-25T15:34:32Z</time>
      </trkpt>
      <trkpt lat="43.39619" lon="6.09589">
        <ele>251.19999694824</ele>
        <time>2015-11-25T15:34:34Z</time>
      </trkpt>
      <trkpt lat="43.3962" lon="6.09589">
        <ele>251.19999694824</ele>
        <time>2015-11-25T15:34:36Z</time>
      </trkpt>
      <trkpt lat="43.3962" lon="6.09589">
        <ele>251.39999389648</ele>
        <time>2015-11-25T15:34:40Z</time>
      </trkpt>
      <trkpt lat="43.3962" lon="6.09589">
        <ele>251.80000305176</ele>
        <time>2015-11-25T15:34:56Z</time>
      </trkpt>
      <trkpt lat="43.3962" lon="6.09589">
        <ele>251.80000305176</ele>
        <time>2015-11-25T15:35:02Z</time>
      </trkpt>
      <trkpt lat="43.39619" lon="6.09589">
        <ele>251.80000305176</ele>
        <time>2015-11-25T15:35:04Z</time>
      </trkpt>
      <trkpt lat="43.3962" lon="6.09589">
        <ele>251.80000305176</ele>
        <time>2015-11-25T15:35:06Z</time>
      </trkpt>
      <trkpt lat="43.3962" lon="6.09589">
        <ele>252</ele>
        <time>2015-11-25T15:35:08Z</time>
      </trkpt>
      <trkpt lat="43.3962" lon="6.09589">
        <ele>251.80000305176</ele>
        <time>2015-11-25T15:35:12Z</time>
      </trkpt>
      <trkpt lat="43.3962" lon="6.09589">
        <ele>251.19999694824</ele>
        <time>2015-11-25T15:35:18Z</time>
      </trkpt>
      <trkpt lat="43.3962" lon="6.09589">
        <ele>251.19999694824</ele>
        <time>2015-11-25T15:35:20Z</time>
      </trkpt>
      <trkpt lat="43.39619" lon="6.09589">
        <ele>251.19999694824</ele>
        <time>2015-11-25T15:35:22Z</time>
      </trkpt>
      <trkpt lat="43.39619" lon="6.09589">
        <ele>251</ele>
        <time>2015-11-25T15:35:24Z</time>
      </trkpt>
      <trkpt lat="43.39619" lon="6.09589">
        <ele>251</ele>
        <time>2015-11-25T15:35:26Z</time>
      </trkpt>
      <trkpt lat="43.3962" lon="6.09589">
        <ele>251</ele>
        <time>2015-11-25T15:35:27Z</time>
      </trkpt>
      <trkpt lat="43.3962" lon="6.09589">
        <ele>251</ele>
        <time>2015-11-25T15:35:28Z</time>
      </trkpt>
      <trkpt lat="43.39619" lon="6.09589">
        <ele>251.19999694824</ele>
        <time>2015-11-25T15:35:30Z</time>
      </trkpt>
      <trkpt lat="43.39619" lon="6.09589">
        <ele>251.80000305176</ele>
        <time>2015-11-25T15:35:34Z</time>
      </trkpt>
      <trkpt lat="43.3962" lon="6.09589">
        <ele>251.60000610352</ele>
        <time>2015-11-25T15:35:36Z</time>
      </trkpt>
      <trkpt lat="43.3962" lon="6.09589">
        <ele>252.19999694824</ele>
        <time>2015-11-25T15:35:42Z</time>
      </trkpt>
      <trkpt lat="43.3962" lon="6.09589">
        <ele>251.60000610352</ele>
        <time>2015-11-25T15:35:50Z</time>
      </trkpt>
      <trkpt lat="43.3962" lon="6.09587">
        <ele>251.60000610352</ele>
        <time>2015-11-25T15:35:52Z</time>
      </trkpt>
      <trkpt lat="43.39621" lon="6.09583">
        <ele>251.80000305176</ele>
        <time>2015-11-25T15:35:54Z</time>
      </trkpt>
      <trkpt lat="43.39622" lon="6.09582">
        <ele>251.80000305176</ele>
        <time>2015-11-25T15:35:55Z</time>
      </trkpt>
      <trkpt lat="43.39622" lon="6.09581">
        <ele>251.80000305176</ele>
        <time>2015-11-25T15:35:56Z</time>
      </trkpt>
      <trkpt lat="43.39624" lon="6.0958">
        <ele>251.80000305176</ele>
        <time>2015-11-25T15:35:58Z</time>
      </trkpt>
      <trkpt lat="43.39625" lon="6.09578">
        <ele>251.60000610352</ele>
        <time>2015-11-25T15:36:00Z</time>
      </trkpt>
      <trkpt lat="43.39626" lon="6.09577">
        <ele>251.60000610352</ele>
        <time>2015-11-25T15:36:01Z</time>
      </trkpt>
      <trkpt lat="43.39626" lon="6.09575">
        <ele>251.39999389648</ele>
        <time>2015-11-25T15:36:02Z</time>
      </trkpt>
      <trkpt lat="43.39626" lon="6.09572">
        <ele>251.19999694824</ele>
        <time>2015-11-25T15:36:04Z</time>
      </trkpt>
      <trkpt lat="43.39628" lon="6.09566">
        <ele>250.60000610352</ele>
        <time>2015-11-25T15:36:06Z</time>
      </trkpt>
      <trkpt lat="43.39629" lon="6.09562">
        <ele>250.39999389648</ele>
        <time>2015-11-25T15:36:07Z</time>
      </trkpt>
      <trkpt lat="43.3963" lon="6.09558">
        <ele>250.39999389648</ele>
        <time>2015-11-25T15:36:08Z</time>
      </trkpt>
      <trkpt lat="43.39632" lon="6.09552">
        <ele>250.19999694824</ele>
        <time>2015-11-25T15:36:10Z</time>
      </trkpt>
      <trkpt lat="43.39636" lon="6.09545">
        <ele>249.80000305176</ele>
        <time>2015-11-25T15:36:12Z</time>
      </trkpt>
      <trkpt lat="43.39641" lon="6.0954">
        <ele>249</ele>
        <time>2015-11-25T15:36:14Z</time>
      </trkpt>
      <trkpt lat="43.39647" lon="6.09532">
        <ele>248.80000305176</ele>
        <time>2015-11-25T15:36:16Z</time>
      </trkpt>
      <trkpt lat="43.3965" lon="6.09528">
        <ele>248.39999389648</ele>
        <time>2015-11-25T15:36:17Z</time>
      </trkpt>
      <trkpt lat="43.39653" lon="6.09523">
        <ele>247.80000305176</ele>
        <time>2015-11-25T15:36:18Z</time>
      </trkpt>
      <trkpt lat="43.39658" lon="6.09513">
        <ele>246.60000610352</ele>
        <time>2015-11-25T15:36:20Z</time>
      </trkpt>
      <trkpt lat="43.39662" lon="6.09503">
        <ele>244.60000610352</ele>
        <time>2015-11-25T15:36:22Z</time>
      </trkpt>
      <trkpt lat="43.39667" lon="6.09492">
        <ele>244.39999389648</ele>
        <time>2015-11-25T15:36:24Z</time>
      </trkpt>
      <trkpt lat="43.39671" lon="6.09481">
        <ele>243.60000610352</ele>
        <time>2015-11-25T15:36:26Z</time>
      </trkpt>
      <trkpt lat="43.39672" lon="6.09473">
        <ele>242</ele>
        <time>2015-11-25T15:36:28Z</time>
      </trkpt>
      <trkpt lat="43.39674" lon="6.09468">
        <ele>241.60000610352</ele>
        <time>2015-11-25T15:36:30Z</time>
      </trkpt>
      <trkpt lat="43.39675" lon="6.09465">
        <ele>241.19999694824</ele>
        <time>2015-11-25T15:36:32Z</time>
      </trkpt>
      <trkpt lat="43.39676" lon="6.09465">
        <ele>241</ele>
        <time>2015-11-25T15:36:33Z</time>
      </trkpt>
      <trkpt lat="43.39677" lon="6.09464">
        <ele>240.60000610352</ele>
        <time>2015-11-25T15:36:34Z</time>
      </trkpt>
      <trkpt lat="43.39683" lon="6.09464">
        <ele>239.60000610352</ele>
        <time>2015-11-25T15:36:36Z</time>
      </trkpt>
      <trkpt lat="43.39688" lon="6.09465">
        <ele>238.39999389648</ele>
        <time>2015-11-25T15:36:37Z</time>
      </trkpt>
      <trkpt lat="43.39693" lon="6.09465">
        <ele>237.19999694824</ele>
        <time>2015-11-25T15:36:38Z</time>
      </trkpt>
      <trkpt lat="43.39696" lon="6.09463">
        <ele>236.39999389648</ele>
        <time>2015-11-25T15:36:39Z</time>
      </trkpt>
      <trkpt lat="43.39698" lon="6.09461">
        <ele>236.19999694824</ele>
        <time>2015-11-25T15:36:40Z</time>
      </trkpt>
      <trkpt lat="43.39699" lon="6.09455">
        <ele>236.39999389648</ele>
        <time>2015-11-25T15:36:42Z</time>
      </trkpt>
      <trkpt lat="43.39699" lon="6.09455">
        <ele>236.19999694824</ele>
        <time>2015-11-25T15:36:44Z</time>
      </trkpt>
      <trkpt lat="43.39699" lon="6.09455">
        <ele>236.19999694824</ele>
        <time>2015-11-25T15:36:45Z</time>
      </trkpt>
      <trkpt lat="43.39699" lon="6.09455">
        <ele>236</ele>
        <time>2015-11-25T15:36:46Z</time>
      </trkpt>
      <trkpt lat="43.39699" lon="6.09455">
        <ele>235.80000305176</ele>
        <time>2015-11-25T15:36:48Z</time>
      </trkpt>
      <trkpt lat="43.39699" lon="6.09455">
        <ele>235.60000610352</ele>
        <time>2015-11-25T15:36:50Z</time>
      </trkpt>
      <trkpt lat="43.39699" lon="6.09455">
        <ele>235.80000305176</ele>
        <time>2015-11-25T15:36:52Z</time>
      </trkpt>
      <trkpt lat="43.39699" lon="6.09454">
        <ele>236.19999694824</ele>
        <time>2015-11-25T15:36:54Z</time>
      </trkpt>
      <trkpt lat="43.39697" lon="6.09456">
        <ele>236</ele>
        <time>2015-11-25T15:36:56Z</time>
      </trkpt>
      <trkpt lat="43.39695" lon="6.09459">
        <ele>235.60000610352</ele>
        <time>2015-11-25T15:36:58Z</time>
      </trkpt>
      <trkpt lat="43.39693" lon="6.09462">
        <ele>235.80000305176</ele>
        <time>2015-11-25T15:37:00Z</time>
      </trkpt>
      <trkpt lat="43.39692" lon="6.09463">
        <ele>235.80000305176</ele>
        <time>2015-11-25T15:37:02Z</time>
      </trkpt>
      <trkpt lat="43.39692" lon="6.09463">
        <ele>236</ele>
        <time>2015-11-25T15:37:04Z</time>
      </trkpt>
      <trkpt lat="43.39692" lon="6.09464">
        <ele>236</ele>
        <time>2015-11-25T15:37:08Z</time>
      </trkpt>
      <trkpt lat="43.39692" lon="6.09464">
        <ele>236</ele>
        <time>2015-11-25T15:37:10Z</time>
      </trkpt>
      <trkpt lat="43.39692" lon="6.09464">
        <ele>236</ele>
        <time>2015-11-25T15:37:12Z</time>
      </trkpt>
      <trkpt lat="43.39692" lon="6.09464">
        <ele>236</ele>
        <time>2015-11-25T15:37:16Z</time>
      </trkpt>
      <trkpt lat="43.39692" lon="6.09464">
        <ele>236.19999694824</ele>
        <time>2015-11-25T15:37:18Z</time>
      </trkpt>
      <trkpt lat="43.39693" lon="6.09464">
        <ele>236</ele>
        <time>2015-11-25T15:37:20Z</time>
      </trkpt>
      <trkpt lat="43.39692" lon="6.09463">
        <ele>236.39999389648</ele>
        <time>2015-11-25T15:37:23Z</time>
      </trkpt>
      <trkpt lat="43.39692" lon="6.09464">
        <ele>236.39999389648</ele>
        <time>2015-11-25T15:37:28Z</time>
      </trkpt>
      <trkpt lat="43.39692" lon="6.09464">
        <ele>236.19999694824</ele>
        <time>2015-11-25T15:37:32Z</time>
      </trkpt>
      <trkpt lat="43.39692" lon="6.09464">
        <ele>236</ele>
        <time>2015-11-25T15:37:34Z</time>
      </trkpt>
      <trkpt lat="43.39692" lon="6.09464">
        <ele>236</ele>
        <time>2015-11-25T15:37:36Z</time>
      </trkpt>
      <trkpt lat="43.39692" lon="6.09464">
        <ele>236</ele>
        <time>2015-11-25T15:37:38Z</time>
      </trkpt>
      <trkpt lat="43.39692" lon="6.09464">
        <ele>236.39999389648</ele>
        <time>2015-11-25T15:37:41Z</time>
      </trkpt>
      <trkpt lat="43.39692" lon="6.09464">
        <ele>236</ele>
        <time>2015-11-25T15:37:46Z</time>
      </trkpt>
      <trkpt lat="43.39692" lon="6.09464">
        <ele>236</ele>
        <time>2015-11-25T15:37:52Z</time>
      </trkpt>
      <trkpt lat="43.39692" lon="6.09464">
        <ele>236</ele>
        <time>2015-11-25T15:37:54Z</time>
      </trkpt>
      <trkpt lat="43.39692" lon="6.09464">
        <ele>236.19999694824</ele>
        <time>2015-11-25T15:37:56Z</time>
      </trkpt>
      <trkpt lat="43.39692" lon="6.09464">
        <ele>236.19999694824</ele>
        <time>2015-11-25T15:37:58Z</time>
      </trkpt>
      <trkpt lat="43.39692" lon="6.09464">
        <ele>236</ele>
        <time>2015-11-25T15:38:00Z</time>
      </trkpt>
      <trkpt lat="43.39692" lon="6.09464">
        <ele>236.19999694824</ele>
        <time>2015-11-25T15:38:04Z</time>
      </trkpt>
      <trkpt lat="43.39692" lon="6.09463">
        <ele>236</ele>
        <time>2015-11-25T15:38:06Z</time>
      </trkpt>
      <trkpt lat="43.39692" lon="6.09463">
        <ele>235.80000305176</ele>
        <time>2015-11-25T15:38:07Z</time>
      </trkpt>
      <trkpt lat="43.39692" lon="6.09463">
        <ele>235.80000305176</ele>
        <time>2015-11-25T15:38:08Z</time>
      </trkpt>
      <trkpt lat="43.39692" lon="6.09462">
        <ele>235.80000305176</ele>
        <time>2015-11-25T15:38:09Z</time>
      </trkpt>
      <trkpt lat="43.39693" lon="6.0946">
        <ele>235.80000305176</ele>
        <time>2015-11-25T15:38:10Z</time>
      </trkpt>
      <trkpt lat="43.39696" lon="6.09455">
        <ele>235.60000610352</ele>
        <time>2015-11-25T15:38:12Z</time>
      </trkpt>
      <trkpt lat="43.39701" lon="6.09449">
        <ele>235.39999389648</ele>
        <time>2015-11-25T15:38:14Z</time>
      </trkpt>
      <trkpt lat="43.39706" lon="6.09442">
        <ele>235.80000305176</ele>
        <time>2015-11-25T15:38:16Z</time>
      </trkpt>
      <trkpt lat="43.3971" lon="6.09436">
        <ele>235.60000610352</ele>
        <time>2015-11-25T15:38:18Z</time>
      </trkpt>
      <trkpt lat="43.39715" lon="6.0943">
        <ele>235.39999389648</ele>
        <time>2015-11-25T15:38:20Z</time>
      </trkpt>
      <trkpt lat="43.39719" lon="6.09423">
        <ele>235.19999694824</ele>
        <time>2015-11-25T15:38:22Z</time>
      </trkpt>
      <trkpt lat="43.39723" lon="6.09415">
        <ele>235</ele>
        <time>2015-11-25T15:38:24Z</time>
      </trkpt>
      <trkpt lat="43.39727" lon="6.09409">
        <ele>234.80000305176</ele>
        <time>2015-11-25T15:38:26Z</time>
      </trkpt>
      <trkpt lat="43.3973" lon="6.09405">
        <ele>235</ele>
        <time>2015-11-25T15:38:28Z</time>
      </trkpt>
      <trkpt lat="43.39733" lon="6.094">
        <ele>235</ele>
        <time>2015-11-25T15:38:30Z</time>
      </trkpt>
      <trkpt lat="43.39736" lon="6.09394">
        <ele>234.60000610352</ele>
        <time>2015-11-25T15:38:32Z</time>
      </trkpt>
      <trkpt lat="43.39739" lon="6.09387">
        <ele>234.60000610352</ele>
        <time>2015-11-25T15:38:34Z</time>
      </trkpt>
      <trkpt lat="43.39743" lon="6.0938">
        <ele>234.39999389648</ele>
        <time>2015-11-25T15:38:36Z</time>
      </trkpt>
      <trkpt lat="43.39748" lon="6.09373">
        <ele>234.39999389648</ele>
        <time>2015-11-25T15:38:38Z</time>
      </trkpt>
      <trkpt lat="43.39752" lon="6.09366">
        <ele>234.19999694824</ele>
        <time>2015-11-25T15:38:40Z</time>
      </trkpt>
      <trkpt lat="43.39756" lon="6.09359">
        <ele>234</ele>
        <time>2015-11-25T15:38:42Z</time>
      </trkpt>
      <trkpt lat="43.39761" lon="6.0935">
        <ele>234.19999694824</ele>
        <time>2015-11-25T15:38:44Z</time>
      </trkpt>
      <trkpt lat="43.39766" lon="6.09341">
        <ele>234</ele>
        <time>2015-11-25T15:38:46Z</time>
      </trkpt>
      <trkpt lat="43.39771" lon="6.09332">
        <ele>234</ele>
        <time>2015-11-25T15:38:48Z</time>
      </trkpt>
      <trkpt lat="43.39773" lon="6.09327">
        <ele>234</ele>
        <time>2015-11-25T15:38:49Z</time>
      </trkpt>
      <trkpt lat="43.3978" lon="6.09312">
        <ele>233.80000305176</ele>
        <time>2015-11-25T15:38:52Z</time>
      </trkpt>
      <trkpt lat="43.39783" lon="6.09302">
        <ele>233.80000305176</ele>
        <time>2015-11-25T15:38:54Z</time>
      </trkpt>
      <trkpt lat="43.39786" lon="6.09292">
        <ele>233.80000305176</ele>
        <time>2015-11-25T15:38:56Z</time>
      </trkpt>
      <trkpt lat="43.39788" lon="6.09281">
        <ele>234</ele>
        <time>2015-11-25T15:38:58Z</time>
      </trkpt>
      <trkpt lat="43.39791" lon="6.0927">
        <ele>234.19999694824</ele>
        <time>2015-11-25T15:39:00Z</time>
      </trkpt>
      <trkpt lat="43.39794" lon="6.09259">
        <ele>234.19999694824</ele>
        <time>2015-11-25T15:39:02Z</time>
      </trkpt>
      <trkpt lat="43.39796" lon="6.09248">
        <ele>234</ele>
        <time>2015-11-25T15:39:04Z</time>
      </trkpt>
      <trkpt lat="43.39797" lon="6.09239">
        <ele>234.19999694824</ele>
        <time>2015-11-25T15:39:06Z</time>
      </trkpt>
      <trkpt lat="43.39798" lon="6.09229">
        <ele>234.39999389648</ele>
        <time>2015-11-25T15:39:08Z</time>
      </trkpt>
      <trkpt lat="43.39798" lon="6.0922">
        <ele>234.80000305176</ele>
        <time>2015-11-25T15:39:10Z</time>
      </trkpt>
      <trkpt lat="43.39798" lon="6.09216">
        <ele>235</ele>
        <time>2015-11-25T15:39:11Z</time>
      </trkpt>
      <trkpt lat="43.39799" lon="6.09211">
        <ele>235.19999694824</ele>
        <time>2015-11-25T15:39:12Z</time>
      </trkpt>
      <trkpt lat="43.39799" lon="6.092">
        <ele>234.80000305176</ele>
        <time>2015-11-25T15:39:14Z</time>
      </trkpt>
      <trkpt lat="43.39799" lon="6.09189">
        <ele>235.19999694824</ele>
        <time>2015-11-25T15:39:16Z</time>
      </trkpt>
      <trkpt lat="43.39799" lon="6.09179">
        <ele>235.60000610352</ele>
        <time>2015-11-25T15:39:18Z</time>
      </trkpt>
      <trkpt lat="43.39799" lon="6.09169">
        <ele>235.60000610352</ele>
        <time>2015-11-25T15:39:20Z</time>
      </trkpt>
      <trkpt lat="43.398" lon="6.0916">
        <ele>235.80000305176</ele>
        <time>2015-11-25T15:39:22Z</time>
      </trkpt>
      <trkpt lat="43.39801" lon="6.09151">
        <ele>236</ele>
        <time>2015-11-25T15:39:24Z</time>
      </trkpt>
      <trkpt lat="43.39802" lon="6.09143">
        <ele>236</ele>
        <time>2015-11-25T15:39:26Z</time>
      </trkpt>
      <trkpt lat="43.39803" lon="6.09135">
        <ele>236.19999694824</ele>
        <time>2015-11-25T15:39:28Z</time>
      </trkpt>
      <trkpt lat="43.39804" lon="6.09131">
        <ele>236.19999694824</ele>
        <time>2015-11-25T15:39:29Z</time>
      </trkpt>
      <trkpt lat="43.39805" lon="6.09127">
        <ele>236.60000610352</ele>
        <time>2015-11-25T15:39:30Z</time>
      </trkpt>
      <trkpt lat="43.39806" lon="6.0912">
        <ele>236.39999389648</ele>
        <time>2015-11-25T15:39:32Z</time>
      </trkpt>
      <trkpt lat="43.39808" lon="6.09114">
        <ele>236.80000305176</ele>
        <time>2015-11-25T15:39:34Z</time>
      </trkpt>
      <trkpt lat="43.3981" lon="6.09108">
        <ele>237.19999694824</ele>
        <time>2015-11-25T15:39:36Z</time>
      </trkpt>
      <trkpt lat="43.39812" lon="6.09101">
        <ele>237.39999389648</ele>
        <time>2015-11-25T15:39:38Z</time>
      </trkpt>
      <trkpt lat="43.39812" lon="6.09097">
        <ele>237.39999389648</ele>
        <time>2015-11-25T15:39:39Z</time>
      </trkpt>
      <trkpt lat="43.39814" lon="6.09094">
        <ele>237.39999389648</ele>
        <time>2015-11-25T15:39:40Z</time>
      </trkpt>
      <trkpt lat="43.39815" lon="6.0909">
        <ele>237.39999389648</ele>
        <time>2015-11-25T15:39:41Z</time>
      </trkpt>
      <trkpt lat="43.39817" lon="6.09086">
        <ele>237.39999389648</ele>
        <time>2015-11-25T15:39:42Z</time>
      </trkpt>
      <trkpt lat="43.39824" lon="6.09069">
        <ele>237</ele>
        <time>2015-11-25T15:39:46Z</time>
      </trkpt>
      <trkpt lat="43.39828" lon="6.0906">
        <ele>236.60000610352</ele>
        <time>2015-11-25T15:39:48Z</time>
      </trkpt>
      <trkpt lat="43.39835" lon="6.0905">
        <ele>236.39999389648</ele>
        <time>2015-11-25T15:39:50Z</time>
      </trkpt>
      <trkpt lat="43.39838" lon="6.09045">
        <ele>236.39999389648</ele>
        <time>2015-11-25T15:39:51Z</time>
      </trkpt>
      <trkpt lat="43.39842" lon="6.0904">
        <ele>236.19999694824</ele>
        <time>2015-11-25T15:39:52Z</time>
      </trkpt>
      <trkpt lat="43.39847" lon="6.09037">
        <ele>236</ele>
        <time>2015-11-25T15:39:53Z</time>
      </trkpt>
      <trkpt lat="43.39852" lon="6.09032">
        <ele>235.80000305176</ele>
        <time>2015-11-25T15:39:54Z</time>
      </trkpt>
      <trkpt lat="43.39857" lon="6.09026">
        <ele>235.60000610352</ele>
        <time>2015-11-25T15:39:55Z</time>
      </trkpt>
      <trkpt lat="43.39864" lon="6.09014">
        <ele>234.80000305176</ele>
        <time>2015-11-25T15:39:57Z</time>
      </trkpt>
      <trkpt lat="43.39869" lon="6.09009">
        <ele>234.80000305176</ele>
        <time>2015-11-25T15:39:58Z</time>
      </trkpt>
      <trkpt lat="43.39874" lon="6.09004">
        <ele>234.60000610352</ele>
        <time>2015-11-25T15:39:59Z</time>
      </trkpt>
      <trkpt lat="43.3988" lon="6.08998">
        <ele>234.19999694824</ele>
        <time>2015-11-25T15:40:00Z</time>
      </trkpt>
      <trkpt lat="43.39885" lon="6.08996">
        <ele>233.80000305176</ele>
        <time>2015-11-25T15:40:01Z</time>
      </trkpt>
      <trkpt lat="43.3989" lon="6.08993">
        <ele>233.60000610352</ele>
        <time>2015-11-25T15:40:02Z</time>
      </trkpt>
      <trkpt lat="43.39902" lon="6.08991">
        <ele>233.19999694824</ele>
        <time>2015-11-25T15:40:04Z</time>
      </trkpt>
      <trkpt lat="43.39912" lon="6.0899">
        <ele>233.19999694824</ele>
        <time>2015-11-25T15:40:06Z</time>
      </trkpt>
      <trkpt lat="43.39922" lon="6.0899">
        <ele>232.80000305176</ele>
        <time>2015-11-25T15:40:08Z</time>
      </trkpt>
      <trkpt lat="43.39927" lon="6.0899">
        <ele>232</ele>
        <time>2015-11-25T15:40:09Z</time>
      </trkpt>
      <trkpt lat="43.39938" lon="6.0899">
        <ele>230.80000305176</ele>
        <time>2015-11-25T15:40:11Z</time>
      </trkpt>
      <trkpt lat="43.39945" lon="6.08989">
        <ele>230.80000305176</ele>
        <time>2015-11-25T15:40:12Z</time>
      </trkpt>
      <trkpt lat="43.39958" lon="6.08986">
        <ele>230.39999389648</ele>
        <time>2015-11-25T15:40:14Z</time>
      </trkpt>
      <trkpt lat="43.3997" lon="6.08984">
        <ele>230</ele>
        <time>2015-11-25T15:40:16Z</time>
      </trkpt>
      <trkpt lat="43.39982" lon="6.08983">
        <ele>229.80000305176</ele>
        <time>2015-11-25T15:40:18Z</time>
      </trkpt>
      <trkpt lat="43.39992" lon="6.08981">
        <ele>229.39999389648</ele>
        <time>2015-11-25T15:40:20Z</time>
      </trkpt>
      <trkpt lat="43.40002" lon="6.08979">
        <ele>229.19999694824</ele>
        <time>2015-11-25T15:40:22Z</time>
      </trkpt>
      <trkpt lat="43.40013" lon="6.08976">
        <ele>229</ele>
        <time>2015-11-25T15:40:24Z</time>
      </trkpt>
      <trkpt lat="43.40022" lon="6.08972">
        <ele>228.80000305176</ele>
        <time>2015-11-25T15:40:26Z</time>
      </trkpt>
      <trkpt lat="43.40028" lon="6.08964">
        <ele>229</ele>
        <time>2015-11-25T15:40:28Z</time>
      </trkpt>
      <trkpt lat="43.4003" lon="6.08955">
        <ele>229.19999694824</ele>
        <time>2015-11-25T15:40:30Z</time>
      </trkpt>
      <trkpt lat="43.40031" lon="6.0895">
        <ele>229</ele>
        <time>2015-11-25T15:40:31Z</time>
      </trkpt>
      <trkpt lat="43.40032" lon="6.08945">
        <ele>229</ele>
        <time>2015-11-25T15:40:32Z</time>
      </trkpt>
      <trkpt lat="43.40036" lon="6.08934">
        <ele>228.39999389648</ele>
        <time>2015-11-25T15:40:34Z</time>
      </trkpt>
      <trkpt lat="43.40038" lon="6.08929">
        <ele>228.39999389648</ele>
        <time>2015-11-25T15:40:35Z</time>
      </trkpt>
      <trkpt lat="43.40041" lon="6.08912">
        <ele>228.60000610352</ele>
        <time>2015-11-25T15:40:38Z</time>
      </trkpt>
      <trkpt lat="43.40045" lon="6.08901">
        <ele>228.60000610352</ele>
        <time>2015-11-25T15:40:40Z</time>
      </trkpt>
      <trkpt lat="43.40046" lon="6.08895">
        <ele>228.80000305176</ele>
        <time>2015-11-25T15:40:41Z</time>
      </trkpt>
      <trkpt lat="43.40049" lon="6.0889">
        <ele>228.80000305176</ele>
        <time>2015-11-25T15:40:42Z</time>
      </trkpt>
      <trkpt lat="43.40052" lon="6.08878">
        <ele>228.80000305176</ele>
        <time>2015-11-25T15:40:44Z</time>
      </trkpt>
      <trkpt lat="43.40055" lon="6.08868">
        <ele>229.39999389648</ele>
        <time>2015-11-25T15:40:46Z</time>
      </trkpt>
      <trkpt lat="43.40064" lon="6.08846">
        <ele>229</ele>
        <time>2015-11-25T15:40:50Z</time>
      </trkpt>
      <trkpt lat="43.40068" lon="6.08835">
        <ele>228.80000305176</ele>
        <time>2015-11-25T15:40:52Z</time>
      </trkpt>
      <trkpt lat="43.40071" lon="6.08824">
        <ele>228.80000305176</ele>
        <time>2015-11-25T15:40:54Z</time>
      </trkpt>
      <trkpt lat="43.40076" lon="6.08813">
        <ele>229</ele>
        <time>2015-11-25T15:40:56Z</time>
      </trkpt>
      <trkpt lat="43.4008" lon="6.08803">
        <ele>229.60000610352</ele>
        <time>2015-11-25T15:40:58Z</time>
      </trkpt>
      <trkpt lat="43.40082" lon="6.08798">
        <ele>229.39999389648</ele>
        <time>2015-11-25T15:40:59Z</time>
      </trkpt>
      <trkpt lat="43.40088" lon="6.08779">
        <ele>228.80000305176</ele>
        <time>2015-11-25T15:41:02Z</time>
      </trkpt>
      <trkpt lat="43.40092" lon="6.08766">
        <ele>228.80000305176</ele>
        <time>2015-11-25T15:41:04Z</time>
      </trkpt>
      <trkpt lat="43.40096" lon="6.08754">
        <ele>229.19999694824</ele>
        <time>2015-11-25T15:41:06Z</time>
      </trkpt>
      <trkpt lat="43.40099" lon="6.08741">
        <ele>229</ele>
        <time>2015-11-25T15:41:08Z</time>
      </trkpt>
      <trkpt lat="43.40101" lon="6.08728">
        <ele>228.80000305176</ele>
        <time>2015-11-25T15:41:10Z</time>
      </trkpt>
      <trkpt lat="43.40104" lon="6.08715">
        <ele>228.39999389648</ele>
        <time>2015-11-25T15:41:12Z</time>
      </trkpt>
      <trkpt lat="43.40105" lon="6.08702">
        <ele>229.19999694824</ele>
        <time>2015-11-25T15:41:14Z</time>
      </trkpt>
      <trkpt lat="43.40105" lon="6.08689">
        <ele>228.60000610352</ele>
        <time>2015-11-25T15:41:16Z</time>
      </trkpt>
      <trkpt lat="43.40102" lon="6.08676">
        <ele>227.80000305176</ele>
        <time>2015-11-25T15:41:18Z</time>
      </trkpt>
      <trkpt lat="43.401" lon="6.08668">
        <ele>227.60000610352</ele>
        <time>2015-11-25T15:41:19Z</time>
      </trkpt>
      <trkpt lat="43.401" lon="6.08661">
        <ele>227.39999389648</ele>
        <time>2015-11-25T15:41:20Z</time>
      </trkpt>
      <trkpt lat="43.40102" lon="6.08646">
        <ele>226.80000305176</ele>
        <time>2015-11-25T15:41:22Z</time>
      </trkpt>
      <trkpt lat="43.40105" lon="6.0864">
        <ele>225.39999389648</ele>
        <time>2015-11-25T15:41:23Z</time>
      </trkpt>
      <trkpt lat="43.40109" lon="6.08634">
        <ele>225.19999694824</ele>
        <time>2015-11-25T15:41:24Z</time>
      </trkpt>
      <trkpt lat="43.40118" lon="6.08625">
        <ele>225.60000610352</ele>
        <time>2015-11-25T15:41:26Z</time>
      </trkpt>
      <trkpt lat="43.40126" lon="6.08617">
        <ele>225.39999389648</ele>
        <time>2015-11-25T15:41:28Z</time>
      </trkpt>
      <trkpt lat="43.4013" lon="6.08613">
        <ele>225.39999389648</ele>
        <time>2015-11-25T15:41:29Z</time>
      </trkpt>
      <trkpt lat="43.40134" lon="6.08609">
        <ele>225</ele>
        <time>2015-11-25T15:41:30Z</time>
      </trkpt>
      <trkpt lat="43.40138" lon="6.08605">
        <ele>224.80000305176</ele>
        <time>2015-11-25T15:41:31Z</time>
      </trkpt>
      <trkpt lat="43.40142" lon="6.08601">
        <ele>224.80000305176</ele>
        <time>2015-11-25T15:41:32Z</time>
      </trkpt>
      <trkpt lat="43.40151" lon="6.08596">
        <ele>224.60000610352</ele>
        <time>2015-11-25T15:41:34Z</time>
      </trkpt>
      <trkpt lat="43.40159" lon="6.08592">
        <ele>224.80000305176</ele>
        <time>2015-11-25T15:41:36Z</time>
      </trkpt>
      <trkpt lat="43.40163" lon="6.08589">
        <ele>224.60000610352</ele>
        <time>2015-11-25T15:41:37Z</time>
      </trkpt>
      <trkpt lat="43.40166" lon="6.08586">
        <ele>224.80000305176</ele>
        <time>2015-11-25T15:41:38Z</time>
      </trkpt>
      <trkpt lat="43.40169" lon="6.08581">
        <ele>225.19999694824</ele>
        <time>2015-11-25T15:41:39Z</time>
      </trkpt>
      <trkpt lat="43.4017" lon="6.08564">
        <ele>224</ele>
        <time>2015-11-25T15:41:42Z</time>
      </trkpt>
      <trkpt lat="43.4017" lon="6.08559">
        <ele>224</ele>
        <time>2015-11-25T15:41:43Z</time>
      </trkpt>
      <trkpt lat="43.4017" lon="6.08554">
        <ele>224.19999694824</ele>
        <time>2015-11-25T15:41:44Z</time>
      </trkpt>
      <trkpt lat="43.4017" lon="6.08543">
        <ele>224.60000610352</ele>
        <time>2015-11-25T15:41:46Z</time>
      </trkpt>
      <trkpt lat="43.4017" lon="6.08532">
        <ele>225.39999389648</ele>
        <time>2015-11-25T15:41:48Z</time>
      </trkpt>
      <trkpt lat="43.4017" lon="6.08521">
        <ele>225.60000610352</ele>
        <time>2015-11-25T15:41:50Z</time>
      </trkpt>
      <trkpt lat="43.40171" lon="6.08516">
        <ele>225.39999389648</ele>
        <time>2015-11-25T15:41:51Z</time>
      </trkpt>
      <trkpt lat="43.40171" lon="6.0851">
        <ele>225.19999694824</ele>
        <time>2015-11-25T15:41:52Z</time>
      </trkpt>
      <trkpt lat="43.40173" lon="6.08501">
        <ele>225.19999694824</ele>
        <time>2015-11-25T15:41:54Z</time>
      </trkpt>
      <trkpt lat="43.40176" lon="6.08492">
        <ele>225.80000305176</ele>
        <time>2015-11-25T15:41:56Z</time>
      </trkpt>
      <trkpt lat="43.40181" lon="6.08461">
        <ele>225.60000610352</ele>
        <time>2015-11-25T15:42:02Z</time>
      </trkpt>
      <trkpt lat="43.40181" lon="6.08456">
        <ele>226</ele>
        <time>2015-11-25T15:42:03Z</time>
      </trkpt>
      <trkpt lat="43.40182" lon="6.0845">
        <ele>226</ele>
        <time>2015-11-25T15:42:04Z</time>
      </trkpt>
      <trkpt lat="43.40182" lon="6.08438">
        <ele>226</ele>
        <time>2015-11-25T15:42:06Z</time>
      </trkpt>
      <trkpt lat="43.40184" lon="6.08426">
        <ele>226</ele>
        <time>2015-11-25T15:42:08Z</time>
      </trkpt>
      <trkpt lat="43.40184" lon="6.08407">
        <ele>225.19999694824</ele>
        <time>2015-11-25T15:42:11Z</time>
      </trkpt>
      <trkpt lat="43.40185" lon="6.08382">
        <ele>225.80000305176</ele>
        <time>2015-11-25T15:42:15Z</time>
      </trkpt>
      <trkpt lat="43.40186" lon="6.08375">
        <ele>226</ele>
        <time>2015-11-25T15:42:16Z</time>
      </trkpt>
      <trkpt lat="43.40186" lon="6.08362">
        <ele>225.60000610352</ele>
        <time>2015-11-25T15:42:18Z</time>
      </trkpt>
      <trkpt lat="43.40187" lon="6.08349">
        <ele>225.39999389648</ele>
        <time>2015-11-25T15:42:20Z</time>
      </trkpt>
      <trkpt lat="43.40187" lon="6.08335">
        <ele>225.80000305176</ele>
        <time>2015-11-25T15:42:22Z</time>
      </trkpt>
      <trkpt lat="43.40187" lon="6.08323">
        <ele>225.39999389648</ele>
        <time>2015-11-25T15:42:24Z</time>
      </trkpt>
      <trkpt lat="43.40188" lon="6.08311">
        <ele>225</ele>
        <time>2015-11-25T15:42:26Z</time>
      </trkpt>
      <trkpt lat="43.40189" lon="6.08301">
        <ele>224.39999389648</ele>
        <time>2015-11-25T15:42:28Z</time>
      </trkpt>
      <trkpt lat="43.4019" lon="6.08296">
        <ele>224.39999389648</ele>
        <time>2015-11-25T15:42:29Z</time>
      </trkpt>
      <trkpt lat="43.40191" lon="6.08291">
        <ele>224.39999389648</ele>
        <time>2015-11-25T15:42:30Z</time>
      </trkpt>
      <trkpt lat="43.40192" lon="6.08282">
        <ele>224</ele>
        <time>2015-11-25T15:42:32Z</time>
      </trkpt>
      <trkpt lat="43.40191" lon="6.08277">
        <ele>223.80000305176</ele>
        <time>2015-11-25T15:42:34Z</time>
      </trkpt>
      <trkpt lat="43.4019" lon="6.08276">
        <ele>224.39999389648</ele>
        <time>2015-11-25T15:42:36Z</time>
      </trkpt>
      <trkpt lat="43.40189" lon="6.08275">
        <ele>224.39999389648</ele>
        <time>2015-11-25T15:42:38Z</time>
      </trkpt>
      <trkpt lat="43.40189" lon="6.08275">
        <ele>224.39999389648</ele>
        <time>2015-11-25T15:42:40Z</time>
      </trkpt>
      <trkpt lat="43.40189" lon="6.08275">
        <ele>224.80000305176</ele>
        <time>2015-11-25T15:42:42Z</time>
      </trkpt>
      <trkpt lat="43.40189" lon="6.08275">
        <ele>225.19999694824</ele>
        <time>2015-11-25T15:42:44Z</time>
      </trkpt>
      <trkpt lat="43.40189" lon="6.08275">
        <ele>225.80000305176</ele>
        <time>2015-11-25T15:42:50Z</time>
      </trkpt>
      <trkpt lat="43.40189" lon="6.08275">
        <ele>225.39999389648</ele>
        <time>2015-11-25T15:42:54Z</time>
      </trkpt>
      <trkpt lat="43.40189" lon="6.08275">
        <ele>225.39999389648</ele>
        <time>2015-11-25T15:42:56Z</time>
      </trkpt>
      <trkpt lat="43.40189" lon="6.08275">
        <ele>225.19999694824</ele>
        <time>2015-11-25T15:42:58Z</time>
      </trkpt>
      <trkpt lat="43.40189" lon="6.08275">
        <ele>224.60000610352</ele>
        <time>2015-11-25T15:43:02Z</time>
      </trkpt>
      <trkpt lat="43.40189" lon="6.08274">
        <ele>224.19999694824</ele>
        <time>2015-11-25T15:43:16Z</time>
      </trkpt>
      <trkpt lat="43.40189" lon="6.08274">
        <ele>224.39999389648</ele>
        <time>2015-11-25T15:43:18Z</time>
      </trkpt>
      <trkpt lat="43.40189" lon="6.08274">
        <ele>224.39999389648</ele>
        <time>2015-11-25T15:43:20Z</time>
      </trkpt>
      <trkpt lat="43.40189" lon="6.08273">
        <ele>224.39999389648</ele>
        <time>2015-11-25T15:43:22Z</time>
      </trkpt>
      <trkpt lat="43.40189" lon="6.08272">
        <ele>224.19999694824</ele>
        <time>2015-11-25T15:43:24Z</time>
      </trkpt>
      <trkpt lat="43.40189" lon="6.08272">
        <ele>224.39999389648</ele>
        <time>2015-11-25T15:43:26Z</time>
      </trkpt>
      <trkpt lat="43.40189" lon="6.08267">
        <ele>224.19999694824</ele>
        <time>2015-11-25T15:43:30Z</time>
      </trkpt>
      <trkpt lat="43.40188" lon="6.08266">
        <ele>224.19999694824</ele>
        <time>2015-11-25T15:43:32Z</time>
      </trkpt>
      <trkpt lat="43.40188" lon="6.08264">
        <ele>224.39999389648</ele>
        <time>2015-11-25T15:43:34Z</time>
      </trkpt>
      <trkpt lat="43.40187" lon="6.08253">
        <ele>224.19999694824</ele>
        <time>2015-11-25T15:43:37Z</time>
      </trkpt>
      <trkpt lat="43.40187" lon="6.08249">
        <ele>224</ele>
        <time>2015-11-25T15:43:38Z</time>
      </trkpt>
      <trkpt lat="43.40188" lon="6.08239">
        <ele>224</ele>
        <time>2015-11-25T15:43:40Z</time>
      </trkpt>
      <trkpt lat="43.4019" lon="6.08228">
        <ele>224.19999694824</ele>
        <time>2015-11-25T15:43:42Z</time>
      </trkpt>
      <trkpt lat="43.40193" lon="6.08218">
        <ele>224</ele>
        <time>2015-11-25T15:43:44Z</time>
      </trkpt>
      <trkpt lat="43.40196" lon="6.08206">
        <ele>224.39999389648</ele>
        <time>2015-11-25T15:43:46Z</time>
      </trkpt>
      <trkpt lat="43.40199" lon="6.08193">
        <ele>224.19999694824</ele>
        <time>2015-11-25T15:43:48Z</time>
      </trkpt>
      <trkpt lat="43.40201" lon="6.08179">
        <ele>224</ele>
        <time>2015-11-25T15:43:50Z</time>
      </trkpt>
      <trkpt lat="43.40202" lon="6.08165">
        <ele>223.39999389648</ele>
        <time>2015-11-25T15:43:52Z</time>
      </trkpt>
      <trkpt lat="43.40203" lon="6.0815">
        <ele>222.39999389648</ele>
        <time>2015-11-25T15:43:54Z</time>
      </trkpt>
      <trkpt lat="43.40203" lon="6.08142">
        <ele>221.80000305176</ele>
        <time>2015-11-25T15:43:55Z</time>
      </trkpt>
      <trkpt lat="43.40203" lon="6.08135">
        <ele>221.80000305176</ele>
        <time>2015-11-25T15:43:56Z</time>
      </trkpt>
      <trkpt lat="43.40199" lon="6.08125">
        <ele>222</ele>
        <time>2015-11-25T15:43:58Z</time>
      </trkpt>
      <trkpt lat="43.40196" lon="6.0812">
        <ele>222</ele>
        <time>2015-11-25T15:44:00Z</time>
      </trkpt>
      <trkpt lat="43.40195" lon="6.08113">
        <ele>222</ele>
        <time>2015-11-25T15:44:02Z</time>
      </trkpt>
      <trkpt lat="43.40195" lon="6.08104">
        <ele>222</ele>
        <time>2015-11-25T15:44:04Z</time>
      </trkpt>
      <trkpt lat="43.40195" lon="6.08094">
        <ele>221.60000610352</ele>
        <time>2015-11-25T15:44:06Z</time>
      </trkpt>
      <trkpt lat="43.40198" lon="6.08085">
        <ele>221.60000610352</ele>
        <time>2015-11-25T15:44:08Z</time>
      </trkpt>
      <trkpt lat="43.40202" lon="6.08076">
        <ele>221.19999694824</ele>
        <time>2015-11-25T15:44:10Z</time>
      </trkpt>
      <trkpt lat="43.40207" lon="6.08067">
        <ele>220.60000610352</ele>
        <time>2015-11-25T15:44:12Z</time>
      </trkpt>
      <trkpt lat="43.40213" lon="6.08058">
        <ele>220.39999389648</ele>
        <time>2015-11-25T15:44:14Z</time>
      </trkpt>
      <trkpt lat="43.40219" lon="6.0805">
        <ele>220.60000610352</ele>
        <time>2015-11-25T15:44:16Z</time>
      </trkpt>
      <trkpt lat="43.40227" lon="6.08041">
        <ele>220.39999389648</ele>
        <time>2015-11-25T15:44:18Z</time>
      </trkpt>
      <trkpt lat="43.40234" lon="6.08032">
        <ele>219.39999389648</ele>
        <time>2015-11-25T15:44:20Z</time>
      </trkpt>
      <trkpt lat="43.4024" lon="6.08024">
        <ele>218.80000305176</ele>
        <time>2015-11-25T15:44:22Z</time>
      </trkpt>
      <trkpt lat="43.40247" lon="6.08015">
        <ele>218.39999389648</ele>
        <time>2015-11-25T15:44:24Z</time>
      </trkpt>
      <trkpt lat="43.40253" lon="6.08007">
        <ele>218.39999389648</ele>
        <time>2015-11-25T15:44:26Z</time>
      </trkpt>
      <trkpt lat="43.40257" lon="6.08003">
        <ele>218</ele>
        <time>2015-11-25T15:44:27Z</time>
      </trkpt>
      <trkpt lat="43.4026" lon="6.07998">
        <ele>217.80000305176</ele>
        <time>2015-11-25T15:44:28Z</time>
      </trkpt>
      <trkpt lat="43.40267" lon="6.07988">
        <ele>217.39999389648</ele>
        <time>2015-11-25T15:44:30Z</time>
      </trkpt>
      <trkpt lat="43.40274" lon="6.07976">
        <ele>217.19999694824</ele>
        <time>2015-11-25T15:44:32Z</time>
      </trkpt>
      <trkpt lat="43.4028" lon="6.07963">
        <ele>217</ele>
        <time>2015-11-25T15:44:34Z</time>
      </trkpt>
      <trkpt lat="43.40286" lon="6.07948">
        <ele>217.19999694824</ele>
        <time>2015-11-25T15:44:36Z</time>
      </trkpt>
      <trkpt lat="43.40291" lon="6.07933">
        <ele>217.19999694824</ele>
        <time>2015-11-25T15:44:38Z</time>
      </trkpt>
      <trkpt lat="43.40294" lon="6.07917">
        <ele>216.19999694824</ele>
        <time>2015-11-25T15:44:40Z</time>
      </trkpt>
      <trkpt lat="43.40296" lon="6.07901">
        <ele>215.39999389648</ele>
        <time>2015-11-25T15:44:42Z</time>
      </trkpt>
      <trkpt lat="43.40298" lon="6.07886">
        <ele>215.19999694824</ele>
        <time>2015-11-25T15:44:44Z</time>
      </trkpt>
      <trkpt lat="43.403" lon="6.07873">
        <ele>215</ele>
        <time>2015-11-25T15:44:46Z</time>
      </trkpt>
      <trkpt lat="43.40302" lon="6.07859">
        <ele>214.39999389648</ele>
        <time>2015-11-25T15:44:48Z</time>
      </trkpt>
      <trkpt lat="43.40303" lon="6.07853">
        <ele>214.19999694824</ele>
        <time>2015-11-25T15:44:49Z</time>
      </trkpt>
      <trkpt lat="43.40303" lon="6.07846">
        <ele>214</ele>
        <time>2015-11-25T15:44:50Z</time>
      </trkpt>
      <trkpt lat="43.40307" lon="6.07818">
        <ele>214.19999694824</ele>
        <time>2015-11-25T15:44:54Z</time>
      </trkpt>
      <trkpt lat="43.40308" lon="6.07804">
        <ele>214</ele>
        <time>2015-11-25T15:44:56Z</time>
      </trkpt>
      <trkpt lat="43.4031" lon="6.0779">
        <ele>213.39999389648</ele>
        <time>2015-11-25T15:44:58Z</time>
      </trkpt>
      <trkpt lat="43.40312" lon="6.07777">
        <ele>213.19999694824</ele>
        <time>2015-11-25T15:45:00Z</time>
      </trkpt>
      <trkpt lat="43.40313" lon="6.07764">
        <ele>213</ele>
        <time>2015-11-25T15:45:02Z</time>
      </trkpt>
      <trkpt lat="43.40315" lon="6.07751">
        <ele>213</ele>
        <time>2015-11-25T15:45:04Z</time>
      </trkpt>
      <trkpt lat="43.40316" lon="6.07745">
        <ele>212.80000305176</ele>
        <time>2015-11-25T15:45:05Z</time>
      </trkpt>
      <trkpt lat="43.40317" lon="6.07738">
        <ele>212.60000610352</ele>
        <time>2015-11-25T15:45:06Z</time>
      </trkpt>
      <trkpt lat="43.4032" lon="6.07725">
        <ele>212.39999389648</ele>
        <time>2015-11-25T15:45:08Z</time>
      </trkpt>
      <trkpt lat="43.40322" lon="6.07718">
        <ele>212.19999694824</ele>
        <time>2015-11-25T15:45:09Z</time>
      </trkpt>
      <trkpt lat="43.40325" lon="6.07711">
        <ele>212</ele>
        <time>2015-11-25T15:45:10Z</time>
      </trkpt>
      <trkpt lat="43.40327" lon="6.07705">
        <ele>212</ele>
        <time>2015-11-25T15:45:11Z</time>
      </trkpt>
      <trkpt lat="43.40331" lon="6.077">
        <ele>211.60000610352</ele>
        <time>2015-11-25T15:45:12Z</time>
      </trkpt>
      <trkpt lat="43.40336" lon="6.07691">
        <ele>211.60000610352</ele>
        <time>2015-11-25T15:45:14Z</time>
      </trkpt>
      <trkpt lat="43.40342" lon="6.07684">
        <ele>211.60000610352</ele>
        <time>2015-11-25T15:45:16Z</time>
      </trkpt>
      <trkpt lat="43.40349" lon="6.07678">
        <ele>211</ele>
        <time>2015-11-25T15:45:18Z</time>
      </trkpt>
      <trkpt lat="43.40356" lon="6.0767">
        <ele>211</ele>
        <time>2015-11-25T15:45:20Z</time>
      </trkpt>
      <trkpt lat="43.40363" lon="6.07663">
        <ele>210.80000305176</ele>
        <time>2015-11-25T15:45:22Z</time>
      </trkpt>
      <trkpt lat="43.40365" lon="6.07659">
        <ele>211</ele>
        <time>2015-11-25T15:45:23Z</time>
      </trkpt>
      <trkpt lat="43.40368" lon="6.07654">
        <ele>211</ele>
        <time>2015-11-25T15:45:24Z</time>
      </trkpt>
      <trkpt lat="43.40371" lon="6.07643">
        <ele>211.19999694824</ele>
        <time>2015-11-25T15:45:26Z</time>
      </trkpt>
      <trkpt lat="43.40373" lon="6.07632">
        <ele>211.19999694824</ele>
        <time>2015-11-25T15:45:28Z</time>
      </trkpt>
      <trkpt lat="43.40375" lon="6.07621">
        <ele>210.80000305176</ele>
        <time>2015-11-25T15:45:30Z</time>
      </trkpt>
      <trkpt lat="43.40376" lon="6.0761">
        <ele>210.80000305176</ele>
        <time>2015-11-25T15:45:32Z</time>
      </trkpt>
      <trkpt lat="43.40377" lon="6.07598">
        <ele>211.19999694824</ele>
        <time>2015-11-25T15:45:34Z</time>
      </trkpt>
      <trkpt lat="43.40377" lon="6.07587">
        <ele>211.39999389648</ele>
        <time>2015-11-25T15:45:36Z</time>
      </trkpt>
      <trkpt lat="43.40377" lon="6.07575">
        <ele>211</ele>
        <time>2015-11-25T15:45:38Z</time>
      </trkpt>
      <trkpt lat="43.40377" lon="6.07562">
        <ele>211.39999389648</ele>
        <time>2015-11-25T15:45:40Z</time>
      </trkpt>
      <trkpt lat="43.40378" lon="6.07549">
        <ele>212</ele>
        <time>2015-11-25T15:45:42Z</time>
      </trkpt>
      <trkpt lat="43.40378" lon="6.07543">
        <ele>212</ele>
        <time>2015-11-25T15:45:43Z</time>
      </trkpt>
      <trkpt lat="43.40379" lon="6.07528">
        <ele>212</ele>
        <time>2015-11-25T15:45:46Z</time>
      </trkpt>
      <trkpt lat="43.4038" lon="6.07518">
        <ele>211.80000305176</ele>
        <time>2015-11-25T15:45:48Z</time>
      </trkpt>
      <trkpt lat="43.40381" lon="6.07508">
        <ele>211.60000610352</ele>
        <time>2015-11-25T15:45:50Z</time>
      </trkpt>
      <trkpt lat="43.40383" lon="6.07498">
        <ele>212.39999389648</ele>
        <time>2015-11-25T15:45:52Z</time>
      </trkpt>
      <trkpt lat="43.40385" lon="6.07488">
        <ele>212.19999694824</ele>
        <time>2015-11-25T15:45:54Z</time>
      </trkpt>
      <trkpt lat="43.40388" lon="6.07477">
        <ele>212</ele>
        <time>2015-11-25T15:45:56Z</time>
      </trkpt>
      <trkpt lat="43.40392" lon="6.07444">
        <ele>212.39999389648</ele>
        <time>2015-11-25T15:46:02Z</time>
      </trkpt>
      <trkpt lat="43.40393" lon="6.07433">
        <ele>212.60000610352</ele>
        <time>2015-11-25T15:46:04Z</time>
      </trkpt>
      <trkpt lat="43.40395" lon="6.07416">
        <ele>212</ele>
        <time>2015-11-25T15:46:07Z</time>
      </trkpt>
      <trkpt lat="43.40395" lon="6.07411">
        <ele>211.80000305176</ele>
        <time>2015-11-25T15:46:08Z</time>
      </trkpt>
      <trkpt lat="43.40395" lon="6.07399">
        <ele>211.39999389648</ele>
        <time>2015-11-25T15:46:10Z</time>
      </trkpt>
      <trkpt lat="43.40395" lon="6.07387">
        <ele>211.19999694824</ele>
        <time>2015-11-25T15:46:12Z</time>
      </trkpt>
      <trkpt lat="43.40395" lon="6.07381">
        <ele>211.19999694824</ele>
        <time>2015-11-25T15:46:13Z</time>
      </trkpt>
      <trkpt lat="43.40394" lon="6.07375">
        <ele>211.19999694824</ele>
        <time>2015-11-25T15:46:14Z</time>
      </trkpt>
      <trkpt lat="43.40392" lon="6.07359">
        <ele>210.80000305176</ele>
        <time>2015-11-25T15:46:17Z</time>
      </trkpt>
      <trkpt lat="43.40391" lon="6.07353">
        <ele>210.60000610352</ele>
        <time>2015-11-25T15:46:18Z</time>
      </trkpt>
      <trkpt lat="43.40389" lon="6.07342">
        <ele>210.60000610352</ele>
        <time>2015-11-25T15:46:20Z</time>
      </trkpt>
      <trkpt lat="43.40388" lon="6.07338">
        <ele>210.60000610352</ele>
        <time>2015-11-25T15:46:21Z</time>
      </trkpt>
      <trkpt lat="43.40388" lon="6.07332">
        <ele>210.39999389648</ele>
        <time>2015-11-25T15:46:22Z</time>
      </trkpt>
      <trkpt lat="43.40387" lon="6.07322">
        <ele>210.19999694824</ele>
        <time>2015-11-25T15:46:24Z</time>
      </trkpt>
      <trkpt lat="43.40386" lon="6.07317">
        <ele>209.80000305176</ele>
        <time>2015-11-25T15:46:25Z</time>
      </trkpt>
      <trkpt lat="43.40385" lon="6.07312">
        <ele>209.39999389648</ele>
        <time>2015-11-25T15:46:26Z</time>
      </trkpt>
      <trkpt lat="43.40385" lon="6.07302">
        <ele>209</ele>
        <time>2015-11-25T15:46:28Z</time>
      </trkpt>
      <trkpt lat="43.40389" lon="6.07292">
        <ele>208.60000610352</ele>
        <time>2015-11-25T15:46:30Z</time>
      </trkpt>
      <trkpt lat="43.40396" lon="6.07285">
        <ele>208.19999694824</ele>
        <time>2015-11-25T15:46:32Z</time>
      </trkpt>
      <trkpt lat="43.40407" lon="6.07283">
        <ele>207.80000305176</ele>
        <time>2015-11-25T15:46:34Z</time>
      </trkpt>
      <trkpt lat="43.40412" lon="6.07284">
        <ele>207.60000610352</ele>
        <time>2015-11-25T15:46:35Z</time>
      </trkpt>
      <trkpt lat="43.40418" lon="6.07284">
        <ele>207.39999389648</ele>
        <time>2015-11-25T15:46:36Z</time>
      </trkpt>
      <trkpt lat="43.40431" lon="6.07284">
        <ele>207.19999694824</ele>
        <time>2015-11-25T15:46:38Z</time>
      </trkpt>
      <trkpt lat="43.40445" lon="6.07284">
        <ele>206.39999389648</ele>
        <time>2015-11-25T15:46:40Z</time>
      </trkpt>
      <trkpt lat="43.40459" lon="6.07282">
        <ele>205.60000610352</ele>
        <time>2015-11-25T15:46:42Z</time>
      </trkpt>
      <trkpt lat="43.40466" lon="6.07282">
        <ele>205</ele>
        <time>2015-11-25T15:46:43Z</time>
      </trkpt>
      <trkpt lat="43.40487" lon="6.07281">
        <ele>204.19999694824</ele>
        <time>2015-11-25T15:46:46Z</time>
      </trkpt>
      <trkpt lat="43.40493" lon="6.07281">
        <ele>204.19999694824</ele>
        <time>2015-11-25T15:46:47Z</time>
      </trkpt>
      <trkpt lat="43.405" lon="6.07282">
        <ele>204.19999694824</ele>
        <time>2015-11-25T15:46:48Z</time>
      </trkpt>
      <trkpt lat="43.40511" lon="6.07287">
        <ele>204</ele>
        <time>2015-11-25T15:46:50Z</time>
      </trkpt>
      <trkpt lat="43.40514" lon="6.07291">
        <ele>203.80000305176</ele>
        <time>2015-11-25T15:46:51Z</time>
      </trkpt>
      <trkpt lat="43.40518" lon="6.07297">
        <ele>203.39999389648</ele>
        <time>2015-11-25T15:46:52Z</time>
      </trkpt>
      <trkpt lat="43.40526" lon="6.07303">
        <ele>203.19999694824</ele>
        <time>2015-11-25T15:46:54Z</time>
      </trkpt>
      <trkpt lat="43.40533" lon="6.07301">
        <ele>203</ele>
        <time>2015-11-25T15:46:56Z</time>
      </trkpt>
      <trkpt lat="43.40536" lon="6.07301">
        <ele>203</ele>
        <time>2015-11-25T15:46:57Z</time>
      </trkpt>
      <trkpt lat="43.4054" lon="6.07301">
        <ele>202.80000305176</ele>
        <time>2015-11-25T15:46:58Z</time>
      </trkpt>
      <trkpt lat="43.40542" lon="6.07301">
        <ele>202.80000305176</ele>
        <time>2015-11-25T15:46:59Z</time>
      </trkpt>
      <trkpt lat="43.40543" lon="6.07301">
        <ele>203</ele>
        <time>2015-11-25T15:47:00Z</time>
      </trkpt>
      <trkpt lat="43.40545" lon="6.07302">
        <ele>203</ele>
        <time>2015-11-25T15:47:02Z</time>
      </trkpt>
      <trkpt lat="43.40545" lon="6.07301">
        <ele>202.60000610352</ele>
        <time>2015-11-25T15:47:06Z</time>
      </trkpt>
      <trkpt lat="43.40545" lon="6.07301">
        <ele>202.80000305176</ele>
        <time>2015-11-25T15:47:08Z</time>
      </trkpt>
      <trkpt lat="43.40545" lon="6.07301">
        <ele>202.60000610352</ele>
        <time>2015-11-25T15:47:20Z</time>
      </trkpt>
      <trkpt lat="43.40545" lon="6.07301">
        <ele>202.80000305176</ele>
        <time>2015-11-25T15:47:26Z</time>
      </trkpt>
      <trkpt lat="43.40545" lon="6.07301">
        <ele>203</ele>
        <time>2015-11-25T15:47:29Z</time>
      </trkpt>
      <trkpt lat="43.40546" lon="6.07301">
        <ele>203</ele>
        <time>2015-11-25T15:47:30Z</time>
      </trkpt>
      <trkpt lat="43.4055" lon="6.07302">
        <ele>203</ele>
        <time>2015-11-25T15:47:32Z</time>
      </trkpt>
      <trkpt lat="43.40556" lon="6.07304">
        <ele>202.80000305176</ele>
        <time>2015-11-25T15:47:34Z</time>
      </trkpt>
      <trkpt lat="43.40564" lon="6.07306">
        <ele>202.39999389648</ele>
        <time>2015-11-25T15:47:36Z</time>
      </trkpt>
      <trkpt lat="43.40573" lon="6.07307">
        <ele>202.39999389648</ele>
        <time>2015-11-25T15:47:38Z</time>
      </trkpt>
      <trkpt lat="43.40577" lon="6.07307">
        <ele>202.39999389648</ele>
        <time>2015-11-25T15:47:39Z</time>
      </trkpt>
      <trkpt lat="43.40583" lon="6.07306">
        <ele>202.39999389648</ele>
        <time>2015-11-25T15:47:40Z</time>
      </trkpt>
      <trkpt lat="43.40591" lon="6.07302">
        <ele>202.80000305176</ele>
        <time>2015-11-25T15:47:42Z</time>
      </trkpt>
      <trkpt lat="43.40598" lon="6.07299">
        <ele>202.19999694824</ele>
        <time>2015-11-25T15:47:44Z</time>
      </trkpt>
      <trkpt lat="43.40606" lon="6.07304">
        <ele>202</ele>
        <time>2015-11-25T15:47:46Z</time>
      </trkpt>
      <trkpt lat="43.40614" lon="6.07312">
        <ele>202</ele>
        <time>2015-11-25T15:47:48Z</time>
      </trkpt>
      <trkpt lat="43.4062" lon="6.07322">
        <ele>202</ele>
        <time>2015-11-25T15:47:50Z</time>
      </trkpt>
      <trkpt lat="43.40622" lon="6.07328">
        <ele>202</ele>
        <time>2015-11-25T15:47:51Z</time>
      </trkpt>
      <trkpt lat="43.40624" lon="6.07333">
        <ele>202</ele>
        <time>2015-11-25T15:47:52Z</time>
      </trkpt>
      <trkpt lat="43.40627" lon="6.07337">
        <ele>201.80000305176</ele>
        <time>2015-11-25T15:47:53Z</time>
      </trkpt>
      <trkpt lat="43.40631" lon="6.0734">
        <ele>201.39999389648</ele>
        <time>2015-11-25T15:47:54Z</time>
      </trkpt>
      <trkpt lat="43.40635" lon="6.0734">
        <ele>200.80000305176</ele>
        <time>2015-11-25T15:47:55Z</time>
      </trkpt>
      <trkpt lat="43.40642" lon="6.07332">
        <ele>200.19999694824</ele>
        <time>2015-11-25T15:47:57Z</time>
      </trkpt>
      <trkpt lat="43.40645" lon="6.07326">
        <ele>200</ele>
        <time>2015-11-25T15:47:58Z</time>
      </trkpt>
      <trkpt lat="43.40654" lon="6.07319">
        <ele>200</ele>
        <time>2015-11-25T15:48:00Z</time>
      </trkpt>
      <trkpt lat="43.40665" lon="6.07312">
        <ele>199.60000610352</ele>
        <time>2015-11-25T15:48:02Z</time>
      </trkpt>
      <trkpt lat="43.40677" lon="6.07305">
        <ele>199.19999694824</ele>
        <time>2015-11-25T15:48:04Z</time>
      </trkpt>
      <trkpt lat="43.40689" lon="6.07298">
        <ele>199.39999389648</ele>
        <time>2015-11-25T15:48:06Z</time>
      </trkpt>
      <trkpt lat="43.40701" lon="6.07292">
        <ele>198.80000305176</ele>
        <time>2015-11-25T15:48:08Z</time>
      </trkpt>
      <trkpt lat="43.40712" lon="6.07286">
        <ele>198.39999389648</ele>
        <time>2015-11-25T15:48:10Z</time>
      </trkpt>
      <trkpt lat="43.40723" lon="6.0728">
        <ele>198</ele>
        <time>2015-11-25T15:48:12Z</time>
      </trkpt>
      <trkpt lat="43.40733" lon="6.07275">
        <ele>197.60000610352</ele>
        <time>2015-11-25T15:48:14Z</time>
      </trkpt>
      <trkpt lat="43.40742" lon="6.07269">
        <ele>197.39999389648</ele>
        <time>2015-11-25T15:48:16Z</time>
      </trkpt>
      <trkpt lat="43.40752" lon="6.07263">
        <ele>197.39999389648</ele>
        <time>2015-11-25T15:48:18Z</time>
      </trkpt>
      <trkpt lat="43.40763" lon="6.07257">
        <ele>197</ele>
        <time>2015-11-25T15:48:20Z</time>
      </trkpt>
      <trkpt lat="43.40768" lon="6.07254">
        <ele>197</ele>
        <time>2015-11-25T15:48:21Z</time>
      </trkpt>
      <trkpt lat="43.40773" lon="6.07251">
        <ele>197</ele>
        <time>2015-11-25T15:48:22Z</time>
      </trkpt>
      <trkpt lat="43.40783" lon="6.07245">
        <ele>197</ele>
        <time>2015-11-25T15:48:24Z</time>
      </trkpt>
      <trkpt lat="43.40792" lon="6.07236">
        <ele>197</ele>
        <time>2015-11-25T15:48:26Z</time>
      </trkpt>
      <trkpt lat="43.408" lon="6.07228">
        <ele>196.60000610352</ele>
        <time>2015-11-25T15:48:28Z</time>
      </trkpt>
      <trkpt lat="43.40808" lon="6.0722">
        <ele>196.60000610352</ele>
        <time>2015-11-25T15:48:30Z</time>
      </trkpt>
      <trkpt lat="43.40815" lon="6.0721">
        <ele>197.19999694824</ele>
        <time>2015-11-25T15:48:32Z</time>
      </trkpt>
      <trkpt lat="43.40821" lon="6.072">
        <ele>197</ele>
        <time>2015-11-25T15:48:34Z</time>
      </trkpt>
      <trkpt lat="43.40826" lon="6.07192">
        <ele>196.39999389648</ele>
        <time>2015-11-25T15:48:36Z</time>
      </trkpt>
      <trkpt lat="43.40829" lon="6.07185">
        <ele>196.39999389648</ele>
        <time>2015-11-25T15:48:38Z</time>
      </trkpt>
      <trkpt lat="43.40831" lon="6.0718">
        <ele>196.39999389648</ele>
        <time>2015-11-25T15:48:39Z</time>
      </trkpt>
      <trkpt lat="43.40834" lon="6.07175">
        <ele>196.60000610352</ele>
        <time>2015-11-25T15:48:40Z</time>
      </trkpt>
      <trkpt lat="43.40838" lon="6.07164">
        <ele>196.39999389648</ele>
        <time>2015-11-25T15:48:42Z</time>
      </trkpt>
      <trkpt lat="43.40842" lon="6.07154">
        <ele>196.60000610352</ele>
        <time>2015-11-25T15:48:44Z</time>
      </trkpt>
      <trkpt lat="43.40845" lon="6.07143">
        <ele>196.19999694824</ele>
        <time>2015-11-25T15:48:46Z</time>
      </trkpt>
      <trkpt lat="43.40847" lon="6.07133">
        <ele>196.19999694824</ele>
        <time>2015-11-25T15:48:48Z</time>
      </trkpt>
      <trkpt lat="43.40849" lon="6.07122">
        <ele>196.19999694824</ele>
        <time>2015-11-25T15:48:50Z</time>
      </trkpt>
      <trkpt lat="43.4085" lon="6.07111">
        <ele>195.80000305176</ele>
        <time>2015-11-25T15:48:52Z</time>
      </trkpt>
      <trkpt lat="43.40852" lon="6.07099">
        <ele>196</ele>
        <time>2015-11-25T15:48:54Z</time>
      </trkpt>
      <trkpt lat="43.40852" lon="6.07089">
        <ele>196.39999389648</ele>
        <time>2015-11-25T15:48:56Z</time>
      </trkpt>
      <trkpt lat="43.40853" lon="6.07078">
        <ele>196.39999389648</ele>
        <time>2015-11-25T15:48:58Z</time>
      </trkpt>
      <trkpt lat="43.40852" lon="6.07067">
        <ele>196.19999694824</ele>
        <time>2015-11-25T15:49:00Z</time>
      </trkpt>
      <trkpt lat="43.40852" lon="6.07056">
        <ele>196.39999389648</ele>
        <time>2015-11-25T15:49:02Z</time>
      </trkpt>
      <trkpt lat="43.40851" lon="6.07051">
        <ele>196.39999389648</ele>
        <time>2015-11-25T15:49:03Z</time>
      </trkpt>
      <trkpt lat="43.4085" lon="6.07046">
        <ele>196.60000610352</ele>
        <time>2015-11-25T15:49:04Z</time>
      </trkpt>
      <trkpt lat="43.40849" lon="6.07037">
        <ele>196.80000305176</ele>
        <time>2015-11-25T15:49:06Z</time>
      </trkpt>
      <trkpt lat="43.40848" lon="6.07029">
        <ele>196.80000305176</ele>
        <time>2015-11-25T15:49:08Z</time>
      </trkpt>
      <trkpt lat="43.40847" lon="6.0702">
        <ele>196.60000610352</ele>
        <time>2015-11-25T15:49:10Z</time>
      </trkpt>
      <trkpt lat="43.40852" lon="6.07013">
        <ele>196</ele>
        <time>2015-11-25T15:49:12Z</time>
      </trkpt>
      <trkpt lat="43.40855" lon="6.07011">
        <ele>196</ele>
        <time>2015-11-25T15:49:13Z</time>
      </trkpt>
      <trkpt lat="43.40859" lon="6.07011">
        <ele>196</ele>
        <time>2015-11-25T15:49:14Z</time>
      </trkpt>
      <trkpt lat="43.40866" lon="6.07009">
        <ele>195.60000610352</ele>
        <time>2015-11-25T15:49:16Z</time>
      </trkpt>
      <trkpt lat="43.40871" lon="6.07008">
        <ele>195.19999694824</ele>
        <time>2015-11-25T15:49:17Z</time>
      </trkpt>
      <trkpt lat="43.40875" lon="6.07007">
        <ele>194.80000305176</ele>
        <time>2015-11-25T15:49:18Z</time>
      </trkpt>
      <trkpt lat="43.40885" lon="6.07005">
        <ele>194.19999694824</ele>
        <time>2015-11-25T15:49:20Z</time>
      </trkpt>
      <trkpt lat="43.40889" lon="6.07004">
        <ele>194</ele>
        <time>2015-11-25T15:49:21Z</time>
      </trkpt>
      <trkpt lat="43.40893" lon="6.07003">
        <ele>193.80000305176</ele>
        <time>2015-11-25T15:49:22Z</time>
      </trkpt>
      <trkpt lat="43.409" lon="6.07001">
        <ele>194.19999694824</ele>
        <time>2015-11-25T15:49:24Z</time>
      </trkpt>
      <trkpt lat="43.40907" lon="6.06994">
        <ele>195</ele>
        <time>2015-11-25T15:49:26Z</time>
      </trkpt>
      <trkpt lat="43.4091" lon="6.06984">
        <ele>195.60000610352</ele>
        <time>2015-11-25T15:49:28Z</time>
      </trkpt>
      <trkpt lat="43.40911" lon="6.06971">
        <ele>196</ele>
        <time>2015-11-25T15:49:30Z</time>
      </trkpt>
      <trkpt lat="43.40913" lon="6.06961">
        <ele>195.80000305176</ele>
        <time>2015-11-25T15:49:32Z</time>
      </trkpt>
      <trkpt lat="43.40915" lon="6.06957">
        <ele>195.80000305176</ele>
        <time>2015-11-25T15:49:33Z</time>
      </trkpt>
      <trkpt lat="43.40919" lon="6.06954">
        <ele>196</ele>
        <time>2015-11-25T15:49:34Z</time>
      </trkpt>
      <trkpt lat="43.40928" lon="6.06953">
        <ele>195.39999389648</ele>
        <time>2015-11-25T15:49:36Z</time>
      </trkpt>
      <trkpt lat="43.40937" lon="6.06951">
        <ele>195.39999389648</ele>
        <time>2015-11-25T15:49:38Z</time>
      </trkpt>
      <trkpt lat="43.40942" lon="6.0695">
        <ele>195.39999389648</ele>
        <time>2015-11-25T15:49:39Z</time>
      </trkpt>
      <trkpt lat="43.40947" lon="6.06949">
        <ele>195.19999694824</ele>
        <time>2015-11-25T15:49:40Z</time>
      </trkpt>
      <trkpt lat="43.40956" lon="6.06947">
        <ele>194.60000610352</ele>
        <time>2015-11-25T15:49:42Z</time>
      </trkpt>
      <trkpt lat="43.40973" lon="6.06939">
        <ele>194.80000305176</ele>
        <time>2015-11-25T15:49:46Z</time>
      </trkpt>
      <trkpt lat="43.40989" lon="6.06932">
        <ele>195.19999694824</ele>
        <time>2015-11-25T15:49:50Z</time>
      </trkpt>
      <trkpt lat="43.40998" lon="6.06929">
        <ele>195.39999389648</ele>
        <time>2015-11-25T15:49:52Z</time>
      </trkpt>
      <trkpt lat="43.41006" lon="6.06925">
        <ele>195.39999389648</ele>
        <time>2015-11-25T15:49:54Z</time>
      </trkpt>
      <trkpt lat="43.41013" lon="6.0692">
        <ele>195.39999389648</ele>
        <time>2015-11-25T15:49:56Z</time>
      </trkpt>
      <trkpt lat="43.41019" lon="6.06913">
        <ele>195.60000610352</ele>
        <time>2015-11-25T15:49:58Z</time>
      </trkpt>
      <trkpt lat="43.4102" lon="6.06904">
        <ele>195.60000610352</ele>
        <time>2015-11-25T15:50:00Z</time>
      </trkpt>
      <trkpt lat="43.41021" lon="6.069">
        <ele>195.80000305176</ele>
        <time>2015-11-25T15:50:01Z</time>
      </trkpt>
      <trkpt lat="43.41022" lon="6.06896">
        <ele>195.80000305176</ele>
        <time>2015-11-25T15:50:02Z</time>
      </trkpt>
      <trkpt lat="43.41026" lon="6.06891">
        <ele>195.60000610352</ele>
        <time>2015-11-25T15:50:04Z</time>
      </trkpt>
      <trkpt lat="43.41027" lon="6.0689">
        <ele>195.80000305176</ele>
        <time>2015-11-25T15:50:05Z</time>
      </trkpt>
      <trkpt lat="43.41029" lon="6.0689">
        <ele>195.80000305176</ele>
        <time>2015-11-25T15:50:06Z</time>
      </trkpt>
      <trkpt lat="43.41032" lon="6.06888">
        <ele>195.60000610352</ele>
        <time>2015-11-25T15:50:08Z</time>
      </trkpt>
      <trkpt lat="43.41034" lon="6.06885">
        <ele>195.39999389648</ele>
        <time>2015-11-25T15:50:10Z</time>
      </trkpt>
      <trkpt lat="43.41037" lon="6.06883">
        <ele>195.39999389648</ele>
        <time>2015-11-25T15:50:12Z</time>
      </trkpt>
      <trkpt lat="43.4104" lon="6.06881">
        <ele>195.39999389648</ele>
        <time>2015-11-25T15:50:14Z</time>
      </trkpt>
      <trkpt lat="43.4105" lon="6.06877">
        <ele>196.60000610352</ele>
        <time>2015-11-25T15:50:20Z</time>
      </trkpt>
      <trkpt lat="43.41053" lon="6.06876">
        <ele>197</ele>
        <time>2015-11-25T15:50:22Z</time>
      </trkpt>
      <trkpt lat="43.41058" lon="6.06875">
        <ele>197.19999694824</ele>
        <time>2015-11-25T15:50:24Z</time>
      </trkpt>
      <trkpt lat="43.41063" lon="6.06874">
        <ele>197.19999694824</ele>
        <time>2015-11-25T15:50:26Z</time>
      </trkpt>
      <trkpt lat="43.41066" lon="6.06872">
        <ele>197.19999694824</ele>
        <time>2015-11-25T15:50:28Z</time>
      </trkpt>
      <trkpt lat="43.41066" lon="6.06869">
        <ele>197.19999694824</ele>
        <time>2015-11-25T15:50:29Z</time>
      </trkpt>
      <trkpt lat="43.41066" lon="6.06865">
        <ele>197.19999694824</ele>
        <time>2015-11-25T15:50:30Z</time>
      </trkpt>
      <trkpt lat="43.41068" lon="6.06854">
        <ele>196.19999694824</ele>
        <time>2015-11-25T15:50:32Z</time>
      </trkpt>
      <trkpt lat="43.41068" lon="6.06848">
        <ele>196</ele>
        <time>2015-11-25T15:50:33Z</time>
      </trkpt>
      <trkpt lat="43.41069" lon="6.06843">
        <ele>196.19999694824</ele>
        <time>2015-11-25T15:50:34Z</time>
      </trkpt>
      <trkpt lat="43.41071" lon="6.06833">
        <ele>196.39999389648</ele>
        <time>2015-11-25T15:50:36Z</time>
      </trkpt>
      <trkpt lat="43.41074" lon="6.06825">
        <ele>195.60000610352</ele>
        <time>2015-11-25T15:50:38Z</time>
      </trkpt>
      <trkpt lat="43.41078" lon="6.06819">
        <ele>196</ele>
        <time>2015-11-25T15:50:40Z</time>
      </trkpt>
      <trkpt lat="43.41081" lon="6.06811">
        <ele>196</ele>
        <time>2015-11-25T15:50:42Z</time>
      </trkpt>
      <trkpt lat="43.41084" lon="6.068">
        <ele>195.80000305176</ele>
        <time>2015-11-25T15:50:44Z</time>
      </trkpt>
      <trkpt lat="43.41085" lon="6.0679">
        <ele>195.39999389648</ele>
        <time>2015-11-25T15:50:46Z</time>
      </trkpt>
      <trkpt lat="43.41085" lon="6.06784">
        <ele>195.19999694824</ele>
        <time>2015-11-25T15:50:47Z</time>
      </trkpt>
      <trkpt lat="43.41085" lon="6.06779">
        <ele>195.19999694824</ele>
        <time>2015-11-25T15:50:48Z</time>
      </trkpt>
      <trkpt lat="43.41087" lon="6.06768">
        <ele>195.80000305176</ele>
        <time>2015-11-25T15:50:50Z</time>
      </trkpt>
      <trkpt lat="43.41089" lon="6.06759">
        <ele>196</ele>
        <time>2015-11-25T15:50:52Z</time>
      </trkpt>
      <trkpt lat="43.41094" lon="6.06752">
        <ele>195.80000305176</ele>
        <time>2015-11-25T15:50:54Z</time>
      </trkpt>
      <trkpt lat="43.41105" lon="6.06742">
        <ele>196</ele>
        <time>2015-11-25T15:50:58Z</time>
      </trkpt>
      <trkpt lat="43.41111" lon="6.06737">
        <ele>196.19999694824</ele>
        <time>2015-11-25T15:51:00Z</time>
      </trkpt>
      <trkpt lat="43.41117" lon="6.06732">
        <ele>196.19999694824</ele>
        <time>2015-11-25T15:51:02Z</time>
      </trkpt>
      <trkpt lat="43.41124" lon="6.06729">
        <ele>196</ele>
        <time>2015-11-25T15:51:04Z</time>
      </trkpt>
      <trkpt lat="43.41132" lon="6.06726">
        <ele>196</ele>
        <time>2015-11-25T15:51:06Z</time>
      </trkpt>
      <trkpt lat="43.4114" lon="6.06724">
        <ele>196.19999694824</ele>
        <time>2015-11-25T15:51:08Z</time>
      </trkpt>
      <trkpt lat="43.41147" lon="6.06721">
        <ele>196.19999694824</ele>
        <time>2015-11-25T15:51:10Z</time>
      </trkpt>
      <trkpt lat="43.41154" lon="6.06719">
        <ele>196</ele>
        <time>2015-11-25T15:51:12Z</time>
      </trkpt>
      <trkpt lat="43.41161" lon="6.06719">
        <ele>196.19999694824</ele>
        <time>2015-11-25T15:51:14Z</time>
      </trkpt>
      <trkpt lat="43.41166" lon="6.06719">
        <ele>196.19999694824</ele>
        <time>2015-11-25T15:51:16Z</time>
      </trkpt>
      <trkpt lat="43.41171" lon="6.06719">
        <ele>196.60000610352</ele>
        <time>2015-11-25T15:51:18Z</time>
      </trkpt>
      <trkpt lat="43.41183" lon="6.06721">
        <ele>196.80000305176</ele>
        <time>2015-11-25T15:51:22Z</time>
      </trkpt>
      <trkpt lat="43.4119" lon="6.06721">
        <ele>196.60000610352</ele>
        <time>2015-11-25T15:51:24Z</time>
      </trkpt>
      <trkpt lat="43.41196" lon="6.06722">
        <ele>196.80000305176</ele>
        <time>2015-11-25T15:51:26Z</time>
      </trkpt>
      <trkpt lat="43.41208" lon="6.06722">
        <ele>197</ele>
        <time>2015-11-25T15:51:30Z</time>
      </trkpt>
      <trkpt lat="43.41214" lon="6.06721">
        <ele>197</ele>
        <time>2015-11-25T15:51:32Z</time>
      </trkpt>
      <trkpt lat="43.41217" lon="6.06721">
        <ele>197</ele>
        <time>2015-11-25T15:51:33Z</time>
      </trkpt>
      <trkpt lat="43.4122" lon="6.06721">
        <ele>196.80000305176</ele>
        <time>2015-11-25T15:51:34Z</time>
      </trkpt>
      <trkpt lat="43.41227" lon="6.0672">
        <ele>196.39999389648</ele>
        <time>2015-11-25T15:51:36Z</time>
      </trkpt>
      <trkpt lat="43.41235" lon="6.06719">
        <ele>196.80000305176</ele>
        <time>2015-11-25T15:51:38Z</time>
      </trkpt>
      <trkpt lat="43.41241" lon="6.06719">
        <ele>197.19999694824</ele>
        <time>2015-11-25T15:51:40Z</time>
      </trkpt>
      <trkpt lat="43.41243" lon="6.06719">
        <ele>197.60000610352</ele>
        <time>2015-11-25T15:51:41Z</time>
      </trkpt>
      <trkpt lat="43.41246" lon="6.06719">
        <ele>198</ele>
        <time>2015-11-25T15:51:42Z</time>
      </trkpt>
      <trkpt lat="43.41247" lon="6.06718">
        <ele>198.19999694824</ele>
        <time>2015-11-25T15:51:43Z</time>
      </trkpt>
      <trkpt lat="43.41248" lon="6.06718">
        <ele>198.39999389648</ele>
        <time>2015-11-25T15:51:44Z</time>
      </trkpt>
      <trkpt lat="43.41249" lon="6.06717">
        <ele>198.60000610352</ele>
        <time>2015-11-25T15:51:45Z</time>
      </trkpt>
      <trkpt lat="43.41249" lon="6.06717">
        <ele>198.80000305176</ele>
        <time>2015-11-25T15:51:46Z</time>
      </trkpt>
      <trkpt lat="43.4125" lon="6.06716">
        <ele>198.60000610352</ele>
        <time>2015-11-25T15:51:48Z</time>
      </trkpt>
      <trkpt lat="43.4125" lon="6.06716">
        <ele>198.39999389648</ele>
        <time>2015-11-25T15:51:52Z</time>
      </trkpt>
      <trkpt lat="43.4125" lon="6.06716">
        <ele>198.19999694824</ele>
        <time>2015-11-25T15:51:54Z</time>
      </trkpt>
      <trkpt lat="43.4125" lon="6.06716">
        <ele>198.39999389648</ele>
        <time>2015-11-25T15:51:56Z</time>
      </trkpt>
      <trkpt lat="43.4125" lon="6.06716">
        <ele>198.39999389648</ele>
        <time>2015-11-25T15:51:58Z</time>
      </trkpt>
      <trkpt lat="43.41251" lon="6.06715">
        <ele>198.80000305176</ele>
        <time>2015-11-25T15:52:00Z</time>
      </trkpt>
      <trkpt lat="43.41251" lon="6.06715">
        <ele>198.60000610352</ele>
        <time>2015-11-25T15:52:02Z</time>
      </trkpt>
      <trkpt lat="43.41251" lon="6.06715">
        <ele>198.19999694824</ele>
        <time>2015-11-25T15:52:04Z</time>
      </trkpt>
      <trkpt lat="43.41253" lon="6.06716">
        <ele>198.19999694824</ele>
        <time>2015-11-25T15:52:06Z</time>
      </trkpt>
      <trkpt lat="43.41256" lon="6.06719">
        <ele>198.19999694824</ele>
        <time>2015-11-25T15:52:08Z</time>
      </trkpt>
      <trkpt lat="43.41259" lon="6.06724">
        <ele>198.39999389648</ele>
        <time>2015-11-25T15:52:10Z</time>
      </trkpt>
      <trkpt lat="43.41263" lon="6.06729">
        <ele>198.80000305176</ele>
        <time>2015-11-25T15:52:12Z</time>
      </trkpt>
      <trkpt lat="43.41267" lon="6.06735">
        <ele>199</ele>
        <time>2015-11-25T15:52:14Z</time>
      </trkpt>
      <trkpt lat="43.41268" lon="6.06738">
        <ele>199.19999694824</ele>
        <time>2015-11-25T15:52:15Z</time>
      </trkpt>
      <trkpt lat="43.41272" lon="6.06749">
        <ele>199.60000610352</ele>
        <time>2015-11-25T15:52:18Z</time>
      </trkpt>
      <trkpt lat="43.41276" lon="6.06756">
        <ele>199.80000305176</ele>
        <time>2015-11-25T15:52:20Z</time>
      </trkpt>
      <trkpt lat="43.41288" lon="6.06776">
        <ele>200</ele>
        <time>2015-11-25T15:52:26Z</time>
      </trkpt>
      <trkpt lat="43.41293" lon="6.06782">
        <ele>200</ele>
        <time>2015-11-25T15:52:28Z</time>
      </trkpt>
      <trkpt lat="43.41298" lon="6.06787">
        <ele>200.19999694824</ele>
        <time>2015-11-25T15:52:30Z</time>
      </trkpt>
      <trkpt lat="43.41309" lon="6.06799">
        <ele>200.80000305176</ele>
        <time>2015-11-25T15:52:34Z</time>
      </trkpt>
      <trkpt lat="43.41315" lon="6.06804">
        <ele>200.80000305176</ele>
        <time>2015-11-25T15:52:36Z</time>
      </trkpt>
      <trkpt lat="43.41321" lon="6.06808">
        <ele>201.19999694824</ele>
        <time>2015-11-25T15:52:38Z</time>
      </trkpt>
      <trkpt lat="43.41326" lon="6.06811">
        <ele>201.19999694824</ele>
        <time>2015-11-25T15:52:40Z</time>
      </trkpt>
      <trkpt lat="43.41331" lon="6.06813">
        <ele>201.39999389648</ele>
        <time>2015-11-25T15:52:42Z</time>
      </trkpt>
      <trkpt lat="43.41336" lon="6.06816">
        <ele>201.19999694824</ele>
        <time>2015-11-25T15:52:44Z</time>
      </trkpt>
      <trkpt lat="43.41342" lon="6.0682">
        <ele>201.39999389648</ele>
        <time>2015-11-25T15:52:46Z</time>
      </trkpt>
      <trkpt lat="43.41348" lon="6.06823">
        <ele>201.60000610352</ele>
        <time>2015-11-25T15:52:48Z</time>
      </trkpt>
      <trkpt lat="43.41353" lon="6.06825">
        <ele>201.60000610352</ele>
        <time>2015-11-25T15:52:50Z</time>
      </trkpt>
      <trkpt lat="43.41359" lon="6.06827">
        <ele>202.19999694824</ele>
        <time>2015-11-25T15:52:52Z</time>
      </trkpt>
      <trkpt lat="43.41365" lon="6.0683">
        <ele>202.19999694824</ele>
        <time>2015-11-25T15:52:54Z</time>
      </trkpt>
      <trkpt lat="43.4137" lon="6.06833">
        <ele>201.80000305176</ele>
        <time>2015-11-25T15:52:56Z</time>
      </trkpt>
      <trkpt lat="43.41377" lon="6.06835">
        <ele>201.80000305176</ele>
        <time>2015-11-25T15:52:58Z</time>
      </trkpt>
      <trkpt lat="43.41384" lon="6.0684">
        <ele>202</ele>
        <time>2015-11-25T15:53:00Z</time>
      </trkpt>
      <trkpt lat="43.4139" lon="6.06843">
        <ele>202</ele>
        <time>2015-11-25T15:53:02Z</time>
      </trkpt>
      <trkpt lat="43.41402" lon="6.06855">
        <ele>201.60000610352</ele>
        <time>2015-11-25T15:53:06Z</time>
      </trkpt>
      <trkpt lat="43.41407" lon="6.06861">
        <ele>201.60000610352</ele>
        <time>2015-11-25T15:53:08Z</time>
      </trkpt>
      <trkpt lat="43.4141" lon="6.06864">
        <ele>201.39999389648</ele>
        <time>2015-11-25T15:53:09Z</time>
      </trkpt>
      <trkpt lat="43.41412" lon="6.06867">
        <ele>201.19999694824</ele>
        <time>2015-11-25T15:53:10Z</time>
      </trkpt>
      <trkpt lat="43.41413" lon="6.0687">
        <ele>201</ele>
        <time>2015-11-25T15:53:11Z</time>
      </trkpt>
      <trkpt lat="43.41414" lon="6.06873">
        <ele>201</ele>
        <time>2015-11-25T15:53:12Z</time>
      </trkpt>
      <trkpt lat="43.41415" lon="6.06875">
        <ele>201</ele>
        <time>2015-11-25T15:53:13Z</time>
      </trkpt>
      <trkpt lat="43.41415" lon="6.06875">
        <ele>201.19999694824</ele>
        <time>2015-11-25T15:53:14Z</time>
      </trkpt>
      <trkpt lat="43.41415" lon="6.06875">
        <ele>201.39999389648</ele>
        <time>2015-11-25T15:53:16Z</time>
      </trkpt>
      <trkpt lat="43.41415" lon="6.06875">
        <ele>201.19999694824</ele>
        <time>2015-11-25T15:53:18Z</time>
      </trkpt>
      <trkpt lat="43.41415" lon="6.06875">
        <ele>201.19999694824</ele>
        <time>2015-11-25T15:53:20Z</time>
      </trkpt>
      <trkpt lat="43.41415" lon="6.06876">
        <ele>201.60000610352</ele>
        <time>2015-11-25T15:53:22Z</time>
      </trkpt>
      <trkpt lat="43.41416" lon="6.06877">
        <ele>201.39999389648</ele>
        <time>2015-11-25T15:53:24Z</time>
      </trkpt>
      <trkpt lat="43.41417" lon="6.06878">
        <ele>201.39999389648</ele>
        <time>2015-11-25T15:53:26Z</time>
      </trkpt>
      <trkpt lat="43.41418" lon="6.06882">
        <ele>201.60000610352</ele>
        <time>2015-11-25T15:53:28Z</time>
      </trkpt>
      <trkpt lat="43.4142" lon="6.06888">
        <ele>201.80000305176</ele>
        <time>2015-11-25T15:53:30Z</time>
      </trkpt>
      <trkpt lat="43.41419" lon="6.06892">
        <ele>201.60000610352</ele>
        <time>2015-11-25T15:53:31Z</time>
      </trkpt>
      <trkpt lat="43.4142" lon="6.06896">
        <ele>201.60000610352</ele>
        <time>2015-11-25T15:53:32Z</time>
      </trkpt>
      <trkpt lat="43.41424" lon="6.06904">
        <ele>201.39999389648</ele>
        <time>2015-11-25T15:53:34Z</time>
      </trkpt>
      <trkpt lat="43.41426" lon="6.06908">
        <ele>201.39999389648</ele>
        <time>2015-11-25T15:53:35Z</time>
      </trkpt>
      <trkpt lat="43.41428" lon="6.06912">
        <ele>201.80000305176</ele>
        <time>2015-11-25T15:53:36Z</time>
      </trkpt>
      <trkpt lat="43.41434" lon="6.06918">
        <ele>202</ele>
        <time>2015-11-25T15:53:38Z</time>
      </trkpt>
      <trkpt lat="43.41441" lon="6.06922">
        <ele>201.80000305176</ele>
        <time>2015-11-25T15:53:40Z</time>
      </trkpt>
      <trkpt lat="43.41448" lon="6.06924">
        <ele>201.60000610352</ele>
        <time>2015-11-25T15:53:42Z</time>
      </trkpt>
      <trkpt lat="43.41455" lon="6.06924">
        <ele>201.19999694824</ele>
        <time>2015-11-25T15:53:44Z</time>
      </trkpt>
      <trkpt lat="43.41458" lon="6.06925">
        <ele>201</ele>
        <time>2015-11-25T15:53:45Z</time>
      </trkpt>
      <trkpt lat="43.41462" lon="6.06927">
        <ele>201</ele>
        <time>2015-11-25T15:53:46Z</time>
      </trkpt>
      <trkpt lat="43.4147" lon="6.06937">
        <ele>201.39999389648</ele>
        <time>2015-11-25T15:53:49Z</time>
      </trkpt>
      <trkpt lat="43.41473" lon="6.0694">
        <ele>201.39999389648</ele>
        <time>2015-11-25T15:53:50Z</time>
      </trkpt>
      <trkpt lat="43.4148" lon="6.06946">
        <ele>201.19999694824</ele>
        <time>2015-11-25T15:53:52Z</time>
      </trkpt>
      <trkpt lat="43.41485" lon="6.06952">
        <ele>201.19999694824</ele>
        <time>2015-11-25T15:53:54Z</time>
      </trkpt>
      <trkpt lat="43.41488" lon="6.06954">
        <ele>201.39999389648</ele>
        <time>2015-11-25T15:53:55Z</time>
      </trkpt>
      <trkpt lat="43.4149" lon="6.06955">
        <ele>201.39999389648</ele>
        <time>2015-11-25T15:53:56Z</time>
      </trkpt>
      <trkpt lat="43.41494" lon="6.0696">
        <ele>201.39999389648</ele>
        <time>2015-11-25T15:53:58Z</time>
      </trkpt>
      <trkpt lat="43.41497" lon="6.06963">
        <ele>200.39999389648</ele>
        <time>2015-11-25T15:54:00Z</time>
      </trkpt>
      <trkpt lat="43.41497" lon="6.06964">
        <ele>200.19999694824</ele>
        <time>2015-11-25T15:54:01Z</time>
      </trkpt>
      <trkpt lat="43.41499" lon="6.06966">
        <ele>200.39999389648</ele>
        <time>2015-11-25T15:54:02Z</time>
      </trkpt>
      <trkpt lat="43.41502" lon="6.06969">
        <ele>200.60000610352</ele>
        <time>2015-11-25T15:54:04Z</time>
      </trkpt>
      <trkpt lat="43.41506" lon="6.06971">
        <ele>201</ele>
        <time>2015-11-25T15:54:06Z</time>
      </trkpt>
      <trkpt lat="43.4151" lon="6.06972">
        <ele>201.60000610352</ele>
        <time>2015-11-25T15:54:08Z</time>
      </trkpt>
      <trkpt lat="43.41516" lon="6.06972">
        <ele>201.60000610352</ele>
        <time>2015-11-25T15:54:10Z</time>
      </trkpt>
      <trkpt lat="43.41524" lon="6.06972">
        <ele>201</ele>
        <time>2015-11-25T15:54:12Z</time>
      </trkpt>
      <trkpt lat="43.41531" lon="6.06971">
        <ele>201</ele>
        <time>2015-11-25T15:54:14Z</time>
      </trkpt>
      <trkpt lat="43.4154" lon="6.06969">
        <ele>201.19999694824</ele>
        <time>2015-11-25T15:54:16Z</time>
      </trkpt>
      <trkpt lat="43.41549" lon="6.06968">
        <ele>201.39999389648</ele>
        <time>2015-11-25T15:54:18Z</time>
      </trkpt>
      <trkpt lat="43.41557" lon="6.06968">
        <ele>201.60000610352</ele>
        <time>2015-11-25T15:54:20Z</time>
      </trkpt>
      <trkpt lat="43.41565" lon="6.06966">
        <ele>202</ele>
        <time>2015-11-25T15:54:22Z</time>
      </trkpt>
      <trkpt lat="43.41571" lon="6.06966">
        <ele>202.39999389648</ele>
        <time>2015-11-25T15:54:24Z</time>
      </trkpt>
      <trkpt lat="43.41573" lon="6.06971">
        <ele>202.19999694824</ele>
        <time>2015-11-25T15:54:26Z</time>
      </trkpt>
      <trkpt lat="43.41574" lon="6.06973">
        <ele>202.19999694824</ele>
        <time>2015-11-25T15:54:27Z</time>
      </trkpt>
      <trkpt lat="43.41574" lon="6.06978">
        <ele>202</ele>
        <time>2015-11-25T15:54:28Z</time>
      </trkpt>
      <trkpt lat="43.41575" lon="6.06986">
        <ele>201.80000305176</ele>
        <time>2015-11-25T15:54:30Z</time>
      </trkpt>
      <trkpt lat="43.41576" lon="6.0699">
        <ele>202</ele>
        <time>2015-11-25T15:54:31Z</time>
      </trkpt>
      <trkpt lat="43.41577" lon="6.07004">
        <ele>202</ele>
        <time>2015-11-25T15:54:34Z</time>
      </trkpt>
      <trkpt lat="43.41578" lon="6.07012">
        <ele>202.19999694824</ele>
        <time>2015-11-25T15:54:36Z</time>
      </trkpt>
      <trkpt lat="43.41579" lon="6.0702">
        <ele>202</ele>
        <time>2015-11-25T15:54:38Z</time>
      </trkpt>
      <trkpt lat="43.41579" lon="6.07026">
        <ele>202.19999694824</ele>
        <time>2015-11-25T15:54:40Z</time>
      </trkpt>
      <trkpt lat="43.4158" lon="6.07032">
        <ele>202.19999694824</ele>
        <time>2015-11-25T15:54:42Z</time>
      </trkpt>
      <trkpt lat="43.41581" lon="6.07035">
        <ele>202.39999389648</ele>
        <time>2015-11-25T15:54:44Z</time>
      </trkpt>
      <trkpt lat="43.41581" lon="6.07035">
        <ele>202.39999389648</ele>
        <time>2015-11-25T15:54:46Z</time>
      </trkpt>
      <trkpt lat="43.41581" lon="6.07035">
        <ele>202.19999694824</ele>
        <time>2015-11-25T15:54:48Z</time>
      </trkpt>
      <trkpt lat="43.41581" lon="6.07035">
        <ele>202</ele>
        <time>2015-11-25T15:54:52Z</time>
      </trkpt>
      <trkpt lat="43.41581" lon="6.07035">
        <ele>202</ele>
        <time>2015-11-25T15:54:54Z</time>
      </trkpt>
      <trkpt lat="43.41581" lon="6.07035">
        <ele>202.19999694824</ele>
        <time>2015-11-25T15:54:56Z</time>
      </trkpt>
      <trkpt lat="43.41581" lon="6.07036">
        <ele>202.19999694824</ele>
        <time>2015-11-25T15:55:00Z</time>
      </trkpt>
      <trkpt lat="43.41581" lon="6.07036">
        <ele>202</ele>
        <time>2015-11-25T15:55:03Z</time>
      </trkpt>
      <trkpt lat="43.41581" lon="6.07036">
        <ele>202</ele>
        <time>2015-11-25T15:55:06Z</time>
      </trkpt>
      <trkpt lat="43.41581" lon="6.07036">
        <ele>202.19999694824</ele>
        <time>2015-11-25T15:55:08Z</time>
      </trkpt>
      <trkpt lat="43.41581" lon="6.07036">
        <ele>202.19999694824</ele>
        <time>2015-11-25T15:55:13Z</time>
      </trkpt>
      <trkpt lat="43.41581" lon="6.07035">
        <ele>202.19999694824</ele>
        <time>2015-11-25T15:55:16Z</time>
      </trkpt>
      <trkpt lat="43.41581" lon="6.07035">
        <ele>202.19999694824</ele>
        <time>2015-11-25T15:55:18Z</time>
      </trkpt>
      <trkpt lat="43.41581" lon="6.07035">
        <ele>202</ele>
        <time>2015-11-25T15:55:20Z</time>
      </trkpt>
      <trkpt lat="43.41581" lon="6.07035">
        <ele>202.39999389648</ele>
        <time>2015-11-25T15:55:28Z</time>
      </trkpt>
      <trkpt lat="43.41581" lon="6.07035">
        <ele>202.19999694824</ele>
        <time>2015-11-25T15:55:32Z</time>
      </trkpt>
      <trkpt lat="43.41581" lon="6.07036">
        <ele>202</ele>
        <time>2015-11-25T15:55:34Z</time>
      </trkpt>
      <trkpt lat="43.41581" lon="6.07036">
        <ele>201.80000305176</ele>
        <time>2015-11-25T15:55:40Z</time>
      </trkpt>
      <trkpt lat="43.41581" lon="6.07036">
        <ele>202.39999389648</ele>
        <time>2015-11-25T15:55:48Z</time>
      </trkpt>
    </trkseg>
  </trk>
</gpx>